GFSSGP_sfc_wetblb_000.txt.gz
Wetbulb
63.73 63.63 62.23 59.36 48.66 46.14 42.97 44.33 46.73 46.67 45.63 48.02 50.77 48.87 46.89 48.94 48.68 44.31 54.27 57.09 60.37 60.05 63.79 63.75 65.83 66.78 67.27 67.70 68.49 68.65 69.15 69.59 69.95 70.57 70.18 69.79 69.88 70.09 70.02 69.63 69.50 69.88 70.55 71.03 71.29 71.49 71.32 71.20 71.58
60.75 61.56 59.59 55.73 45.01 41.99 42.49 46.19 44.77 47.33 48.65 49.16 49.22 49.29 46.70 46.33 52.33 50.97 50.95 55.80 59.11 59.62 61.15 61.51 64.59 64.56 65.60 66.63 66.44 66.75 67.56 67.39 68.30 68.27 68.52 67.52 66.38 66.64 67.26 67.52 67.12 67.51 68.01 68.58 69.08 69.14 68.51 68.70 69.51
60.61 60.31 54.54 50.41 46.13 41.67 41.57 44.67 45.99 47.66 48.25 47.13 45.73 47.18 47.80 48.11 52.00 51.60 52.15 55.68 57.82 57.99 59.51 60.83 63.35 63.09 63.86 64.03 63.80 64.16 65.40 65.05 65.78 66.47 65.06 64.27 65.11 65.18 64.98 64.68 64.30 64.55 65.16 66.11 66.95 66.87 66.20 65.96 66.87
58.24 55.46 52.94 43.60 42.43 44.88 43.89 44.99 48.08 47.03 46.16 47.40 46.72 43.91 47.19 49.65 51.05 52.35 52.30 55.05 55.77 56.80 57.86 60.15 61.64 61.56 61.65 61.56 61.39 61.37 62.00 62.01 63.34 62.06 61.17 60.50 61.01 60.64 60.68 60.52 60.38 60.48 60.99 61.92 64.04 63.78 63.27 63.23 63.78
55.68 53.54 46.00 43.98 44.48 44.18 46.09 47.34 47.94 46.91 46.88 46.77 46.13 44.21 45.56 49.05 51.65 49.95 49.42 53.09 54.42 54.68 55.21 56.13 59.56 59.84 59.89 59.72 59.79 59.42 58.90 58.97 59.56 58.92 58.03 57.40 57.40 57.32 57.44 57.57 57.84 58.05 58.13 58.48 59.58 59.03 58.89 59.20 60.28
50.80 50.60 43.44 41.77 44.71 46.06 46.30 47.20 46.61 46.77 47.72 46.27 45.55 44.64 45.91 49.71 48.98 48.35 48.16 48.41 52.40 53.32 54.09 54.01 56.48 57.65 57.64 57.50 57.80 57.57 57.30 56.76 56.29 55.79 55.57 55.09 55.15 55.30 55.26 55.97 56.38 56.72 56.79 56.99 57.20 57.09 56.92 57.21 57.47
49.68 48.39 44.53 44.88 44.94 45.58 47.16 48.61 45.44 46.51 46.96 46.12 46.82 43.63 44.32 46.55 48.54 48.73 46.73 46.55 48.07 49.72 51.03 51.03 50.97 52.78 54.65 54.08 54.64 55.32 55.28 54.80 53.68 53.08 52.56 52.55 52.18 52.39 52.66 52.70 54.50 54.97 55.00 55.57 55.90 56.00 56.13 56.05 55.86
49.91 47.74 43.86 44.30 43.71 44.29 46.79 47.03 46.40 46.60 46.40 48.35 48.94 43.83 43.79 46.81 48.57 47.43 46.27 45.37 45.40 46.72 47.54 47.45 47.82 49.39 48.35 47.85 52.44 53.11 52.96 52.35 51.09 50.41 49.44 48.59 51.19 50.95 50.73 49.55 51.51 52.78 52.97 53.89 54.19 54.42 54.51 54.38 54.97
53.64 43.87 42.66 45.58 44.47 44.95 46.76 44.83 46.83 45.44 43.72 45.49 48.20 45.32 45.36 48.74 46.97 44.69 43.63 43.94 44.34 45.88 45.70 46.22 46.20 46.24 47.20 46.77 48.71 50.31 50.58 49.83 49.73 49.10 48.84 50.32 45.81 45.28 46.69 48.97 50.19 51.17 51.43 52.40 53.03 53.25 53.10 53.00 52.80
48.21 45.24 46.03 46.93 46.53 44.95 46.63 46.23 46.25 43.47 43.91 44.64 45.49 47.11 46.86 46.69 43.99 42.88 42.23 42.22 42.70 42.79 43.57 44.43 44.92 44.83 45.44 46.04 44.74 44.98 45.89 45.03 45.32 45.70 45.07 45.37 44.87 44.17 46.81 48.61 50.78 49.83 49.95 50.39 50.91 51.26 50.95 49.38 46.11
48.99 44.87 48.28 47.38 48.34 47.74 46.63 45.93 47.47 44.82 43.50 46.15 45.70 47.02 44.79 44.44 43.01 43.20 43.47 43.56 43.55 43.08 43.26 43.68 44.36 44.33 43.64 42.32 44.23 43.77 43.92 43.43 43.66 43.58 43.52 43.98 44.34 43.12 42.84 42.66 42.79 42.96 46.57 43.21 44.07 43.96 44.16 44.02 44.42
45.18 49.25 49.65 50.04 48.29 46.61 44.95 46.74 45.75 45.85 46.42 47.95 46.31 46.92 45.41 44.76 43.42 43.56 44.07 44.82 44.01 44.00 43.35 42.80 43.37 43.42 43.56 43.55 43.39 43.34 42.98 42.89 42.41 42.15 42.25 41.86 41.37 40.62 40.41 40.54 40.79 40.55 40.82 39.77 39.92 40.67 42.07 42.20 43.36
46.58 47.60 49.29 49.20 47.87 46.56 47.99 45.68 45.15 45.57 47.93 49.39 49.32 47.27 45.52 44.94 44.72 44.70 45.33 45.73 45.04 44.25 43.77 42.35 42.04 42.22 43.65 42.56 42.32 42.49 41.26 42.03 41.73 41.34 40.42 40.49 39.76 38.72 39.23 39.12 39.19 38.82 38.81 38.30 37.98 38.86 39.59 40.08 41.66
47.43 47.43 47.36 48.13 47.85 47.73 45.34 44.59 45.10 46.21 48.73 48.45 48.73 45.95 45.51 45.85 45.77 44.97 44.80 45.43 46.01 45.34 43.63 42.41 42.11 42.15 42.90 41.85 41.57 41.57 41.27 41.02 40.80 40.27 38.83 39.22 38.75 37.07 37.51 37.73 37.95 37.71 37.47 37.30 37.36 37.64 37.71 38.38 39.87
46.80 42.67 45.40 46.54 46.86 45.49 45.31 41.96 42.93 47.25 47.16 46.31 46.71 46.91 46.43 46.28 46.42 46.15 46.62 45.71 46.70 45.94 43.61 42.09 41.49 42.28 41.39 41.32 41.62 41.09 40.60 40.77 39.59 39.30 38.73 37.90 38.04 36.68 36.18 36.28 36.03 36.45 36.65 36.43 36.31 36.84 37.16 37.01 38.59
42.20 42.37 38.32 44.90 46.40 44.79 43.92 37.74 45.39 47.65 46.55 46.18 45.08 44.84 45.99 46.63 46.97 46.90 46.36 46.19 45.75 44.45 42.69 41.95 43.21 41.91 40.55 40.17 40.46 40.58 38.99 38.68 38.10 38.09 37.63 37.45 37.43 36.52 35.10 34.89 34.98 35.56 35.47 35.00 34.87 34.89 34.86 35.18 35.73
41.88 36.83 39.37 42.95 46.56 43.75 41.77 38.74 45.09 44.42 43.80 44.02 44.06 44.81 45.75 46.35 47.09 46.74 46.06 45.06 44.39 43.42 41.93 40.93 40.28 40.18 39.87 39.88 39.53 38.99 38.23 37.24 36.90 36.18 36.10 36.49 36.68 36.55 34.98 34.32 34.15 34.76 34.29 33.95 34.45 34.21 33.85 33.26 34.07
37.10 37.44 40.40 39.57 42.94 42.60 39.66 39.55 43.62 45.20 44.47 44.27 45.68 46.05 45.96 46.28 46.50 47.08 45.84 45.38 44.59 42.62 41.07 40.49 40.12 39.30 39.35 38.75 37.58 37.16 36.74 36.02 35.43 34.78 35.36 35.72 35.57 35.84 34.18 33.49 33.66 34.07 33.16 33.09 33.57 32.70 33.33 33.25 33.66
42.57 40.57 39.26 42.71 44.43 41.39 40.33 41.15 43.06 44.48 44.87 44.58 45.50 46.22 45.63 45.07 46.13 47.00 46.44 44.53 43.28 41.65 40.26 39.92 38.86 38.61 39.40 37.37 35.39 34.29 34.76 34.25 33.62 34.79 35.38 35.12 35.04 34.96 33.38 32.44 32.48 32.59 31.60 31.91 32.62 32.47 32.14 31.87 33.23
40.16 38.36 38.65 42.11 43.64 40.16 39.28 39.49 42.68 43.14 44.26 45.57 45.45 45.67 45.20 43.42 44.16 43.66 43.14 42.81 42.69 40.93 39.89 39.46 39.10 38.76 38.99 38.02 36.32 34.92 34.93 34.13 34.01 34.89 34.58 35.00 34.29 33.83 33.07 31.66 31.17 31.32 30.36 31.14 31.39 31.74 30.94 31.37 32.44
39.56 37.24 37.97 38.33 40.84 38.81 36.07 35.04 38.16 41.67 44.30 44.66 45.02 45.86 43.78 43.55 43.70 41.67 41.57 41.71 41.03 39.88 39.63 39.38 39.20 38.87 38.72 37.28 36.42 33.82 33.46 32.88 31.64 32.29 32.29 33.36 33.70 33.00 32.57 31.66 30.87 30.54 30.52 29.66 30.30 30.14 29.97 28.44 29.98
36.51 41.22 40.16 39.58 35.56 30.87 36.67 30.99 36.52 38.78 40.86 41.53 43.23 44.38 41.60 42.65 43.75 42.39 40.99 39.94 40.02 39.73 39.45 39.41 39.20 38.64 38.37 36.95 35.42 33.15 31.48 29.62 30.89 32.56 32.56 32.52 32.94 32.22 32.22 31.81 30.96 30.15 29.93 29.29 29.82 31.52 29.36 28.66 27.31
37.95 38.31 36.76 36.37 34.13 32.32 33.05 30.35 34.23 39.55 37.99 39.94 42.19 44.55 43.14 43.97 43.06 41.21 40.51 41.00 40.54 39.25 38.92 38.82 38.24 38.14 37.94 36.73 35.24 32.85 30.39 31.22 32.32 32.34 30.53 29.85 30.56 31.23 30.49 30.77 29.82 28.81 28.76 29.23 29.12 28.95 28.74 28.64 27.68
38.84 36.33 35.52 33.50 31.88 26.16 32.80 33.03 31.07 35.65 38.67 39.64 41.63 43.01 43.04 41.80 40.86 40.84 40.27 40.08 39.76 38.56 37.80 38.40 37.76 37.51 37.11 35.80 34.05 33.09 32.04 31.35 30.44 28.47 28.56 28.64 28.99 28.88 29.35 29.84 28.41 28.02 27.72 27.72 28.27 28.13 27.76 27.19 27.53
36.16 33.57 25.41 24.35 23.16 27.34 35.04 31.10 36.83 39.02 40.13 41.19 41.32 41.99 41.94 41.92 39.86 39.27 38.51 38.16 37.86 37.20 37.34 37.38 37.04 36.31 35.92 34.49 33.47 32.93 32.61 31.74 30.55 29.80 29.02 27.85 26.88 26.56 26.93 27.46 27.28 26.36 26.51 26.79 26.81 26.38 26.06 26.08 25.80
33.74 35.23 27.40 20.19 24.95 29.96 28.36 27.74 35.07 41.72 43.26 42.53 42.73 42.10 42.26 41.00 40.53 39.29 38.81 38.27 37.93 37.49 36.74 36.66 36.15 35.68 35.03 33.78 32.78 32.88 32.21 32.82 31.51 30.51 29.67 27.32 26.30 26.35 26.67 25.90 25.54 25.56 25.79 25.08 25.15 24.80 25.01 25.23 25.45
34.82 30.89 36.78 28.77 23.23 24.21 32.28 35.27 39.42 41.26 41.37 40.93 40.36 39.94 39.74 40.04 40.34 40.04 39.39 38.30 37.00 36.92 36.46 36.29 36.04 35.63 34.95 33.72 32.82 32.32 32.31 30.22 29.62 27.87 26.89 25.87 25.36 26.67 25.13 24.69 23.89 24.13 24.12 24.22 23.60 23.30 23.69 24.35 24.68
34.21 36.23 28.75 29.48 18.68 17.10 29.76 30.67 34.70 38.99 41.13 39.55 38.16 38.53 39.37 39.91 39.95 39.67 39.45 38.52 38.17 37.57 36.96 36.40 36.09 35.10 34.65 33.17 32.50 31.90 30.76 28.56 27.64 26.31 25.12 24.53 24.16 23.91 23.17 23.10 22.88 22.83 22.81 22.50 22.09 22.24 23.11 22.87 23.28
29.80 30.19 32.02 33.07 30.73 23.07 24.47 31.25 36.49 37.81 38.83 39.18 39.00 39.42 40.18 40.60 39.56 39.28 39.15 38.81 37.81 36.79 36.19 35.35 34.89 34.04 33.16 31.50 30.96 29.72 28.48 27.28 26.17 25.62 24.49 23.66 23.41 22.77 22.15 21.99 21.64 21.33 20.97 21.27 20.40 20.50 20.45 19.19 19.45
35.90 34.67 35.37 29.91 28.04 27.15 30.55 31.75 40.69 38.71 39.13 39.26 39.44 41.21 41.26 41.65 41.64 40.63 39.56 38.02 37.16 36.66 35.19 34.53 34.18 33.48 32.74 30.92 29.66 28.39 26.81 25.96 24.95 23.85 23.30 23.02 21.77 21.73 21.05 20.52 20.08 19.78 19.64 19.34 18.78 17.69 18.02 16.79 16.50

GFSSGP_sfc_wetblb_003.txt.gz
Wetbulb
60.24 60.32 57.28 54.69 44.61 40.72 37.39 41.30 42.45 43.20 42.57 44.31 47.48 46.56 45.97 46.47 46.67 42.31 53.52 58.25 60.21 62.41 63.93 65.40 68.31 68.59 68.89 69.44 70.45 71.00 70.92 71.22 71.50 71.06 70.23 69.80 68.86 69.00 69.19 68.69 68.42 68.91 69.66 70.05 70.73 70.01 69.62 69.71 70.45
57.39 59.08 55.18 49.65 40.60 35.82 37.99 40.66 41.94 43.68 45.28 45.60 47.21 46.09 46.00 44.09 49.78 50.44 50.66 57.60 59.04 60.97 61.49 62.56 66.84 67.42 68.35 68.03 68.32 68.85 68.82 68.84 69.30 69.28 68.36 67.35 66.82 67.48 67.47 67.14 66.66 66.96 67.66 68.44 68.46 67.73 66.96 67.13 68.18
57.29 57.57 50.10 45.16 39.65 36.57 37.00 41.07 42.35 44.00 44.66 44.47 43.60 45.10 44.53 46.61 48.44 50.26 51.37 56.45 57.61 58.28 60.05 62.64 65.69 66.26 66.54 66.59 66.85 67.62 67.35 67.07 67.70 66.76 65.91 65.97 65.48 64.91 64.34 63.71 63.02 63.10 63.68 65.26 66.07 65.20 64.63 64.52 65.21
53.60 51.01 47.12 39.52 37.70 40.57 39.94 40.85 43.95 43.96 43.84 44.52 45.17 41.67 44.76 48.39 50.62 50.52 53.06 56.08 55.49 56.95 59.00 62.87 64.27 64.62 64.33 64.30 64.93 65.62 65.28 66.24 64.09 63.19 62.59 62.76 62.02 61.46 60.59 60.08 59.82 60.00 60.16 61.08 61.47 60.70 60.24 60.37 61.25
50.72 47.40 41.35 37.97 39.16 41.13 41.16 45.14 44.68 43.74 43.26 43.53 44.13 41.89 43.41 46.99 48.59 50.50 52.29 54.85 54.00 54.49 55.94 58.64 63.05 62.73 62.66 62.45 62.30 62.14 62.36 63.14 61.34 60.34 59.43 59.07 58.48 58.36 58.44 58.53 58.57 58.51 58.64 58.93 59.06 58.86 58.70 58.59 58.70
46.03 44.73 37.62 36.09 39.48 42.27 42.41 45.58 45.08 43.74 43.49 43.19 42.57 41.01 43.79 46.95 46.18 46.55 49.20 52.61 53.87 53.30 54.05 55.59 60.07 61.59 61.25 61.10 60.75 60.27 60.12 59.87 58.95 58.17 57.38 57.05 56.68 56.43 56.51 56.73 56.99 56.96 57.17 57.47 57.92 57.63 57.65 57.42 57.35
45.66 42.81 39.17 39.16 41.18 42.29 43.33 44.12 42.97 43.67 43.17 43.56 44.92 42.36 41.61 43.93 45.65 45.48 45.91 48.52 52.04 52.73 51.81 51.50 52.71 56.26 58.86 59.66 59.50 58.94 58.33 57.37 56.75 56.15 55.13 54.35 54.08 53.99 53.04 53.82 55.29 55.50 56.18 56.43 56.54 56.50 56.21 56.26 56.52
45.65 42.37 38.08 37.69 39.83 41.42 43.83 44.21 44.33 43.82 44.28 45.22 46.76 42.57 41.72 44.07 46.15 44.71 43.85 44.22 47.01 49.10 49.83 49.13 49.25 49.74 49.02 50.50 57.09 57.22 56.28 54.89 53.72 53.21 52.76 52.97 52.32 52.14 51.11 50.94 53.15 54.03 54.88 55.21 55.22 55.26 54.96 53.60 53.87
48.41 39.17 36.65 40.20 41.02 41.61 43.48 42.56 43.66 44.13 42.33 43.90 46.79 44.31 44.60 45.67 44.73 42.41 40.85 41.27 43.11 46.03 46.25 46.60 46.95 46.84 46.25 47.28 51.28 54.40 54.12 52.17 51.77 50.76 51.15 50.43 44.02 44.75 46.49 50.56 51.55 52.23 52.66 52.69 52.73 52.74 51.77 51.22 50.86
44.48 39.26 41.61 44.39 42.59 41.97 43.60 43.36 43.87 41.66 41.64 42.12 43.38 42.69 44.79 44.00 43.22 41.80 40.06 40.68 40.44 42.14 43.41 45.20 44.33 44.66 45.12 47.75 46.50 45.12 46.63 45.25 45.02 45.02 43.84 44.43 42.77 44.06 46.36 49.01 50.05 49.59 49.08 49.55 49.94 49.97 49.06 46.88 43.84
44.25 40.51 44.69 45.23 45.56 44.32 43.94 42.37 44.62 42.61 40.84 42.70 43.38 44.05 43.09 41.36 41.47 41.66 41.70 41.59 42.32 42.14 42.36 43.91 44.15 43.00 43.46 42.84 43.29 42.41 42.45 41.90 42.59 42.16 42.62 42.87 42.49 41.63 41.62 41.04 41.19 41.05 43.91 40.32 41.67 41.40 41.76 41.22 41.58
42.88 46.28 46.83 47.73 47.00 44.78 42.87 44.38 43.56 43.45 46.15 46.85 46.08 45.56 43.14 40.85 41.37 41.58 41.37 41.61 40.92 40.88 43.06 42.36 42.85 42.71 41.52 41.60 42.86 41.61 41.60 41.17 41.07 40.95 41.82 41.02 39.77 38.89 39.05 38.86 38.74 38.33 38.22 37.12 37.51 38.32 39.39 39.64 40.67
43.79 44.53 46.75 47.15 46.33 45.39 45.46 44.16 43.07 43.50 45.33 46.05 46.53 45.87 43.16 42.73 42.19 42.39 42.94 42.63 42.43 41.73 42.01 41.82 42.08 41.90 41.91 41.68 41.48 41.03 40.68 40.71 40.47 39.12 39.89 39.99 38.57 37.28 37.90 37.45 37.27 36.53 36.57 36.25 36.10 36.79 37.49 37.87 39.41
43.76 44.81 44.42 45.23 45.89 45.38 44.46 42.20 43.57 44.38 45.73 45.56 46.17 44.97 42.93 43.60 43.06 41.18 40.37 42.09 42.67 43.62 42.05 41.65 42.12 41.73 42.13 40.61 40.12 40.49 39.88 40.02 39.67 37.66 37.60 38.79 37.59 36.12 36.69 36.31 36.26 35.58 35.49 35.51 35.51 35.59 35.65 36.12 37.40
44.15 41.71 42.14 44.78 44.16 43.57 44.20 41.07 41.28 47.19 44.48 44.69 44.58 44.82 44.24 43.59 43.05 42.90 43.37 43.10 44.09 44.22 42.57 41.16 41.30 41.13 41.79 40.46 40.01 40.36 39.31 39.68 38.17 37.03 36.76 37.00 36.83 35.60 35.35 35.04 34.64 34.37 34.92 34.80 34.86 34.83 35.23 34.94 36.32
39.27 37.80 35.59 41.52 42.80 43.44 43.38 37.85 43.15 45.04 42.96 43.30 44.58 42.94 43.10 43.74 44.76 45.35 44.90 43.93 43.70 42.53 41.22 41.29 42.86 41.30 40.82 40.17 39.20 39.85 38.40 37.49 37.30 36.35 35.68 36.11 36.31 35.49 34.09 33.94 33.69 33.99 33.99 33.65 33.40 33.25 33.40 33.15 33.56
35.70 32.48 34.62 39.50 43.75 41.81 40.15 37.90 42.58 44.14 42.57 43.05 41.68 41.85 44.04 45.48 43.40 45.89 44.73 44.27 43.69 43.84 41.72 40.22 40.91 39.92 39.83 38.20 38.33 37.55 36.61 36.22 35.91 35.18 34.48 34.95 35.40 35.23 33.67 33.28 33.09 33.66 33.09 32.75 33.19 32.64 32.08 31.54 32.24
32.09 32.75 36.14 36.23 39.54 39.12 37.35 39.17 43.10 42.92 41.29 41.31 41.38 41.44 41.70 44.27 45.98 45.92 44.41 44.67 44.45 43.60 41.61 40.41 40.04 39.25 38.82 38.51 36.69 35.69 34.87 34.13 33.68 33.33 33.80 34.25 34.13 34.34 32.93 32.44 32.89 33.14 32.27 32.07 32.06 31.17 31.82 31.63 31.74
36.66 35.04 34.20 39.79 42.24 40.17 40.36 39.98 42.46 43.84 41.37 40.76 41.74 43.67 45.11 44.26 45.87 44.03 44.70 44.91 43.26 40.89 39.58 38.78 38.45 38.80 39.14 37.91 35.73 34.66 34.15 32.30 31.78 32.38 33.48 33.31 33.20 33.53 32.32 32.14 32.01 32.13 31.50 31.51 32.07 31.69 31.15 30.87 31.55
37.67 35.82 35.26 39.45 40.35 38.86 38.39 39.02 41.49 40.50 42.49 43.96 43.91 44.16 45.23 43.00 42.61 42.75 41.65 41.05 41.18 39.08 39.16 38.57 38.73 38.52 38.93 38.68 37.79 34.00 33.99 31.41 32.03 32.58 32.50 33.03 32.94 32.93 32.45 31.82 31.05 31.02 30.33 30.88 30.90 30.88 29.73 30.21 30.62
38.21 35.92 36.92 36.14 38.73 37.48 35.27 33.76 36.90 40.00 40.94 43.41 44.57 44.95 45.25 42.60 41.45 40.15 38.95 40.13 39.69 38.23 37.49 38.16 38.37 38.48 38.55 37.74 35.62 32.47 32.41 31.23 30.34 31.12 31.38 31.97 32.48 32.42 31.77 30.88 30.42 30.03 30.02 29.31 29.64 29.27 29.27 27.98 28.63
36.19 39.16 38.92 36.41 33.27 31.68 33.97 30.08 34.68 37.18 38.48 39.97 42.36 43.92 41.53 39.55 40.88 39.86 39.37 37.33 38.49 38.46 38.33 38.71 38.01 37.96 37.74 36.26 35.84 33.15 34.21 32.00 33.10 33.44 32.37 31.50 32.03 31.36 31.45 30.94 30.20 29.69 29.56 29.05 29.08 30.50 28.79 28.24 26.87
37.97 37.88 35.96 33.69 31.69 29.82 31.35 28.64 31.68 36.60 35.87 39.41 42.33 43.91 43.23 39.85 40.86 39.82 40.12 41.50 39.34 37.99 37.85 37.80 37.35 37.30 37.12 36.46 36.30 33.90 33.22 33.65 30.39 30.77 30.46 30.47 29.80 30.53 30.16 30.30 29.39 28.59 28.47 28.91 29.09 28.42 27.98 28.04 27.31
37.71 34.25 33.40 31.30 29.37 26.18 30.22 30.90 31.67 32.98 36.96 38.10 41.76 43.19 43.89 40.36 39.96 40.66 39.91 38.57 37.51 36.73 36.97 36.71 36.15 36.37 36.81 36.01 35.36 34.09 32.51 29.89 29.81 30.45 30.10 29.76 29.48 28.88 28.80 29.28 27.84 27.71 27.69 27.88 28.03 27.88 27.35 26.74 26.64
34.52 31.67 23.82 22.19 20.40 25.62 32.52 28.05 35.50 37.09 38.79 40.16 41.73 42.51 43.17 40.11 38.81 37.23 36.77 37.60 36.68 34.87 35.96 36.19 35.85 35.40 35.71 35.57 34.12 34.01 32.85 31.91 30.65 30.58 30.59 28.78 28.21 26.14 27.03 27.05 26.70 26.09 26.26 27.07 26.90 26.31 25.91 25.85 25.41
32.15 33.57 25.30 18.28 22.50 29.37 25.93 25.81 34.07 39.73 41.85 41.14 42.22 43.26 39.93 38.92 38.50 38.01 37.32 37.16 36.26 36.30 35.04 36.12 34.89 35.04 34.60 34.78 33.56 33.46 31.93 32.58 31.65 31.16 30.65 30.13 29.45 27.90 26.68 26.01 25.66 25.52 25.69 25.31 25.43 24.69 24.84 24.95 25.58
32.45 30.16 36.23 27.22 16.33 21.12 31.55 33.38 37.75 39.50 39.81 39.78 40.38 36.32 38.85 38.70 37.39 37.59 35.85 36.40 35.65 35.45 35.52 35.97 35.22 35.61 34.30 34.19 33.54 32.44 31.89 32.27 31.06 30.11 29.64 29.20 28.22 27.47 25.83 25.50 24.41 24.22 24.29 24.36 23.91 23.62 23.78 24.42 25.33
34.18 34.72 27.64 27.36 19.43 17.28 29.24 26.68 33.51 37.46 40.52 41.40 38.51 37.27 37.74 37.78 37.86 37.38 36.43 35.94 35.77 36.28 36.13 35.68 36.00 35.41 34.43 33.68 33.22 32.37 31.88 32.49 31.28 28.86 28.15 26.83 26.50 26.08 24.77 23.66 23.32 23.12 23.20 23.11 22.89 22.99 23.53 23.23 23.82
31.49 30.71 31.73 31.72 28.51 26.57 24.68 30.58 36.73 34.64 38.20 39.83 38.13 37.16 37.26 38.30 37.84 38.08 37.93 37.59 37.09 35.82 35.17 34.87 34.27 33.61 33.10 32.14 32.31 31.68 30.72 30.52 29.20 28.96 27.85 26.39 25.65 24.52 23.60 23.16 22.71 22.45 21.81 21.98 21.37 21.54 21.55 20.36 20.03
34.93 33.13 33.67 29.46 26.49 26.42 29.07 31.22 40.75 36.51 36.87 37.37 37.85 38.87 37.32 38.90 39.49 37.76 38.26 37.10 34.74 35.38 34.39 34.11 33.91 33.60 33.58 32.18 30.68 30.72 28.99 28.18 27.99 27.60 25.39 24.66 24.37 23.41 22.98 22.32 21.69 21.17 20.83 20.22 20.06 18.72 19.48 18.43 17.81

GFSSGP_sfc_wetblb_006.txt.gz
Wetbulb
60.00 57.07 56.56 53.45 43.59 39.73 36.04 40.45 40.86 41.89 41.21 43.01 46.02 45.11 45.09 45.73 45.76 41.36 52.78 58.99 62.05 63.10 65.18 66.97 69.91 70.07 70.59 71.55 71.61 71.74 71.95 71.66 71.33 70.60 69.82 69.21 69.08 69.60 69.02 68.64 68.80 69.31 69.68 69.54 69.28 68.31 67.73 67.97 69.07
55.95 57.52 53.86 47.43 39.94 34.43 36.50 40.48 41.77 43.01 43.91 44.64 44.70 44.96 43.19 44.04 48.56 50.32 53.49 59.07 61.83 62.42 62.83 64.63 68.51 68.99 68.89 68.84 68.87 70.12 69.84 69.96 69.04 68.75 68.13 67.59 67.87 68.32 67.79 66.71 66.26 66.52 67.03 68.21 67.96 66.62 65.80 65.60 66.39
55.75 55.72 49.82 43.86 37.55 35.52 36.47 40.32 41.24 42.58 42.97 43.52 42.42 43.80 44.77 45.59 47.78 50.29 51.78 57.30 60.31 59.56 60.86 63.11 67.57 68.47 68.38 68.14 68.43 68.52 68.50 68.61 68.54 67.58 66.61 66.36 65.69 65.01 64.11 63.05 62.40 62.33 63.25 64.30 63.22 62.26 61.66 61.54 62.55
52.44 49.40 45.33 39.74 37.50 40.46 40.09 41.17 42.71 42.48 42.57 43.22 42.95 43.43 44.02 47.98 49.41 51.24 53.52 57.16 57.56 57.71 59.90 64.03 66.67 67.30 67.25 67.10 67.47 67.06 66.97 67.31 66.34 65.47 65.10 63.93 63.02 61.54 60.58 60.45 60.14 60.08 60.55 60.59 60.26 59.92 59.71 59.36 59.36
48.93 45.83 40.03 36.80 37.19 39.82 41.65 42.88 43.12 42.68 41.53 42.62 43.43 41.09 42.77 46.15 48.65 50.81 54.98 56.10 55.88 56.15 58.44 61.01 65.87 65.70 65.46 66.02 66.65 66.16 66.66 64.65 63.44 62.65 61.94 60.76 59.79 59.32 59.12 58.95 58.78 58.67 58.78 58.95 58.83 58.57 58.23 57.84 57.91
45.16 43.08 36.66 35.00 37.40 41.77 41.35 43.64 42.70 42.19 41.79 41.45 41.52 40.04 43.04 44.74 47.76 50.10 52.88 52.95 55.27 55.08 56.04 58.49 62.53 63.94 64.17 64.01 63.90 63.88 64.40 62.42 61.35 60.15 59.54 58.89 58.33 57.94 57.76 57.59 57.21 57.48 57.54 57.59 57.74 57.38 57.04 57.15 57.37
43.71 41.38 37.45 36.63 39.33 41.08 42.44 43.57 41.65 42.17 41.52 42.81 42.54 41.54 42.39 42.14 45.95 47.67 50.43 51.66 52.87 53.53 53.52 54.15 56.37 59.48 61.98 62.40 62.17 61.97 61.74 60.73 59.68 58.57 57.96 57.09 56.22 55.14 55.33 55.89 55.91 56.65 56.87 56.99 56.70 56.32 54.79 54.76 54.89
44.75 40.99 36.45 36.20 37.61 40.27 42.05 42.26 42.59 42.96 43.34 43.47 45.77 41.92 41.75 43.56 45.11 44.70 46.49 49.52 50.52 50.82 51.37 51.06 51.61 52.83 53.13 55.73 59.99 60.25 59.90 58.77 58.04 56.75 56.10 55.42 53.94 52.43 52.93 53.09 54.48 55.86 55.72 55.23 54.75 53.60 52.81 52.42 52.57
46.09 37.33 34.80 37.71 39.07 40.94 41.90 41.25 42.71 42.51 41.44 42.64 45.62 43.01 43.49 44.26 43.49 41.62 40.65 42.50 47.49 49.43 49.59 49.08 49.15 48.77 48.73 50.03 53.88 57.50 57.64 56.96 56.26 55.02 54.39 50.79 44.38 45.33 46.92 52.45 52.85 53.20 52.96 52.84 52.62 51.55 50.21 48.89 49.36
43.22 36.66 38.53 42.36 42.02 40.94 42.36 42.41 41.99 40.37 41.14 41.19 42.95 43.07 43.43 43.43 42.47 41.72 39.93 40.64 45.00 46.59 46.55 48.14 47.56 46.63 45.85 49.76 49.46 48.66 49.06 46.99 45.76 45.07 45.83 42.95 41.94 42.92 46.52 49.42 50.69 49.69 49.25 49.64 49.91 48.71 47.29 44.25 41.04
43.17 39.50 42.76 44.85 44.61 43.82 42.90 41.12 43.45 41.17 40.76 42.17 43.03 43.99 42.33 40.99 41.42 42.05 41.94 42.35 42.98 46.01 45.58 46.76 46.14 45.43 44.17 45.85 45.00 43.64 43.35 42.81 42.88 41.91 42.24 41.85 42.27 42.32 40.72 40.03 39.93 39.07 41.97 38.29 39.95 39.22 39.24 38.87 39.35
40.79 44.52 44.66 46.35 46.26 43.42 42.35 42.72 41.93 41.82 46.51 45.73 44.99 43.39 41.85 40.91 41.37 41.92 41.69 41.77 40.91 40.80 43.69 44.58 44.56 44.22 42.85 41.84 43.40 41.85 41.97 40.73 40.73 40.68 41.51 40.07 38.87 38.43 38.17 37.94 37.41 36.64 36.37 35.62 35.99 36.57 37.48 37.49 38.68
42.60 43.48 45.54 45.98 45.48 43.78 43.94 43.37 42.66 42.86 44.78 44.93 45.06 43.98 42.04 42.65 42.40 43.00 43.40 42.59 40.79 39.82 42.35 42.57 43.39 43.09 43.05 40.99 41.21 40.27 40.10 41.01 40.34 39.51 40.68 39.72 37.91 37.12 37.19 36.60 36.11 34.97 35.21 34.85 34.54 35.26 35.68 36.17 37.22
42.00 43.72 43.68 44.00 44.72 44.16 43.54 42.33 43.18 46.37 43.96 44.49 44.79 44.47 42.28 42.59 43.00 42.03 39.86 41.70 40.87 41.95 41.52 41.91 43.02 42.60 42.23 40.65 40.77 40.89 39.99 39.75 39.22 37.59 38.51 38.97 37.32 36.29 36.20 35.53 35.22 34.31 34.31 34.12 34.39 34.22 34.39 34.45 35.60
42.62 40.91 40.97 43.07 42.59 42.26 42.22 39.88 40.04 47.11 42.73 43.84 43.63 43.24 43.40 42.71 43.23 42.72 43.75 42.92 42.81 42.77 42.50 41.05 42.31 41.86 41.36 41.02 40.73 40.05 39.82 40.01 38.42 36.57 36.95 37.44 36.57 35.69 35.00 34.70 33.83 33.61 33.88 33.91 33.52 33.72 33.86 33.24 34.66
37.74 37.08 34.52 39.99 40.87 41.84 41.93 37.43 42.72 45.05 42.43 43.58 43.29 42.33 42.33 43.83 43.60 45.15 44.98 43.62 42.75 42.95 41.51 41.72 43.28 41.38 41.51 41.06 40.51 40.37 39.33 38.87 37.89 35.67 35.24 36.20 35.90 35.21 33.95 33.54 32.97 33.20 33.01 32.78 32.48 32.42 31.87 31.88 32.17
33.18 31.27 32.31 37.16 41.86 40.67 39.29 37.74 42.74 42.39 41.36 41.69 42.61 41.47 42.44 44.03 43.57 44.15 44.59 43.47 42.19 43.31 42.50 41.10 41.65 40.71 41.04 39.60 39.81 38.63 37.58 37.71 37.18 35.09 34.04 34.52 35.11 34.74 33.33 32.88 32.43 32.91 32.36 32.07 32.76 31.24 31.15 30.53 31.18
31.59 30.35 33.19 34.52 38.17 37.82 36.69 38.05 43.17 43.21 40.67 40.17 41.12 39.95 39.76 41.50 44.40 47.17 43.63 44.26 43.67 43.22 42.57 41.85 41.04 40.39 40.31 39.22 36.56 35.40 35.94 35.01 35.78 34.42 33.48 33.79 33.83 33.91 32.50 32.12 32.20 32.38 31.55 31.27 31.00 30.39 31.00 30.75 30.63
33.62 32.69 32.75 36.21 40.18 37.54 37.34 38.83 41.56 44.64 41.27 38.93 41.16 43.38 44.76 45.32 47.69 44.97 43.31 43.38 42.36 41.71 40.96 40.08 39.49 39.04 39.64 38.02 36.77 35.65 36.05 34.47 32.47 33.08 33.78 33.15 33.02 32.93 31.83 31.22 31.28 31.30 30.52 30.49 30.63 30.67 30.09 29.78 30.07
36.85 35.37 35.20 38.54 39.82 36.19 37.57 37.51 41.18 41.44 43.34 44.01 43.70 43.96 43.91 44.87 46.41 41.45 41.31 40.11 40.63 41.03 40.25 39.21 39.44 38.50 39.88 39.93 39.38 37.23 35.53 31.42 34.09 33.34 33.47 33.42 32.69 32.08 31.59 30.93 30.36 30.36 29.65 29.98 29.89 30.09 28.79 29.42 29.36
35.92 34.62 35.81 35.31 36.32 35.23 33.77 34.83 35.49 39.30 41.45 43.43 41.68 43.95 45.40 46.08 46.50 42.82 39.82 38.89 38.49 38.56 38.57 38.53 39.15 38.76 39.74 39.20 36.57 32.19 31.67 30.22 29.65 30.83 31.15 31.61 31.95 31.65 31.40 30.61 30.02 29.48 29.51 28.58 28.74 28.66 28.77 27.37 27.79
35.28 38.11 37.59 34.86 31.43 30.45 33.04 29.71 33.42 36.74 38.41 40.08 40.95 42.50 42.98 44.18 43.91 42.96 39.33 36.80 37.04 38.22 38.27 38.64 38.66 38.48 38.76 37.94 36.04 34.06 35.99 33.59 33.08 33.47 31.13 30.15 31.35 31.09 30.80 30.42 29.74 29.07 28.86 28.39 28.43 29.58 28.30 27.77 26.40
37.54 36.62 35.35 32.57 29.50 28.58 28.28 27.21 32.59 35.93 34.88 38.40 42.17 41.95 43.59 44.88 40.50 40.31 38.72 39.73 38.07 36.40 36.74 37.65 37.56 37.84 37.38 36.49 36.95 35.01 34.82 35.11 30.06 29.48 29.42 29.97 29.56 30.34 29.71 29.71 28.70 28.17 28.21 28.20 28.82 27.90 27.68 27.43 26.87
36.37 34.25 32.55 29.56 28.48 26.14 30.63 29.71 31.38 31.64 35.76 37.14 40.71 42.45 43.07 44.47 41.27 39.72 38.88 37.74 34.95 33.86 35.63 36.11 35.90 36.34 35.42 35.82 35.53 34.70 34.78 30.93 30.35 29.72 30.20 29.63 29.49 29.12 28.96 28.93 27.73 27.49 27.55 27.78 27.78 27.28 27.33 27.01 26.51
35.26 32.42 23.93 21.31 19.59 23.90 31.37 26.31 35.92 36.46 39.26 38.94 40.97 42.43 43.08 43.87 38.11 37.41 36.98 36.44 34.67 33.88 33.83 34.95 35.07 34.95 34.50 34.63 34.91 34.58 34.42 31.84 32.04 30.56 30.99 29.53 28.86 28.21 28.25 27.71 27.00 26.68 26.66 27.11 27.03 26.43 25.92 25.78 25.31
32.45 33.42 28.12 18.33 22.09 29.62 25.09 25.56 33.61 38.60 40.37 40.72 40.46 41.16 41.31 39.61 38.95 38.68 36.97 37.41 36.13 35.03 33.96 35.13 34.47 34.99 34.71 34.71 35.18 34.66 34.21 32.34 32.82 31.15 31.38 30.73 30.35 29.89 28.81 27.64 26.51 26.12 26.19 25.95 25.79 24.96 24.82 24.83 25.40
30.08 28.75 35.66 27.67 14.65 18.72 30.28 32.78 37.52 36.03 38.81 38.25 38.98 39.31 39.35 38.55 38.28 37.69 35.76 35.61 34.81 33.93 34.72 34.91 34.47 35.00 34.74 34.62 34.61 33.69 33.66 32.11 32.34 30.50 30.76 30.66 29.76 28.12 26.79 26.84 26.01 25.33 25.20 24.99 24.20 23.79 23.89 24.34 24.80
34.17 35.37 27.38 26.69 21.31 17.95 26.64 26.44 32.87 35.86 36.90 36.98 37.85 39.51 39.19 37.26 35.82 36.00 35.56 35.53 34.14 34.67 35.01 34.87 35.07 35.22 33.96 33.56 33.68 33.16 32.67 31.82 31.84 28.39 28.91 28.52 27.40 27.36 25.94 25.73 25.20 24.48 24.30 23.80 23.12 23.08 23.57 23.13 23.45
30.47 30.99 31.25 31.42 29.48 26.78 25.10 29.53 34.42 35.17 34.03 35.89 38.57 40.13 36.66 37.18 37.66 37.40 36.95 35.78 34.56 33.61 33.50 33.85 33.76 32.63 32.04 32.50 32.91 32.22 31.26 30.86 29.54 28.37 28.03 27.06 27.12 26.48 26.21 25.68 24.63 23.79 23.23 23.08 22.08 22.00 22.12 21.54 21.19
33.32 34.06 35.22 29.67 27.05 26.65 27.71 29.40 41.52 41.58 40.83 41.47 40.40 41.19 38.25 37.70 38.20 37.79 38.21 36.66 34.37 33.80 33.11 34.14 34.62 33.82 34.37 33.09 32.28 31.45 30.85 29.72 28.93 28.42 27.76 26.68 26.48 25.92 25.53 24.80 24.00 23.06 22.47 21.74 21.35 20.27 20.48 19.21 18.93

GFSSGP_sfc_wetblb_009.txt.gz
Wetbulb
57.71 55.87 54.68 52.05 42.75 39.31 35.47 38.88 39.85 40.61 40.19 42.25 44.88 44.04 44.36 44.47 45.01 40.58 52.56 59.55 61.72 64.08 65.49 68.23 71.02 71.90 72.30 72.33 72.25 72.07 71.82 71.74 71.59 71.12 70.66 70.28 69.78 69.59 68.85 68.60 68.65 69.16 69.42 69.25 68.34 67.55 66.61 66.74 67.59
54.56 56.15 52.79 46.11 39.36 32.74 35.25 39.30 40.53 42.16 42.38 43.74 43.70 43.00 43.00 44.17 48.04 49.87 54.22 58.67 62.25 63.57 64.79 65.84 69.74 71.06 71.22 71.95 72.03 72.13 71.95 71.20 70.41 69.65 68.65 67.81 68.79 68.61 67.52 66.69 66.63 66.47 67.03 67.71 66.24 64.61 63.71 63.87 64.27
54.66 53.91 49.15 42.54 36.05 34.67 35.87 38.93 40.81 41.77 41.48 41.43 41.83 43.35 43.56 44.77 46.58 50.07 54.63 59.69 61.13 61.50 62.96 64.74 68.85 69.67 69.62 69.57 69.63 69.24 69.30 69.72 69.13 67.53 66.96 67.87 67.08 65.81 64.52 63.70 63.05 63.70 64.35 63.27 62.35 61.67 61.05 60.91 60.87
51.51 48.53 44.38 40.09 37.19 40.05 40.21 41.45 41.01 40.94 41.59 43.11 41.67 42.30 43.47 47.68 49.02 51.11 53.18 59.27 58.96 59.14 60.89 64.84 68.02 68.91 68.93 68.72 68.86 68.25 68.03 68.03 67.81 66.69 66.49 65.93 64.84 63.24 61.88 61.40 60.90 61.19 61.01 60.76 60.42 59.94 59.43 59.24 58.96
47.62 44.56 38.23 35.39 36.17 38.82 40.20 41.69 42.23 41.96 40.39 41.41 42.72 41.57 42.56 45.30 47.49 50.78 55.84 58.64 57.58 57.22 59.08 62.33 67.45 67.49 67.94 67.85 68.20 67.09 67.14 67.26 66.72 66.29 65.05 63.81 61.90 60.95 60.51 60.01 59.54 59.57 59.56 59.41 59.00 58.42 58.51 58.56 58.53
44.16 41.96 36.18 33.81 35.88 40.33 42.15 42.25 42.48 40.97 40.50 40.34 40.27 41.73 42.84 43.48 47.74 49.80 54.34 55.52 56.66 56.81 57.98 60.11 64.32 66.01 66.73 67.06 67.22 66.82 66.70 66.09 64.76 63.88 62.44 61.16 60.09 59.68 59.23 58.72 58.69 58.68 58.58 58.51 57.99 57.93 57.55 57.30 56.79
43.09 40.34 35.91 33.91 37.35 39.45 41.96 41.85 40.33 40.66 39.90 42.29 41.57 40.25 42.28 41.91 46.75 50.86 51.93 52.88 54.12 55.40 56.15 57.06 59.28 61.67 63.82 65.41 65.61 66.08 65.45 63.82 62.35 61.18 60.21 59.40 58.64 57.94 57.60 57.05 57.76 58.12 58.07 57.75 57.42 55.67 55.42 55.27 55.01
43.51 40.39 35.18 34.82 35.93 38.82 41.02 40.50 41.27 41.95 42.91 42.02 44.76 41.60 41.77 42.20 45.64 48.15 50.33 51.17 51.55 52.65 53.80 53.96 55.12 56.81 57.23 58.15 61.85 62.86 63.57 62.29 60.99 59.61 59.17 58.12 55.94 55.71 55.92 56.39 57.24 57.09 56.71 56.33 54.89 53.64 53.07 53.19 52.86
43.52 36.19 33.40 35.96 37.25 40.42 40.66 39.97 41.69 41.56 41.57 41.47 44.21 42.17 42.52 42.91 43.81 44.71 45.02 47.33 49.14 50.96 51.42 51.51 52.10 52.69 53.02 53.69 56.09 59.48 60.54 60.27 59.45 57.72 56.78 53.84 46.05 47.19 48.31 53.33 55.98 55.08 54.49 54.22 52.92 51.40 49.99 48.91 49.26
42.24 34.57 36.67 39.73 40.10 40.26 40.89 41.15 41.55 41.51 40.21 39.91 42.13 42.34 42.28 42.23 42.94 44.26 42.66 46.33 47.96 49.29 49.65 50.17 49.71 49.69 49.37 51.52 51.82 51.82 52.49 51.24 49.76 48.74 47.51 43.30 42.43 43.48 46.43 50.75 52.99 52.00 51.51 51.67 50.56 48.87 46.79 43.03 39.35
41.92 38.75 41.07 43.54 44.20 42.89 41.86 40.41 42.38 39.58 40.01 41.35 42.57 44.09 41.66 40.73 40.87 43.06 44.18 46.98 48.56 50.13 49.35 48.95 49.18 47.80 46.88 47.77 47.88 47.38 46.13 45.02 44.44 43.45 43.10 40.76 41.53 43.39 41.71 40.80 39.09 38.58 41.64 37.64 39.23 38.16 37.69 37.63 37.79
39.45 43.41 42.94 44.44 44.74 42.81 41.47 42.23 41.01 41.29 46.13 44.81 44.56 43.45 41.40 40.38 40.72 41.77 42.04 43.16 42.97 45.80 48.41 47.77 47.75 46.74 44.56 44.28 46.29 44.88 43.92 42.00 41.31 40.58 41.46 39.57 40.02 38.43 37.90 37.48 36.40 35.76 35.57 35.07 35.41 35.54 36.15 36.25 37.15
41.02 42.35 44.64 44.71 44.23 43.39 43.27 42.37 41.55 41.91 46.04 43.99 44.15 43.06 41.80 41.41 42.58 43.08 43.62 43.02 41.68 42.50 46.16 46.25 46.33 46.30 44.92 42.81 43.83 42.40 41.80 42.50 40.70 39.70 40.47 39.47 38.30 37.16 36.84 36.17 35.25 34.29 34.52 34.15 33.92 34.25 34.71 34.84 35.82
41.25 42.38 43.00 42.77 43.11 43.29 42.92 44.47 41.56 44.86 43.88 44.15 43.09 42.85 41.58 41.22 42.41 41.03 40.26 42.24 40.89 41.99 42.54 44.48 45.30 45.50 44.32 42.47 42.68 42.93 41.68 40.75 39.75 38.65 39.45 38.88 37.92 36.55 36.01 35.06 34.28 33.50 33.65 33.58 33.62 33.50 33.31 33.28 34.51
41.42 39.87 39.80 40.65 40.77 41.58 41.48 39.32 38.46 45.67 41.80 43.39 42.22 42.43 42.50 41.77 42.06 42.10 43.94 43.16 43.34 42.85 41.94 42.15 44.00 44.15 43.54 42.31 41.41 41.16 40.80 40.73 39.66 38.47 38.27 38.29 37.31 35.81 34.91 34.49 33.21 32.97 33.02 33.28 32.99 32.97 32.59 32.29 33.42
36.76 36.05 33.18 38.71 39.30 39.77 40.59 35.89 43.79 43.61 41.49 42.67 42.67 41.86 41.60 42.63 43.23 44.25 45.29 44.05 43.68 42.80 41.11 41.78 44.09 43.15 42.97 42.26 41.19 40.65 39.93 40.15 39.54 37.14 36.51 37.19 36.46 35.53 34.10 33.49 32.56 32.67 32.31 32.09 31.85 31.43 30.99 30.89 31.24
31.84 30.03 31.21 35.39 40.68 39.66 38.75 36.08 42.33 42.18 40.46 41.07 41.16 41.49 42.21 42.97 43.06 42.79 44.85 44.73 43.50 42.98 42.36 40.83 41.99 42.25 42.04 41.64 40.90 39.92 39.03 39.36 38.68 35.64 35.43 35.48 35.36 35.00 34.10 32.95 32.15 32.22 31.60 31.28 31.88 30.37 30.37 29.79 30.36
30.53 28.26 31.37 31.83 38.06 36.01 35.44 36.23 40.84 43.62 40.06 40.69 41.85 42.47 43.84 44.70 45.28 47.28 43.63 44.11 43.66 42.10 42.46 41.88 41.42 41.81 41.52 40.73 38.78 36.91 37.44 36.62 36.32 36.21 34.96 34.87 34.98 34.15 32.89 32.07 31.70 31.75 30.91 30.56 30.21 29.73 30.19 29.97 29.40
32.63 31.60 30.96 34.90 39.06 34.59 36.33 37.70 39.95 42.93 42.90 43.32 40.01 42.60 44.21 44.51 47.31 47.68 42.97 41.91 41.28 39.92 40.72 40.90 40.01 40.25 40.57 38.31 36.88 37.16 37.33 36.36 35.27 34.69 34.76 34.28 33.79 33.37 32.06 31.17 30.80 30.76 30.20 30.01 29.86 29.85 29.21 29.29 28.96
34.48 33.83 33.80 37.89 39.68 34.33 36.07 36.23 38.96 39.89 41.26 43.32 44.06 44.03 44.37 44.89 45.50 46.02 40.82 40.01 39.45 40.84 40.54 40.35 39.96 39.27 40.28 40.07 40.40 37.53 38.75 33.45 35.34 34.20 33.29 33.40 32.81 32.26 31.48 31.15 30.25 29.99 29.11 29.32 29.48 29.68 28.37 28.54 28.21
33.95 32.47 34.87 34.44 35.22 34.26 33.12 34.44 36.74 37.74 38.90 42.15 43.37 44.23 44.49 44.14 44.50 45.65 40.15 39.01 38.04 37.97 38.89 39.46 39.71 38.71 40.24 39.96 36.64 31.64 31.16 29.99 29.70 30.45 32.26 32.45 32.47 31.91 31.43 30.59 30.34 29.69 29.51 28.72 28.46 28.42 28.24 27.20 27.34
33.86 36.63 36.19 34.11 30.12 29.31 31.98 28.55 31.87 37.49 39.02 39.90 40.98 42.44 42.16 43.05 44.10 43.69 40.56 37.78 37.73 39.21 37.88 38.72 38.94 38.09 39.64 38.69 36.97 34.72 35.94 34.59 34.56 35.65 33.99 31.89 31.69 31.06 30.65 30.40 29.76 29.24 28.84 28.07 27.98 28.81 27.96 27.37 26.25
35.36 35.80 34.05 30.72 28.09 27.42 27.75 25.16 29.94 34.62 35.27 37.19 39.30 40.68 42.25 42.77 42.59 43.20 38.82 39.35 38.43 36.13 35.70 36.71 37.22 37.68 38.42 37.83 37.92 36.17 36.53 36.63 31.05 29.95 30.00 30.71 29.67 30.39 29.91 30.01 28.79 28.13 27.91 27.79 28.24 27.74 27.45 26.64 26.58
35.61 32.73 31.24 28.27 27.59 23.63 29.46 28.81 30.27 31.42 35.17 35.38 38.09 40.45 40.99 41.15 43.02 39.56 38.87 37.63 35.54 33.18 33.86 35.02 35.66 36.43 36.53 37.12 36.77 35.98 36.58 32.46 31.39 30.12 30.64 30.29 29.94 29.30 29.41 29.26 28.24 27.55 27.51 27.47 27.83 27.60 27.34 26.92 26.69
33.22 30.02 22.86 20.62 18.98 23.02 29.19 26.09 35.68 37.37 39.94 37.98 40.48 39.11 40.19 40.07 39.52 42.00 38.21 36.97 33.91 32.27 32.87 34.18 35.09 35.05 34.53 35.40 35.59 35.28 35.77 33.50 32.86 31.11 31.95 29.86 29.08 28.78 28.52 28.61 27.41 27.59 27.63 27.62 27.80 26.91 26.65 26.37 25.68
30.92 31.30 24.16 16.58 20.58 28.19 24.98 24.63 35.55 38.20 38.94 36.93 38.35 38.65 38.28 38.47 39.80 37.47 38.72 36.35 33.70 33.06 32.75 34.28 34.01 34.65 33.96 34.98 34.99 35.03 34.85 34.02 33.11 31.76 32.10 31.22 30.94 30.67 29.44 28.71 27.90 26.84 27.11 26.96 26.86 26.12 25.78 25.33 25.72
30.06 27.83 33.48 26.85 18.58 19.84 29.82 31.87 37.71 36.06 37.13 35.42 36.99 36.02 37.99 40.22 39.57 37.29 36.99 34.87 34.00 32.17 31.83 33.29 33.72 34.44 34.12 34.43 34.57 34.13 33.71 32.20 32.55 30.39 30.93 31.20 30.54 30.05 28.11 28.67 27.32 26.68 26.64 26.56 25.87 25.69 24.77 24.70 24.99
33.28 34.09 26.34 25.07 19.17 19.32 25.44 29.14 31.64 35.31 39.08 39.00 37.31 38.16 39.11 39.23 37.70 37.07 36.28 35.01 33.68 32.92 32.88 32.82 33.02 34.15 33.40 33.52 34.24 33.90 33.09 32.63 32.54 29.71 29.61 30.01 29.82 28.92 27.70 27.56 27.27 26.47 26.11 25.71 25.05 24.22 24.01 23.75 23.94
28.56 28.85 29.57 30.12 28.29 25.20 23.94 27.81 39.85 37.83 35.64 36.06 37.32 38.23 38.99 38.85 39.28 38.33 37.61 36.77 35.92 33.48 32.51 33.47 32.93 32.22 32.23 32.25 33.14 33.23 32.67 32.04 31.44 29.92 30.05 29.78 28.93 28.13 27.51 27.54 26.83 26.08 25.34 24.98 24.16 23.52 23.09 22.67 22.47
32.68 32.20 31.61 26.41 26.17 28.92 29.57 30.34 42.00 42.18 41.31 39.55 39.78 42.59 40.82 38.74 39.95 39.08 38.47 38.22 37.02 35.70 34.39 33.72 33.81 32.70 33.59 33.38 33.04 32.59 32.09 30.72 30.51 30.11 29.38 29.68 28.30 27.80 27.56 27.17 26.67 26.13 25.47 24.51 23.89 22.31 22.63 21.85 21.42

GFSSGP_sfc_wetblb_015.txt.gz
Wetbulb
58.29 56.40 55.77 53.69 45.81 42.88 39.83 41.87 44.41 44.56 45.61 47.12 46.33 46.96 47.28 47.93 47.26 44.96 54.86 60.26 62.07 63.29 66.84 70.85 71.75 72.56 72.87 72.75 72.41 71.88 71.49 71.73 72.04 72.18 71.72 71.34 71.24 70.64 70.18 70.11 70.30 70.73 70.45 69.30 67.76 67.08 66.98 66.77 66.97
55.23 56.46 53.69 48.29 41.89 37.03 37.24 42.41 43.58 44.97 46.99 47.18 47.05 47.75 47.79 47.84 50.53 53.00 57.04 59.41 62.46 63.89 66.93 69.82 70.71 72.07 72.61 72.75 72.43 72.03 71.50 72.22 72.25 71.82 71.25 70.93 70.25 69.80 69.12 68.49 68.29 68.77 68.40 67.37 65.41 64.80 64.41 64.13 64.23
55.21 53.58 50.23 43.92 38.15 36.37 38.24 42.73 44.23 45.57 46.08 47.20 46.97 48.26 48.70 49.02 50.90 53.49 57.26 61.00 62.81 64.39 67.01 68.63 70.31 72.06 72.40 72.51 72.39 72.22 72.23 72.12 71.36 70.54 69.82 68.95 68.63 67.45 66.72 66.06 66.83 67.37 66.52 64.94 63.63 62.53 62.01 61.99 61.29
52.49 50.25 46.12 42.87 39.44 41.68 42.08 45.17 43.95 44.92 46.00 45.98 46.84 45.86 47.48 50.62 52.52 53.80 56.96 60.78 63.12 64.24 66.22 67.95 70.28 72.25 72.42 72.40 72.32 72.39 72.25 71.83 70.90 70.16 68.62 67.75 67.36 66.39 65.25 64.22 65.21 64.49 63.79 62.84 61.76 60.91 60.75 60.42 59.96
48.37 45.75 40.07 38.34 38.42 41.30 42.70 44.46 44.86 44.47 45.12 45.75 46.31 45.93 46.09 50.45 50.99 53.40 57.77 60.69 62.56 63.45 65.12 67.51 69.53 70.91 71.04 70.73 71.23 71.71 71.36 71.09 69.60 68.40 66.58 67.89 66.38 65.25 63.92 62.87 63.09 62.35 61.58 60.62 60.39 60.52 60.29 58.53 58.35
45.42 44.14 38.46 35.94 37.37 40.73 42.71 44.51 44.55 44.22 44.99 45.00 45.04 45.60 47.05 49.51 50.09 52.70 57.53 60.23 61.76 62.53 63.10 65.24 66.66 68.25 69.20 69.93 70.09 70.08 69.92 69.69 68.40 67.32 67.45 66.54 65.38 63.78 62.50 61.79 61.44 60.90 60.38 60.15 60.10 59.32 58.48 57.88 57.13
44.26 41.42 38.00 37.21 37.66 40.03 43.73 43.90 43.67 44.44 44.56 45.12 46.32 45.47 47.90 47.60 49.42 52.70 57.10 58.73 59.89 61.09 61.62 63.14 65.65 66.71 65.60 67.43 68.10 68.57 68.72 68.63 68.45 67.38 66.75 65.40 63.82 62.33 61.24 60.68 60.52 60.58 60.20 59.49 58.66 58.08 57.62 56.73 55.62
44.53 42.94 38.54 37.46 37.61 39.71 43.83 43.05 44.22 44.45 45.40 45.57 46.84 45.17 46.35 49.86 49.34 52.79 55.38 56.87 57.65 58.56 60.14 61.17 62.84 64.39 64.97 66.03 64.69 65.60 66.42 66.96 66.62 66.27 64.63 62.50 61.84 61.48 60.80 60.47 60.55 60.10 59.82 58.21 57.23 56.75 56.14 55.23 53.73
45.07 38.72 35.26 38.01 37.09 40.37 43.24 42.51 44.13 44.71 44.71 44.47 45.92 46.18 47.84 45.96 49.80 51.57 53.19 53.83 54.85 55.57 57.29 58.76 60.26 61.68 62.50 63.24 63.14 63.29 64.00 64.44 64.15 62.85 60.72 58.99 57.53 57.64 57.47 56.72 60.28 59.44 58.05 56.57 55.42 54.94 53.64 52.12 50.84
43.33 37.10 37.93 40.18 39.75 41.49 43.10 42.98 44.23 44.06 44.30 42.93 44.46 45.91 45.56 45.27 48.18 49.93 50.84 52.85 53.47 54.73 55.77 56.55 58.06 59.39 59.53 59.46 61.51 62.91 62.71 62.43 60.83 59.02 56.90 53.94 53.45 53.38 52.84 54.92 58.19 58.63 56.95 54.87 53.58 51.68 48.61 44.35 43.79
42.36 40.07 40.80 41.93 41.58 42.96 43.14 42.00 44.02 42.85 42.95 44.14 44.45 46.36 45.17 44.22 45.43 48.29 50.18 52.28 53.61 55.41 55.32 55.19 55.98 57.23 57.62 57.91 58.17 58.72 58.75 58.34 56.78 55.38 52.36 50.72 50.09 51.31 51.77 52.20 51.08 50.97 49.69 49.15 48.06 44.45 43.18 43.14 43.00
40.72 42.80 42.47 44.16 44.06 43.05 42.83 43.12 42.32 42.72 47.72 47.95 45.97 46.65 45.43 44.01 43.99 45.91 48.55 50.27 51.53 52.07 54.37 54.89 54.61 54.81 55.68 56.06 56.23 56.34 56.34 54.92 53.75 52.55 50.10 48.12 47.33 48.79 48.42 48.24 47.03 46.46 44.96 43.24 42.47 42.40 42.04 41.73 41.25
40.89 41.74 43.77 43.84 43.32 43.34 43.24 43.47 42.96 42.33 45.81 46.04 45.33 44.04 44.38 43.84 44.35 44.98 47.69 49.74 50.11 50.01 52.26 53.19 53.91 54.67 54.68 53.68 54.78 54.33 54.73 53.56 52.76 50.15 48.17 46.84 45.81 46.78 46.10 45.04 42.88 42.20 41.15 41.41 40.94 41.02 40.73 40.72 40.28
41.01 41.86 41.62 41.82 42.69 42.40 42.62 43.91 42.25 44.00 44.71 44.67 43.20 44.47 43.21 43.04 44.55 43.89 43.20 45.59 46.48 49.33 50.48 52.48 52.57 54.14 54.06 53.66 53.45 53.79 53.48 52.57 50.14 49.12 47.69 45.15 45.12 45.31 44.69 41.84 40.55 40.06 40.39 40.24 40.33 40.05 39.79 39.81 39.89
40.84 39.30 39.57 39.25 40.34 40.33 40.89 39.49 38.45 44.98 42.18 43.24 43.85 42.87 42.58 42.86 43.44 43.94 46.53 45.39 46.12 47.10 49.06 50.41 51.71 52.93 53.00 53.11 52.55 52.98 52.21 49.45 49.41 48.25 46.08 44.45 43.70 43.42 42.79 41.26 39.65 39.48 39.22 39.09 38.81 38.22 38.35 38.74 38.59
36.80 35.93 33.85 38.50 38.60 39.18 40.86 36.05 42.37 42.66 40.05 41.89 42.62 43.79 43.33 45.29 44.00 45.00 45.87 45.82 46.41 46.35 45.28 47.56 50.48 50.99 52.15 52.63 52.33 51.94 51.10 49.51 49.46 47.16 45.66 43.91 43.01 42.64 41.27 40.56 39.37 38.66 38.19 38.53 38.42 37.75 37.31 37.95 38.42
33.37 30.97 31.23 34.57 39.28 38.43 38.17 35.83 40.46 41.05 40.45 41.21 43.15 44.48 45.23 45.53 46.86 47.05 44.76 45.91 45.48 45.67 45.63 44.56 47.86 49.83 50.47 51.65 51.83 50.99 49.57 49.10 48.40 45.78 44.53 43.18 42.26 41.53 41.13 40.41 39.15 37.77 37.39 37.43 37.19 36.23 37.16 36.81 36.99
30.87 29.00 30.18 31.67 37.95 35.70 35.58 35.63 40.32 41.91 41.68 42.38 43.41 43.77 44.08 44.66 45.83 48.01 46.62 45.32 44.71 44.83 45.48 45.31 44.38 47.77 49.10 49.99 49.83 47.96 45.76 47.91 46.36 44.75 43.74 42.39 42.19 40.67 40.33 39.39 38.18 37.08 36.53 36.19 36.06 36.16 35.61 36.81 36.69
32.58 30.96 30.02 33.22 37.10 34.36 37.30 37.23 38.76 40.84 40.72 41.17 42.63 43.75 43.78 44.04 46.26 45.87 45.14 45.23 44.30 42.97 42.54 43.16 42.17 44.21 46.62 46.98 45.19 43.14 43.11 44.25 42.51 43.98 43.12 42.14 41.95 40.50 39.96 39.03 37.50 36.65 36.41 36.21 35.91 35.52 35.43 34.84 35.18
33.32 31.96 32.16 35.10 37.36 33.70 34.47 35.74 39.53 40.99 41.62 42.43 42.69 43.25 42.46 43.02 44.54 44.61 43.30 43.44 42.96 43.28 41.96 41.81 41.90 42.38 44.58 46.02 46.02 45.82 45.46 43.97 43.48 42.83 41.59 41.76 41.04 40.08 39.39 38.33 37.09 36.15 35.61 34.94 34.97 35.33 33.91 34.46 33.99
31.49 30.95 33.22 31.97 33.39 33.94 31.72 31.99 33.90 39.32 38.48 40.01 41.94 41.93 41.69 41.34 41.65 42.92 42.71 42.12 42.39 42.17 41.42 40.85 41.58 41.49 43.17 44.44 43.88 36.80 37.99 36.72 37.90 38.22 38.59 39.10 39.62 39.16 39.13 38.04 37.20 35.89 36.07 34.90 34.79 35.33 35.44 34.07 32.90
31.55 35.05 34.07 32.01 30.07 27.17 32.99 26.37 31.62 36.99 38.52 37.88 39.13 39.63 39.73 40.41 41.54 41.38 40.36 41.71 40.43 41.10 41.08 40.16 40.58 40.65 41.86 42.75 41.46 41.12 41.06 39.34 39.26 40.74 40.13 38.79 38.66 38.40 38.57 37.45 36.65 35.97 35.50 35.12 34.48 34.61 35.42 34.95 33.43
33.36 33.75 32.04 31.07 28.69 27.13 27.26 25.47 30.61 33.37 34.51 37.48 39.40 40.54 41.38 41.54 39.95 40.13 40.88 40.55 40.18 38.09 37.62 38.14 38.78 39.29 41.05 41.02 41.25 40.76 41.11 41.55 39.49 40.74 38.98 37.73 37.03 37.66 36.59 36.55 35.80 35.33 34.70 34.88 34.39 33.55 33.73 34.55 34.44
34.71 31.99 30.38 28.06 27.65 23.02 28.43 28.05 29.00 31.56 34.80 35.72 40.34 40.30 40.37 40.14 40.06 43.02 41.09 39.37 38.08 36.93 35.58 36.03 36.83 36.86 38.28 39.39 39.86 39.87 40.28 38.10 37.41 37.12 37.14 36.02 35.17 34.92 34.98 35.20 35.11 35.21 34.58 33.75 33.56 34.13 33.96 33.78 33.58
33.56 30.59 24.04 22.34 20.20 23.58 27.18 25.09 31.87 35.18 37.01 38.55 39.57 40.17 38.83 38.73 39.22 40.26 40.03 38.16 37.84 35.84 34.36 35.19 35.13 35.53 36.46 37.26 37.71 38.45 39.03 36.93 37.44 36.83 37.41 35.44 34.02 33.42 33.53 33.93 33.78 33.96 33.94 33.39 33.36 32.89 33.15 32.66 32.76
31.48 32.12 28.18 21.17 20.87 28.34 23.96 26.50 33.94 36.69 37.87 38.43 36.71 37.50 38.32 39.85 38.84 37.62 36.99 36.75 36.45 35.86 34.98 34.47 34.02 34.48 34.94 35.24 35.62 36.20 36.75 36.52 36.81 36.37 37.11 35.97 35.59 35.49 35.12 33.60 34.33 33.75 32.87 32.29 32.60 32.92 32.90 32.92 32.90
30.15 28.86 33.64 27.88 25.99 22.12 29.38 32.01 39.13 36.90 37.05 36.72 37.36 36.48 34.80 34.58 35.10 35.54 36.10 36.33 36.74 36.60 35.70 34.14 33.37 33.81 34.34 34.22 34.48 34.66 34.78 34.66 35.08 33.89 34.55 35.42 35.64 35.36 34.53 33.42 32.62 32.15 32.00 31.71 31.40 31.19 30.76 30.94 31.86
33.04 34.23 27.65 26.77 21.54 20.79 26.29 26.30 30.68 33.85 34.45 34.98 32.11 31.85 33.10 33.54 33.71 34.53 35.08 35.29 35.77 36.64 37.18 36.92 35.74 34.40 33.59 33.56 33.77 34.38 34.34 34.27 33.88 32.63 32.92 33.23 34.00 33.83 32.50 32.17 32.27 31.56 31.61 31.50 31.11 31.10 30.69 30.31 30.36
29.27 28.82 29.71 30.57 29.61 24.14 23.47 27.30 34.91 33.74 31.76 31.18 32.13 32.49 31.44 31.61 32.32 33.34 34.26 35.11 35.43 35.78 35.82 35.65 35.91 35.22 35.19 35.27 34.15 33.00 33.41 33.35 32.82 31.75 32.40 32.43 32.40 32.01 31.19 31.37 31.50 30.97 30.61 30.47 30.02 30.74 29.85 29.39 29.42
34.00 33.48 32.61 29.09 27.41 28.15 28.70 28.45 40.10 33.51 33.18 31.87 29.29 29.93 30.23 30.70 31.63 33.19 34.20 34.36 34.07 34.34 34.89 34.75 34.64 34.51 34.35 34.59 34.30 33.74 32.84 31.78 31.36 31.78 31.99 31.84 31.41 31.04 31.11 30.69 30.59 30.40 30.06 29.80 29.53 29.25 28.90 28.91 27.72

GFSSGP_sfc_wetblb_018.txt.gz
Wetbulb
62.33 62.07 63.89 61.38 51.06 49.96 45.89 47.29 49.74 49.41 49.31 51.40 51.54 51.66 51.19 52.21 49.98 48.02 59.83 64.43 64.72 65.87 70.45 72.07 72.59 73.14 73.28 72.94 72.60 71.67 71.53 72.07 72.45 72.45 72.08 71.85 71.31 70.76 70.83 70.90 71.04 70.86 70.18 69.20 68.19 67.63 67.28 67.17 67.18
61.05 60.41 62.04 58.17 47.56 43.59 44.79 48.75 48.49 50.34 50.76 51.42 51.36 51.56 51.27 50.79 54.87 56.61 60.14 63.66 65.10 66.06 70.27 71.71 71.23 72.88 73.13 72.92 72.51 71.59 71.43 71.81 72.30 72.21 71.68 71.55 71.02 70.42 69.90 69.22 69.10 69.18 68.79 67.68 66.04 65.58 64.91 64.45 63.70
59.10 58.57 56.05 52.06 48.37 43.96 45.40 48.60 49.49 49.82 50.83 51.32 51.24 52.65 52.67 52.44 54.89 57.91 61.49 64.15 65.28 65.90 69.31 70.80 70.75 72.48 73.00 72.96 72.58 72.08 71.49 72.06 72.35 71.82 71.21 70.77 70.13 68.30 67.80 66.76 67.28 67.83 66.97 65.66 64.27 63.25 62.62 61.84 61.67
59.46 58.28 55.02 47.74 45.04 48.00 47.53 49.83 50.67 51.13 50.28 50.90 51.28 50.14 52.73 55.67 56.23 58.63 61.18 65.00 65.41 65.75 67.76 69.32 70.78 72.13 72.62 72.74 72.58 72.05 71.52 72.10 71.70 71.04 70.28 68.77 68.02 67.18 65.51 65.47 66.82 66.10 65.17 63.96 62.62 61.55 61.22 60.38 59.63
58.67 55.75 48.41 45.82 45.15 47.40 49.57 50.16 50.05 49.35 49.77 50.41 50.55 50.25 51.08 53.82 56.11 57.83 62.08 64.55 65.63 65.87 67.64 69.29 70.02 71.57 72.13 72.50 72.52 72.28 72.33 72.20 71.82 70.75 68.23 68.55 67.81 66.52 65.23 64.31 64.66 64.04 63.02 61.74 61.35 61.35 59.73 59.03 58.28
53.25 53.85 45.75 43.75 44.80 47.51 49.57 50.65 49.67 49.58 50.13 49.95 49.51 50.40 52.31 54.55 54.70 57.48 61.73 64.56 66.17 66.03 67.57 68.85 67.63 69.41 70.69 71.49 71.89 72.03 72.08 71.90 70.34 69.22 66.84 68.28 66.99 65.79 64.53 63.44 63.18 62.46 61.37 60.98 60.99 59.97 58.75 58.00 57.07
50.67 49.64 45.04 45.01 45.40 46.70 49.02 49.36 49.13 49.86 49.68 50.40 51.65 49.40 53.27 54.00 54.61 57.20 60.58 64.28 65.62 66.67 67.06 68.29 69.11 68.94 66.95 68.30 68.91 69.71 70.06 69.71 69.22 68.55 67.78 67.33 66.37 64.89 63.40 62.44 61.75 61.30 60.76 60.63 59.68 58.81 57.97 56.81 55.46
54.36 51.67 45.30 46.27 45.20 44.96 49.43 48.80 50.04 49.91 49.53 50.74 51.93 49.59 50.51 54.41 54.67 57.73 60.31 62.65 64.16 65.70 66.41 67.25 68.45 68.80 69.20 69.27 65.69 66.58 67.66 67.70 67.81 66.88 66.08 64.64 63.82 63.49 62.48 61.47 61.51 60.87 60.60 59.36 58.48 57.92 56.67 55.38 53.53
51.78 47.45 44.62 44.86 44.42 46.16 49.46 48.36 49.33 50.57 50.26 50.13 51.70 52.51 54.67 52.78 54.77 56.83 58.62 60.43 62.03 62.78 64.78 66.34 66.90 67.75 67.95 67.95 66.11 64.56 64.84 65.30 65.06 64.87 62.61 61.17 63.72 61.89 60.43 59.78 61.36 60.71 59.41 58.18 57.33 56.41 54.84 52.81 50.84
50.79 47.06 45.95 48.23 48.30 47.27 49.03 48.75 49.94 49.10 50.28 50.87 50.62 53.31 53.21 51.85 53.93 55.22 56.68 58.14 59.91 61.16 62.31 64.27 65.32 65.88 66.59 66.46 67.21 67.66 67.49 67.42 66.88 66.18 62.97 63.95 62.44 60.91 59.22 57.63 59.43 60.63 58.67 56.71 55.97 54.14 50.85 47.74 49.50
50.11 46.85 49.45 48.39 48.44 48.15 48.31 48.69 49.78 49.19 48.46 51.17 50.94 52.40 54.10 52.47 52.82 53.39 55.34 57.13 58.95 61.03 62.02 62.21 63.40 64.66 65.16 65.24 65.91 66.23 67.05 67.10 66.12 65.04 64.02 62.63 60.07 58.50 57.75 58.34 58.73 58.86 55.48 55.17 53.60 50.43 48.26 48.15 48.32
46.69 49.56 49.55 49.65 49.05 48.41 47.92 49.65 48.39 49.46 50.46 52.70 53.27 53.73 53.13 52.49 52.51 52.93 53.90 55.68 57.29 58.79 60.68 61.77 62.19 62.70 63.79 64.92 64.56 65.01 65.37 65.68 64.08 63.58 62.03 59.71 58.40 57.20 56.24 57.18 57.57 56.96 55.07 53.33 50.46 48.37 48.09 47.27 46.30
46.93 48.79 49.57 50.22 48.94 48.83 49.70 48.36 48.83 49.27 51.93 53.01 52.91 51.78 51.09 51.96 52.40 53.65 53.94 54.92 56.52 56.96 58.53 60.07 61.35 61.57 62.22 62.99 63.37 63.68 63.67 63.92 63.19 62.20 60.00 58.77 57.29 55.52 54.84 55.57 55.41 54.83 52.92 50.46 47.79 47.58 46.64 46.13 45.27
47.85 47.54 48.01 48.41 48.13 48.43 46.46 47.96 47.04 49.00 51.47 50.53 50.59 50.73 51.50 51.08 51.68 52.44 52.64 52.22 53.53 55.43 56.94 58.79 59.47 60.59 61.28 61.64 62.15 62.30 62.36 62.99 62.59 61.06 59.14 57.38 56.33 54.20 53.24 53.54 53.02 51.97 49.96 47.99 47.33 46.56 46.16 45.73 45.44
46.79 44.31 46.72 47.26 46.79 46.05 47.05 44.45 44.77 49.86 50.12 48.78 49.55 50.56 50.82 51.13 51.65 51.34 52.96 53.33 53.51 54.23 55.58 56.53 57.96 59.15 59.97 60.18 61.08 61.55 61.42 61.28 61.27 59.74 58.38 55.96 54.53 52.72 51.72 51.66 50.80 49.09 47.34 46.48 46.18 45.26 45.24 44.69 44.14
43.92 43.29 40.91 46.23 44.14 45.14 46.12 41.70 47.33 49.79 47.52 47.68 48.98 50.02 50.47 51.12 51.77 52.66 52.82 52.91 53.67 53.89 53.60 54.71 55.33 56.98 58.31 59.30 60.07 60.23 60.34 59.58 59.20 59.05 57.51 55.07 53.11 51.75 50.58 49.89 48.78 47.01 45.65 45.40 44.90 44.20 43.74 44.14 43.84
42.98 39.23 40.35 41.68 45.30 43.70 44.28 42.23 46.93 48.47 47.37 46.76 48.05 48.85 49.44 50.19 51.05 52.28 52.98 53.05 53.01 53.34 53.08 52.89 53.89 54.94 56.32 58.09 58.84 59.42 58.95 58.65 58.18 58.08 56.73 54.58 52.32 50.76 49.47 49.05 47.88 45.76 44.72 44.37 44.34 43.75 43.98 43.21 43.18
40.70 39.82 40.21 39.30 44.20 43.86 42.25 41.76 44.44 46.24 45.94 45.76 46.99 48.00 49.05 49.63 50.27 51.52 51.73 52.35 52.60 53.02 52.88 52.82 52.54 53.14 54.93 56.04 57.17 57.72 57.43 57.52 57.51 56.91 55.54 53.98 51.75 49.55 48.74 47.63 47.23 44.97 43.92 43.59 43.60 43.02 43.05 43.77 42.91
41.79 40.29 39.38 42.20 44.47 41.71 41.55 42.07 43.89 45.77 46.00 45.81 46.47 47.31 48.54 49.29 50.45 50.98 51.04 51.16 51.03 51.28 51.02 50.91 50.93 50.89 52.53 53.22 53.54 54.41 54.01 54.66 54.89 55.51 54.06 53.30 51.47 49.40 48.22 47.53 46.48 44.23 43.42 43.61 43.11 42.77 41.27 41.13 42.19
40.78 39.10 39.04 42.43 43.69 39.84 41.35 40.63 43.43 45.14 45.61 46.82 47.18 47.38 47.90 48.38 49.02 49.73 49.22 49.16 48.71 48.85 49.35 49.15 49.11 49.67 50.11 52.17 53.16 53.58 53.13 53.42 53.48 53.89 52.76 52.48 50.67 48.99 47.43 46.79 45.73 43.98 43.54 42.98 42.62 42.12 40.84 41.72 41.47
40.54 38.23 39.50 39.55 41.76 41.67 39.23 40.20 41.27 45.69 46.59 46.93 46.39 47.30 46.69 46.61 46.93 47.57 47.26 46.99 46.78 45.72 45.90 46.02 47.10 48.04 48.49 50.28 51.44 51.41 49.52 50.58 49.82 50.19 49.95 49.59 49.54 48.25 46.89 46.56 45.60 44.13 44.03 42.86 42.69 42.28 41.75 40.32 40.04
37.36 42.99 40.19 38.28 36.75 34.96 39.54 33.72 41.57 44.34 44.73 45.78 46.00 46.56 46.77 47.27 46.86 45.67 44.28 44.09 43.30 43.05 44.75 44.99 45.37 46.01 46.22 48.10 48.39 48.30 46.95 46.33 47.26 47.30 47.94 47.83 47.48 47.27 46.72 46.12 45.33 44.45 43.62 43.13 42.85 42.59 42.93 43.39 39.49
39.60 39.85 37.88 36.74 36.35 34.86 37.10 33.52 41.26 41.02 40.74 43.84 45.25 45.64 45.25 45.64 44.51 42.82 42.60 42.56 42.68 42.37 42.56 43.51 44.30 44.23 45.06 45.60 46.76 46.29 46.18 47.75 48.12 46.53 46.49 45.93 45.50 45.87 45.58 45.22 44.79 44.02 43.00 43.37 42.65 41.55 42.00 42.65 42.99
39.95 39.01 37.89 36.55 36.08 31.11 38.34 36.14 38.83 41.03 41.21 43.01 44.26 42.67 42.88 42.36 42.29 41.98 42.46 42.49 41.58 42.54 41.89 41.96 42.68 42.25 43.26 43.82 44.49 44.39 44.51 45.25 44.95 44.37 44.46 44.49 43.99 43.61 44.14 43.78 43.76 43.33 42.61 42.17 41.87 41.46 41.56 41.52 42.41
38.41 36.78 33.15 32.34 32.53 32.05 35.24 34.01 37.51 42.68 42.14 42.04 40.65 40.10 40.45 41.13 40.86 40.21 39.61 39.96 40.33 40.26 40.68 40.49 40.75 39.89 41.18 42.04 42.56 42.84 43.11 43.67 43.73 43.72 43.49 43.61 42.71 41.80 41.98 42.31 42.26 42.22 42.18 42.13 41.79 40.64 40.54 40.67 40.45
37.10 37.79 34.30 26.60 28.97 33.01 36.03 32.10 38.93 45.19 42.23 41.34 40.21 39.75 39.55 39.12 39.78 39.44 39.39 39.27 39.49 39.76 40.11 40.36 39.66 39.12 39.72 39.71 39.68 40.89 41.53 42.00 42.70 42.92 43.03 43.26 42.80 42.78 42.50 41.41 41.37 41.54 41.42 41.01 40.72 39.84 39.29 39.84 39.81
36.57 33.67 39.46 33.19 33.77 30.03 34.18 38.42 42.72 43.11 39.57 39.83 39.19 39.00 37.55 37.54 37.96 38.02 38.59 38.48 38.75 38.91 38.80 39.33 38.88 38.65 39.02 39.49 39.67 39.37 39.61 39.70 40.00 40.98 41.49 41.98 42.51 42.02 42.02 41.18 39.80 40.51 40.31 39.77 39.34 38.57 37.84 38.31 38.90
37.31 40.57 33.16 32.31 24.72 24.36 30.29 32.98 35.35 37.17 36.68 37.47 37.10 36.10 35.51 36.03 36.81 37.66 38.09 37.36 37.59 38.41 38.85 38.59 38.94 37.47 37.41 38.13 38.82 38.85 38.85 38.79 39.03 39.21 38.65 39.31 40.24 40.33 39.51 39.90 38.92 39.62 39.42 38.35 38.07 37.58 38.12 37.44 37.65
35.94 32.97 33.60 33.21 31.21 26.61 25.57 31.37 39.96 37.08 36.52 35.36 34.04 33.12 33.34 33.92 35.11 36.37 37.23 37.38 36.88 37.34 37.35 37.03 37.19 36.64 36.01 36.17 37.22 37.74 38.11 38.15 37.90 37.60 37.81 37.76 38.42 38.38 38.01 38.27 37.85 37.95 37.30 37.43 36.98 36.85 36.77 35.53 35.85
37.47 36.16 36.64 30.07 28.45 31.19 30.21 30.95 38.20 36.28 35.51 33.59 31.40 31.71 32.72 33.23 33.67 35.02 36.55 35.85 34.79 34.79 35.56 35.74 35.51 35.50 35.11 35.30 35.88 35.74 36.56 36.18 36.08 36.77 37.00 37.38 36.52 37.14 36.77 36.90 35.90 35.80 36.41 36.25 35.47 35.34 35.12 34.40 33.88

GFSSGP_sfc_wetblb_021.txt.gz
Wetbulb
63.54 63.30 63.47 61.16 51.95 50.35 46.83 48.09 51.56 50.61 51.04 53.32 53.28 52.46 51.62 52.70 50.32 48.89 62.12 65.05 65.44 67.63 70.86 71.97 72.86 73.61 73.34 72.88 72.85 72.20 72.02 72.30 72.24 72.83 72.42 72.12 71.63 71.44 71.64 71.59 71.40 70.90 70.14 69.31 68.59 67.88 67.74 67.74 66.61
61.80 61.20 61.67 55.95 48.55 45.10 45.54 49.99 49.01 51.02 52.64 53.38 53.41 53.01 52.45 50.99 55.72 57.19 60.63 64.97 65.63 67.06 70.75 71.62 71.69 73.21 73.27 73.00 72.81 72.15 71.67 72.25 72.51 72.35 72.10 71.72 70.99 70.72 70.58 70.20 70.38 69.65 68.82 67.86 67.03 66.22 65.45 64.69 63.63
61.32 60.07 55.65 51.94 48.56 45.34 46.05 49.69 50.85 52.01 53.52 52.60 52.32 54.40 53.36 52.63 56.36 58.52 63.31 65.56 65.68 66.60 70.60 71.56 71.54 72.98 73.40 73.14 72.72 72.14 71.85 72.18 72.57 72.25 71.80 71.46 70.72 69.69 68.45 67.83 67.57 67.92 67.44 66.04 65.02 64.07 63.39 62.42 61.91
59.39 58.03 55.33 48.09 46.33 48.38 48.54 50.59 51.85 51.86 52.89 52.83 53.02 51.31 54.75 56.93 57.35 60.60 63.03 65.87 65.36 66.10 69.60 70.30 71.48 72.87 73.18 72.95 72.62 72.02 71.60 71.86 72.64 71.97 71.46 70.86 68.83 67.63 66.14 65.61 67.33 67.09 66.07 64.48 63.33 62.42 61.78 60.73 59.48
58.99 55.37 48.99 47.06 46.84 48.31 50.08 51.24 51.88 51.07 51.85 52.12 52.50 51.06 52.56 56.40 58.39 59.90 63.23 65.52 65.68 65.58 67.98 70.59 70.62 71.83 72.48 72.87 72.71 72.27 72.02 72.10 72.59 71.93 71.17 69.70 68.92 67.73 65.30 65.18 65.59 65.36 64.35 62.94 61.93 61.58 59.94 59.02 58.16
53.59 53.37 46.84 45.30 46.29 48.61 50.72 52.50 52.12 51.65 52.09 52.18 51.13 51.80 52.98 57.59 56.87 58.80 62.35 65.02 66.69 65.82 66.83 68.03 68.03 69.55 70.89 71.93 72.24 72.12 72.10 72.38 72.17 71.27 69.30 68.92 68.19 67.18 65.43 64.42 64.53 63.74 62.45 61.66 61.67 59.92 58.91 58.02 57.03
52.22 50.25 46.87 46.88 46.54 47.50 49.54 52.25 51.04 50.90 50.82 50.96 53.40 49.61 53.43 55.91 57.35 58.99 61.34 64.42 66.01 66.91 66.73 67.68 68.80 69.06 67.71 69.48 70.16 70.84 71.57 71.56 71.11 69.34 68.16 68.21 67.56 66.28 65.35 63.89 63.48 62.58 61.40 61.33 60.78 59.30 58.34 57.18 55.57
54.20 51.32 46.85 47.54 45.76 46.11 50.39 51.11 52.38 51.10 50.54 53.37 53.91 49.89 50.96 56.91 57.38 59.18 61.27 62.91 64.96 66.35 66.77 67.15 68.08 68.58 69.54 70.32 66.40 67.89 69.11 69.11 68.70 67.35 66.18 65.43 64.97 64.88 64.07 62.54 62.70 61.52 61.02 60.43 59.64 58.73 57.47 55.91 53.70
55.11 48.00 45.82 46.98 46.42 47.11 50.86 49.28 51.92 53.27 51.24 52.47 53.48 53.32 55.21 56.05 57.01 58.38 59.92 61.26 63.02 64.42 66.20 66.93 67.40 68.11 68.32 68.73 67.94 65.20 65.71 65.93 65.84 64.98 63.43 62.34 64.94 64.16 62.41 60.78 62.07 61.73 61.16 59.69 58.70 57.72 56.11 53.80 51.28
51.30 48.25 47.60 50.23 49.72 48.46 49.76 49.88 50.60 50.41 50.46 50.85 52.38 55.06 56.14 56.17 55.48 56.07 57.19 58.38 60.61 62.42 64.30 66.06 66.90 67.42 68.02 67.35 68.12 68.81 68.40 68.54 67.96 67.34 66.04 65.72 64.69 64.04 61.30 58.83 60.10 61.64 60.23 58.88 57.85 56.45 53.81 51.29 50.82
51.84 47.46 50.15 50.67 51.30 50.95 49.57 49.43 51.28 49.52 48.35 50.73 50.88 52.44 54.16 55.03 55.41 54.92 55.77 56.94 58.54 61.61 63.11 64.23 65.68 66.77 67.35 67.42 67.60 67.59 67.05 66.92 68.55 68.24 66.95 65.95 64.56 62.83 60.55 59.94 59.06 60.06 56.58 56.32 55.67 52.43 49.64 50.26 50.43
48.42 50.49 50.91 51.44 51.78 50.07 49.08 50.81 49.35 50.19 50.41 52.91 53.34 53.89 53.90 53.71 53.80 54.30 54.84 55.89 57.19 58.65 61.20 63.40 64.21 65.28 66.30 66.95 66.60 66.96 66.70 66.78 67.32 67.35 66.91 65.07 63.92 61.44 59.44 58.63 59.18 60.04 57.61 56.48 55.15 51.69 51.52 49.57 48.63
48.68 49.47 50.32 51.26 51.17 50.90 50.86 49.03 49.01 49.51 52.23 53.48 53.56 53.21 52.93 53.33 53.73 54.77 55.40 56.15 56.78 57.18 59.62 62.04 63.91 63.96 64.96 65.53 66.00 65.74 65.90 66.19 66.85 66.34 65.75 64.50 62.47 60.01 58.64 57.80 58.70 58.78 57.05 55.44 52.72 50.48 49.12 48.96 47.81
49.69 49.14 49.15 49.73 49.46 49.69 47.90 48.45 49.33 49.84 52.17 51.68 51.68 51.60 52.27 52.79 53.29 54.05 54.29 54.56 55.33 56.55 58.50 60.36 61.99 63.32 63.55 64.10 65.00 65.05 65.54 65.56 65.71 65.23 64.50 63.55 61.71 59.50 57.50 56.74 57.31 56.94 55.66 53.66 50.62 49.50 48.82 48.42 48.13
48.71 45.14 47.48 48.32 49.05 48.18 48.57 45.31 46.38 50.83 51.54 50.14 50.41 51.03 51.70 52.20 53.09 53.15 54.14 54.57 54.97 56.49 57.16 58.56 60.37 62.13 62.37 63.16 63.92 64.41 64.58 64.24 64.51 64.40 63.76 62.12 61.20 58.76 56.56 55.59 55.68 55.42 53.87 51.33 49.71 48.69 48.63 47.34 46.63
45.37 46.23 42.00 47.51 47.09 47.47 46.87 41.98 47.94 50.23 49.15 48.58 49.64 50.51 51.30 51.74 52.36 53.44 54.11 54.21 54.90 55.34 55.85 56.83 57.47 59.47 61.32 61.92 62.66 63.25 63.80 63.53 63.76 63.78 62.76 61.20 59.96 57.89 55.52 54.05 53.95 53.89 50.85 48.79 47.93 47.00 46.35 46.38 45.71
45.50 40.58 42.81 44.64 48.44 46.13 45.23 42.75 47.73 49.68 48.84 48.11 49.06 49.43 49.95 50.71 52.27 53.52 53.61 53.65 54.02 54.50 54.35 55.11 56.42 57.36 58.93 60.51 61.62 61.98 62.54 62.35 62.45 62.65 61.82 60.64 58.66 56.81 54.33 53.02 52.84 51.74 48.35 47.28 46.75 46.00 46.00 45.37 45.26
42.34 42.80 43.63 42.93 46.63 46.73 45.05 44.47 47.31 49.10 48.63 48.33 48.94 49.81 50.38 50.51 50.97 51.72 51.54 52.07 52.54 53.14 53.66 54.02 54.43 54.82 56.26 57.94 59.56 60.59 60.86 61.18 61.44 61.01 60.45 59.77 58.01 55.86 53.60 52.09 51.29 49.40 47.17 46.25 46.31 45.62 46.02 45.80 45.05
44.42 42.57 41.82 44.28 47.24 45.37 44.08 43.79 45.50 47.59 47.83 47.93 49.02 50.02 50.32 50.22 50.90 50.45 50.05 49.99 49.70 49.95 49.93 50.90 51.61 53.02 53.33 54.77 55.77 56.82 57.35 58.82 58.95 59.53 59.46 58.74 57.01 55.19 52.92 50.97 49.98 47.92 46.22 45.80 45.98 45.48 44.40 44.68 44.21
42.91 41.22 41.11 44.35 46.34 44.57 43.32 42.11 44.53 46.58 47.60 49.04 49.05 49.12 49.18 49.11 48.74 48.09 47.49 47.16 46.59 46.73 47.36 48.18 48.91 50.63 51.66 52.55 54.97 55.30 55.89 57.03 57.58 57.81 57.74 57.52 56.23 54.32 51.98 50.24 48.72 47.14 45.55 45.46 45.13 44.47 42.69 43.90 43.33
42.57 41.14 41.24 41.03 43.58 43.59 41.99 40.78 45.15 47.15 49.76 49.73 49.17 48.66 47.99 47.06 45.69 45.48 45.27 45.15 45.00 44.65 45.38 46.42 47.43 48.57 49.70 50.48 52.09 52.85 53.46 51.76 52.62 53.84 54.82 54.90 54.80 53.72 51.81 49.86 48.64 46.82 45.53 44.38 44.48 44.19 42.88 41.16 42.13
38.62 44.30 41.72 40.11 38.60 36.45 42.43 33.76 42.29 46.04 47.28 46.76 47.05 46.53 46.02 45.00 45.00 44.78 44.19 43.76 43.72 43.97 45.27 45.42 45.86 46.38 47.18 48.87 49.50 49.40 49.38 47.76 49.83 50.29 52.07 52.25 52.65 51.94 51.44 49.66 48.75 47.08 45.41 44.73 44.25 44.14 43.56 43.33 39.61
41.00 42.11 40.66 39.86 38.15 38.74 39.80 36.56 41.42 45.92 43.85 43.87 43.81 44.34 43.87 43.79 43.45 43.01 42.95 42.91 43.52 43.80 43.85 45.10 44.22 44.31 45.39 46.43 47.12 47.20 46.90 47.96 49.12 49.03 48.26 49.71 50.08 49.76 50.09 49.48 48.43 46.90 45.35 44.58 43.95 42.78 42.77 43.44 42.28
42.55 40.30 40.65 40.63 38.91 33.38 39.86 38.47 39.72 41.70 42.08 42.73 43.09 43.11 43.29 43.23 42.88 42.55 43.05 43.05 42.41 43.62 43.24 43.32 43.01 42.63 43.58 44.02 44.61 44.54 44.58 45.05 45.55 46.77 46.17 47.24 47.30 47.46 47.42 48.00 47.61 46.77 45.42 44.07 43.78 42.91 42.30 42.29 42.86
39.88 38.07 33.43 32.53 33.56 33.00 40.59 37.20 40.29 44.43 44.03 43.71 42.04 41.61 42.00 42.35 41.95 41.27 40.84 40.93 40.78 40.72 41.82 41.60 41.54 41.15 42.54 42.82 42.29 42.32 42.42 43.11 43.44 44.49 44.81 45.09 45.58 45.52 45.09 45.82 45.53 45.16 45.13 44.14 43.68 42.56 41.49 41.70 41.35
41.10 39.88 33.81 26.40 29.06 33.56 39.17 34.77 40.16 45.65 43.17 43.05 42.46 41.69 41.19 40.61 40.88 40.17 39.67 39.91 40.17 39.95 40.13 40.26 39.44 38.49 39.62 40.65 40.98 41.65 41.50 41.53 41.91 42.50 42.99 43.40 44.05 45.05 45.73 44.67 44.60 44.22 44.02 43.65 42.83 42.06 41.41 41.26 41.06
40.30 35.57 41.14 33.77 34.00 31.00 34.95 39.83 44.87 45.37 41.41 41.60 40.92 40.29 38.88 39.29 39.75 39.92 39.85 39.15 39.19 39.27 38.86 39.24 38.53 38.34 37.82 38.39 39.40 40.12 40.18 39.97 39.73 40.27 41.15 41.69 42.40 42.73 43.28 43.78 42.90 42.59 42.53 42.14 41.81 40.62 40.06 39.92 40.21
38.81 39.88 34.00 34.91 25.88 24.64 31.63 34.42 36.41 40.71 40.61 39.85 38.30 36.98 36.96 37.84 38.53 39.01 39.06 38.29 38.16 38.66 38.89 38.22 37.95 36.50 36.55 37.11 37.72 38.06 38.13 38.82 39.28 39.55 38.82 39.01 39.61 40.30 40.62 41.05 41.24 40.99 40.73 40.49 39.92 39.38 39.27 38.59 38.73
37.48 35.12 36.49 36.13 33.63 27.10 25.57 31.11 39.43 38.94 39.67 37.18 35.30 35.13 34.95 35.11 35.46 36.76 37.82 37.10 36.66 36.67 36.75 36.53 36.16 35.31 34.83 35.53 36.26 36.55 36.50 36.44 36.20 35.75 36.90 37.63 37.66 38.00 37.67 38.01 38.13 38.57 38.64 39.38 38.77 37.89 37.85 37.13 37.19
40.18 36.69 37.03 30.32 28.63 31.61 30.02 30.33 41.42 38.67 36.75 35.73 33.99 34.39 34.59 34.82 34.23 34.72 36.51 35.95 34.80 34.58 34.82 34.53 34.55 34.13 33.82 33.97 34.85 34.56 34.49 34.72 33.86 33.67 34.16 35.18 35.70 36.63 36.39 36.43 35.95 36.15 36.89 37.48 36.86 36.46 35.53 35.83 35.50

GFSSGP_sfc_wetblb_024.txt.gz
Wetbulb
62.32 61.61 60.44 57.76 48.33 47.03 43.45 45.61 47.02 48.34 48.16 48.84 50.22 48.09 46.80 48.38 46.93 44.49 57.67 62.10 63.18 66.37 69.66 71.56 72.90 73.58 73.61 73.14 72.90 73.05 73.15 72.52 72.17 72.04 72.17 72.40 71.89 72.12 72.20 71.95 71.63 70.94 70.42 69.39 68.93 67.80 67.85 67.10 65.84
59.60 59.83 58.31 53.64 44.47 41.10 41.23 45.30 46.93 48.37 49.15 49.13 49.29 48.80 47.67 46.40 52.37 55.84 57.41 62.67 63.25 66.18 69.67 70.86 71.94 73.27 73.43 72.95 72.83 72.74 72.78 72.94 72.40 72.79 72.54 72.05 71.48 71.35 71.38 71.29 70.76 69.99 69.19 68.54 67.95 67.06 66.35 64.68 64.33
59.83 58.95 52.62 48.51 44.59 40.97 41.61 46.39 47.09 48.80 50.27 47.83 47.29 49.02 47.51 49.13 52.86 54.93 59.98 63.18 62.88 64.30 69.91 70.79 71.60 73.27 73.24 72.97 72.74 72.51 72.52 72.88 73.36 72.76 72.33 71.75 71.16 70.45 69.27 68.72 68.41 68.98 67.87 66.86 65.86 65.15 63.77 63.16 61.83
57.63 55.10 52.01 43.54 43.01 44.39 44.65 46.66 48.37 48.50 48.47 48.50 48.10 46.65 49.32 52.83 53.39 57.57 61.41 63.55 61.63 63.70 69.23 69.90 71.62 73.23 73.28 73.03 72.79 72.44 72.33 72.65 73.03 72.96 72.25 71.71 70.75 68.93 67.10 66.51 68.05 67.93 66.80 65.38 64.22 63.42 62.21 60.96 59.73
56.20 52.75 45.02 42.93 43.76 43.59 44.77 47.64 48.27 47.80 47.43 47.24 47.15 45.73 48.08 51.93 56.67 57.83 60.84 63.05 61.29 62.60 66.47 70.00 71.10 72.26 73.01 72.99 72.82 72.40 72.20 72.35 72.85 72.70 72.24 71.57 69.81 67.80 66.03 65.75 66.61 66.44 65.43 63.87 63.06 62.23 60.59 59.46 58.25
50.66 49.24 42.49 41.16 43.20 45.31 46.75 49.28 47.68 47.38 47.06 47.18 45.19 45.53 47.18 53.28 53.58 55.02 59.56 61.06 62.89 61.92 65.18 69.67 68.65 70.06 71.45 72.18 72.27 72.06 72.02 72.05 72.75 72.15 71.73 70.87 69.78 68.80 66.00 65.23 65.38 65.30 63.72 62.57 62.51 60.12 59.48 58.51 57.09
48.96 46.88 42.71 42.20 43.30 44.47 46.87 47.70 45.03 46.23 46.51 46.35 47.45 43.91 47.39 50.39 53.89 55.12 56.36 59.33 61.66 62.53 63.60 65.29 68.68 68.59 67.76 69.52 70.33 70.84 71.32 71.45 71.90 71.39 70.13 69.31 68.57 67.81 66.38 65.12 64.81 64.01 62.55 62.07 61.43 59.67 58.75 57.59 56.04
50.67 47.38 42.47 41.32 42.20 43.13 47.11 46.60 47.21 46.25 46.39 48.34 48.32 44.07 46.57 50.29 54.10 53.62 55.71 57.45 60.14 61.88 62.88 63.41 65.83 67.99 68.42 68.51 66.89 68.10 69.33 69.80 70.25 68.67 66.77 66.19 65.41 65.09 64.84 63.30 64.31 63.03 61.86 61.69 60.53 59.36 58.18 56.44 54.10
52.84 43.29 41.17 43.53 43.19 43.73 47.58 44.91 47.65 48.67 46.56 47.72 49.46 48.44 50.23 53.59 54.25 53.17 55.03 56.29 58.06 60.68 62.15 63.30 63.72 65.58 66.61 67.61 67.28 65.68 66.91 67.47 66.71 65.17 63.44 62.29 62.38 62.09 61.22 60.57 62.52 62.67 62.13 60.85 59.85 58.56 57.22 54.66 51.72
47.36 43.42 44.41 47.15 46.40 45.27 47.08 46.16 46.39 45.88 46.10 46.51 47.27 50.33 51.81 51.96 51.03 51.21 51.65 53.47 55.99 58.00 60.42 62.47 63.13 63.96 64.97 67.04 66.31 66.98 67.05 66.51 65.64 63.87 62.14 62.38 61.62 61.05 60.89 58.21 60.71 61.97 61.40 60.90 59.32 57.80 55.40 52.40 45.13
48.66 43.90 47.62 47.56 49.09 48.59 47.20 46.29 47.31 45.02 43.87 46.61 46.24 48.63 49.75 48.99 48.34 50.13 50.57 51.59 52.73 57.83 60.07 61.64 62.44 63.39 63.71 64.48 63.90 66.82 66.81 66.98 65.64 64.94 63.94 63.02 61.33 59.51 56.95 55.06 56.09 55.84 56.18 53.89 54.38 51.79 48.06 45.52 44.14
45.21 48.65 48.62 49.33 49.44 47.89 45.77 48.08 45.98 46.23 46.60 49.87 49.41 49.79 49.33 48.94 48.80 49.15 49.55 50.72 51.38 52.77 57.39 60.04 61.69 62.41 63.01 63.43 62.88 63.25 64.25 63.85 65.35 65.46 63.63 63.39 61.88 57.94 54.96 54.39 54.06 54.41 52.28 51.07 49.98 46.77 44.93 44.20 44.23
45.70 47.52 48.99 49.00 48.22 47.47 48.43 46.11 45.71 46.54 48.95 49.70 50.06 49.70 48.58 48.46 48.65 49.96 50.79 51.15 50.96 51.79 53.11 57.54 60.35 60.83 62.14 62.74 62.51 62.23 62.37 63.60 63.51 64.79 63.65 62.13 60.67 56.71 54.48 53.17 53.49 54.19 52.06 50.50 48.01 44.43 43.96 43.08 42.85
46.93 46.81 46.53 47.16 47.04 47.23 45.81 45.12 45.02 46.70 48.54 48.22 48.38 47.81 47.64 47.88 48.19 47.63 48.78 49.45 50.41 51.82 52.35 54.48 58.98 60.33 60.93 61.31 61.70 61.77 61.53 61.72 63.47 63.96 62.00 61.18 60.02 56.20 53.61 51.81 52.65 53.11 51.05 49.11 45.57 43.74 42.65 41.99 41.96
46.94 42.31 44.44 45.75 46.15 45.31 46.06 41.95 42.77 46.96 46.59 46.44 46.71 46.54 47.24 47.71 48.72 47.91 49.03 49.24 49.54 50.74 52.03 53.47 55.31 58.90 58.97 59.66 60.61 61.10 60.84 61.14 60.87 61.29 60.82 60.30 58.63 55.93 53.04 50.97 51.43 51.45 49.66 47.07 43.75 42.80 42.48 41.27 41.86
42.78 41.65 37.18 44.67 44.77 44.17 43.66 37.22 44.79 46.93 45.61 45.51 47.00 46.65 47.05 47.81 48.17 48.42 49.02 49.26 49.25 49.50 50.26 52.53 54.25 55.12 57.61 57.77 58.60 60.07 59.86 59.67 59.46 60.33 59.62 59.32 58.34 55.70 52.06 50.16 50.21 49.93 47.36 43.89 42.03 40.79 40.30 39.64 39.26
40.17 34.95 38.13 41.40 46.16 43.38 41.28 38.08 44.87 46.79 45.70 45.55 46.71 45.87 46.17 46.33 46.50 47.26 47.38 47.42 47.43 47.59 48.42 48.89 51.18 52.63 54.45 56.65 57.16 57.96 58.97 58.50 58.53 58.69 58.64 57.65 57.31 55.38 51.38 49.06 49.01 48.18 44.55 41.92 41.74 39.79 39.54 38.25 38.28
36.35 37.38 39.59 38.85 43.42 43.56 40.94 39.88 43.77 45.55 45.59 45.47 45.03 44.90 45.48 44.84 44.96 45.82 45.37 45.73 45.80 45.64 46.25 46.76 48.26 49.26 52.21 53.12 54.06 54.88 56.14 56.89 57.20 57.11 57.27 57.74 56.03 54.59 49.94 47.71 47.59 45.84 42.28 40.69 40.21 39.04 39.05 38.60 38.43
39.39 38.75 37.75 40.73 44.18 41.41 40.73 40.48 42.17 44.80 44.82 44.40 44.43 44.26 44.33 43.97 44.67 44.57 44.28 43.50 43.59 43.92 44.41 44.91 45.17 46.18 47.97 49.01 49.87 51.03 52.15 53.93 54.68 55.39 56.16 56.50 54.95 53.14 49.57 46.54 45.72 43.43 42.07 41.18 40.06 38.90 38.27 37.88 37.12
40.17 37.37 36.78 40.58 43.51 40.69 39.49 38.61 42.02 43.70 44.12 44.81 43.78 43.52 43.03 42.61 42.63 43.35 42.38 41.79 41.57 41.68 42.47 43.43 44.40 44.91 46.11 46.65 48.86 49.26 49.66 50.15 52.61 53.79 53.98 55.39 54.45 52.62 49.63 46.39 44.32 42.30 40.37 39.75 39.69 38.77 37.31 37.34 37.68
39.15 37.51 37.52 37.34 39.94 39.96 36.94 35.67 39.40 44.45 44.61 44.40 44.31 43.27 42.34 41.34 40.79 40.53 40.43 40.01 40.19 40.30 40.69 41.82 42.65 43.54 44.82 45.34 46.78 47.10 47.53 45.93 45.54 48.08 49.25 51.09 53.01 51.94 50.48 46.93 44.27 42.33 40.56 40.10 39.35 38.84 38.79 35.33 36.09
36.00 41.44 39.88 37.89 33.77 30.11 38.19 29.04 35.51 41.44 41.94 41.77 41.55 39.91 39.58 40.05 40.48 40.48 39.58 39.09 39.16 39.60 40.49 40.94 41.34 41.84 43.52 43.80 44.22 43.58 43.36 42.34 43.29 44.86 46.49 47.67 49.03 49.07 49.54 48.00 44.83 42.54 40.82 39.33 38.80 39.72 39.44 36.60 36.21
38.47 39.50 37.59 35.97 33.10 31.31 33.74 29.88 34.74 40.74 38.11 38.04 38.75 39.24 38.96 38.98 38.95 38.63 38.33 39.35 39.80 39.58 38.88 38.85 39.84 40.62 40.84 40.54 41.03 40.70 40.67 41.47 42.38 42.51 41.60 42.89 44.98 46.03 46.52 46.19 44.72 43.11 41.22 39.00 38.53 37.45 37.02 38.22 36.30
40.18 36.75 36.87 35.30 32.65 25.96 34.40 33.09 32.80 35.84 37.02 37.21 38.88 39.12 39.24 38.57 38.10 38.30 38.81 38.81 37.69 38.00 37.44 37.53 37.88 38.66 39.86 39.59 38.92 38.14 37.74 38.26 38.61 39.25 39.23 40.33 41.76 42.58 43.56 44.05 43.74 43.28 41.31 39.03 38.16 37.68 37.14 36.47 36.60
36.26 32.82 26.68 25.38 24.09 25.33 35.15 31.62 34.93 38.75 39.85 39.65 38.61 37.47 37.46 37.38 36.10 35.91 36.09 36.40 36.69 35.90 36.23 36.77 35.84 35.51 36.87 37.49 37.60 37.42 37.14 36.73 37.00 36.89 37.13 37.40 38.30 39.55 40.67 41.12 40.65 41.41 41.37 39.87 38.50 37.27 36.13 36.67 36.25
36.36 35.71 27.77 19.15 20.54 25.69 32.15 27.57 34.70 39.98 39.94 40.00 39.10 37.61 37.28 36.34 36.67 35.57 35.53 35.18 35.46 35.85 35.65 35.50 35.40 34.71 35.00 35.11 35.90 36.39 36.72 36.79 36.74 36.35 36.16 36.37 36.62 37.37 38.56 38.98 39.28 40.18 40.42 39.71 38.11 36.56 35.71 35.61 36.83
35.08 32.07 36.66 29.00 24.25 22.41 29.13 33.93 39.80 39.24 37.44 37.30 36.57 35.53 34.75 35.65 36.04 35.77 35.07 34.37 34.58 34.55 34.22 34.35 33.42 33.02 33.09 33.81 34.33 34.40 34.58 34.13 33.96 35.12 35.36 35.55 35.66 37.45 36.51 36.24 36.26 37.13 37.94 37.88 37.29 34.85 34.45 34.57 34.44
35.38 36.87 29.51 30.87 24.41 18.28 26.04 26.81 30.70 35.21 35.54 36.35 34.02 33.01 33.73 34.34 34.34 34.98 34.12 33.54 33.59 33.56 33.70 33.42 33.14 31.94 31.73 32.42 33.12 33.48 33.14 33.29 32.76 32.51 32.21 33.14 34.66 35.18 34.59 34.24 34.40 34.74 35.40 35.65 34.99 33.94 33.66 33.48 33.02
32.94 32.36 33.54 33.59 29.53 22.03 21.59 25.57 35.48 34.64 35.55 32.20 32.24 32.81 32.47 32.76 32.13 33.19 34.16 33.15 32.78 32.54 31.92 31.25 31.96 31.11 30.37 31.43 32.34 31.61 31.00 31.14 30.66 29.95 30.61 31.27 31.98 33.14 33.52 33.53 33.11 32.90 33.15 33.59 32.89 32.95 33.06 32.48 32.27
36.41 34.50 34.46 27.38 24.50 28.06 28.23 27.57 37.29 35.28 34.21 33.82 33.18 34.22 33.78 33.70 32.48 31.93 33.46 32.49 31.27 31.42 30.62 31.41 31.58 30.22 30.82 30.54 30.21 30.66 30.69 30.07 28.60 28.20 28.52 29.12 30.16 30.97 31.40 32.33 31.92 32.19 32.40 32.19 31.82 31.94 32.36 31.49 31.37

GFSSGP_sfc_wetblb_027.txt.gz
Wetbulb
60.42 56.91 55.42 52.71 43.66 41.61 37.81 41.12 42.66 44.88 44.08 45.49 47.61 45.72 44.32 45.57 45.11 41.80 55.96 60.17 64.75 67.75 70.18 71.79 72.72 73.61 73.72 73.45 73.20 73.13 73.29 72.55 72.22 71.99 71.93 71.88 71.97 72.18 72.33 71.74 71.78 70.87 69.98 69.56 68.87 68.44 67.91 66.97 65.99
55.33 58.13 53.53 47.71 40.02 35.26 36.92 41.12 43.42 45.43 46.69 46.57 46.39 46.10 44.80 44.26 50.76 54.35 55.87 61.23 64.79 67.98 69.81 71.10 71.64 73.29 73.59 73.28 73.03 72.95 73.35 73.21 72.36 72.17 72.20 72.26 72.08 72.14 71.72 71.57 70.95 70.10 69.08 68.91 68.21 67.81 66.24 65.11 64.16
56.95 56.80 47.72 42.94 38.28 35.70 37.49 40.94 41.49 45.27 46.41 45.60 44.83 46.80 45.48 47.14 50.41 54.88 58.35 61.62 63.14 67.60 69.20 70.98 71.50 73.29 73.31 72.90 72.83 72.88 72.88 73.06 73.06 72.88 72.63 72.05 71.59 71.48 70.46 70.23 70.07 69.46 68.29 67.40 66.63 65.97 64.30 63.11 61.90
53.34 50.87 46.69 39.68 37.05 39.16 39.78 40.61 44.35 44.54 45.30 46.05 44.98 43.23 47.09 50.28 52.16 56.50 60.46 61.63 60.43 66.90 68.76 70.20 71.82 73.30 73.24 72.79 72.76 72.62 72.71 73.05 73.41 73.28 72.63 71.72 71.12 69.99 69.05 68.68 69.25 68.41 67.41 66.22 65.07 64.21 62.69 60.94 59.67
51.17 46.08 39.64 37.93 38.69 41.16 41.85 44.89 45.21 44.67 44.32 45.01 45.32 43.14 45.01 51.38 55.41 58.43 59.85 61.16 59.33 62.58 67.67 69.95 71.38 72.51 72.84 72.77 72.67 72.44 72.48 72.81 73.08 73.08 72.80 72.16 70.53 68.41 67.22 66.81 67.62 67.80 66.34 65.14 64.14 62.65 60.67 59.23 57.93
46.03 43.18 37.17 35.35 38.10 40.93 42.78 45.44 44.22 44.07 44.64 44.40 43.29 42.98 44.16 50.11 51.28 54.65 59.32 59.75 60.02 61.37 67.86 69.60 68.83 70.19 71.47 72.15 72.22 71.99 71.98 72.13 72.56 72.71 72.49 71.89 70.19 67.81 66.60 66.27 66.40 66.08 65.34 63.84 63.38 61.08 59.61 58.34 56.64
45.34 40.91 36.61 37.61 39.28 41.36 43.76 44.61 42.16 41.84 42.81 43.29 44.62 41.57 45.42 47.31 51.04 53.77 57.09 58.63 60.12 60.74 66.69 68.44 69.24 69.17 68.42 69.78 70.17 70.74 71.20 71.33 71.78 71.81 71.51 70.00 69.06 68.28 66.44 66.10 65.65 65.60 64.11 63.21 61.95 60.20 59.09 57.66 55.61
45.78 41.96 38.36 37.94 38.14 39.77 43.77 43.95 45.14 43.27 44.04 46.34 46.08 41.20 43.65 48.85 52.73 53.53 54.62 55.96 57.95 59.39 61.62 66.24 67.49 68.29 68.53 68.90 67.15 68.16 69.15 69.51 70.11 69.69 68.17 66.73 66.49 66.21 65.43 64.05 65.34 64.56 63.09 62.64 61.00 59.72 58.74 56.87 54.31
47.23 38.35 35.88 38.42 39.99 40.16 44.30 43.11 45.78 45.92 43.74 44.41 46.88 45.81 47.68 49.92 52.29 51.50 52.35 53.98 54.92 58.38 60.08 61.23 65.16 66.26 67.25 66.80 66.57 65.02 66.77 67.31 67.40 66.67 64.39 63.46 62.72 62.45 61.79 61.14 63.68 63.90 62.81 62.01 60.60 59.20 57.75 55.01 51.74
43.07 37.74 39.87 42.68 40.85 41.45 43.70 42.31 42.14 43.23 42.92 43.36 45.07 46.73 48.01 51.22 49.05 49.74 50.41 51.59 52.88 54.96 58.03 60.66 61.56 64.59 65.61 68.12 66.82 66.14 66.81 67.04 66.83 65.43 64.40 63.48 61.07 60.30 60.27 58.60 61.10 62.36 62.20 61.85 60.29 58.79 56.38 51.19 43.24
44.41 40.07 43.80 45.97 46.12 45.23 44.56 44.75 44.72 42.34 40.55 44.12 44.02 45.74 47.23 47.79 47.60 48.23 48.46 49.97 52.25 54.50 56.67 59.92 61.30 62.16 63.82 65.24 64.64 66.26 67.49 66.28 64.76 64.55 63.04 62.12 60.62 59.24 58.04 56.29 57.13 56.51 57.12 55.39 56.09 53.51 48.73 46.64 44.01
41.18 46.01 45.95 46.87 46.91 45.30 43.62 45.23 44.79 43.97 46.09 47.05 46.94 47.10 46.19 46.89 47.05 46.51 47.45 48.33 48.33 50.70 56.33 58.53 60.61 61.70 62.22 63.97 63.38 65.55 66.23 65.78 65.34 64.69 63.24 62.61 61.34 59.36 54.97 54.22 53.85 53.53 52.12 50.89 49.25 47.82 45.25 43.02 42.44
41.64 43.30 46.35 46.50 45.89 44.98 45.33 43.63 43.89 44.52 47.81 47.65 47.66 47.72 46.04 45.81 46.06 46.44 47.65 47.84 47.93 48.83 51.05 56.61 59.41 61.06 62.43 61.77 61.41 63.52 64.87 64.56 63.65 64.54 64.06 63.39 61.72 59.15 55.12 52.64 53.10 52.02 50.75 49.45 47.82 45.90 42.68 41.63 41.56
42.70 43.34 43.60 44.59 45.11 44.64 43.43 42.30 42.95 44.93 45.20 45.76 45.75 45.01 44.76 45.28 45.14 44.54 45.64 45.98 46.26 47.61 49.04 51.77 58.54 60.46 60.92 62.18 61.01 60.71 61.10 62.02 61.84 61.12 62.82 63.44 61.66 58.80 55.04 52.34 52.56 52.36 51.05 48.88 46.75 43.26 41.36 40.47 40.30
43.41 40.40 41.77 42.93 43.15 43.10 43.34 39.91 41.60 45.24 44.00 44.71 44.87 42.91 45.22 44.94 44.71 43.49 44.69 44.59 44.85 45.82 47.12 49.25 55.36 57.78 59.23 59.66 60.31 59.97 60.23 60.27 60.74 61.39 60.34 60.63 60.69 57.89 54.27 52.03 51.73 52.36 50.30 47.82 43.74 41.79 40.91 39.57 39.95
40.00 37.05 34.41 41.88 42.43 42.58 41.17 35.86 43.00 44.80 43.10 44.16 44.94 42.38 43.92 43.21 43.18 43.05 43.83 43.76 43.82 44.28 44.48 46.28 49.34 56.51 57.43 57.95 58.51 59.77 59.32 59.04 58.88 59.53 59.49 59.03 59.39 56.94 53.04 51.01 50.43 50.51 48.47 45.34 41.81 40.43 39.34 38.48 37.99
36.10 32.02 34.56 38.74 43.23 41.51 39.32 35.83 42.54 45.03 43.38 43.24 42.47 42.04 42.19 41.56 41.70 41.96 42.56 42.47 42.73 43.12 43.67 44.43 45.73 46.60 54.54 55.80 56.70 57.63 58.46 57.82 57.97 58.28 58.87 59.42 58.06 55.81 53.50 50.09 49.53 48.86 46.06 42.80 41.93 38.50 38.55 36.59 36.44
32.58 32.59 35.89 35.19 40.97 39.69 37.43 37.37 40.77 43.07 43.44 43.81 41.58 39.33 39.91 39.93 40.21 41.70 41.54 42.04 41.98 41.86 42.79 43.46 44.84 45.40 49.15 51.60 52.98 53.85 54.90 55.51 56.01 56.37 58.60 58.57 58.42 54.95 52.27 49.87 48.64 46.90 43.72 40.66 39.46 38.41 37.27 36.71 36.40
35.86 34.75 33.59 37.08 41.62 37.92 38.36 37.56 40.10 42.62 41.84 41.61 39.15 39.29 39.02 39.58 40.89 40.93 40.89 40.53 40.66 40.60 41.02 41.77 42.58 43.61 44.94 45.96 48.28 49.66 50.77 52.53 53.40 56.14 57.34 57.42 57.09 55.57 51.06 49.28 48.43 44.61 43.53 41.29 39.30 37.55 36.97 35.97 35.23
36.98 34.52 34.02 37.46 40.68 37.91 37.26 36.66 39.90 41.75 40.61 40.55 39.73 38.27 38.30 38.79 38.93 39.53 39.30 39.13 38.82 38.85 39.33 40.09 41.01 42.18 43.43 44.93 45.08 46.86 46.28 46.09 49.13 51.91 52.87 55.39 55.17 54.59 51.23 48.14 46.31 43.42 40.51 39.26 38.54 37.72 35.78 36.06 35.61
35.38 34.11 34.26 35.30 36.79 36.96 34.21 33.62 37.61 40.78 40.10 40.17 39.51 39.55 39.14 37.84 37.26 37.48 37.92 37.48 37.94 37.71 37.92 39.29 39.81 40.31 40.86 42.60 44.09 44.20 44.77 44.06 43.52 45.36 47.87 50.67 52.74 52.27 51.18 48.46 46.15 44.06 43.05 41.14 38.91 37.72 37.16 35.28 35.24
33.91 38.23 37.54 36.26 32.01 28.00 34.46 25.57 33.82 37.92 37.07 37.29 37.23 36.12 36.15 36.66 37.23 37.32 36.69 36.67 36.55 36.17 37.30 38.18 39.26 39.43 40.00 39.83 39.73 39.27 39.48 39.06 40.15 41.20 41.96 44.18 46.88 47.95 49.86 48.78 46.85 44.32 42.58 41.05 38.60 38.58 37.53 35.83 33.54
36.32 37.19 35.36 34.33 30.79 28.21 30.38 26.24 31.86 35.42 33.53 34.43 34.97 35.42 35.36 35.81 35.96 35.43 35.21 36.34 36.45 35.66 34.88 35.49 37.01 37.89 38.63 38.46 37.90 37.43 36.86 37.81 38.52 39.29 39.20 40.14 42.58 44.27 45.12 45.31 46.69 44.74 42.92 40.84 39.49 38.53 36.85 35.49 35.62
38.30 34.79 34.33 31.67 29.76 23.83 29.99 29.98 30.22 33.05 34.76 34.42 35.45 35.30 35.24 34.80 34.67 35.10 35.89 35.98 34.63 34.52 33.93 34.68 34.80 35.29 36.43 37.14 36.79 36.09 35.27 35.47 35.49 35.73 36.02 37.01 38.26 40.32 41.29 42.79 42.37 42.33 43.49 41.21 39.75 39.32 38.22 38.25 36.35
35.47 31.24 25.07 22.55 21.05 22.70 31.20 28.40 32.41 36.45 36.76 36.78 34.21 33.45 33.47 33.50 32.98 33.32 33.15 33.15 33.35 33.10 32.91 34.23 33.08 33.10 34.20 34.63 34.69 34.32 34.51 34.69 34.55 34.48 34.46 34.25 34.94 35.49 36.29 37.00 37.88 39.24 40.29 39.92 38.48 37.78 36.94 36.29 37.53
33.42 33.68 25.24 16.36 19.77 21.67 30.90 25.85 31.60 34.92 35.86 35.71 35.25 34.41 34.57 34.06 33.50 32.79 32.86 32.51 32.48 32.22 31.87 31.43 31.29 31.09 32.27 32.76 32.72 32.76 32.76 32.60 32.75 33.06 33.32 33.53 33.74 34.52 35.05 34.79 34.94 35.53 37.15 38.58 37.59 35.97 34.83 34.48 35.05
33.58 30.93 35.00 28.17 19.18 20.01 26.68 31.46 34.71 35.02 33.67 33.54 33.14 33.00 32.93 33.76 33.16 32.57 32.62 32.42 32.31 31.79 31.49 30.93 30.23 30.18 30.67 31.14 31.26 31.02 31.59 31.90 31.58 31.50 31.84 31.82 32.22 33.92 33.80 33.40 33.27 33.65 33.97 34.35 35.27 33.91 33.28 33.32 33.56
35.25 35.95 28.33 27.73 15.11 15.20 24.38 25.74 27.67 31.36 30.94 31.86 31.19 30.85 31.77 32.17 33.90 33.65 32.50 32.78 32.33 32.05 31.16 31.34 30.79 29.70 29.72 30.72 30.98 30.59 30.18 30.21 29.91 29.96 29.28 29.80 30.75 31.14 31.17 31.22 31.49 31.98 32.48 32.51 32.44 31.87 32.25 31.85 32.33
32.10 30.98 31.68 31.54 28.41 20.17 17.38 23.70 33.69 33.26 31.91 30.11 30.36 31.16 31.13 31.28 31.60 32.62 31.17 30.82 31.17 30.85 30.67 31.89 31.79 30.73 29.44 29.72 30.11 30.07 29.86 29.98 29.05 28.75 28.23 27.89 28.42 29.68 29.81 29.73 29.55 29.41 29.68 30.41 30.60 31.03 31.26 30.75 31.40
35.19 32.79 32.67 25.72 23.21 24.86 26.30 26.92 35.62 33.49 32.30 32.20 31.58 32.50 32.05 31.75 30.63 31.05 32.06 30.34 30.03 30.39 30.50 28.88 29.09 29.36 29.33 29.86 30.03 30.23 30.27 29.69 28.51 26.91 27.73 26.93 26.74 27.46 28.56 28.70 27.91 27.78 27.96 28.35 28.49 29.11 30.20 30.13 30.19

GFSSGP_sfc_wetblb_030.txt.gz
Wetbulb
57.66 53.94 53.62 51.34 43.39 39.56 35.89 39.40 41.12 42.73 42.27 44.42 46.15 44.20 42.78 43.98 43.61 40.38 54.52 59.89 64.87 67.22 70.49 71.79 72.88 73.97 74.13 73.91 73.63 73.14 72.78 72.01 72.07 71.87 71.64 71.64 72.13 72.65 72.53 71.97 71.27 70.60 70.09 69.58 69.13 68.94 67.81 66.60 66.12
54.67 56.40 51.76 45.50 38.77 34.20 35.93 39.81 41.64 43.48 45.07 45.18 45.20 44.72 43.66 42.69 49.34 52.83 54.91 59.58 66.33 67.85 70.00 71.24 71.67 73.53 73.83 73.49 73.27 73.11 73.07 72.69 72.07 71.90 71.85 71.65 71.79 72.25 71.60 71.57 70.76 69.92 69.06 68.83 68.20 67.94 66.07 65.33 64.34
55.32 54.26 46.62 41.07 35.51 34.70 36.20 39.68 40.22 43.73 44.45 44.11 43.21 45.37 44.52 45.63 49.93 53.33 56.50 60.53 66.41 67.47 69.54 70.91 71.28 73.31 73.59 73.28 72.97 72.97 73.21 73.23 72.82 71.97 72.05 72.16 72.05 71.81 71.46 70.79 70.14 69.44 68.60 67.69 67.04 65.79 64.47 62.73 62.20
51.96 49.58 44.87 38.68 36.32 38.25 39.68 40.94 42.60 43.03 44.18 44.56 43.72 44.41 45.51 49.05 50.51 55.42 59.27 60.74 65.57 66.95 68.94 69.98 71.62 73.31 73.46 73.00 72.94 72.77 73.08 73.16 72.98 73.18 72.67 71.96 71.48 70.86 70.21 69.86 69.44 68.40 67.35 66.53 65.68 64.32 62.64 60.64 59.63
48.86 43.80 38.29 36.51 36.21 39.13 41.18 43.23 43.54 43.12 42.75 43.46 43.98 42.88 43.33 50.69 54.33 56.44 58.56 59.01 64.46 65.65 67.40 69.57 71.24 72.47 72.85 72.74 72.78 72.72 72.62 72.86 73.09 73.12 72.93 72.10 71.10 69.89 68.89 68.63 68.74 68.25 66.88 65.47 64.57 62.69 60.73 58.86 57.58
45.06 41.38 35.99 34.24 37.14 39.29 42.05 43.13 43.00 41.49 41.19 42.81 42.37 44.46 42.94 49.71 50.88 55.81 58.48 57.91 60.09 65.03 66.47 69.16 68.76 70.06 71.30 71.93 72.11 72.11 72.24 72.53 72.74 72.61 72.12 71.96 70.53 68.71 67.69 67.22 67.23 66.70 65.88 64.66 63.64 61.24 59.58 57.88 55.98
42.86 38.92 35.27 35.41 36.47 39.14 42.50 43.27 41.07 40.76 40.24 41.98 45.62 40.59 44.27 47.04 50.75 53.61 57.10 57.53 57.89 61.70 66.12 67.60 69.20 69.23 68.31 69.55 69.99 70.66 71.26 71.52 71.84 72.11 71.69 70.92 69.48 68.33 67.15 67.18 66.61 65.65 65.17 63.93 62.37 60.09 58.68 57.13 55.08
44.11 40.31 36.89 35.58 36.49 37.97 43.22 43.86 43.17 41.88 41.95 45.57 45.72 40.54 42.59 48.44 50.90 50.77 54.11 56.86 56.81 58.17 65.17 66.25 67.19 68.25 69.39 69.66 67.23 68.01 68.97 69.40 69.79 69.79 68.74 67.21 66.71 66.41 65.73 64.57 65.82 65.50 64.60 63.49 61.69 59.79 58.50 56.71 53.91
44.50 37.11 34.31 36.40 37.38 38.78 42.83 42.22 44.22 43.37 41.87 42.71 45.08 43.31 45.45 48.11 50.34 51.03 50.80 52.49 53.91 57.20 59.64 64.35 66.36 67.29 67.75 67.74 67.48 66.10 66.82 67.21 67.21 66.96 65.24 63.98 64.50 63.51 62.43 61.96 64.60 65.28 63.92 63.04 61.30 59.81 58.26 55.35 51.57
41.21 35.57 37.61 41.08 40.64 40.02 42.80 41.49 42.00 41.91 41.85 42.45 42.04 44.80 46.67 48.49 49.18 49.18 49.23 50.01 51.14 53.80 56.94 60.43 63.85 65.88 66.27 68.33 66.79 67.47 67.86 68.27 67.96 66.38 65.05 65.47 63.04 60.85 60.86 59.43 62.17 63.46 62.53 63.10 61.27 59.64 57.12 50.07 41.26
42.09 38.43 41.57 43.66 44.00 43.48 43.18 42.69 42.99 40.75 40.41 42.79 44.05 43.20 45.24 46.98 47.73 47.85 47.46 48.63 50.21 51.68 54.91 58.55 61.67 64.17 65.12 66.42 66.61 66.28 67.45 66.92 65.69 64.25 63.57 63.84 62.10 60.32 58.43 57.11 58.03 57.23 57.91 56.85 57.61 55.25 49.01 43.74 42.07
39.81 44.65 44.46 45.96 45.25 43.63 42.10 44.32 43.54 42.94 45.16 45.76 46.16 45.17 44.30 45.28 44.41 43.63 44.63 46.12 45.70 48.06 52.59 55.98 59.49 61.72 63.36 64.58 64.60 65.93 66.91 66.39 66.05 63.26 61.82 62.49 61.42 59.96 58.16 56.04 54.80 54.32 53.53 52.30 50.82 49.14 46.73 43.25 42.05
40.70 42.01 44.29 45.70 44.67 43.42 43.74 42.69 41.86 43.30 45.80 45.99 45.31 45.16 43.47 42.89 42.81 43.25 43.79 43.83 43.65 44.04 45.31 50.21 57.20 60.29 62.06 62.07 62.48 64.24 65.55 65.15 65.01 64.41 61.75 62.80 61.51 60.28 58.45 56.50 54.45 52.71 51.21 50.00 48.35 47.31 44.27 41.14 40.32
41.05 42.01 42.73 43.66 43.78 43.11 42.19 40.48 42.26 44.35 42.65 45.21 44.15 43.43 41.98 42.10 41.73 41.64 42.57 42.41 42.74 43.82 43.95 45.09 54.51 59.25 60.41 61.93 60.74 63.14 64.53 65.06 63.87 63.23 62.26 62.16 62.16 60.40 57.68 55.43 52.79 51.47 50.69 49.03 47.99 46.45 41.82 39.97 39.45
42.41 39.56 40.95 41.47 41.43 41.53 41.84 39.09 40.24 44.60 43.11 43.07 42.65 40.97 41.23 40.95 40.92 39.92 41.16 41.22 41.38 42.44 43.25 44.04 46.19 56.35 58.54 60.54 60.04 59.97 61.50 61.01 61.65 60.82 60.53 60.73 61.00 60.81 57.32 54.90 53.40 52.61 50.44 48.68 46.61 43.71 40.36 38.67 38.54
37.76 36.02 33.67 40.14 40.88 40.93 40.17 36.04 42.55 44.14 41.64 41.87 40.25 38.36 39.46 39.61 39.78 39.97 40.59 40.53 40.77 41.32 41.95 43.72 45.73 48.27 55.85 57.16 58.18 59.07 58.93 58.74 59.27 59.57 59.54 59.27 59.42 59.71 56.32 54.79 54.01 53.49 51.59 48.10 44.68 41.34 39.07 37.85 36.95
34.47 30.67 32.82 37.83 42.07 40.21 38.13 35.67 41.73 44.10 41.68 40.63 38.41 37.59 38.47 38.40 39.08 39.45 39.78 39.61 39.63 40.08 40.95 42.21 44.09 44.49 51.37 55.29 56.37 57.01 57.07 56.91 57.18 57.89 60.37 60.25 59.97 58.04 56.57 54.86 53.71 52.37 51.15 45.93 44.26 39.22 38.87 36.96 36.01
31.37 30.86 33.41 34.14 38.90 38.07 37.54 36.89 40.12 42.44 41.03 38.98 36.42 36.12 37.05 37.15 37.31 39.11 39.05 39.47 39.33 39.30 40.13 40.95 42.63 43.36 45.27 49.96 52.14 52.95 54.14 54.58 55.03 56.72 59.08 59.34 58.63 56.24 54.90 53.21 51.84 51.05 48.90 43.34 40.48 39.26 37.19 36.88 36.23
34.29 33.16 32.75 35.30 40.16 36.19 36.75 36.11 39.68 41.23 40.85 37.25 36.03 36.51 36.63 36.72 38.39 38.70 38.57 38.27 38.27 38.57 38.99 39.27 39.75 40.48 43.02 43.24 45.92 47.85 48.92 49.36 53.13 54.69 56.23 57.88 57.77 55.25 53.98 52.63 51.54 48.83 47.88 46.39 42.36 38.04 37.19 35.48 34.94
34.90 33.22 32.87 36.28 38.59 36.35 35.83 36.13 39.14 38.81 37.52 36.57 36.01 35.63 35.80 35.92 36.29 37.15 36.78 36.35 36.34 36.48 37.70 38.43 38.73 38.89 39.95 41.78 42.15 44.16 43.77 43.59 45.05 47.52 49.72 51.10 54.52 55.10 52.87 51.47 50.19 48.66 45.15 43.01 41.04 39.77 35.61 35.92 35.00
34.49 33.19 33.07 34.54 35.84 35.25 33.12 32.82 36.12 36.05 37.26 37.84 37.07 36.54 35.98 34.85 34.40 34.55 34.60 33.94 34.19 34.09 34.91 37.11 37.89 38.24 38.24 39.34 40.75 41.26 41.42 41.15 41.22 41.38 42.86 45.28 48.14 49.73 50.65 50.16 47.79 46.14 44.81 43.43 41.63 39.97 39.26 37.01 34.54
33.28 37.80 36.68 34.73 31.26 28.15 32.71 24.29 32.35 34.40 33.97 34.69 34.30 33.14 33.14 33.49 34.09 34.41 33.87 33.40 33.29 32.67 33.74 35.38 36.52 36.96 37.73 37.77 37.42 36.65 36.35 35.73 36.23 37.42 38.27 39.87 41.38 41.82 43.77 46.27 47.28 45.52 43.77 42.72 41.43 40.85 39.56 38.52 36.70
36.11 36.85 34.79 32.88 29.89 27.37 27.43 25.08 29.47 33.34 31.41 31.66 31.98 32.81 32.76 33.04 33.05 32.74 32.74 33.87 33.39 32.86 32.14 33.08 34.68 35.04 35.44 35.56 35.96 35.58 34.71 35.18 35.57 35.78 35.63 36.19 37.22 37.73 37.36 38.52 41.15 42.91 44.39 42.26 40.69 39.68 38.38 38.33 38.29
37.59 34.17 33.16 29.93 28.40 22.85 27.88 27.76 28.74 31.23 33.20 31.85 32.30 32.26 32.77 32.46 32.36 32.72 33.25 33.04 31.71 31.01 31.00 31.58 32.81 33.00 33.73 33.50 33.02 32.48 32.16 32.36 31.94 32.63 33.00 33.84 34.80 35.46 35.39 35.75 35.83 37.05 38.23 39.79 41.25 40.04 38.96 38.50 38.37
34.08 31.22 24.96 21.58 20.54 22.64 29.75 26.39 30.35 32.37 34.36 34.37 31.45 30.87 31.21 31.44 31.05 31.11 30.94 30.48 30.52 29.77 29.44 31.22 30.87 30.77 31.77 31.85 31.55 31.09 30.52 30.26 30.13 30.32 30.39 30.83 31.48 32.65 33.20 33.59 33.32 33.99 34.66 35.66 36.80 37.92 38.52 38.12 37.72
31.77 32.20 24.71 15.62 18.77 22.22 28.05 24.73 28.84 32.05 33.18 33.38 33.06 32.30 32.31 31.36 31.53 31.17 31.37 31.02 30.72 30.17 29.10 28.90 29.40 29.65 30.65 30.36 30.12 30.13 29.76 29.54 29.65 29.52 29.66 29.80 30.10 30.98 31.90 31.94 32.03 32.41 33.15 33.31 33.55 34.00 34.01 35.72 36.49
32.45 29.75 32.87 27.04 15.36 19.04 25.98 27.86 32.09 32.21 31.01 31.43 31.51 31.99 31.58 31.54 31.23 30.98 31.19 31.28 30.93 30.78 29.88 29.40 28.30 28.26 29.12 29.37 29.24 29.41 29.04 28.08 28.27 28.26 28.83 29.51 30.01 30.71 30.47 30.58 30.39 30.60 30.99 31.08 31.47 30.76 30.74 31.32 32.32
33.75 35.48 27.48 26.43 14.78 16.16 22.89 24.97 26.34 28.54 28.88 30.47 30.47 30.80 31.40 31.95 31.56 30.87 30.43 30.37 30.46 30.55 30.20 30.19 29.37 28.10 28.93 29.05 29.34 29.16 28.37 28.98 27.18 26.18 25.46 25.62 27.02 28.17 28.41 28.26 29.10 29.50 29.59 29.44 29.16 29.18 30.38 29.68 30.29
30.45 29.58 30.07 30.00 25.45 16.47 14.07 22.09 30.75 31.72 31.29 30.20 31.15 31.59 30.49 30.65 31.27 30.41 29.81 30.72 30.77 30.03 30.06 29.77 28.63 28.33 28.14 27.83 28.16 28.73 27.80 27.59 27.47 26.57 26.48 25.24 25.15 25.29 25.41 26.07 26.73 27.26 27.85 27.35 27.65 28.05 28.24 28.09 28.88
32.61 30.98 31.04 23.60 21.08 23.11 23.94 24.97 34.70 34.33 32.84 32.06 31.33 31.78 31.07 30.41 29.89 29.90 28.21 28.15 27.76 27.33 26.89 27.04 27.97 27.82 27.96 28.20 27.94 27.77 27.33 26.15 25.41 25.26 25.58 26.22 25.80 25.99 24.76 25.22 25.27 25.57 25.57 25.67 26.36 26.32 27.21 27.19 26.78

GFSSGP_sfc_wetblb_033.txt.gz
Wetbulb
56.43 52.82 52.09 49.90 42.82 38.77 35.13 37.71 39.56 41.14 40.75 46.15 44.77 43.09 41.77 42.95 42.63 39.25 52.28 59.86 63.63 65.57 69.18 71.53 72.98 73.90 74.41 74.18 73.73 73.18 72.76 72.38 72.27 71.77 71.66 72.02 72.88 72.71 72.21 71.57 70.92 70.41 69.86 69.40 69.04 68.51 67.51 66.82 66.19
54.13 54.56 50.34 43.71 37.45 33.22 35.31 38.00 39.92 41.87 43.46 43.75 43.91 43.45 43.24 42.01 46.95 51.21 54.75 59.54 65.24 67.03 69.63 71.04 71.70 73.61 74.12 73.95 73.39 72.99 72.80 72.50 72.10 71.66 71.55 71.56 71.99 72.00 71.78 71.26 70.24 69.52 69.05 68.69 68.25 67.38 66.17 65.12 64.62
53.86 51.99 45.50 39.81 33.97 33.73 35.39 38.48 41.65 42.60 43.27 42.74 45.52 45.27 45.78 44.13 48.34 50.90 54.86 58.90 65.45 67.09 69.47 70.61 71.31 73.54 73.83 73.60 73.24 72.94 72.80 72.72 72.23 71.77 71.58 71.41 71.51 71.65 71.41 70.91 69.91 69.20 68.51 67.51 67.14 65.60 64.55 63.00 62.49
50.88 48.47 43.36 37.82 35.82 37.50 39.31 41.15 40.59 41.71 45.01 43.44 44.89 44.42 44.06 48.01 48.71 52.81 57.57 62.40 64.45 66.05 68.52 69.80 71.59 73.44 73.58 73.21 73.05 72.97 72.96 72.88 72.48 71.87 71.79 71.90 71.97 71.49 70.85 70.17 69.28 68.06 67.47 66.33 65.66 64.24 62.28 60.64 59.74
46.69 42.52 37.30 35.20 35.43 37.83 42.02 40.98 41.94 41.67 41.27 42.05 43.64 41.11 42.27 47.56 53.18 56.51 57.51 62.29 63.44 64.85 67.03 68.51 70.96 72.52 73.08 73.06 72.86 72.64 72.94 73.13 72.81 72.81 72.84 72.01 71.18 70.37 69.84 69.55 68.82 67.59 65.76 65.43 64.46 62.52 60.61 58.86 57.25
44.08 40.25 35.44 33.21 35.35 38.35 40.57 41.41 41.44 40.28 39.83 41.29 44.91 43.54 42.04 47.94 52.02 54.74 57.38 56.89 63.48 64.51 66.01 67.99 68.19 69.97 71.50 72.16 72.25 72.31 72.43 72.63 72.65 72.86 72.46 72.14 71.18 69.94 68.83 68.09 67.79 67.06 65.72 64.86 63.77 61.32 59.32 57.40 55.66
41.65 37.35 34.23 33.52 34.98 37.66 40.56 42.85 43.40 41.21 39.11 42.47 46.78 43.08 44.30 46.49 49.86 51.11 56.38 55.64 58.10 63.81 64.97 66.62 68.64 68.68 67.80 69.18 69.09 70.68 71.45 71.68 71.97 72.01 71.54 70.80 70.21 69.23 68.44 67.88 67.71 66.20 65.46 64.65 63.36 60.37 58.45 56.58 54.62
42.42 39.02 34.92 33.70 34.69 36.12 41.59 41.97 41.70 40.37 40.91 44.46 44.16 41.28 42.54 48.36 48.43 51.51 52.89 54.05 54.28 58.94 64.23 65.29 67.02 68.93 68.68 68.46 66.57 67.58 68.97 69.61 70.16 69.76 68.41 67.51 67.00 66.88 66.20 65.06 66.22 65.86 64.97 64.37 62.72 59.92 58.22 56.43 53.72
42.36 35.89 32.74 35.32 35.79 38.08 41.85 41.86 41.98 42.24 41.65 41.77 43.61 45.33 44.24 47.62 48.78 49.89 49.39 51.42 52.74 56.27 60.08 63.60 65.20 67.28 69.39 69.69 67.65 65.51 66.44 66.96 66.90 66.56 65.28 63.82 64.73 63.86 62.85 62.37 64.69 66.21 65.33 63.82 62.42 59.92 58.38 55.48 51.87
39.68 33.93 35.77 38.94 39.71 39.35 41.95 40.26 41.39 41.26 42.47 40.19 41.09 44.65 45.56 46.99 48.39 48.00 47.77 48.20 49.34 51.77 55.28 60.15 63.41 65.51 67.46 68.13 68.32 68.03 68.36 68.26 67.85 67.28 65.59 64.76 64.74 63.22 61.36 59.86 62.51 64.26 63.22 63.80 62.15 60.07 58.15 49.74 40.49
39.95 36.88 39.95 41.96 42.44 42.06 41.48 40.77 41.47 39.75 38.43 42.12 42.37 43.51 44.18 44.99 45.87 45.13 44.17 44.14 46.03 48.56 51.54 56.45 60.65 63.25 66.17 67.23 67.43 67.18 65.34 66.21 66.83 66.44 65.64 64.06 63.24 61.52 60.59 59.62 59.17 58.30 58.23 57.23 58.26 55.11 49.28 41.74 38.90
39.79 42.95 42.14 44.27 44.31 42.12 40.72 42.55 42.34 41.23 44.33 44.01 44.14 43.19 42.68 41.02 40.89 41.24 41.23 41.49 41.50 42.55 44.06 46.10 55.28 60.77 62.47 64.72 66.52 66.56 66.49 64.72 65.05 64.29 63.68 63.02 61.70 60.56 59.36 58.49 57.83 56.39 54.45 53.29 52.03 50.12 47.84 43.77 41.75
39.26 40.63 42.66 44.50 43.36 42.19 42.14 41.59 40.74 42.23 44.82 44.19 43.25 42.33 41.10 40.42 40.34 40.63 41.34 41.53 41.27 41.48 42.32 42.95 44.28 57.02 61.18 61.40 61.91 64.87 65.56 66.17 65.70 64.71 62.97 60.46 60.89 60.49 59.05 57.91 56.91 56.07 54.30 51.44 49.72 48.19 46.86 42.23 39.97
40.54 40.75 41.72 42.40 42.84 41.36 40.70 38.99 39.82 42.83 42.35 42.88 42.06 40.11 39.04 39.13 38.94 38.95 39.58 39.74 40.01 41.33 41.69 42.98 44.13 49.18 58.55 60.84 59.92 62.75 64.80 64.75 64.16 63.77 63.58 60.64 59.50 58.80 59.08 57.41 56.18 55.07 53.75 50.71 49.31 47.65 45.49 40.88 38.87
40.98 39.05 40.08 40.05 40.08 40.05 40.94 37.70 39.31 43.28 42.53 40.83 39.48 37.74 38.31 38.40 38.59 37.47 38.52 38.48 38.59 39.90 41.12 42.33 44.82 47.23 56.27 58.28 58.58 59.44 63.44 63.43 63.01 63.13 61.97 59.91 59.95 60.12 59.18 57.24 55.37 55.01 53.02 50.21 47.90 45.99 42.73 39.57 38.27
36.54 35.25 32.63 38.05 39.60 39.68 39.37 36.33 41.94 42.83 40.72 38.94 36.83 35.51 37.10 37.55 37.70 37.81 38.30 38.18 38.46 38.92 39.63 41.80 44.07 44.71 53.13 56.38 57.35 58.25 58.62 58.84 59.50 60.14 61.12 60.90 60.75 60.29 58.02 56.23 55.01 54.87 52.85 51.63 49.33 46.35 41.84 39.51 37.27
33.19 29.35 31.11 36.35 40.12 38.68 37.43 35.45 41.35 42.35 41.20 37.30 35.00 35.24 36.19 36.09 36.88 37.49 37.77 37.59 37.79 38.23 38.85 40.01 41.73 42.79 46.33 53.32 55.34 56.15 56.11 57.21 58.17 59.34 60.34 60.63 60.36 60.06 58.20 56.51 55.08 53.63 52.83 51.04 48.95 43.88 43.05 38.77 36.83
30.14 29.97 31.73 32.27 36.73 37.43 35.56 36.28 40.03 41.05 39.36 35.46 34.13 34.26 34.73 35.05 35.38 36.92 36.81 37.23 37.38 37.73 38.52 39.11 40.42 41.01 44.07 47.02 50.52 50.01 49.13 50.69 53.06 53.02 54.82 58.32 58.89 57.73 56.67 55.62 54.26 53.15 51.80 48.62 45.84 44.15 40.32 37.73 37.22
32.62 31.45 31.16 33.39 38.62 35.19 35.54 35.21 38.54 39.16 35.45 33.70 33.78 33.82 34.16 34.67 36.38 36.24 35.77 35.37 35.83 36.46 37.12 37.45 37.82 38.63 40.92 41.92 43.34 44.81 42.80 43.30 43.88 46.46 47.69 50.36 52.74 54.95 54.54 54.24 53.23 51.62 50.70 49.11 46.36 42.00 40.96 38.85 37.77
32.88 30.79 31.51 35.27 37.18 35.51 35.19 35.65 35.99 35.28 34.50 34.19 33.75 33.08 33.25 33.40 33.58 34.28 33.82 33.43 33.35 33.84 35.52 36.42 36.87 37.20 38.27 39.49 39.87 41.63 40.74 40.58 40.69 42.40 43.15 43.75 45.36 47.43 49.72 49.64 48.60 48.50 47.41 45.35 43.67 41.93 39.72 39.36 37.87
32.97 31.73 31.98 33.86 34.15 33.46 31.47 31.82 33.20 34.02 34.66 34.86 34.20 33.91 33.46 32.37 31.93 32.09 32.17 31.36 31.66 32.03 32.66 34.87 35.62 36.38 36.93 38.12 38.82 38.99 38.81 37.75 37.35 37.52 38.57 39.08 39.98 39.80 41.73 44.57 46.76 45.93 45.43 44.79 43.53 41.80 40.60 39.98 37.87
32.10 36.69 35.89 33.66 30.81 28.28 31.60 24.75 30.21 31.73 31.54 32.24 32.10 30.91 30.87 31.26 32.01 32.22 31.28 30.61 30.42 30.54 31.51 33.34 33.98 33.96 35.18 36.53 36.26 35.24 34.02 32.90 33.44 34.63 35.42 36.23 36.69 36.05 36.74 37.61 39.36 42.32 43.86 43.07 42.12 41.93 40.30 39.22 38.57
35.45 35.73 33.96 31.77 28.79 26.83 27.26 25.10 27.61 30.95 29.19 29.62 30.14 30.85 30.57 30.99 30.98 30.66 30.52 30.94 30.19 30.12 29.31 30.46 32.27 32.33 32.24 32.49 33.00 32.34 30.81 31.69 31.53 31.85 31.76 32.64 33.77 33.82 33.72 34.66 35.18 35.63 36.71 37.62 39.76 40.36 39.39 38.75 38.05
36.58 33.47 32.11 29.00 27.73 22.59 27.57 27.80 26.52 29.61 31.05 30.08 30.84 30.57 31.17 30.77 30.53 30.54 30.78 30.68 28.99 28.72 28.90 29.46 30.50 30.51 30.87 30.69 30.47 29.67 28.89 28.86 28.87 28.90 28.99 29.83 30.97 31.32 31.39 31.91 32.13 33.00 33.53 33.72 34.75 36.19 37.06 38.33 38.58
33.24 30.78 24.68 21.97 20.63 22.76 27.30 25.25 28.72 30.82 31.45 32.99 30.63 29.88 30.21 30.60 29.84 29.76 29.24 28.70 28.00 27.36 28.01 29.76 29.26 28.74 29.09 29.21 28.77 28.60 27.80 27.56 27.34 27.68 27.85 27.79 28.09 28.72 29.22 29.87 29.64 29.97 30.72 31.35 32.18 32.91 33.36 34.76 35.03
30.96 31.64 25.17 16.29 17.88 21.77 27.06 24.82 29.30 30.64 31.25 32.74 32.06 30.77 30.23 30.03 30.49 30.04 29.73 28.70 27.98 27.85 27.16 27.75 28.47 28.21 28.19 28.06 27.64 27.34 27.27 27.08 26.96 26.89 26.97 27.03 27.91 28.46 28.19 28.30 28.34 28.63 29.38 29.39 29.56 29.96 30.23 31.60 31.55
31.11 28.82 31.62 25.78 13.24 18.28 25.75 27.75 30.57 30.66 29.78 29.77 29.63 29.80 29.58 29.76 29.88 30.13 29.95 29.03 28.45 27.63 27.14 26.81 26.91 27.34 27.73 27.31 26.83 26.59 26.47 25.97 25.45 25.38 25.84 25.56 27.00 28.91 28.46 28.13 28.20 28.31 27.78 28.77 28.60 27.76 27.66 28.68 30.39
33.15 34.67 27.49 25.65 15.08 14.48 22.53 24.10 26.10 27.40 27.96 29.53 29.44 29.89 30.59 30.79 30.36 29.72 29.31 29.24 29.09 28.69 27.95 27.31 27.09 26.68 26.98 27.24 27.24 26.70 26.11 26.31 25.68 25.01 25.01 25.00 24.68 25.30 25.32 25.29 25.50 25.54 26.21 26.58 26.58 26.15 26.47 26.74 27.14
30.35 28.98 29.30 29.29 24.51 16.33 13.29 21.82 29.74 30.70 30.65 29.58 30.20 31.27 31.11 31.32 30.82 30.02 29.46 29.36 28.87 28.31 27.56 26.87 26.28 25.80 25.61 26.13 26.05 25.70 25.31 25.19 25.17 24.81 24.59 24.74 25.32 24.70 24.68 24.90 24.50 24.20 24.18 24.18 24.03 24.28 25.09 25.19 25.54
31.54 30.75 30.72 26.00 22.07 22.35 22.52 25.84 33.03 32.17 32.28 31.45 31.21 32.04 31.33 31.11 31.01 29.58 27.85 27.57 27.16 26.64 26.09 26.14 26.47 26.34 26.42 26.40 26.08 25.90 25.56 25.24 24.74 24.46 24.55 24.71 24.42 24.71 24.32 24.34 24.63 23.81 24.00 23.38 22.93 22.63 23.03 23.04 23.59

GFSSGP_sfc_wetblb_036.txt.gz
Wetbulb
55.41 52.48 50.84 48.48 41.69 38.10 33.99 36.98 40.60 39.87 41.52 44.94 43.64 42.32 43.32 41.85 41.44 38.37 49.97 58.10 62.41 64.80 68.18 71.23 73.03 74.18 74.24 74.16 73.84 73.35 72.76 72.36 72.23 71.91 72.14 72.93 72.90 72.73 72.07 71.31 70.74 70.32 69.57 69.08 68.53 68.24 67.83 66.73 66.58
52.95 53.12 48.80 42.16 36.61 32.38 34.67 36.91 38.55 40.47 41.99 43.37 44.03 43.00 43.24 41.44 45.47 50.29 53.40 58.55 62.81 65.49 69.10 70.45 71.66 73.66 74.35 74.15 73.54 73.15 72.89 72.47 72.00 71.44 71.65 72.26 72.36 71.99 71.49 70.81 70.00 69.54 69.28 68.49 68.17 67.14 66.13 65.23 64.88
52.59 50.39 44.75 38.28 32.94 32.74 34.66 38.03 40.88 41.70 41.94 45.19 44.47 46.66 44.68 42.90 48.20 51.55 54.20 59.24 64.36 65.75 68.44 70.06 71.32 73.39 74.20 73.89 73.35 72.99 72.84 72.80 72.10 71.48 71.25 71.21 71.55 71.53 71.57 70.54 69.71 69.09 68.58 67.77 66.99 65.76 64.09 63.12 62.65
49.86 47.04 42.24 36.63 34.31 36.64 37.71 40.11 39.23 42.21 44.85 43.42 44.69 43.00 42.83 46.65 47.24 52.20 56.43 59.94 63.50 65.50 67.89 69.46 71.68 73.58 73.88 73.62 73.28 72.96 72.76 72.57 72.33 71.90 71.46 71.43 71.67 71.67 71.13 70.23 69.06 68.01 67.49 66.76 65.89 64.44 62.61 61.12 59.99
45.10 41.74 36.68 34.44 34.99 37.82 38.80 39.68 39.98 40.23 43.71 44.39 44.77 42.44 42.18 46.33 53.82 55.39 56.38 61.60 61.71 63.72 66.37 68.01 70.99 72.66 73.28 73.31 73.15 72.96 72.81 72.81 72.72 72.42 72.30 72.44 71.98 70.96 70.36 69.89 68.50 67.12 66.03 65.20 64.89 62.96 61.13 59.28 57.77
43.23 39.61 34.74 32.03 34.86 37.13 39.32 39.45 40.44 38.98 39.66 42.66 43.49 42.15 43.53 46.40 51.25 53.45 55.70 55.32 61.34 63.58 65.58 67.40 67.75 69.93 71.48 72.28 72.48 72.38 72.31 72.39 72.58 72.58 72.25 72.09 71.02 70.29 69.77 69.31 68.01 66.60 65.18 64.52 63.95 61.76 59.93 57.88 56.48
40.61 35.91 33.22 32.90 33.48 36.51 38.78 40.53 41.86 41.70 39.57 43.68 45.03 41.90 43.72 48.12 47.92 50.01 54.03 53.01 56.02 61.08 64.18 65.45 67.19 68.02 67.84 69.53 70.12 70.83 71.48 71.55 71.25 71.41 71.36 70.83 70.46 69.94 69.09 68.22 68.01 66.27 64.98 64.13 63.66 60.83 59.04 57.13 55.61
40.75 37.87 33.21 32.10 33.44 34.78 39.62 40.46 40.69 43.22 39.78 43.48 42.79 40.45 41.58 46.20 48.44 52.11 53.67 54.93 54.47 58.49 62.30 63.46 65.09 68.99 67.85 68.00 66.29 66.86 68.96 69.69 69.98 69.30 68.17 67.09 67.45 67.36 66.79 65.32 66.50 66.47 65.08 63.96 63.22 60.20 58.61 57.01 54.68
40.44 34.63 31.73 34.18 35.25 37.07 39.89 40.60 40.68 41.41 40.23 41.84 42.07 44.96 42.97 47.36 48.74 49.72 49.01 49.94 51.60 55.03 56.50 61.80 63.57 67.62 68.21 69.19 66.21 64.88 66.18 66.82 67.09 66.97 65.50 63.37 65.19 64.51 62.91 62.47 64.70 66.45 65.72 64.17 62.97 60.02 58.50 55.90 52.26
38.28 32.80 34.45 37.02 40.01 40.13 39.93 39.70 40.66 42.39 40.62 39.10 40.45 43.63 44.71 44.36 44.41 43.60 41.96 41.72 42.31 44.58 49.84 55.33 61.22 65.48 67.16 67.83 68.16 67.90 66.68 68.16 67.95 67.63 66.39 65.16 64.24 63.85 62.94 60.64 62.34 64.30 63.68 64.17 62.62 60.10 57.31 48.52 39.02
38.45 35.55 37.58 39.92 41.23 40.81 40.03 39.81 40.75 40.45 38.80 39.43 39.73 42.30 41.97 40.90 40.83 40.47 40.11 39.61 39.56 40.71 42.70 43.86 48.16 60.78 65.89 66.74 67.15 67.35 67.83 66.25 67.04 66.84 66.26 65.29 63.90 62.07 61.66 60.85 61.32 60.96 58.61 56.93 57.44 53.45 49.60 43.27 38.63
38.60 41.22 41.00 42.95 42.77 41.04 39.39 41.54 40.54 40.64 41.18 42.62 41.11 40.57 39.65 39.22 39.06 39.00 38.93 39.36 39.36 40.21 41.45 42.56 42.87 44.82 61.85 65.83 66.48 66.48 66.35 65.11 63.06 64.73 65.17 64.01 62.78 61.63 60.53 59.73 59.34 58.79 57.26 56.01 53.56 50.72 48.25 44.71 41.76
39.63 39.54 41.24 42.62 42.35 41.13 41.14 40.06 39.47 41.51 41.29 41.19 41.37 39.95 38.05 37.77 37.77 38.22 38.75 39.30 39.04 39.37 40.72 41.73 42.63 43.56 54.09 63.18 64.89 65.25 65.23 65.86 65.05 64.29 63.68 62.98 62.09 60.99 60.12 59.31 58.26 57.64 56.21 55.36 53.59 50.65 48.00 45.37 41.20
38.83 39.61 40.66 41.38 40.66 40.30 39.99 37.78 38.36 39.10 39.74 40.21 39.55 37.04 36.75 36.89 36.67 36.74 37.39 37.45 37.76 39.11 39.71 41.34 43.23 45.30 50.03 58.77 61.91 63.43 63.99 63.97 64.50 64.17 63.01 61.60 61.51 60.52 59.81 58.69 56.95 56.70 55.77 54.94 51.57 49.41 47.57 45.13 39.99
39.68 37.68 38.46 38.22 38.47 39.13 39.87 36.75 38.44 39.70 39.87 38.02 36.39 35.74 36.42 36.45 36.65 35.49 36.44 36.50 36.75 38.07 39.22 40.45 43.29 45.87 53.92 56.98 58.30 61.52 62.97 62.86 62.73 62.81 62.85 62.16 61.41 60.70 59.30 57.71 56.89 56.91 55.30 53.27 51.13 49.29 47.15 44.26 39.81
35.66 34.33 32.32 36.40 38.17 38.28 38.95 35.59 39.86 39.39 39.76 35.62 34.84 33.78 35.07 35.58 35.70 35.80 36.29 36.31 36.90 37.24 37.94 40.08 42.49 44.86 53.04 55.80 57.00 58.50 58.51 58.55 58.86 59.96 60.93 61.11 61.13 61.01 59.52 58.17 56.84 56.34 54.53 52.80 50.74 49.14 47.10 45.12 42.18
32.17 30.09 29.65 35.03 38.25 37.45 36.19 34.85 40.32 39.73 37.83 34.24 33.19 33.41 34.37 34.21 34.82 35.05 35.17 35.23 35.88 36.29 37.08 38.54 40.34 41.83 48.28 51.26 51.82 51.26 50.94 51.07 50.94 51.58 53.16 55.84 57.01 58.51 58.99 57.72 57.35 56.00 53.93 51.81 50.73 47.78 46.78 45.00 42.72
30.13 28.65 30.41 31.24 35.40 36.38 34.12 36.36 39.49 37.87 36.32 32.93 31.94 32.25 32.81 32.91 33.04 34.15 34.06 34.48 34.95 35.32 36.64 37.57 39.28 39.65 42.63 46.76 46.11 45.69 44.65 44.57 45.43 44.45 45.66 47.23 49.58 52.52 54.00 53.81 53.12 53.20 52.28 50.25 48.62 47.13 43.19 41.45 41.07
32.79 30.64 31.06 32.47 36.93 34.44 35.17 34.71 37.00 34.90 33.04 31.95 31.70 31.76 31.83 32.09 33.69 33.68 33.57 33.02 33.63 34.64 35.69 36.14 37.06 37.78 40.05 39.97 41.85 41.34 39.34 39.94 40.60 41.10 41.60 41.67 42.39 45.51 47.71 48.97 48.78 49.83 48.50 47.45 46.04 43.92 43.33 42.65 39.11
32.08 30.20 30.23 33.94 35.81 35.21 33.67 34.66 33.08 33.61 32.34 32.71 31.92 31.21 31.04 30.81 31.31 32.20 31.88 31.59 31.33 31.78 33.20 34.62 35.68 36.50 37.88 38.39 38.48 38.38 38.00 37.37 37.66 39.20 38.84 38.75 39.27 40.18 41.65 44.02 45.07 45.47 46.04 45.67 44.53 43.22 41.93 40.98 39.34
31.14 30.35 30.49 33.11 33.01 32.50 30.78 31.18 30.87 32.17 32.79 33.08 32.58 32.23 31.72 30.50 30.09 30.02 29.98 29.35 29.37 29.79 29.96 32.19 32.92 34.48 35.60 36.93 37.51 37.07 36.51 35.18 34.60 34.33 34.65 34.46 34.95 35.88 36.79 37.61 39.34 41.15 42.47 42.34 42.73 42.24 41.54 40.38 39.90
30.48 35.44 34.89 32.91 31.24 27.57 30.51 25.11 28.77 30.31 30.27 31.08 30.94 29.49 29.64 30.06 30.25 30.10 29.10 28.63 28.50 28.63 29.49 30.40 31.19 31.47 32.95 34.13 34.00 32.59 31.43 29.85 30.50 31.12 31.66 31.85 32.13 31.93 32.89 34.02 34.80 35.32 36.01 35.77 38.18 40.70 39.84 39.26 38.24
34.35 35.54 33.63 31.76 28.64 26.11 26.30 24.79 27.48 29.51 28.54 28.97 29.15 29.50 29.20 29.77 29.64 28.84 28.37 29.04 28.62 28.61 28.00 28.60 29.77 30.09 30.40 30.59 30.86 30.26 28.97 29.00 28.44 28.90 29.27 29.67 30.33 30.63 30.78 30.86 30.93 31.13 31.97 32.13 33.24 34.37 35.37 37.16 36.13
35.65 33.18 31.27 28.35 26.86 22.08 27.36 27.65 25.93 27.96 30.32 29.46 29.95 29.63 30.11 29.83 29.61 29.16 28.90 28.49 27.51 27.41 27.52 27.45 28.21 28.05 28.56 28.83 28.57 28.21 27.43 26.93 27.22 26.86 26.99 27.47 28.22 28.66 29.00 29.53 29.01 29.34 29.47 29.47 30.31 31.15 32.29 33.30 34.47
32.91 30.18 24.32 21.82 20.61 22.36 25.51 24.10 28.46 31.68 31.47 31.90 30.54 29.74 29.67 29.57 28.41 28.24 27.68 26.35 26.35 26.59 27.11 28.07 27.31 26.88 27.22 27.18 26.88 26.56 25.87 25.91 25.63 25.63 25.76 25.93 26.01 25.89 26.70 27.61 27.62 27.81 28.28 28.46 28.75 28.05 28.74 29.64 30.31
30.75 31.04 25.25 16.85 17.47 20.66 26.24 24.18 29.50 30.39 30.76 31.46 32.48 31.04 29.89 29.05 29.02 28.66 28.05 26.74 26.04 26.35 26.46 26.84 26.73 26.25 26.38 26.09 25.57 25.58 25.87 25.74 25.29 25.08 24.79 24.53 24.98 25.66 26.11 25.94 26.40 26.16 26.89 27.10 26.81 26.52 26.50 27.31 28.41
30.33 28.12 31.19 24.69 12.74 17.57 25.00 27.62 30.60 29.73 28.46 28.38 28.34 28.64 28.39 28.75 28.95 29.21 28.90 27.53 26.51 25.78 25.86 26.36 26.34 26.17 25.79 25.50 25.26 24.90 24.83 24.61 24.08 23.71 24.04 23.74 24.14 26.81 24.56 24.30 24.11 24.67 24.83 24.92 25.15 24.22 24.11 24.88 25.58
32.45 34.13 27.88 25.95 16.12 12.77 22.67 23.97 26.45 28.18 27.96 27.86 27.65 28.04 28.69 29.32 29.41 29.28 28.95 28.17 27.40 26.49 25.75 25.59 26.02 25.87 25.64 25.35 25.37 25.02 24.29 24.40 23.99 24.13 23.96 24.06 24.14 24.30 24.14 24.14 23.85 23.67 23.91 23.60 23.01 22.83 23.86 23.14 23.44
30.16 29.11 28.70 29.15 25.38 18.13 14.37 21.65 28.88 30.20 29.69 28.31 29.11 30.07 30.13 30.19 29.63 29.14 28.98 28.90 28.04 26.72 25.72 25.16 24.85 24.77 25.08 25.50 24.93 24.70 24.59 24.41 24.54 24.40 24.03 24.06 24.25 24.16 24.12 24.00 23.62 23.28 22.86 22.84 22.07 21.72 22.12 21.85 22.23
30.82 30.65 30.60 26.99 22.13 20.78 21.66 25.39 31.28 30.82 31.11 31.27 30.82 31.82 31.16 31.14 30.75 29.52 29.16 27.96 26.51 25.95 25.50 24.87 24.85 24.71 25.28 25.06 25.25 25.06 24.92 24.66 24.11 23.71 23.88 23.96 23.71 24.07 23.65 23.73 23.07 22.76 22.62 22.02 21.68 21.20 21.24 20.70 20.99

GFSSGP_sfc_wetblb_039.txt.gz
Wetbulb
56.68 54.17 53.56 51.06 45.42 42.70 39.45 43.40 44.92 45.61 46.49 48.69 48.19 47.61 47.54 48.21 45.36 44.38 55.15 59.93 64.46 66.51 68.84 72.64 73.06 74.25 74.24 74.12 73.80 73.43 73.24 72.74 72.48 72.60 73.54 73.47 73.04 72.73 71.79 71.11 70.59 70.14 69.67 69.12 68.82 68.27 67.38 66.75 66.67
54.55 54.41 50.88 45.24 40.36 37.01 39.52 42.51 44.23 45.95 47.73 48.03 47.70 48.19 47.73 47.26 50.70 53.87 57.63 61.14 65.45 66.90 69.60 72.09 71.76 73.63 73.85 73.83 73.65 73.34 73.24 72.98 72.19 72.22 72.58 72.91 72.51 72.03 71.38 70.62 70.02 69.64 68.65 68.50 67.82 66.94 65.82 64.98 64.78
54.02 50.85 48.13 41.37 37.07 36.96 39.66 43.15 44.69 46.38 46.79 47.51 47.47 49.17 49.03 49.18 52.16 54.58 57.76 61.62 65.87 67.15 70.10 71.46 71.41 73.51 74.22 73.94 73.48 73.22 73.16 73.06 72.18 71.68 71.78 72.20 71.93 71.89 71.15 70.48 69.71 69.11 68.48 68.04 66.93 65.69 64.15 62.97 62.35
51.83 49.11 44.56 39.60 39.09 41.15 42.36 43.26 44.65 46.25 46.92 47.11 47.43 47.12 48.74 52.67 53.34 56.03 59.45 64.26 65.91 67.12 69.84 70.46 71.64 73.50 74.05 73.75 73.42 73.12 73.05 72.92 72.38 71.75 71.19 71.15 71.64 71.76 71.21 70.08 68.94 68.07 67.54 66.93 66.10 64.56 62.87 61.14 60.21
46.62 44.81 39.79 38.30 40.12 41.82 42.04 44.25 45.14 45.08 45.74 46.73 46.73 46.79 47.87 51.56 56.48 59.11 61.10 63.16 64.49 66.92 68.88 70.23 70.94 72.84 73.66 73.60 73.36 73.02 72.84 72.73 72.70 72.37 72.09 72.15 72.29 71.70 70.59 69.74 68.14 67.04 66.30 65.67 65.31 63.46 61.61 59.64 58.93
45.11 42.79 37.63 36.54 39.06 41.64 43.34 43.90 44.87 44.10 44.22 45.85 45.95 45.86 48.60 50.98 53.08 57.47 59.77 62.21 64.53 65.85 67.82 69.25 67.72 69.67 71.57 72.59 72.75 72.67 72.66 72.70 72.67 72.42 72.23 71.62 71.19 70.60 70.09 69.64 68.11 66.81 65.95 65.03 64.61 62.46 60.58 58.40 57.93
42.58 38.60 36.64 36.80 37.88 40.62 43.16 43.60 43.54 43.68 44.01 45.69 47.47 45.27 49.04 49.30 50.50 54.74 58.87 58.67 61.61 65.36 66.47 67.86 69.39 69.06 66.94 69.46 70.06 70.98 71.48 71.45 71.56 71.38 71.24 70.48 70.28 70.25 69.75 68.96 68.50 66.41 65.54 64.70 64.04 61.59 59.85 57.83 56.81
41.74 40.08 36.86 36.73 37.91 39.80 43.35 43.73 44.33 44.50 44.89 46.65 48.26 44.60 46.57 47.58 51.53 54.35 55.19 53.13 56.67 58.04 62.97 65.52 67.34 68.65 70.09 71.26 66.92 67.74 68.55 69.51 69.62 69.22 68.30 67.13 66.94 67.70 66.99 65.34 66.92 66.51 65.47 64.68 63.26 61.08 59.53 57.57 55.15
43.49 36.51 34.25 37.12 37.62 40.35 43.56 43.31 45.17 45.09 45.01 45.38 46.37 45.78 44.39 44.84 47.37 46.61 46.80 46.35 46.83 47.60 49.43 54.51 63.13 66.72 68.31 69.52 68.75 64.74 65.83 67.03 67.11 67.44 65.87 64.37 69.38 68.25 66.63 63.50 64.97 66.15 65.57 64.23 62.86 60.74 59.16 54.88 50.68
39.86 35.24 36.79 39.79 40.48 41.24 42.96 42.78 43.85 44.11 43.82 44.35 45.28 44.55 43.86 44.04 43.75 43.25 42.88 43.01 43.68 44.51 45.81 46.88 48.31 57.03 66.67 67.76 69.02 68.15 68.08 69.53 70.08 69.58 68.71 69.26 68.74 67.54 64.61 61.75 62.72 64.35 63.59 63.74 62.82 60.74 56.33 50.72 46.19
40.94 37.32 38.93 41.55 43.00 43.66 42.88 42.48 43.98 43.16 42.20 44.47 44.85 42.08 41.99 41.89 41.62 41.28 41.53 41.34 41.43 42.92 44.80 45.58 46.15 47.72 54.53 67.00 68.10 68.47 68.51 69.69 68.49 68.03 67.34 66.80 65.73 64.14 63.35 62.84 62.85 62.88 59.27 60.44 59.29 57.57 55.74 50.98 47.26
39.50 41.80 41.50 44.36 43.88 42.92 42.09 43.65 42.99 42.98 44.08 42.41 40.91 40.93 40.20 39.64 39.35 39.24 39.68 40.45 40.82 42.09 43.50 44.64 45.48 46.82 49.56 62.82 67.07 67.37 67.21 66.35 66.79 67.06 67.65 65.66 64.40 63.54 62.82 61.66 61.63 60.88 59.73 58.44 57.47 55.84 54.42 52.26 48.10
41.13 41.02 42.33 43.51 42.92 42.26 42.04 41.91 41.97 41.58 39.86 40.85 40.42 39.58 38.44 38.39 38.51 39.20 39.59 40.63 40.59 40.99 42.26 43.48 44.91 47.39 49.69 57.58 65.53 66.07 66.37 66.48 66.20 65.43 64.49 64.67 64.12 62.73 62.24 61.37 60.69 60.60 58.86 57.91 56.61 55.46 55.23 53.46 50.01
40.76 40.79 41.25 42.00 41.90 41.66 41.34 40.03 41.21 40.56 40.08 39.33 38.70 37.26 37.34 37.32 37.23 38.03 38.39 38.84 39.16 40.25 41.22 42.74 45.15 48.83 52.55 59.21 63.93 64.54 64.50 64.15 64.58 64.30 63.65 63.86 63.70 62.94 61.52 60.75 59.47 58.97 59.13 57.73 56.20 54.04 54.08 53.96 50.09
40.67 38.65 39.55 39.52 39.90 40.30 41.11 38.44 39.22 40.87 39.59 37.49 36.36 36.29 36.48 36.59 36.99 36.17 37.07 37.47 38.07 39.34 40.32 41.82 46.16 51.85 58.53 59.70 61.84 62.41 61.48 60.35 59.89 60.18 59.96 60.95 61.44 61.32 60.77 60.26 59.67 58.69 57.42 56.30 54.03 52.09 50.92 49.23 46.45
37.11 36.45 34.79 38.49 39.60 39.67 40.59 37.66 39.79 40.22 39.89 36.28 35.43 35.05 35.42 35.68 35.59 36.05 36.49 36.87 37.87 38.53 39.37 41.91 44.74 52.78 54.82 54.41 54.37 53.62 52.78 52.53 52.64 53.08 54.15 55.05 56.24 58.99 58.99 58.31 57.29 57.05 56.46 54.76 53.41 51.36 51.26 49.82 46.19
33.90 32.69 32.18 35.98 39.49 39.03 38.87 37.76 39.00 39.86 37.85 35.06 34.37 34.35 34.97 34.74 35.21 35.53 35.91 36.02 36.84 37.51 38.65 41.08 43.48 46.86 49.15 48.83 47.93 47.48 47.13 46.43 47.13 47.28 48.00 49.81 51.86 54.38 54.01 53.46 53.31 54.22 53.27 51.66 51.22 48.78 47.41 46.82 45.85
31.98 30.97 31.58 32.90 37.42 37.63 36.29 37.75 37.49 35.95 36.33 33.91 33.24 33.40 33.57 33.50 33.36 34.69 35.01 35.39 35.99 36.63 38.27 39.89 41.69 42.70 45.92 46.36 45.66 44.91 44.04 43.25 42.98 42.59 43.06 44.18 46.45 49.78 50.09 49.61 50.26 51.14 50.12 49.04 48.76 47.59 45.57 44.29 42.51
33.97 32.08 32.91 33.97 37.48 36.61 36.40 36.22 38.43 34.56 33.69 32.74 32.65 32.60 32.60 32.81 34.06 34.49 34.32 34.19 34.49 35.30 36.36 37.46 39.12 39.86 42.41 43.60 43.05 42.22 39.84 40.09 39.70 39.32 39.07 40.20 41.35 43.06 46.15 47.26 47.25 48.33 47.22 46.42 46.29 45.71 44.73 44.41 42.39
32.67 31.45 31.73 34.19 36.27 36.07 34.92 35.27 36.30 34.44 33.81 33.77 32.69 32.19 32.32 32.29 32.79 33.01 32.99 32.79 32.45 32.80 33.59 34.99 36.42 37.62 39.73 40.68 40.82 40.49 38.75 37.30 36.78 36.28 35.66 36.26 37.51 38.68 39.86 40.90 41.78 42.96 44.25 43.94 44.04 44.31 44.58 44.78 41.91
31.48 31.34 30.60 33.31 34.13 34.22 32.39 32.68 32.31 32.73 33.15 33.36 33.30 32.94 32.38 31.78 31.56 31.67 31.55 30.89 31.21 31.09 31.11 32.71 33.61 34.94 36.01 38.29 39.28 38.28 37.28 35.79 34.26 33.59 33.42 33.68 34.59 35.08 35.41 36.49 37.51 37.81 38.63 38.69 40.26 41.62 41.80 41.62 43.12
29.57 34.34 34.10 33.11 32.15 29.10 32.14 26.92 31.41 31.21 30.89 31.58 31.53 30.88 31.21 31.62 31.84 31.17 30.45 30.26 30.23 30.15 31.09 31.66 32.15 32.79 33.44 34.83 34.34 33.63 32.66 30.70 31.27 31.78 32.48 32.61 33.14 32.90 33.27 33.57 33.90 33.75 34.42 34.40 36.63 37.68 39.25 40.90 38.93
33.72 34.80 33.62 32.62 30.55 28.64 28.73 26.79 29.96 30.88 29.97 29.98 30.36 30.43 30.59 31.22 30.77 29.85 29.77 29.91 29.81 30.01 29.52 30.05 31.12 31.03 31.42 32.07 32.76 31.92 30.41 30.74 30.82 30.89 31.22 31.36 31.76 31.97 31.77 31.90 32.08 32.11 32.62 32.62 32.73 33.44 33.63 35.79 36.47
35.02 33.07 31.58 29.13 28.06 23.34 29.01 29.09 28.20 29.51 31.66 30.18 30.74 30.47 30.76 30.75 30.54 30.01 29.84 29.78 29.27 29.53 29.40 29.43 29.77 29.30 30.07 30.51 30.31 30.45 29.85 29.56 29.77 29.48 29.26 29.53 29.91 30.26 30.19 30.48 30.61 30.86 30.75 30.65 31.04 31.55 31.67 31.74 32.49
33.23 31.42 25.17 23.47 23.01 24.02 26.55 25.47 29.76 32.44 32.84 33.12 31.97 30.87 30.65 30.89 29.92 29.36 28.76 28.27 28.61 28.60 28.93 29.40 28.88 27.91 28.67 28.90 28.65 28.87 28.64 28.89 28.40 28.36 28.28 28.32 28.35 28.16 28.00 28.89 28.82 29.06 29.34 29.42 29.86 29.60 29.80 29.80 30.02
30.85 32.00 26.61 20.12 19.62 21.96 26.19 24.18 30.51 31.64 31.64 31.89 33.02 32.22 31.24 30.15 29.89 29.52 28.80 27.77 27.97 28.39 28.42 28.41 28.17 27.44 27.68 27.84 27.71 28.08 28.24 28.41 27.87 27.80 27.61 27.41 27.71 27.50 27.77 27.86 27.98 27.99 28.19 28.08 28.22 28.10 28.19 28.43 28.53
31.45 29.05 32.02 24.07 14.13 20.28 26.04 28.75 32.15 31.08 29.75 29.41 29.80 30.29 30.27 30.01 29.74 29.83 29.32 28.00 27.50 27.64 27.96 27.97 27.40 27.28 27.44 27.33 27.42 27.09 27.45 27.52 26.88 26.99 27.40 27.05 27.35 28.04 27.27 27.32 26.95 26.97 27.03 26.80 26.51 26.29 26.08 26.69 26.76
33.04 34.71 28.26 26.76 19.06 16.90 23.76 25.54 28.14 29.33 29.42 28.10 28.17 30.02 30.42 30.42 29.87 30.16 29.93 28.83 27.80 27.59 27.67 27.98 28.03 27.37 27.33 27.36 27.30 27.11 26.77 26.81 26.96 27.32 26.79 26.69 26.82 26.79 26.41 26.04 25.93 25.81 25.78 25.64 25.29 25.10 25.43 25.07 25.50
30.53 29.59 28.96 29.81 26.55 20.31 17.04 23.31 29.96 31.75 30.97 28.59 29.15 30.63 30.55 30.71 30.60 30.65 30.60 29.75 28.76 27.66 26.86 26.90 27.07 27.15 27.03 27.27 26.90 26.77 26.74 26.79 27.23 26.74 26.41 26.26 26.31 25.80 25.38 25.10 24.81 24.58 24.33 24.39 24.01 23.85 24.46 23.49 23.86
31.17 31.00 30.54 26.95 22.72 21.87 22.72 25.38 31.70 31.56 31.84 31.24 30.78 31.29 31.65 32.01 31.56 30.88 30.83 29.66 28.12 27.42 26.71 26.38 26.39 26.73 27.39 27.02 27.06 27.13 27.12 26.94 26.21 25.73 25.79 25.81 24.85 24.90 24.36 23.84 23.42 23.05 22.92 22.97 22.57 22.25 22.98 22.71 22.61

GFSSGP_sfc_wetblb_042.txt.gz
Wetbulb
61.38 60.24 62.08 60.08 51.96 51.23 45.51 46.10 49.46 48.37 48.97 51.81 51.63 51.19 50.51 51.46 49.10 47.15 60.92 64.27 67.06 69.13 71.99 73.56 73.55 74.32 74.33 74.01 73.35 73.30 73.27 72.80 72.82 73.42 73.30 72.74 72.58 71.96 71.28 70.73 70.15 69.70 69.40 69.08 68.43 67.68 67.03 66.71 66.73
59.98 58.77 60.25 56.45 48.58 43.76 44.56 48.16 47.40 49.46 50.80 51.86 51.86 51.66 51.01 50.06 54.52 57.37 61.09 64.41 67.50 69.47 72.09 73.30 72.11 73.98 74.15 73.99 73.53 73.33 73.34 72.71 72.42 72.74 73.17 72.58 72.39 71.64 70.96 70.31 69.80 69.17 68.86 68.43 67.57 66.26 65.12 64.52 64.80
58.15 56.13 56.48 52.68 49.08 43.71 44.48 48.02 49.15 50.45 51.11 51.19 51.11 52.65 52.06 51.70 56.05 58.34 62.58 65.12 68.38 69.48 71.97 73.04 71.71 73.51 73.66 73.79 73.47 73.30 73.42 73.06 72.14 72.22 72.73 72.19 71.89 71.51 70.73 70.07 69.38 68.70 68.35 68.00 67.09 65.54 63.91 62.47 62.16
58.52 57.59 53.74 48.86 44.75 45.99 46.72 48.28 49.56 50.29 51.09 51.64 51.33 49.73 52.33 56.22 58.12 61.66 63.50 66.50 67.98 69.31 71.41 71.35 71.94 73.46 73.85 73.60 73.41 73.02 72.81 72.46 71.89 71.66 71.73 71.83 71.67 71.51 70.59 69.64 68.60 67.82 67.34 67.06 65.99 64.54 62.67 60.77 60.75
56.87 55.43 49.76 46.15 44.94 46.46 48.13 48.97 49.91 49.54 50.03 50.60 50.76 48.98 50.92 55.34 59.48 63.11 64.68 66.02 67.02 69.09 71.04 72.16 71.16 72.53 72.37 72.84 73.32 73.13 72.97 72.73 72.19 71.81 71.25 71.29 71.41 71.14 70.20 68.98 67.87 67.03 66.32 66.06 65.11 63.67 61.33 59.38 59.86
54.36 53.19 47.27 44.02 44.74 46.81 48.76 49.37 49.64 49.05 48.85 50.18 49.55 49.74 51.20 55.42 56.57 61.28 63.32 65.64 67.35 68.67 70.10 71.15 68.71 70.10 71.39 71.83 71.74 71.82 71.90 72.00 72.21 71.92 71.57 71.07 70.55 70.29 70.16 69.24 67.94 66.71 66.10 65.39 64.38 62.70 60.52 58.59 58.85
51.19 50.59 46.28 45.94 45.20 45.94 47.94 49.29 48.68 48.47 48.65 49.39 51.10 48.38 51.82 53.00 56.53 61.40 62.68 63.61 66.96 68.49 69.32 70.65 71.13 70.73 66.72 69.67 70.05 70.78 71.04 70.87 71.08 71.06 70.82 70.49 70.19 69.95 69.62 69.01 67.95 66.67 65.89 65.47 63.65 61.90 60.12 57.83 57.48
52.45 51.08 45.22 45.79 44.66 45.30 48.68 48.64 49.36 49.44 48.61 51.08 51.41 48.21 49.18 50.88 54.15 57.96 57.01 56.25 56.37 57.06 61.46 66.42 69.85 69.65 70.48 72.61 67.09 67.78 68.87 69.58 70.04 69.37 68.41 67.31 67.36 68.00 66.81 65.62 66.98 66.40 65.68 64.96 63.03 61.40 59.75 57.09 56.15
49.78 46.53 44.08 44.98 44.93 46.45 48.99 48.12 49.62 50.21 49.62 50.12 49.75 49.15 47.98 50.01 52.64 54.17 54.06 54.08 54.05 53.39 53.90 55.36 58.60 65.77 68.23 69.92 69.89 65.90 65.76 66.51 67.03 67.43 66.03 65.93 70.55 69.71 67.87 64.15 65.62 66.11 65.64 64.55 62.76 61.21 58.48 53.99 49.68
49.40 46.42 44.02 47.26 47.91 47.86 48.73 48.44 49.20 48.76 48.89 48.16 48.33 48.47 48.93 49.89 50.75 50.71 50.40 50.53 51.03 51.21 52.24 52.95 53.98 56.13 60.24 67.84 69.16 69.79 69.22 70.00 70.81 71.06 70.54 70.08 69.49 69.15 67.81 62.54 63.12 64.23 63.67 64.47 62.64 60.54 56.50 56.55 53.53
47.68 45.44 44.95 46.74 48.28 49.40 48.41 48.18 49.35 48.53 47.03 48.41 48.38 47.60 47.49 48.42 48.60 48.44 48.62 48.41 48.43 49.99 51.81 52.17 52.94 53.91 56.55 65.97 68.56 69.82 69.93 69.98 70.88 70.07 69.22 68.82 68.18 67.24 66.07 64.94 64.44 64.64 60.39 62.39 61.71 60.31 62.40 58.49 56.25
46.10 47.04 47.05 48.44 48.96 48.06 47.80 49.16 48.06 48.44 48.05 47.08 47.26 46.50 46.45 46.34 46.10 45.86 46.48 47.18 47.88 49.33 50.62 51.94 53.17 54.39 55.23 63.42 67.85 68.32 68.78 69.01 69.96 69.70 69.22 68.65 67.85 66.70 65.37 64.21 64.62 63.27 62.46 61.23 60.10 59.16 61.24 59.38 55.90
47.30 47.50 47.87 48.85 48.21 48.13 47.34 47.64 47.29 46.72 45.90 46.11 45.52 45.25 45.03 45.09 44.99 45.68 46.01 47.27 47.97 48.19 49.82 51.68 54.14 56.27 56.48 58.18 67.22 67.85 67.53 67.93 68.01 67.48 66.15 65.72 66.48 67.34 67.15 64.78 63.85 63.30 62.03 61.18 63.02 59.99 58.16 59.95 57.75
47.33 46.53 47.03 47.59 47.00 47.02 46.03 46.17 46.28 44.04 45.55 44.57 44.43 43.89 44.01 43.73 43.49 45.27 45.47 46.06 46.53 47.67 49.43 52.40 53.43 56.76 57.08 61.61 66.16 65.83 64.67 63.24 62.01 61.62 62.66 63.26 63.56 63.29 63.03 63.35 62.51 61.21 60.68 60.19 59.35 58.10 56.05 55.08 53.28
46.31 44.83 46.58 46.48 45.40 45.72 46.68 43.22 43.95 45.72 45.59 43.64 42.43 42.61 42.19 42.17 43.17 43.00 43.72 44.62 45.24 47.79 50.08 47.60 50.78 58.06 59.29 58.69 57.09 57.07 57.32 57.35 56.35 56.45 57.15 58.99 61.19 61.17 60.74 59.75 59.05 58.83 58.46 58.30 56.09 54.02 54.25 54.31 52.60
44.27 44.06 43.14 44.93 45.02 44.96 45.51 43.72 44.34 45.16 45.25 43.35 42.17 42.14 41.46 41.03 41.59 42.43 42.96 43.77 45.33 47.56 45.81 47.05 51.02 52.58 52.18 52.11 51.86 51.00 51.11 51.04 51.16 51.93 54.01 55.13 56.20 57.24 57.45 56.23 55.75 56.10 54.73 54.32 53.34 51.82 51.78 51.06 49.69
42.78 42.47 41.16 42.94 45.07 44.65 44.46 43.83 43.85 44.48 44.82 43.51 42.57 41.59 41.03 41.40 41.67 41.93 42.47 43.18 44.47 46.36 45.09 46.18 48.46 49.39 49.17 48.70 47.86 47.28 48.09 48.99 50.27 51.18 49.99 51.32 53.67 53.41 53.79 53.69 53.12 53.13 53.00 52.15 51.91 49.97 51.62 50.72 50.87
41.78 40.21 40.15 41.82 43.85 43.63 43.39 44.14 43.41 42.59 43.62 43.36 41.95 41.04 40.61 40.34 39.44 40.48 41.51 42.49 44.11 46.31 46.33 46.32 46.13 47.51 47.46 47.21 47.13 47.85 47.32 47.22 47.24 47.15 47.77 49.09 49.63 52.83 53.24 52.24 50.96 52.08 52.25 51.12 51.98 50.89 48.88 47.67 46.62
43.04 41.56 41.71 42.03 42.84 42.65 44.10 44.46 44.99 42.94 41.95 41.63 41.17 40.60 40.12 39.39 39.39 40.48 40.95 42.00 43.83 44.72 46.08 46.08 46.22 47.42 49.69 50.76 49.94 47.68 45.09 43.91 42.97 42.89 43.88 45.07 45.89 46.86 48.44 48.41 49.19 50.28 49.39 49.22 49.53 50.56 49.93 49.41 48.37
40.90 40.81 41.36 41.81 41.63 41.93 42.91 42.05 45.58 41.65 42.22 42.45 41.21 40.23 39.82 39.12 39.41 39.22 40.04 40.82 41.47 41.97 43.36 44.40 45.06 46.19 47.05 47.53 46.69 45.17 42.44 40.85 40.74 40.52 39.97 40.58 41.28 42.24 42.95 44.17 44.01 45.05 45.71 45.30 46.02 47.00 48.53 48.82 47.99
40.43 39.84 41.15 40.54 40.18 40.99 40.09 40.53 42.82 39.82 38.97 39.38 40.12 40.57 40.02 39.99 38.92 38.80 38.64 39.21 40.41 39.89 40.81 41.52 42.63 43.56 44.91 44.62 43.51 42.05 41.76 41.10 39.46 38.41 37.73 37.93 38.70 39.03 39.19 39.47 39.71 39.98 41.35 40.80 41.67 43.47 44.26 44.47 46.03
38.46 41.58 40.52 38.84 38.07 36.96 39.56 36.54 40.40 40.52 37.79 36.99 37.58 38.27 38.88 38.64 38.58 37.93 37.86 37.84 37.76 37.76 39.06 39.93 40.84 41.06 41.68 42.76 42.81 42.22 40.00 36.51 36.62 36.80 37.16 36.85 37.58 37.28 37.83 37.89 38.05 37.96 37.98 37.60 37.68 38.32 39.30 40.82 39.40
41.00 40.77 39.81 39.29 38.31 36.82 37.15 35.86 40.80 36.18 36.37 36.26 37.28 38.11 39.13 39.52 38.70 37.19 36.79 36.02 35.81 37.04 37.70 38.41 38.39 38.26 38.96 39.53 39.64 38.62 36.83 36.51 36.86 36.69 36.05 36.09 36.05 36.36 36.25 36.65 36.56 36.32 36.57 36.43 36.46 36.51 36.65 37.10 36.35
39.78 38.35 37.24 37.12 37.10 31.86 37.58 36.37 39.40 37.52 38.60 39.34 37.91 37.89 38.36 37.92 37.32 36.71 36.16 35.38 34.94 35.55 36.21 36.75 36.12 35.71 36.96 37.43 37.74 37.31 36.31 35.91 35.61 35.41 35.02 34.95 35.17 35.09 35.10 35.06 35.17 35.15 34.95 34.90 35.16 35.60 35.15 35.18 35.45
39.42 38.51 33.21 30.79 30.25 30.64 32.58 33.38 40.14 41.85 38.81 39.91 37.99 37.53 37.83 37.46 36.46 35.43 34.67 34.39 34.13 34.18 34.32 34.95 35.16 33.96 35.26 35.57 35.66 35.77 35.87 36.06 35.43 35.27 34.97 34.36 34.05 33.60 33.15 34.00 33.68 33.51 33.43 33.43 33.92 33.67 33.66 33.34 33.15
36.60 39.70 34.81 27.96 27.71 32.04 30.21 30.61 37.14 37.88 37.49 37.84 40.37 38.94 37.74 36.85 36.58 35.59 35.47 34.98 34.09 33.77 34.14 33.95 33.76 33.24 34.56 34.78 34.50 35.01 35.45 35.27 34.89 34.62 34.35 33.79 33.29 32.76 32.91 32.61 32.53 32.15 31.98 31.89 32.42 32.45 32.05 32.14 32.11
36.32 33.88 38.99 29.58 23.71 30.42 34.60 35.53 39.20 35.08 34.69 35.42 36.86 36.78 35.74 36.12 35.74 35.32 35.01 34.82 34.43 34.25 34.22 34.51 33.88 33.60 34.09 34.06 34.28 34.18 34.49 34.37 33.59 33.54 33.88 33.39 33.15 32.00 31.98 31.79 31.28 31.15 30.97 30.72 30.98 30.76 30.23 30.80 31.00
38.49 40.28 32.37 33.92 28.12 27.84 31.13 31.90 37.63 33.98 35.40 34.28 34.12 35.03 36.26 36.87 36.04 35.76 35.18 34.51 34.64 34.66 34.25 34.09 34.09 33.74 33.71 33.88 34.19 33.79 33.57 33.75 33.56 33.47 32.55 32.26 31.86 31.51 30.78 30.40 30.21 29.98 29.94 29.81 29.87 29.64 29.84 29.18 29.87
34.70 34.23 35.00 36.28 34.10 31.45 29.64 33.01 39.69 39.66 39.09 35.36 36.39 37.05 37.42 36.82 36.42 36.17 36.12 35.31 34.53 34.68 34.25 33.83 33.49 33.28 32.99 33.53 33.54 33.17 32.90 32.97 33.09 32.59 32.19 31.70 31.05 30.23 29.38 28.95 28.65 28.25 28.01 28.10 28.17 27.98 28.04 27.30 27.66
39.02 37.80 37.00 33.63 28.29 29.92 30.42 34.66 36.88 38.20 39.09 39.21 38.05 37.45 38.52 37.82 37.47 37.43 37.19 35.97 33.94 33.25 33.37 33.40 33.32 33.19 33.35 33.40 33.08 32.97 32.55 32.29 32.18 31.72 31.24 30.83 29.70 29.01 28.21 27.51 26.98 26.53 26.32 26.42 26.05 25.98 26.40 25.73 25.54

GFSSGP_sfc_wetblb_045.txt.gz
Wetbulb
63.76 61.82 62.67 61.21 52.81 51.22 46.28 46.57 50.54 48.94 49.79 52.95 53.07 51.92 50.45 51.86 49.90 48.16 62.90 66.56 67.42 70.45 73.12 73.56 73.64 73.73 73.88 73.67 73.16 73.29 73.29 73.00 73.26 73.11 73.01 72.60 72.22 71.41 70.89 70.31 69.66 69.54 69.10 68.54 67.66 66.98 66.49 66.49 66.68
61.47 60.16 61.54 57.38 49.40 44.63 45.14 48.93 48.04 49.81 51.82 53.34 52.94 52.58 51.47 50.03 56.09 58.64 61.50 65.96 68.05 70.38 72.75 73.29 72.59 73.61 73.98 73.67 73.15 73.34 73.16 72.68 72.99 72.81 72.62 72.27 71.89 71.22 70.66 70.13 69.46 69.17 68.75 68.19 67.06 65.92 64.48 63.92 65.29
60.91 58.41 57.07 52.70 48.89 44.96 45.11 48.83 49.80 50.73 52.14 52.09 51.32 53.73 52.77 52.21 57.32 59.21 64.02 66.31 68.86 70.20 72.50 73.23 72.31 73.22 73.68 73.59 73.29 73.33 73.26 72.85 72.35 72.36 72.12 72.21 71.59 70.98 70.35 69.67 68.91 68.34 68.06 67.48 66.59 65.15 63.23 62.26 63.38
59.60 58.65 55.52 49.37 45.83 47.81 48.34 49.55 51.08 50.65 51.99 52.93 52.49 49.91 54.25 58.78 59.77 62.99 66.00 67.19 68.27 69.81 72.09 71.39 72.16 73.20 73.33 73.34 73.25 72.79 72.54 72.29 72.03 72.02 72.16 71.72 71.66 70.94 70.03 69.04 68.25 67.62 67.13 66.66 65.79 64.05 61.92 61.35 61.80
58.44 56.21 49.98 47.76 46.13 47.53 49.41 50.87 51.67 50.20 50.41 51.17 51.61 49.74 52.37 55.97 62.49 64.24 65.58 66.33 67.50 69.07 71.47 72.74 71.69 72.69 72.85 72.57 71.89 71.80 72.21 71.96 71.87 71.54 71.20 71.23 71.05 70.25 69.67 68.52 67.68 67.14 66.47 65.89 64.82 63.01 60.85 60.38 61.41
54.61 54.53 47.42 44.93 45.96 48.00 49.98 51.55 51.28 50.40 50.25 50.53 49.97 50.96 52.05 57.17 58.39 62.98 64.03 66.42 67.75 69.19 70.66 71.73 69.07 69.41 71.63 71.96 71.65 71.62 72.02 71.78 70.99 71.11 71.11 70.62 70.69 70.21 69.52 68.54 67.46 66.88 66.36 65.31 64.01 62.30 60.07 59.18 59.73
52.59 50.48 47.47 47.23 46.57 47.07 48.97 51.84 50.07 49.59 49.73 50.19 52.17 49.36 52.51 53.03 57.95 62.61 63.02 65.42 67.74 69.32 69.91 70.45 71.08 70.46 67.22 69.05 70.12 70.64 71.08 70.78 70.69 70.78 70.58 70.22 70.09 69.98 69.66 69.03 67.64 66.68 66.27 64.77 63.29 61.79 59.68 57.91 57.82
53.54 50.81 46.66 47.56 46.15 46.63 50.28 50.55 51.15 50.65 49.83 52.95 52.91 49.50 50.49 52.04 54.89 59.91 59.16 59.39 60.03 61.05 63.82 66.90 68.78 69.96 70.49 72.21 67.43 67.49 69.08 69.57 70.00 69.69 68.78 67.70 68.04 67.75 66.68 65.94 67.23 66.41 65.81 64.29 62.87 61.41 59.60 56.09 54.73
53.19 46.98 45.06 46.09 46.75 48.16 50.86 49.44 51.44 52.49 51.19 51.47 51.39 51.23 50.70 52.49 54.95 56.39 57.01 56.47 56.82 56.21 57.08 58.56 61.02 66.45 67.74 69.53 68.39 66.12 65.80 66.80 67.19 67.79 66.16 65.74 70.06 69.05 66.77 64.51 66.06 66.31 65.61 64.00 62.97 61.26 58.51 53.80 52.02
50.68 47.04 45.66 48.85 49.70 49.10 50.29 50.17 50.71 49.93 50.00 49.45 49.92 51.08 51.66 52.61 53.31 53.29 53.21 53.22 53.26 53.55 54.63 55.28 56.55 58.59 63.81 67.45 69.44 70.80 70.83 70.46 70.01 70.50 70.13 69.91 69.49 69.26 67.91 63.35 63.27 64.31 64.07 64.13 62.85 60.61 58.35 58.73 56.35
50.04 46.37 47.13 48.26 49.96 51.07 50.11 49.55 51.09 49.53 48.32 50.36 49.99 50.00 50.39 51.15 51.16 51.17 51.46 51.49 51.44 52.86 54.19 54.58 55.50 56.34 58.08 65.32 68.32 69.93 70.40 69.69 69.83 69.92 69.77 69.28 69.46 68.69 68.42 66.47 64.64 64.44 60.74 64.03 62.67 61.82 62.96 60.80 58.39
47.44 48.26 47.99 49.63 50.39 49.80 49.23 50.91 49.33 49.97 49.51 50.17 50.32 49.92 49.89 49.55 49.39 49.12 49.47 50.20 50.85 52.18 53.12 54.84 56.35 57.38 57.38 61.73 67.39 68.83 68.84 69.71 69.15 69.06 68.94 68.70 68.41 68.04 66.45 65.62 65.42 65.86 63.72 63.65 62.58 62.05 61.59 60.78 58.17
48.19 48.61 49.45 50.43 49.98 49.97 49.99 49.24 49.13 49.17 49.05 49.13 48.59 48.67 48.35 48.34 48.19 49.11 49.32 50.41 50.95 50.91 53.06 55.33 57.74 58.87 58.75 58.77 66.81 68.06 66.53 66.79 65.98 65.48 66.02 67.05 66.50 66.50 66.43 65.34 64.35 64.56 63.71 62.14 63.20 61.58 59.31 59.65 58.84
49.37 48.94 48.88 49.68 49.48 49.37 47.36 48.59 47.98 49.39 49.15 47.75 47.66 47.26 47.27 46.62 46.59 48.26 48.15 48.64 49.09 51.13 53.26 54.09 55.25 59.59 57.90 62.90 63.98 62.62 62.52 61.23 61.04 60.81 62.52 64.10 64.29 63.30 63.13 62.42 60.82 59.85 59.89 59.52 59.12 57.92 57.80 56.52 54.85
48.69 46.03 48.61 48.70 48.68 47.54 48.52 45.79 45.37 48.86 47.99 46.90 46.59 46.73 46.03 45.64 46.56 46.05 46.45 47.23 49.01 52.08 50.78 50.42 54.36 58.11 58.05 56.02 55.93 56.50 56.97 56.71 55.75 57.23 57.96 58.99 61.06 61.90 60.57 60.16 59.66 58.93 58.55 56.97 56.81 55.27 54.58 55.62 54.60
46.35 46.64 44.71 48.68 47.36 47.25 47.34 44.96 48.04 47.83 47.22 46.88 46.75 46.59 45.28 44.43 44.85 45.73 46.22 47.32 49.89 50.18 48.48 50.11 52.57 52.98 51.02 50.29 50.73 50.93 52.35 53.24 53.20 54.01 54.91 56.18 56.89 57.72 56.46 55.50 54.53 54.62 54.68 54.30 53.35 52.23 52.33 51.75 52.25
46.37 43.20 45.05 45.92 47.78 46.64 45.89 46.17 46.80 47.51 47.29 47.21 47.15 46.47 45.25 44.65 44.63 44.93 45.85 47.36 49.90 47.90 48.09 48.88 49.97 49.33 48.31 47.93 48.18 48.64 49.29 49.76 50.97 52.03 53.19 54.20 55.46 55.83 55.15 54.70 54.47 53.45 53.09 53.23 52.97 52.63 52.24 52.60 52.69
43.87 43.59 44.97 44.29 45.91 45.61 45.28 45.05 46.32 46.26 46.65 47.16 47.18 46.10 45.12 44.49 42.96 43.82 45.15 47.12 49.44 47.74 48.43 48.23 48.79 48.07 48.13 48.51 47.76 47.07 46.65 47.23 48.68 48.53 48.77 49.86 50.71 52.26 53.15 53.02 53.22 53.08 52.56 51.81 52.86 52.44 52.50 50.93 50.26
46.07 44.80 44.22 46.85 46.31 44.14 45.26 45.62 47.76 46.74 45.84 46.81 46.60 45.75 44.65 43.72 43.20 44.08 44.99 47.37 48.72 47.74 47.47 48.20 48.68 48.78 50.32 50.31 49.56 48.60 46.14 45.67 44.43 44.25 45.13 45.56 46.43 47.86 48.35 48.01 48.64 49.32 47.99 47.87 48.56 50.16 50.90 49.74 48.92
44.60 43.36 43.42 46.79 44.93 43.29 44.79 44.81 47.83 48.69 46.15 47.13 46.99 45.75 44.57 42.46 42.48 42.95 44.43 45.92 47.77 47.80 48.05 48.41 49.18 50.81 51.85 50.86 48.86 46.87 44.52 43.26 42.42 41.93 41.66 42.04 42.59 42.74 43.32 43.90 43.67 44.94 44.22 43.70 44.59 45.86 47.31 47.24 47.46
43.50 42.66 43.45 43.35 43.01 43.50 43.05 41.92 44.52 47.99 47.52 46.16 46.25 46.43 44.82 43.05 42.01 41.94 43.09 44.61 45.78 45.92 46.64 47.27 48.19 48.55 48.30 47.41 45.57 44.08 43.70 42.77 40.86 39.80 39.16 39.83 40.65 41.01 40.76 40.88 41.03 40.79 40.92 39.38 39.90 40.77 40.90 41.51 43.99
41.07 46.03 44.07 42.87 40.72 38.36 43.68 36.07 44.44 47.28 43.42 42.57 42.70 43.57 43.08 42.98 42.77 42.23 41.80 42.54 42.78 42.82 44.22 45.53 45.59 45.97 46.50 47.38 46.11 45.28 42.13 38.55 38.51 38.00 38.45 38.35 39.34 38.72 39.36 39.44 39.53 39.27 39.09 38.62 38.46 38.94 38.93 39.01 36.75
42.66 44.34 42.97 42.59 40.63 40.45 41.25 36.05 42.06 45.04 42.23 41.76 41.73 42.02 42.31 42.51 41.78 40.60 40.96 40.65 40.50 41.60 41.92 42.06 42.00 41.97 42.70 43.17 42.98 41.61 39.34 39.07 38.34 37.63 37.33 37.24 37.79 38.06 37.51 37.92 37.86 37.51 37.56 37.74 37.54 37.27 37.23 37.48 36.43
44.18 41.91 40.39 40.45 39.96 33.81 39.45 38.76 40.12 42.78 41.52 43.54 41.49 40.95 41.56 41.02 40.95 40.48 39.93 38.94 38.60 38.90 39.81 40.11 39.60 39.23 40.34 40.97 40.98 39.56 38.39 37.58 37.44 37.13 36.57 36.43 36.36 36.07 36.39 36.49 36.16 35.90 35.82 35.85 36.19 36.67 35.82 35.59 35.68
42.16 40.08 35.10 33.10 31.71 31.61 38.60 38.44 41.08 46.25 43.07 44.80 40.91 40.36 41.28 41.18 40.39 39.27 37.57 37.48 37.64 37.51 38.10 38.18 38.03 36.58 37.96 38.80 38.91 38.99 38.54 38.31 37.23 37.05 36.62 35.76 35.07 34.64 34.35 34.97 34.64 34.14 34.07 34.43 35.06 34.70 34.35 34.12 33.49
38.97 40.84 35.98 29.71 31.32 34.10 32.65 32.47 39.88 44.00 43.31 42.00 43.38 42.04 41.32 40.26 40.02 38.50 37.96 37.70 36.74 36.41 36.48 36.10 36.17 35.57 36.83 37.17 37.16 38.10 38.21 37.71 37.19 36.82 36.28 35.36 34.54 33.96 34.37 33.86 33.69 33.36 33.15 33.09 33.82 33.55 33.18 33.21 33.06
39.34 36.26 43.00 34.39 29.59 30.03 36.07 38.27 42.88 38.72 37.73 39.20 41.24 40.53 39.38 39.36 38.95 38.10 38.37 37.80 36.22 35.45 35.41 36.03 35.60 35.89 36.03 36.07 36.39 36.26 36.46 36.18 35.57 35.64 35.71 34.68 34.33 33.50 33.20 33.15 32.58 32.34 32.13 31.84 32.14 31.85 31.18 31.67 32.07
41.01 43.05 33.50 35.02 29.04 28.82 35.54 36.89 37.94 35.22 36.69 37.47 38.79 38.96 38.81 39.04 38.69 38.48 38.01 37.17 36.72 36.46 36.18 36.34 35.88 35.13 35.50 35.64 35.91 35.68 35.70 35.75 35.41 35.20 34.24 33.80 33.03 32.87 32.32 31.83 31.65 31.24 31.08 30.70 30.78 30.86 31.05 29.75 30.64
36.23 36.05 37.82 38.49 36.48 32.98 31.64 35.52 43.11 43.03 40.81 37.50 38.45 39.23 38.69 38.69 38.90 38.40 38.11 37.77 37.22 36.93 35.93 35.29 35.29 35.08 34.70 35.31 35.35 35.08 34.93 34.95 34.94 34.31 33.72 33.20 32.70 31.91 31.01 30.55 30.12 29.54 29.10 29.06 28.83 28.79 28.45 27.81 28.11
42.44 39.44 38.86 33.88 31.59 33.46 32.78 36.15 39.71 43.21 44.12 41.33 39.51 39.65 40.40 40.06 39.60 38.93 38.14 37.20 36.19 35.62 35.22 34.69 34.88 34.66 34.92 35.25 34.96 34.59 34.45 34.20 33.81 33.20 33.07 33.01 31.46 31.22 30.05 29.25 28.58 28.12 27.77 27.45 26.92 26.65 27.02 26.28 25.97

GFSSGP_sfc_wetblb_051.txt.gz
Wetbulb
58.08 55.26 53.44 53.89 45.32 40.59 36.55 39.90 42.33 43.48 43.18 44.41 47.13 49.02 47.45 47.28 47.59 42.85 57.91 63.34 69.76 71.12 72.49 72.53 73.12 73.85 73.36 73.46 73.74 73.76 73.61 73.44 73.17 72.62 72.29 71.56 70.88 70.29 69.89 69.19 68.53 68.40 68.26 67.47 66.28 65.73 66.58 67.63 68.57
54.98 58.05 54.45 48.55 40.64 34.07 35.27 40.00 42.39 44.16 46.11 47.27 47.70 46.21 46.92 47.76 54.33 56.09 57.64 63.97 70.24 71.28 72.48 72.73 71.37 73.57 73.38 72.96 73.12 73.30 73.52 73.51 73.03 72.61 72.22 71.44 70.66 70.00 69.52 68.86 67.85 67.68 67.65 66.81 65.70 64.85 64.39 66.28 67.48
57.17 56.43 48.41 44.21 38.09 35.12 36.57 39.67 42.24 44.36 45.51 45.02 44.77 48.00 48.00 49.29 54.00 55.83 59.48 64.54 70.50 70.42 71.94 71.81 71.43 73.21 73.39 73.06 73.20 73.20 73.06 72.78 72.63 72.18 71.77 71.29 70.49 69.62 69.09 68.39 67.54 66.99 66.58 65.64 64.60 63.89 64.00 65.08 65.80
52.27 51.55 47.49 40.32 36.65 39.75 40.70 41.19 44.59 44.61 44.98 46.88 46.44 45.13 49.60 55.69 55.99 59.23 62.33 65.99 67.46 69.96 71.65 70.75 71.70 72.65 72.95 72.83 72.88 72.65 72.58 72.65 72.27 72.06 71.60 71.28 70.22 69.35 68.57 68.05 67.36 66.55 65.47 64.38 63.23 62.41 62.63 62.80 63.46
50.70 46.70 41.27 37.29 37.08 39.45 41.46 44.91 44.59 44.21 43.59 43.99 46.22 43.42 46.39 54.46 58.28 59.89 61.26 65.02 65.90 69.65 70.99 71.15 71.00 71.68 72.05 72.34 72.46 71.94 71.64 72.15 72.28 71.83 71.64 70.98 69.98 69.04 68.47 67.93 67.37 66.38 65.35 63.83 62.10 61.24 60.87 60.79 60.76
47.33 44.42 38.09 35.22 36.33 40.59 42.07 44.23 44.51 42.31 42.44 44.17 45.41 44.28 45.34 52.20 57.12 58.01 61.86 62.16 66.24 69.44 70.19 70.73 68.15 69.47 70.83 71.16 71.38 71.29 71.58 71.68 71.55 71.84 71.37 70.76 70.12 69.33 68.47 68.03 67.31 66.43 65.54 64.26 62.00 60.09 59.32 58.94 58.41
44.41 40.65 37.25 36.89 37.88 39.98 43.25 44.67 41.43 42.63 42.42 43.08 46.02 42.74 43.99 48.10 52.53 55.54 56.18 56.16 56.42 59.08 65.04 68.08 69.37 68.01 67.83 69.39 69.25 69.85 70.27 70.38 70.52 70.36 70.39 69.75 69.35 69.26 68.70 68.10 67.19 66.46 65.62 64.67 62.81 59.12 57.50 56.89 56.53
45.00 41.17 37.02 37.34 38.47 38.90 44.08 44.47 44.66 44.88 42.96 46.41 45.99 42.08 40.80 45.28 51.32 53.53 53.56 52.93 52.13 52.75 54.37 55.88 62.19 68.77 68.81 68.46 66.72 67.53 68.38 68.76 68.98 68.47 67.38 66.48 66.93 66.97 66.43 65.60 67.09 66.38 65.38 64.45 62.69 59.20 57.55 56.29 56.12
45.06 37.54 35.10 38.02 39.48 41.13 43.71 42.85 44.64 45.41 45.06 44.59 45.33 43.83 45.53 48.49 50.93 50.89 49.58 49.17 49.06 50.66 50.43 51.55 52.50 56.58 65.90 67.52 67.01 65.88 66.35 66.86 66.69 65.97 64.20 63.77 65.89 66.24 65.02 64.42 66.11 66.21 65.38 64.15 62.67 60.84 57.69 55.37 55.86
42.21 37.03 38.16 41.19 41.46 41.67 44.44 43.42 44.67 43.18 42.78 42.36 43.11 45.52 47.51 47.67 47.95 47.19 45.67 44.77 45.29 46.34 48.53 49.74 50.67 51.94 55.19 65.30 67.94 67.70 67.64 67.60 67.77 67.08 65.41 66.83 66.31 65.16 63.90 61.89 63.12 64.21 64.00 63.83 62.79 61.84 60.17 55.49 49.79
42.12 38.73 41.22 43.11 45.24 45.68 44.71 43.53 44.93 43.36 40.10 42.70 43.27 44.31 45.69 45.33 45.19 44.96 44.37 44.52 44.85 45.58 48.51 50.89 51.55 51.82 51.99 59.51 65.74 67.06 66.63 65.47 65.15 65.93 66.55 65.37 65.13 63.68 61.70 60.88 60.58 60.32 60.25 61.04 60.01 58.22 55.66 52.72 51.14
38.74 43.37 43.45 46.47 46.29 45.42 43.41 44.93 42.95 42.80 42.10 44.52 44.65 45.46 44.66 44.04 43.69 43.76 43.80 44.21 45.05 46.91 49.96 51.55 53.08 54.37 52.43 53.34 64.42 65.48 64.65 63.55 62.89 63.93 66.09 65.49 64.29 64.17 63.46 63.56 63.52 61.05 61.34 60.33 59.48 57.84 57.24 54.47 52.94
41.23 42.68 44.59 46.18 45.38 44.05 45.90 43.13 42.72 41.91 42.96 44.60 45.31 45.13 43.27 42.89 43.01 43.37 44.40 44.88 45.56 47.83 48.73 50.28 52.74 54.55 55.13 53.37 63.69 62.65 60.37 60.22 60.42 62.09 63.40 62.93 62.60 63.09 62.71 61.46 60.66 60.15 59.10 58.02 57.15 56.99 55.84 53.25 53.91
43.38 43.87 43.98 45.39 45.51 44.82 43.39 42.03 42.73 42.09 42.52 43.20 44.21 42.43 41.80 42.55 42.56 41.65 42.76 43.14 46.30 48.14 47.78 50.24 54.84 55.07 57.43 60.10 58.97 58.22 58.70 58.35 58.23 58.21 58.95 60.34 60.55 59.66 59.47 58.08 57.63 57.42 57.50 56.63 54.60 54.17 52.97 53.48 52.38
43.98 39.77 42.21 43.19 44.38 43.29 43.80 40.37 41.33 42.76 42.61 42.31 42.20 41.08 41.43 41.85 41.89 40.73 41.97 43.55 46.65 47.10 47.76 50.19 53.02 53.18 54.22 55.35 55.72 55.90 55.79 55.74 55.27 55.36 56.11 55.17 55.12 54.38 54.78 54.51 54.20 54.54 54.33 53.75 53.66 53.46 52.40 51.16 51.56
39.42 38.36 35.60 42.19 43.44 42.70 41.90 36.61 42.94 42.28 41.91 40.60 40.36 39.14 40.54 41.07 41.21 40.91 42.39 45.30 45.83 46.71 47.50 49.31 50.98 50.02 51.55 52.56 52.92 52.81 53.18 53.18 53.32 52.99 52.71 53.33 53.22 52.55 52.17 52.30 52.70 53.06 53.04 51.98 49.24 49.49 47.22 45.97 45.30
36.51 32.86 35.56 39.97 42.68 41.50 39.73 37.55 40.68 41.67 41.58 39.93 39.16 38.68 39.60 39.06 39.29 40.13 42.22 44.55 45.18 46.25 47.62 48.49 48.83 48.67 48.87 49.14 49.21 48.80 48.26 47.96 48.22 48.51 47.15 47.93 50.33 50.16 48.61 47.69 46.91 46.50 45.32 45.42 48.13 45.83 44.26 41.68 41.96
34.07 33.88 37.21 36.69 40.94 39.77 37.65 37.83 40.35 41.45 40.94 40.03 39.01 38.66 38.83 38.53 38.72 40.24 42.69 44.33 45.43 45.95 46.80 47.70 47.81 47.43 47.16 47.11 46.29 44.95 43.92 43.33 43.32 42.64 42.17 44.28 45.08 45.26 45.21 43.30 42.54 42.51 41.29 40.82 43.30 42.76 41.59 39.43 39.25
38.03 36.05 35.44 38.69 41.45 39.02 37.90 38.21 40.13 40.94 39.62 38.73 38.39 38.81 39.16 39.01 38.63 40.36 42.68 43.54 45.04 45.39 46.93 47.45 46.99 47.07 46.69 46.09 44.17 42.51 40.16 39.33 38.73 38.13 38.49 39.22 40.12 40.44 40.36 39.34 37.76 37.34 36.45 35.58 37.93 40.72 37.11 35.58 36.25
38.62 36.44 35.92 39.14 40.52 38.70 37.61 37.55 40.43 40.28 40.95 41.43 41.58 40.21 39.80 36.39 37.13 39.46 41.32 42.63 43.16 44.58 46.09 47.61 47.93 48.34 48.24 46.82 43.66 41.38 38.37 36.96 35.82 36.30 36.37 36.87 37.14 37.28 37.30 36.21 35.40 34.77 34.68 34.10 33.39 33.92 34.11 33.56 33.21
37.84 36.38 35.37 37.46 37.85 37.44 35.16 34.56 37.44 41.02 41.37 41.29 42.62 42.37 41.03 37.44 36.91 37.75 39.61 41.60 42.14 43.34 45.43 47.59 48.03 47.49 44.04 41.75 40.00 38.10 36.51 34.85 34.29 33.58 34.14 34.59 35.57 35.61 35.50 34.72 34.23 33.57 33.63 32.36 31.41 31.20 31.40 30.02 31.34
35.39 40.31 39.90 38.55 34.99 30.59 35.57 29.79 35.43 38.31 39.69 39.86 41.95 39.73 39.66 37.23 38.00 38.89 39.58 40.02 41.17 42.62 46.24 46.18 44.97 42.78 41.33 41.03 38.83 36.90 35.05 32.49 30.98 31.98 32.45 33.14 33.63 33.68 34.10 33.75 33.34 32.55 32.12 31.23 31.36 31.36 30.14 29.81 28.02
37.68 39.57 37.89 36.83 33.30 31.25 31.70 28.97 33.69 39.27 39.61 42.43 41.71 40.93 39.18 37.54 37.72 38.37 39.66 40.58 39.45 40.99 42.53 42.66 42.18 41.72 39.88 38.89 36.87 35.01 32.67 32.80 32.62 31.78 31.34 31.22 31.68 32.02 32.14 32.10 31.66 31.36 31.50 30.11 29.61 28.80 28.95 28.93 27.93
40.37 37.80 36.75 34.72 32.86 26.50 33.19 31.83 32.87 37.60 40.56 42.38 39.90 37.76 36.93 36.62 37.20 38.10 38.45 37.65 36.44 37.34 37.96 38.14 36.26 36.06 36.82 36.59 35.14 33.89 32.42 31.76 31.11 30.41 30.00 30.06 30.18 30.49 30.65 30.93 30.12 29.84 29.44 28.93 28.34 28.27 27.65 27.60 27.32
38.51 34.72 27.27 25.97 24.53 26.69 32.66 30.36 37.01 38.92 40.62 41.37 40.05 37.48 36.41 36.73 36.12 36.40 35.61 35.77 34.18 33.44 33.29 33.83 34.54 33.94 34.54 34.37 33.68 33.40 32.69 32.65 31.40 30.45 29.97 29.50 29.25 28.87 28.45 28.69 27.94 27.75 28.53 28.66 28.00 27.30 27.16 26.83 26.01
35.39 35.09 28.54 21.76 23.55 25.84 29.11 27.04 34.31 39.64 39.71 38.31 40.22 40.04 37.57 36.35 36.75 35.72 35.07 34.37 33.61 33.31 32.54 32.70 32.59 33.00 33.70 33.86 33.33 33.60 33.42 33.24 32.57 31.81 30.98 29.92 29.22 28.75 28.23 27.59 27.15 27.18 27.89 28.03 27.31 26.53 26.57 25.86 24.88
34.09 32.79 38.82 31.04 18.94 22.10 29.17 32.38 37.39 36.31 36.65 35.73 36.77 37.32 35.88 35.68 35.37 33.92 33.32 33.37 33.12 32.19 31.94 33.11 32.82 32.32 32.63 33.14 33.16 32.91 32.51 32.12 31.35 30.05 29.49 28.89 28.33 28.99 27.47 27.09 26.59 26.64 26.79 26.89 26.05 25.14 24.40 24.50 24.16
36.65 38.07 30.36 29.65 19.85 18.83 27.05 28.34 33.00 33.81 36.04 34.86 34.72 34.76 34.85 35.12 33.82 33.35 33.03 32.64 33.18 33.38 31.10 30.69 31.53 32.18 31.62 31.75 32.44 32.13 30.80 30.60 30.14 29.98 28.49 27.96 27.60 27.67 26.72 25.99 25.92 25.38 25.32 25.42 24.79 23.46 23.59 23.21 22.74
34.17 32.43 33.66 34.03 29.28 22.82 21.54 30.34 36.25 38.81 38.93 34.94 36.16 36.52 35.50 35.37 34.17 33.61 33.58 32.56 32.41 31.33 31.12 30.97 30.89 30.78 30.93 31.48 30.30 30.42 30.05 29.98 29.52 28.80 27.78 27.16 26.72 26.08 25.80 25.71 25.19 24.70 23.91 23.70 23.08 22.65 22.50 22.33 22.19
35.77 35.26 33.85 29.53 26.91 27.83 26.93 33.14 36.32 36.22 38.07 37.16 36.81 37.53 37.80 37.46 35.56 34.13 33.77 31.91 31.55 31.17 30.55 30.30 30.45 30.37 30.59 30.95 30.25 29.72 29.75 29.24 28.42 27.59 26.75 26.12 25.60 25.54 25.15 25.02 24.45 24.01 23.48 22.75 22.64 22.33 22.16 21.66 21.62

GFSSGP_sfc_wetblb_054.txt.gz
Wetbulb
57.78 54.05 52.15 52.34 44.04 39.37 34.68 37.67 39.77 41.72 41.58 43.66 47.78 48.41 46.13 46.76 45.62 39.93 56.70 66.52 69.99 70.83 71.24 71.76 71.95 73.68 73.69 73.76 73.62 73.24 73.04 72.72 72.48 71.92 71.19 70.32 69.89 69.50 68.89 68.32 68.17 68.10 67.37 66.60 65.92 66.23 68.00 68.21 68.74
56.13 56.33 52.76 45.91 37.70 32.81 34.42 37.72 41.06 42.66 44.77 46.44 46.58 45.44 47.27 47.46 53.03 55.14 57.14 68.10 70.48 71.17 71.89 71.76 71.63 72.93 73.20 73.34 73.35 73.19 73.00 72.60 72.17 71.86 70.71 70.21 69.60 69.13 68.41 67.70 67.45 67.01 66.38 65.84 65.25 65.31 66.54 66.78 67.28
55.23 53.85 47.84 41.53 35.17 33.74 35.33 38.85 41.53 44.02 45.23 43.78 44.21 47.69 47.51 48.88 53.31 54.81 58.30 68.43 70.42 70.47 71.83 71.10 71.58 72.77 72.88 72.94 73.10 73.19 72.99 72.79 72.20 71.75 70.91 70.06 69.48 68.89 68.17 67.30 66.44 65.71 65.01 64.30 63.83 63.73 63.97 64.78 65.48
51.24 50.18 45.53 38.21 34.76 36.62 39.25 40.67 42.31 43.13 43.03 45.96 45.23 44.20 50.20 54.23 55.02 58.01 62.40 69.54 69.42 70.25 71.28 70.27 71.74 72.86 72.94 72.80 72.93 72.90 72.82 72.34 72.04 71.62 70.92 69.96 69.35 68.70 68.14 67.28 66.27 65.15 63.87 63.04 62.50 62.38 62.23 62.48 63.23
48.58 44.91 39.02 35.41 35.15 38.50 38.87 41.70 43.53 42.76 41.32 43.02 43.73 42.03 47.15 53.84 56.96 60.11 63.10 67.41 68.00 69.35 70.63 70.22 70.81 71.91 72.40 72.51 72.50 72.46 72.43 72.18 71.51 71.15 70.90 69.89 69.18 68.53 68.12 67.34 66.63 65.78 64.31 62.35 61.26 60.82 60.34 60.22 61.16
45.91 42.44 36.74 33.94 34.82 38.57 40.64 43.66 43.58 40.63 41.31 43.96 44.17 43.41 44.77 51.48 57.66 58.43 59.71 60.54 66.18 69.12 70.63 70.53 68.08 69.25 70.49 71.40 71.37 71.05 71.69 71.84 71.72 71.36 70.41 69.81 69.17 68.56 68.22 67.43 66.71 66.00 65.09 62.78 60.00 59.10 58.50 58.86 59.24
42.76 39.07 36.39 34.25 36.35 38.57 42.05 44.14 41.52 40.80 41.59 41.33 45.67 42.16 44.34 48.50 54.22 55.65 54.50 54.38 56.69 62.58 64.08 68.48 68.84 68.45 67.91 68.63 68.87 69.59 70.19 70.40 70.56 70.66 70.36 69.53 69.02 68.79 68.28 67.37 66.63 66.02 65.02 62.54 59.98 58.33 57.60 57.86 57.92
43.16 39.66 34.82 35.17 36.62 37.84 42.13 42.25 43.02 43.09 41.71 45.14 44.01 40.86 42.10 46.69 52.27 53.02 51.49 50.53 50.53 52.13 53.60 56.49 65.55 68.02 68.36 68.57 66.19 67.05 68.04 68.46 68.84 68.50 67.59 66.52 66.61 66.84 66.62 65.54 66.42 65.83 64.68 62.49 60.49 58.69 57.69 57.24 56.96
42.26 36.03 33.73 35.36 37.58 39.60 41.91 41.50 43.15 43.39 43.79 42.41 43.55 42.70 44.15 48.37 50.77 49.32 47.74 47.64 48.49 49.84 49.93 51.13 55.11 59.72 66.64 68.60 66.73 65.48 66.17 66.62 66.34 65.56 64.30 63.75 65.57 65.86 64.86 64.43 65.75 65.65 64.70 63.15 61.87 59.67 57.45 55.80 56.53
40.92 34.87 37.26 39.83 39.85 39.97 42.50 42.42 43.76 42.01 41.32 40.67 41.55 44.02 45.98 47.07 48.09 47.29 44.88 44.72 44.48 45.89 48.60 49.93 50.74 52.16 56.69 65.09 67.70 67.28 67.32 67.91 67.85 66.10 65.07 65.75 65.95 65.20 64.22 61.67 62.82 64.07 63.68 64.03 62.82 60.51 57.45 53.15 48.38
39.62 37.67 40.05 41.23 43.31 43.44 42.92 41.35 43.05 41.53 39.04 41.86 42.02 43.71 44.61 44.53 44.84 44.67 43.36 43.54 44.01 45.12 48.57 51.69 52.43 52.04 51.82 59.85 65.57 67.71 66.50 66.45 66.12 65.65 65.60 66.11 64.70 63.55 62.14 60.18 59.87 59.59 59.19 58.93 58.54 55.46 53.00 50.93 49.90
36.86 41.48 41.62 44.64 44.36 43.88 42.78 43.07 41.80 41.73 42.02 43.92 44.28 44.35 43.37 43.26 43.05 43.20 43.27 43.89 44.80 46.96 48.19 50.12 51.67 53.06 52.16 53.76 63.60 65.17 64.72 63.67 63.05 64.18 65.96 65.09 63.87 62.66 62.09 62.70 61.87 61.12 58.41 57.38 56.36 55.45 54.04 53.11 51.46
39.38 40.73 42.71 44.49 44.43 42.82 44.26 41.84 41.62 41.15 40.81 42.85 44.00 44.32 42.76 42.17 42.13 42.34 43.49 44.41 45.26 47.55 47.29 49.18 51.71 53.30 54.55 52.80 63.44 62.24 61.20 60.71 60.82 62.56 63.81 64.67 64.18 63.26 62.04 60.57 60.00 59.33 58.27 55.82 55.89 55.66 53.01 52.31 52.78
42.07 42.29 42.34 43.69 43.60 43.70 42.78 40.92 41.74 40.68 41.40 42.12 42.96 41.85 41.29 41.69 41.61 40.87 42.22 43.14 46.17 47.68 47.47 49.63 53.44 55.19 56.56 60.44 59.73 59.04 59.04 58.72 58.63 58.86 59.86 60.81 60.95 59.84 58.42 57.48 57.00 56.65 56.40 54.93 53.15 52.67 51.48 50.94 51.53
42.32 38.49 40.49 41.63 43.14 42.32 42.64 39.14 40.62 41.30 40.97 41.13 41.00 40.04 40.49 41.02 41.52 41.01 41.71 42.68 46.41 47.05 48.43 49.74 51.88 54.38 54.08 56.18 56.55 56.27 56.28 56.49 56.27 56.10 55.93 55.97 56.53 56.37 55.74 54.95 54.36 54.34 54.06 53.95 53.51 51.76 50.50 47.98 48.53
37.91 37.14 34.39 40.10 41.88 41.41 40.90 35.52 41.55 40.97 40.40 39.56 39.40 37.94 39.44 40.02 40.59 40.26 41.41 44.19 45.79 46.43 47.57 48.70 51.20 52.28 53.37 53.75 54.03 53.94 53.93 54.17 53.82 54.13 54.21 53.46 52.95 52.88 53.56 52.95 52.40 52.68 51.95 50.23 48.44 46.95 42.89 42.66 43.27
35.25 31.93 33.37 38.27 41.39 40.11 38.85 36.95 40.53 39.50 39.82 38.90 37.74 37.55 38.60 38.42 38.69 39.23 41.21 44.63 45.16 45.98 46.71 46.87 48.28 50.12 50.11 50.17 49.29 48.79 48.73 48.93 48.83 50.13 49.54 48.79 49.15 48.31 47.13 45.84 45.27 45.51 45.35 45.72 42.94 40.36 40.38 39.82 41.87
32.23 32.03 34.35 34.93 39.24 37.87 36.10 37.30 39.18 39.47 39.39 39.62 37.72 37.39 37.56 37.98 38.83 39.06 41.63 44.02 45.00 45.46 46.08 46.23 47.59 47.76 47.17 46.52 45.86 44.67 43.52 42.90 44.29 44.93 44.17 44.19 44.62 44.17 42.62 40.71 39.94 40.94 41.65 41.17 39.69 36.80 35.65 36.38 40.02
36.11 34.16 33.95 36.51 40.76 38.27 36.83 37.37 39.81 39.76 37.94 37.54 37.28 37.50 38.10 38.88 38.25 39.17 42.37 43.38 44.14 44.26 44.79 45.10 47.10 46.62 47.06 45.55 43.89 43.17 39.53 39.79 39.69 40.07 39.02 39.69 39.92 39.78 38.26 36.91 36.67 36.65 36.58 36.06 37.61 35.96 33.01 33.23 34.04
36.40 34.23 33.93 37.20 39.76 37.93 37.09 36.16 39.09 38.80 39.09 40.59 40.55 39.45 39.55 36.81 36.48 38.56 41.18 42.06 43.52 44.04 44.76 45.16 45.64 46.52 47.41 46.95 42.62 40.51 38.64 37.24 37.39 36.87 36.13 36.73 36.93 36.61 36.00 35.01 33.87 33.44 33.41 32.16 32.03 33.16 31.84 30.97 30.92
35.98 34.31 33.44 36.05 36.44 35.97 33.94 32.75 36.20 39.70 40.07 40.35 42.31 42.90 41.87 39.58 37.56 37.63 40.52 41.28 41.90 43.27 44.02 45.83 45.84 46.61 44.83 40.95 39.15 37.26 37.09 36.74 35.44 33.04 33.40 34.30 35.09 34.68 34.44 33.45 32.99 32.25 32.09 30.71 29.94 30.52 30.77 28.87 29.77
34.08 39.13 38.42 37.08 34.17 30.01 34.55 28.36 33.79 36.81 38.55 39.00 41.72 40.00 41.25 39.29 38.31 38.55 40.40 40.91 41.69 42.90 44.11 46.02 48.31 43.30 41.34 40.77 38.83 38.08 36.65 34.19 31.96 31.65 32.01 32.17 32.92 32.59 32.79 32.44 31.79 30.97 30.81 30.12 29.87 30.25 29.37 29.27 27.36
36.85 39.02 37.08 35.33 32.03 29.78 31.46 28.32 32.28 35.37 36.35 39.48 42.48 40.86 39.94 38.21 38.08 38.09 40.04 42.49 42.10 43.07 45.51 43.83 42.53 41.46 40.68 40.15 39.42 37.46 33.24 32.58 31.67 30.98 30.40 30.13 30.35 30.74 30.85 30.81 30.20 29.93 30.04 28.90 29.04 28.35 28.32 28.29 27.33
39.41 36.74 35.28 32.95 31.20 25.94 32.89 30.71 31.58 35.16 38.88 40.66 43.09 42.11 39.23 37.42 37.62 38.92 40.23 41.87 40.48 39.70 42.36 42.58 41.52 39.98 39.65 39.02 37.43 35.87 32.36 31.18 30.34 29.50 28.86 28.13 28.25 28.63 29.37 29.88 29.42 29.37 29.31 28.93 28.34 27.68 27.35 26.89 26.60
37.87 35.38 26.64 25.23 23.67 26.19 30.92 28.96 36.52 38.19 40.41 40.75 42.99 40.53 36.68 36.78 36.66 37.14 37.94 39.59 38.36 37.55 38.69 40.92 40.30 38.09 37.36 36.07 35.22 34.44 32.56 32.03 30.74 29.57 29.01 28.37 27.85 27.04 27.59 29.21 29.22 28.73 28.24 28.04 27.68 27.18 26.77 26.62 26.08
35.63 34.54 27.50 20.34 22.05 24.50 28.75 26.81 33.45 38.66 41.76 40.29 38.83 37.96 35.25 34.67 36.39 36.88 38.15 39.48 37.78 36.03 36.12 39.21 37.89 35.27 35.38 33.89 32.80 32.46 32.17 31.43 30.71 29.94 29.39 29.06 28.55 28.40 27.66 27.31 27.43 27.60 27.60 27.08 27.00 26.57 25.94 25.09 24.31
33.56 31.65 36.56 30.47 16.65 21.48 28.73 31.80 36.94 37.41 37.34 37.69 37.86 35.02 32.91 33.97 35.06 35.96 37.20 37.47 35.89 34.80 34.05 36.19 36.02 35.57 33.44 32.88 32.36 31.43 31.31 30.51 30.21 29.13 28.65 28.60 27.89 28.30 27.05 26.64 26.25 26.30 26.04 25.77 25.17 24.86 24.15 23.74 23.56
35.41 37.91 30.05 28.52 19.44 18.22 26.57 27.63 32.74 33.94 36.12 38.13 37.02 34.35 33.21 33.23 33.16 33.86 34.62 34.66 34.84 34.42 32.67 32.87 34.80 33.19 32.17 31.99 32.32 32.17 31.77 30.97 30.35 29.72 27.89 27.30 26.82 26.98 25.94 25.06 24.84 25.12 25.35 25.14 24.37 23.22 23.59 22.99 22.54
32.86 31.89 32.41 32.56 28.40 21.93 19.71 29.03 34.87 38.33 38.25 37.81 37.79 35.87 33.64 33.21 33.00 33.01 33.27 33.35 33.14 32.46 30.96 30.77 31.03 30.48 30.57 31.96 31.71 30.94 30.32 29.86 29.29 28.19 27.38 27.09 26.72 26.05 25.58 25.43 24.98 24.74 24.36 23.99 23.20 22.72 22.54 22.34 22.11
34.35 33.28 33.05 27.49 25.06 27.05 26.24 32.57 35.85 37.26 38.60 38.09 38.10 36.61 34.92 35.23 33.39 32.89 32.30 31.37 30.81 29.82 30.11 30.22 30.30 30.55 30.89 31.16 30.68 30.61 29.61 28.90 27.93 27.32 26.76 26.45 26.16 25.72 25.72 25.15 24.58 24.02 23.68 23.01 22.75 22.16 22.28 21.77 21.68

GFSSGP_sfc_wetblb_057.txt.gz
Wetbulb
57.31 53.57 52.01 50.30 42.09 38.34 33.76 36.16 38.33 40.01 40.94 44.24 47.00 44.85 44.41 46.49 43.78 38.16 55.81 62.13 66.64 69.41 70.66 71.34 72.68 73.41 73.31 73.23 73.07 72.71 72.78 72.45 71.66 70.82 70.15 69.76 69.20 68.34 68.23 68.08 67.41 67.06 66.81 66.45 67.05 67.89 68.35 68.58 68.09
55.78 54.68 51.25 43.71 36.45 32.40 33.85 37.08 39.87 41.13 45.51 46.14 45.66 45.25 47.36 46.71 52.10 54.63 56.91 67.68 69.69 70.20 70.84 70.70 71.47 73.09 73.46 73.33 73.11 72.87 72.43 72.59 71.36 70.37 70.00 69.61 68.99 68.08 67.62 66.94 66.21 65.71 65.42 65.38 65.46 66.04 66.79 67.22 66.63
53.75 51.74 46.67 39.52 33.63 32.87 34.37 37.53 39.05 42.81 45.18 41.73 44.24 46.71 47.55 48.20 52.67 53.88 58.23 68.78 70.08 70.05 70.86 70.30 71.08 71.84 72.91 73.14 73.01 72.84 72.49 72.63 71.65 70.52 69.90 69.42 68.81 68.14 67.25 66.15 65.04 64.32 63.78 63.78 63.84 64.01 64.93 65.13 65.91
50.49 48.75 42.90 37.31 34.31 35.53 37.55 40.05 39.84 42.85 41.30 44.47 44.78 44.64 50.02 53.29 53.74 57.36 62.23 68.91 69.48 69.82 70.60 69.94 71.40 72.64 72.79 72.89 72.97 72.62 71.93 71.85 71.76 70.57 69.75 69.27 68.73 68.03 67.27 66.51 65.28 63.67 62.57 62.36 62.23 62.28 63.16 63.24 63.93
47.07 43.70 37.20 34.99 35.72 38.18 37.35 40.68 41.28 41.68 40.25 41.06 42.04 42.87 47.43 52.45 56.45 60.39 66.13 68.06 67.55 68.88 69.79 69.92 70.66 71.86 72.22 72.57 72.64 72.31 71.80 71.52 71.14 71.04 69.61 69.12 68.64 68.01 67.40 66.80 66.02 64.53 61.93 61.11 60.81 60.85 61.59 61.52 61.87
44.44 41.36 35.33 32.61 33.39 38.03 39.23 40.84 42.07 39.70 40.93 42.23 43.58 43.26 46.96 50.98 57.15 56.91 62.36 63.08 66.49 68.35 69.65 69.89 67.77 69.01 70.52 71.20 71.49 71.59 71.68 71.43 70.98 70.76 69.69 69.14 68.64 68.05 67.38 66.79 66.16 64.87 61.96 60.04 59.37 59.64 60.08 60.02 60.20
41.76 38.47 34.97 33.63 35.10 37.52 40.68 42.32 40.11 40.54 40.67 40.42 45.28 42.03 44.99 49.37 54.46 54.84 55.18 56.81 60.45 64.64 67.35 69.55 68.85 67.95 67.17 68.68 68.98 69.85 70.11 70.43 70.19 70.00 69.76 69.14 68.71 68.40 67.29 66.90 66.15 64.82 62.67 60.90 59.58 59.02 58.86 58.45 58.63
41.04 38.97 33.46 33.30 35.77 37.08 41.28 41.29 41.25 41.61 39.94 42.98 42.86 40.83 44.29 48.21 53.67 51.40 50.72 50.94 51.91 54.61 56.29 62.24 67.20 67.40 67.63 68.40 65.59 66.65 68.04 68.62 69.05 68.50 67.41 66.31 66.43 66.76 66.17 64.94 66.05 64.81 62.98 61.29 59.86 58.86 58.43 58.07 57.55
39.94 35.12 32.74 35.48 36.34 38.68 41.51 40.45 42.02 41.22 42.40 40.56 42.10 42.14 43.68 49.80 50.47 49.16 48.48 48.62 49.52 50.54 51.11 51.94 60.68 63.22 68.10 68.48 65.98 64.60 65.52 66.16 66.18 65.72 64.29 63.10 64.88 65.90 65.05 63.98 65.12 64.80 63.82 62.31 60.50 58.70 57.15 55.31 55.56
38.64 33.32 36.50 39.32 38.65 38.93 40.98 40.45 42.75 41.39 40.17 38.86 40.20 42.60 45.10 48.77 47.39 48.81 48.38 47.93 46.34 46.90 50.81 50.03 52.02 55.69 59.41 66.45 66.88 66.61 66.73 67.34 67.40 65.74 65.17 65.14 65.53 65.13 64.41 61.79 62.63 63.07 62.84 63.48 60.97 58.71 55.73 51.58 47.45
37.34 36.14 38.72 40.07 41.86 42.34 41.80 39.98 41.21 40.61 38.08 41.20 42.02 43.09 44.23 45.72 46.22 46.24 44.91 45.59 46.07 45.26 48.71 51.40 52.14 52.37 52.64 59.30 66.07 66.82 65.93 66.24 66.98 64.67 65.02 65.84 64.23 63.33 62.55 60.89 59.46 58.82 57.82 57.08 55.38 52.79 51.47 49.97 49.38
37.91 39.79 39.66 42.80 42.96 41.96 41.33 42.49 40.43 40.81 42.18 42.13 43.28 43.91 43.08 44.27 44.93 44.20 43.39 43.75 44.41 46.11 48.74 49.82 51.18 52.55 52.55 52.60 62.68 65.77 64.45 64.94 65.26 65.42 65.47 64.30 63.45 61.50 61.38 61.14 60.72 59.35 57.16 55.29 54.37 53.00 52.44 51.58 51.20
37.72 39.02 40.99 42.67 42.16 41.22 42.75 40.96 40.41 41.18 40.33 40.85 42.77 43.59 43.00 42.77 42.87 42.26 43.20 43.43 43.98 46.33 47.60 48.59 50.07 51.93 53.25 51.66 63.90 63.06 62.38 62.54 62.91 64.15 64.98 64.92 63.19 62.54 62.08 60.64 59.75 58.73 57.68 55.37 53.37 52.58 51.89 51.66 51.43
40.51 41.01 40.74 41.72 41.88 41.65 41.20 39.40 40.31 40.25 40.21 40.71 42.18 41.89 41.56 41.93 41.77 40.22 41.57 42.69 43.97 46.49 46.97 48.71 51.86 52.93 53.52 57.42 60.77 59.90 59.98 59.76 60.02 60.14 61.63 62.53 62.25 60.37 59.11 57.94 57.06 56.42 55.85 54.98 54.32 52.92 51.10 50.38 51.85
41.17 38.00 39.45 39.86 41.48 40.82 41.51 38.53 39.92 40.19 40.07 40.57 40.68 40.10 40.49 40.83 40.98 41.24 41.84 42.22 43.97 46.22 46.98 48.79 52.53 55.47 54.44 57.59 57.49 57.30 57.52 57.78 57.59 57.00 57.69 58.35 59.08 57.96 56.79 55.77 54.90 54.48 54.51 53.57 51.60 49.54 48.55 48.11 48.09
37.36 36.37 33.91 38.37 40.62 40.12 40.19 34.77 40.68 40.29 39.59 39.48 39.02 37.87 39.20 40.15 40.67 40.41 41.22 41.50 44.63 45.38 46.68 48.32 52.82 54.19 54.74 55.25 55.08 54.98 55.06 55.28 55.32 55.52 55.21 55.09 55.13 55.68 54.76 53.69 52.51 52.44 50.68 49.46 47.82 45.84 44.52 43.51 44.56
34.23 30.92 32.12 37.01 40.39 38.77 37.57 35.59 38.93 38.15 38.74 38.77 37.81 37.59 38.28 38.39 38.97 39.63 39.86 41.16 44.66 45.25 46.42 46.87 48.83 52.10 52.03 51.72 50.55 49.97 49.75 50.46 51.57 52.24 51.86 51.23 50.96 51.52 51.10 49.63 48.56 48.61 46.19 42.63 40.76 39.38 40.89 42.79 42.89
31.13 30.66 32.49 33.33 37.55 36.55 35.00 36.22 39.37 38.20 37.88 39.23 37.00 36.99 37.32 38.25 40.34 39.34 39.22 42.66 44.34 44.78 45.80 46.08 48.79 49.44 48.94 47.97 46.20 45.48 44.71 44.20 45.80 47.46 47.43 46.60 45.92 45.39 45.53 44.27 44.74 43.41 39.76 37.18 36.80 37.02 36.85 38.78 40.23
34.80 32.44 32.46 35.74 38.93 36.58 36.20 36.73 39.89 39.24 36.83 36.62 37.14 37.69 38.34 39.09 40.87 38.47 39.32 42.65 43.40 44.00 44.60 45.11 47.53 47.65 46.88 46.51 45.64 45.30 41.89 41.75 41.47 41.95 42.00 42.52 40.57 39.44 39.00 38.42 38.26 38.05 37.10 35.63 35.21 34.22 37.79 33.37 34.53
34.15 32.59 32.63 35.77 37.78 37.11 36.07 35.52 37.98 37.51 38.24 39.56 39.99 39.72 39.17 39.59 36.45 37.89 38.49 41.43 42.61 43.84 44.33 44.62 46.00 47.26 46.86 47.42 41.35 41.47 40.27 37.66 38.17 39.18 38.81 39.00 37.04 36.56 36.93 36.08 34.53 33.96 33.30 32.71 32.45 32.30 30.48 29.61 29.84
34.17 32.68 32.13 34.52 35.25 34.76 32.62 32.57 35.12 39.26 39.10 38.91 40.66 42.24 42.12 41.32 39.00 37.74 38.09 41.10 42.49 43.24 44.01 45.24 45.69 46.91 47.66 40.36 39.11 37.78 37.98 37.53 36.77 36.61 36.27 35.96 35.10 34.65 34.08 33.10 32.27 31.34 31.29 30.36 29.77 30.30 29.90 27.75 28.43
32.62 37.39 36.55 34.89 33.19 29.05 33.15 28.57 32.92 35.86 37.74 38.21 40.75 40.88 41.65 41.39 39.48 38.74 38.69 40.47 42.28 43.92 44.32 45.55 45.11 46.58 41.54 41.10 39.84 40.04 39.81 38.60 36.22 35.28 34.43 32.59 32.51 31.90 31.97 31.54 30.87 30.15 29.71 29.33 29.07 29.54 28.63 28.52 27.10
35.39 37.85 35.63 33.76 30.60 29.22 29.99 27.86 31.17 33.68 35.33 38.73 41.82 41.76 42.36 41.87 39.47 38.25 38.98 41.28 42.73 43.97 44.19 45.06 45.57 42.28 40.65 40.90 40.91 40.49 39.23 34.94 34.31 33.46 32.60 30.11 30.33 30.54 30.39 30.02 29.55 29.22 29.69 28.42 28.75 28.51 28.23 28.19 27.13
38.73 35.70 34.06 31.52 30.10 24.93 33.31 29.91 33.30 33.37 38.16 39.01 42.00 42.57 40.47 38.49 37.56 37.92 39.10 40.80 41.87 42.86 44.25 45.34 45.10 41.59 39.41 40.30 39.72 37.72 34.48 32.89 32.42 31.71 30.56 29.02 28.51 28.64 28.91 29.13 28.18 28.21 28.47 28.50 28.17 27.64 27.98 27.44 27.06
36.86 34.35 26.64 24.04 22.67 25.54 28.11 27.63 36.18 36.38 38.87 40.08 42.03 41.74 38.79 36.33 34.98 35.22 36.85 39.95 40.61 41.32 43.95 45.40 42.90 38.60 39.30 39.12 37.77 36.09 34.92 34.52 32.53 31.23 29.87 28.58 27.81 26.91 26.76 27.52 27.31 27.60 28.02 27.92 27.61 26.90 26.27 25.95 25.96
35.14 34.57 27.11 19.22 20.43 23.63 28.29 26.14 32.30 37.66 40.45 39.20 39.64 39.14 36.36 34.40 34.40 35.44 37.51 39.93 40.13 41.19 42.92 43.55 41.43 37.25 37.79 37.37 36.35 35.92 35.01 34.41 33.37 31.63 30.39 29.38 28.33 27.46 26.85 26.87 26.87 26.91 27.07 26.70 26.57 25.79 25.47 25.08 24.61
33.02 30.89 36.18 29.87 16.22 21.26 28.37 30.66 35.79 37.65 37.07 37.81 38.31 36.35 34.02 35.28 33.55 34.48 36.46 39.20 39.53 39.89 40.81 42.37 39.31 36.91 37.05 36.57 35.45 34.62 33.98 32.97 31.82 28.29 27.58 27.47 26.71 27.88 26.79 26.96 26.64 26.33 26.10 25.96 25.28 25.25 24.15 24.05 23.66
34.93 37.13 29.57 27.51 18.90 16.28 25.47 26.96 31.12 35.23 36.91 38.13 38.48 37.05 34.82 33.51 32.78 33.71 35.90 37.73 38.21 38.19 37.40 37.51 37.36 36.13 36.23 35.16 34.81 33.73 32.71 32.03 29.15 28.77 27.64 27.16 27.21 27.64 26.57 26.11 26.13 25.60 25.20 24.82 24.51 23.69 23.76 23.40 22.53
32.58 31.28 30.83 31.60 27.54 20.82 18.69 28.28 34.28 38.34 38.28 38.95 38.53 38.19 36.44 34.18 32.46 33.02 34.78 35.21 35.83 35.05 33.11 33.47 34.22 34.98 34.32 33.88 33.50 32.27 31.13 29.29 29.26 28.88 27.57 26.94 27.22 26.54 26.22 26.24 25.80 25.40 24.70 24.04 23.52 23.17 22.96 22.81 22.49
33.62 32.82 33.33 27.17 23.56 26.08 25.30 31.49 36.63 37.00 38.09 37.99 39.30 38.63 34.95 33.94 32.33 31.98 32.93 32.23 31.77 32.08 31.83 31.73 31.74 32.71 34.25 33.70 32.45 31.16 29.69 28.89 28.47 27.70 26.93 26.78 26.66 26.39 26.15 25.80 25.59 25.08 24.60 23.70 23.53 22.85 22.68 22.06 21.90

GFSSGP_sfc_wetblb_060.txt.gz
Wetbulb
57.38 52.89 51.44 48.23 41.75 37.46 33.00 35.01 36.98 38.95 39.45 44.09 44.89 42.42 42.20 45.86 42.16 36.63 54.36 62.23 67.99 68.52 69.81 70.34 72.09 72.98 73.26 73.35 73.17 72.99 72.79 71.83 70.73 70.05 69.60 68.83 68.37 68.20 67.70 67.15 66.67 66.69 67.09 67.56 68.46 68.89 68.36 69.51 68.90
54.76 53.33 49.49 41.84 36.47 31.82 33.21 35.46 38.15 40.07 45.41 45.84 45.28 44.76 46.48 44.88 51.51 54.87 57.57 66.23 68.44 69.28 70.13 70.50 71.00 72.60 73.08 73.07 72.14 72.95 72.69 71.75 70.65 70.04 69.58 68.78 68.09 67.03 66.50 65.80 65.28 65.20 65.43 65.91 67.26 68.02 67.40 68.47 67.83
52.49 50.21 46.35 38.43 32.36 32.09 33.44 36.62 38.33 41.75 44.68 40.38 43.64 46.96 46.95 48.14 51.80 53.62 57.93 68.24 69.25 69.19 69.93 70.02 71.17 72.50 72.75 72.78 72.90 72.60 72.45 71.72 70.36 69.91 69.55 68.93 68.16 67.14 66.09 64.92 64.18 63.79 63.87 64.32 65.69 66.29 67.09 67.03 66.82
49.87 47.81 41.52 36.78 34.49 35.76 37.50 38.59 40.05 42.48 41.11 42.79 45.43 44.66 48.79 53.45 53.07 56.30 63.66 68.47 68.50 68.98 69.48 69.52 71.28 72.82 72.76 72.87 72.50 72.11 71.98 71.77 70.28 69.80 69.42 68.90 68.24 67.62 66.75 65.41 63.54 62.86 62.59 62.95 64.14 64.44 64.83 65.12 64.29
45.83 42.33 36.74 33.88 34.31 37.05 36.81 39.54 41.45 41.48 38.68 40.48 41.88 42.55 46.21 51.47 55.02 59.54 64.40 67.79 67.50 68.28 68.98 69.30 70.32 71.44 72.19 72.61 72.17 71.94 71.83 71.65 70.91 69.75 69.23 68.75 68.10 67.54 66.92 66.17 63.97 62.01 61.59 61.73 62.58 62.76 62.92 63.25 61.90
43.64 40.48 34.67 32.04 33.36 37.38 40.00 39.46 40.96 38.84 39.56 40.81 43.10 45.57 47.79 49.62 55.76 56.86 64.77 64.87 66.20 68.22 68.78 69.16 67.69 69.09 70.38 71.35 71.71 71.51 70.93 70.98 70.91 69.91 69.09 68.70 68.00 67.40 66.89 66.22 64.34 62.27 60.68 60.68 61.16 61.02 61.06 61.08 59.88
41.54 37.74 33.64 33.18 33.70 36.25 39.83 40.80 38.34 39.96 40.59 41.12 45.70 42.98 44.84 48.38 53.87 55.51 58.43 60.75 64.66 66.57 67.59 68.56 68.14 67.78 67.38 68.65 69.27 69.86 70.31 70.37 70.21 70.08 69.51 68.89 68.23 67.71 67.01 66.48 64.77 63.40 62.06 60.58 60.10 59.50 59.60 59.27 58.44
39.84 38.33 31.93 32.21 34.96 36.09 40.44 40.53 39.71 41.08 39.76 42.10 42.39 40.72 42.86 49.19 53.32 52.11 53.10 54.02 55.86 59.60 61.90 65.39 66.47 67.13 67.34 67.55 65.72 66.82 68.05 68.62 68.92 68.37 67.20 66.10 66.19 66.09 65.50 64.53 65.18 63.65 62.26 60.98 60.15 59.42 58.89 57.96 56.74
38.54 35.08 32.48 34.36 35.40 37.35 39.65 39.37 38.85 39.94 41.08 39.67 41.74 41.46 43.73 50.97 50.17 50.51 50.80 50.97 52.05 52.98 54.98 56.64 63.80 66.37 67.23 68.31 65.94 64.59 65.61 66.32 66.25 65.72 64.05 62.66 65.36 65.26 63.67 63.25 64.64 64.24 63.19 61.07 59.63 57.76 56.17 55.43 54.90
36.74 32.98 35.19 37.64 36.76 37.29 39.47 39.07 41.24 39.77 38.86 39.17 39.63 41.48 45.20 49.73 48.70 51.52 52.26 52.83 51.12 49.80 51.64 51.85 54.37 60.77 63.13 67.96 67.05 65.95 66.69 67.16 67.45 66.15 64.33 64.15 65.23 64.94 64.01 60.96 61.60 62.28 61.86 60.43 59.09 57.39 54.95 51.02 47.28
36.09 34.26 37.36 39.23 40.33 40.93 40.39 38.31 40.86 39.74 37.48 40.95 41.82 42.26 45.67 47.75 48.26 51.55 52.01 51.80 51.24 48.41 49.38 53.07 51.74 53.49 56.97 61.11 66.11 65.17 64.91 65.15 65.30 64.67 64.68 65.52 64.15 62.84 62.50 61.28 59.46 57.61 56.28 54.16 53.18 51.40 50.54 49.67 49.17
37.38 38.30 38.46 41.33 41.69 40.04 39.49 40.74 39.47 39.73 41.05 40.80 42.20 43.29 44.29 46.35 47.07 48.53 49.40 48.05 46.44 46.57 48.17 50.84 51.60 52.09 52.70 54.61 60.31 65.66 64.72 65.27 64.56 64.50 64.81 64.53 63.51 62.26 60.98 60.27 59.85 57.37 55.32 53.37 52.31 51.72 51.27 50.50 49.61
37.93 38.64 39.54 41.17 40.86 39.82 41.50 39.60 40.19 39.94 41.36 40.51 41.08 43.41 43.55 44.70 45.03 44.00 44.70 44.12 44.02 45.30 47.27 49.12 49.57 51.40 52.52 51.99 59.27 63.52 64.08 64.17 64.74 65.08 64.90 63.81 62.75 61.52 60.83 60.76 59.58 58.07 55.68 53.83 51.85 51.94 51.06 50.08 49.33
38.95 39.74 39.30 40.11 40.40 40.24 39.64 40.09 40.95 41.34 39.37 39.31 40.94 41.62 42.27 43.09 44.16 41.60 41.87 42.64 42.72 44.83 46.31 47.59 49.60 51.58 52.21 52.05 61.56 61.66 61.70 61.63 62.16 62.95 64.39 63.88 62.95 61.87 59.65 58.49 57.20 56.24 55.78 55.05 54.04 52.76 51.55 50.88 48.59
39.46 37.44 38.36 38.05 39.66 39.43 41.12 37.76 39.63 40.98 39.04 40.20 39.98 39.85 40.50 41.11 41.65 43.25 42.98 42.16 42.70 44.41 46.04 47.33 49.70 51.81 53.18 54.69 59.00 58.43 59.01 59.44 59.10 58.94 60.67 61.58 61.11 59.94 58.48 56.77 55.44 55.07 54.61 52.62 50.44 49.31 49.83 47.57 45.17
35.90 35.27 33.22 36.59 39.24 38.95 39.21 33.69 40.01 39.08 39.59 40.16 39.13 38.36 39.24 40.42 41.03 40.48 41.32 41.60 42.43 44.25 45.55 47.12 52.21 52.26 55.22 55.84 56.30 56.33 56.54 56.88 56.76 56.60 56.63 57.58 58.09 58.02 56.42 54.84 53.82 53.15 51.82 49.93 47.99 47.89 46.09 43.93 41.25
33.44 29.96 30.35 35.95 39.27 37.19 36.42 34.35 38.28 36.87 37.74 38.77 38.12 38.02 38.31 38.60 39.41 39.53 40.33 40.56 41.80 44.09 45.35 46.77 49.07 52.01 54.05 52.09 51.92 51.62 51.83 52.75 53.42 54.30 54.35 53.75 54.68 54.70 53.67 52.14 50.79 49.29 46.87 45.34 45.11 42.28 43.51 40.83 38.13
30.64 29.69 30.73 31.91 35.86 35.03 34.41 35.38 38.49 38.29 37.32 38.18 37.61 37.33 37.38 38.30 40.74 41.33 39.40 39.61 41.86 43.68 44.96 46.08 47.77 50.04 50.42 48.42 47.94 47.29 46.61 46.51 48.23 49.86 50.20 50.34 49.95 50.40 49.82 48.58 46.43 43.56 41.44 40.62 40.28 40.76 38.68 39.64 35.76
33.36 31.17 31.65 33.64 37.54 35.36 35.30 35.29 38.10 39.27 36.00 36.92 36.99 37.06 38.39 39.35 43.06 39.82 38.97 39.13 41.83 42.71 43.99 44.85 47.14 47.23 48.59 47.99 47.71 46.98 44.42 43.88 43.55 44.27 45.17 46.08 45.40 45.97 46.57 45.01 42.29 39.94 38.03 38.06 40.83 39.67 38.07 34.41 34.09
33.20 31.57 31.50 34.52 36.10 35.68 35.29 35.17 38.61 37.90 38.05 38.56 40.09 39.71 39.44 39.87 38.09 38.03 37.63 38.65 41.57 42.92 44.14 44.58 48.77 46.32 48.71 49.84 45.28 43.81 41.69 39.25 40.03 40.62 40.39 41.44 41.54 41.65 41.57 40.65 36.83 35.09 35.85 36.20 36.71 36.85 31.01 29.47 30.25
32.73 31.38 31.05 33.64 34.25 33.88 31.57 31.53 33.58 37.85 38.17 38.94 39.23 41.73 41.00 41.66 41.47 37.87 37.09 38.60 40.83 42.29 43.74 45.16 47.73 46.92 47.52 43.68 39.73 39.55 39.66 39.18 38.84 37.85 38.03 37.59 38.59 37.52 36.70 35.18 34.06 32.61 33.80 35.59 32.35 32.05 32.51 28.18 27.39
31.41 35.95 34.79 33.16 31.67 27.66 31.54 26.19 32.19 36.15 37.53 37.57 40.39 39.09 40.73 41.57 40.78 39.39 38.19 37.77 40.27 42.56 44.47 45.42 46.05 48.09 46.87 41.59 40.35 42.56 41.42 39.94 38.90 37.22 36.05 35.10 35.83 34.69 33.23 32.63 31.95 30.91 30.10 29.93 29.52 29.51 28.73 28.73 26.32
34.53 36.54 34.58 33.19 29.86 28.09 27.02 27.70 30.36 32.61 35.45 39.07 40.91 41.18 41.10 41.54 39.96 39.12 38.44 39.89 41.00 42.66 43.91 45.11 44.85 46.53 42.90 42.63 42.72 43.03 41.16 35.22 36.47 35.02 33.73 33.33 33.03 32.12 30.73 30.41 29.49 29.06 28.84 28.04 28.24 27.49 27.83 27.42 26.16
37.73 34.98 33.21 30.62 29.20 25.18 29.26 29.52 31.46 31.79 36.80 37.86 42.04 40.70 40.52 39.36 37.98 37.33 37.23 38.11 39.87 42.45 43.69 44.78 44.32 42.43 40.94 42.44 42.14 42.28 36.24 35.64 34.85 33.43 32.63 32.12 31.43 28.79 28.64 28.72 28.04 27.84 27.61 27.66 27.06 26.91 27.15 26.73 26.32
35.21 33.58 26.32 23.10 21.48 24.67 26.68 26.89 34.58 35.25 36.94 38.81 41.06 41.11 37.72 37.62 36.16 35.18 35.13 37.05 39.22 41.21 43.65 44.91 45.22 42.04 40.79 40.44 41.15 39.65 38.24 37.33 36.46 33.86 33.12 30.83 29.69 26.53 26.79 27.20 27.31 27.43 27.21 27.10 27.01 26.88 26.66 26.32 26.22
34.13 34.39 26.61 17.89 18.68 22.81 27.58 25.60 31.13 37.16 39.39 39.10 38.82 39.31 36.96 36.49 36.10 34.88 35.07 37.38 39.07 40.79 43.52 45.08 45.61 42.18 40.05 39.56 37.33 37.51 37.04 37.27 36.92 35.48 33.86 32.92 31.59 28.64 27.70 26.81 26.79 26.40 26.48 26.65 26.81 26.60 25.90 25.70 25.82
32.70 31.06 34.85 29.25 14.50 20.27 27.67 29.25 34.86 36.33 37.13 36.93 38.23 36.21 36.15 36.15 36.26 34.45 34.49 37.13 38.36 40.04 42.50 44.36 43.62 40.78 39.98 38.92 35.88 35.10 36.38 35.61 34.57 33.43 32.81 31.71 30.80 28.45 26.69 26.68 25.96 26.11 26.31 26.47 25.89 25.97 25.03 25.09 24.74
34.40 35.96 28.58 26.75 18.35 15.13 25.02 26.04 29.42 34.38 37.37 37.81 38.22 37.64 36.64 35.71 35.23 33.40 34.21 36.29 37.78 39.65 42.13 43.24 42.26 38.84 38.91 38.07 36.44 35.60 35.62 34.96 33.85 32.09 30.32 29.21 28.76 28.00 26.21 25.90 26.15 25.88 25.71 25.59 25.51 24.76 24.83 24.59 23.83
32.19 30.83 29.73 30.45 26.81 19.69 17.46 29.26 32.86 36.45 37.59 38.10 38.64 38.21 37.25 36.45 34.95 33.29 33.95 35.82 36.97 37.60 37.86 39.34 39.49 38.19 36.73 36.71 35.06 35.12 34.14 33.24 31.69 31.07 30.30 29.39 27.37 26.42 26.37 26.44 26.27 25.86 25.49 25.30 25.08 24.88 24.52 24.28 23.66
31.86 32.04 32.05 26.70 22.78 24.03 24.17 31.23 35.46 36.28 36.45 36.96 38.55 37.80 35.94 35.28 34.81 32.64 33.39 34.05 33.97 34.46 33.92 34.77 37.20 37.70 36.71 35.04 34.15 33.99 32.50 31.47 31.01 30.54 28.99 28.13 26.28 26.69 26.54 26.53 26.59 26.03 25.75 25.29 25.12 24.42 24.43 24.00 23.07

GFSSGP_sfc_wetblb_063.txt.gz
Wetbulb
59.25 54.77 54.49 50.76 46.18 42.18 38.91 40.81 43.12 43.18 44.77 47.68 46.44 45.80 46.40 48.50 44.63 41.87 57.66 66.13 68.50 69.28 70.26 71.39 72.38 73.43 73.54 72.82 72.48 72.28 71.90 70.60 69.96 69.37 68.80 68.49 68.13 67.56 67.16 66.94 67.05 67.43 68.42 69.22 68.68 70.21 69.52 68.17 67.85
56.16 54.56 51.41 45.55 41.11 37.11 38.11 41.12 41.90 43.50 48.37 48.88 48.47 49.42 49.63 49.67 54.69 57.65 62.58 65.68 69.34 69.94 70.54 71.50 70.96 73.05 73.31 72.45 71.96 72.37 71.82 71.13 69.96 69.42 68.75 67.87 67.05 66.42 65.96 65.63 65.62 66.06 67.41 68.33 68.73 69.26 68.39 67.66 66.71
54.63 50.80 50.03 41.84 36.73 36.76 37.72 41.18 42.93 46.23 47.00 45.82 48.16 50.75 50.65 51.00 54.87 58.30 60.91 67.33 69.82 70.16 70.71 70.77 71.08 72.50 72.90 72.65 72.21 72.36 71.71 71.01 70.00 69.49 68.91 68.18 67.26 66.07 64.95 64.37 64.26 64.52 65.96 67.13 68.15 68.08 67.23 65.94 65.02
52.08 50.07 44.42 40.89 39.18 41.03 42.40 42.70 43.79 45.44 46.45 47.06 48.83 48.55 52.36 56.11 56.82 59.25 67.43 68.88 69.57 70.06 70.56 70.23 71.25 72.56 72.60 72.60 72.21 72.33 71.80 70.97 69.94 69.43 68.95 68.53 67.85 66.78 64.94 63.70 63.37 63.46 64.47 65.36 66.08 66.44 65.04 63.51 62.91
47.36 45.19 40.14 38.69 39.25 40.90 41.09 43.35 45.16 44.70 44.01 46.31 46.97 46.51 51.16 55.06 57.45 61.58 67.57 69.22 69.08 69.68 70.19 70.89 70.75 71.40 72.41 72.54 72.21 72.11 71.83 71.07 70.04 69.35 68.87 68.37 67.72 67.12 65.50 63.31 62.52 62.63 63.32 63.74 64.10 64.00 62.20 60.78 60.77
46.05 43.24 38.38 36.87 38.11 41.03 42.58 42.87 45.07 43.90 44.12 45.49 46.77 48.24 50.93 53.41 59.40 61.82 67.82 68.46 69.59 69.34 69.73 70.25 68.02 69.40 70.89 71.75 71.49 71.45 71.17 71.06 70.42 69.37 68.79 68.22 67.57 66.99 65.71 64.00 62.26 61.88 62.12 62.01 62.21 61.90 60.50 59.25 58.99
44.51 41.13 38.29 37.03 37.66 40.24 42.30 42.44 42.66 43.02 43.90 45.30 48.73 46.82 49.79 52.62 58.20 61.22 64.80 67.05 68.54 69.35 69.35 69.80 69.83 68.76 67.34 68.70 69.36 70.12 70.41 70.34 70.09 69.68 69.26 68.39 67.80 67.46 66.17 65.53 63.90 62.13 61.36 60.99 60.87 60.17 59.22 58.09 57.61
42.02 40.63 37.36 36.18 37.55 39.75 42.40 42.16 43.12 44.28 44.01 46.42 48.27 45.48 47.37 53.53 55.96 57.66 59.88 61.81 64.51 67.25 68.26 68.66 68.97 69.65 70.10 70.28 65.98 67.05 68.27 68.80 68.93 68.24 66.95 65.64 65.53 65.50 64.80 63.75 63.85 62.45 61.70 60.82 59.94 58.96 58.23 57.53 57.03
42.62 38.31 35.75 37.80 37.49 40.62 41.07 42.17 42.41 44.21 44.17 44.61 45.61 46.36 48.40 53.56 53.84 55.88 56.55 56.86 58.39 59.98 63.33 67.18 68.01 68.46 69.10 69.24 67.24 65.25 65.65 66.33 66.19 65.76 63.84 63.32 66.11 65.29 64.40 63.01 63.49 62.59 60.98 59.33 58.61 58.22 57.27 55.99 55.33
39.55 36.62 37.97 39.66 39.41 40.45 41.58 42.26 42.23 43.23 43.16 43.78 44.38 45.68 48.68 52.37 53.39 56.86 57.71 58.68 58.25 57.84 58.34 62.09 64.35 66.68 67.77 68.19 67.38 68.67 68.52 68.53 68.09 67.76 66.95 66.79 65.97 65.41 63.80 60.96 61.02 61.15 60.35 59.38 58.40 56.39 53.77 51.77 51.25
38.88 36.32 37.91 40.55 41.92 42.58 41.98 41.05 42.61 42.07 41.16 43.89 44.66 45.07 47.62 51.37 52.52 56.46 57.86 59.18 58.58 56.92 55.24 56.00 57.69 57.78 64.00 66.07 67.76 67.37 67.19 68.54 68.70 67.57 67.05 66.11 65.03 64.00 63.60 61.08 59.47 57.66 55.36 55.28 54.99 54.12 52.70 51.60 51.29
37.86 39.36 39.47 42.86 42.83 41.77 41.03 41.90 41.54 41.42 44.13 44.74 44.71 45.80 47.88 50.90 52.20 55.00 56.64 56.08 54.09 52.81 54.01 54.20 55.24 56.01 57.07 59.11 63.01 67.43 67.61 67.39 67.08 66.99 66.80 65.20 64.02 63.48 61.83 60.71 58.96 56.88 56.63 55.72 55.26 53.72 52.18 50.66 49.97
38.54 39.78 40.50 42.15 41.68 41.11 42.41 41.20 41.78 41.19 43.35 44.09 43.50 44.52 46.96 50.92 52.67 51.10 53.77 53.48 51.66 51.60 51.82 52.92 53.48 55.12 55.33 56.02 58.67 64.31 67.09 67.35 66.84 66.14 66.32 66.35 64.47 63.37 61.55 61.42 59.78 57.08 55.64 55.92 54.80 53.03 51.35 49.60 47.85
40.38 40.75 40.35 41.22 41.73 41.57 41.01 40.57 41.42 42.84 42.43 43.05 42.83 43.52 44.99 47.88 50.65 47.90 47.62 49.88 48.18 49.24 50.23 51.29 52.01 53.84 54.70 55.50 58.64 62.89 64.61 64.58 65.47 65.67 65.68 65.04 64.60 62.33 61.24 60.56 58.10 56.90 56.18 56.04 54.10 52.40 49.61 47.19 45.12
40.15 37.91 39.65 39.23 40.81 41.04 41.46 39.41 40.07 42.53 41.92 42.60 42.46 42.22 42.59 44.55 45.64 48.44 49.57 47.48 46.96 47.17 48.52 49.55 51.01 53.70 54.48 54.74 58.77 61.44 62.48 62.73 62.73 62.83 64.30 63.83 63.19 61.69 59.96 58.67 56.35 55.83 55.52 52.86 51.79 50.12 47.10 44.10 41.96
37.23 36.77 34.67 38.18 40.02 40.21 40.88 35.68 41.19 40.81 41.32 42.57 42.02 41.23 40.97 42.56 44.51 45.21 45.86 45.83 45.43 46.17 47.34 48.75 51.61 53.81 54.33 55.88 58.70 59.47 59.18 60.24 60.80 59.87 61.25 61.73 61.32 60.96 59.10 57.58 55.35 55.19 52.90 51.27 50.45 47.60 44.35 41.44 39.80
34.49 31.47 32.41 36.57 39.67 38.79 38.49 36.56 40.18 39.91 39.30 40.20 40.42 40.78 40.62 41.15 42.04 42.79 44.20 44.74 45.00 45.66 47.16 48.06 51.29 53.13 54.45 56.09 55.83 56.97 56.12 56.81 57.10 57.34 57.73 58.74 58.88 58.70 57.56 55.73 53.42 52.02 50.48 49.22 47.73 45.56 42.48 38.11 36.53
31.79 31.47 31.79 33.13 36.86 36.53 35.88 36.67 39.35 40.04 39.33 40.41 40.38 40.04 40.25 41.10 42.93 44.72 43.22 43.10 43.91 44.98 46.58 48.04 50.29 52.43 53.64 52.78 50.69 51.60 50.22 50.50 52.50 53.65 53.95 54.76 55.38 55.23 55.10 53.27 50.73 49.32 46.61 46.12 45.43 42.95 40.95 38.24 36.35
33.79 31.75 31.70 34.25 37.59 36.89 36.28 36.16 39.03 40.40 38.70 38.47 39.81 40.52 40.92 41.11 44.99 43.26 42.89 42.90 42.37 44.05 45.35 46.94 49.00 50.98 51.04 50.67 50.17 50.08 48.36 47.34 47.49 48.68 49.84 51.46 51.80 52.04 52.13 51.04 46.36 46.98 45.73 45.27 43.95 42.41 38.01 35.64 36.00
33.72 31.96 32.66 34.85 36.06 36.54 35.82 35.95 39.68 39.09 41.35 42.57 43.20 42.67 42.24 43.22 41.60 41.17 41.44 41.20 41.93 43.49 45.01 46.44 48.67 49.81 50.45 52.09 50.09 48.29 45.61 43.54 43.93 43.89 44.63 46.74 47.83 49.06 48.37 46.21 43.35 42.54 42.95 43.15 43.60 40.76 37.57 36.42 36.97
32.37 32.00 31.73 34.05 34.56 34.35 33.07 32.21 34.33 38.39 39.84 41.71 41.18 43.12 42.85 43.37 44.16 42.55 39.65 40.50 41.73 42.44 44.20 46.14 48.29 49.29 50.17 50.44 43.84 41.75 41.91 42.61 40.78 41.06 41.49 41.45 44.79 44.62 44.74 42.47 40.32 41.98 44.83 43.44 43.18 40.66 38.65 35.93 34.49
31.09 35.37 34.66 33.45 32.63 28.52 32.64 26.30 32.97 36.02 38.34 38.18 40.72 41.04 42.23 43.38 42.89 42.34 39.86 39.84 40.39 42.47 44.71 46.46 48.12 48.59 49.10 44.84 46.72 45.63 46.79 44.23 42.31 42.20 40.29 38.87 40.48 40.91 41.23 38.33 39.59 41.06 43.66 42.39 41.48 40.11 38.79 37.70 35.35
33.95 35.20 34.07 32.83 30.75 29.63 28.95 28.72 32.41 33.33 35.51 38.27 41.89 41.87 42.46 42.03 42.17 41.83 40.04 41.22 41.37 42.63 43.87 46.09 47.64 48.10 47.27 44.98 47.24 46.76 45.72 43.38 41.14 39.49 38.33 36.76 36.81 37.59 37.21 36.78 36.98 37.91 39.75 40.53 38.89 36.01 35.48 37.36 34.96
36.59 34.46 33.01 30.59 29.66 25.05 29.64 30.28 33.41 32.30 36.42 38.41 40.53 41.88 41.88 40.53 40.43 39.99 39.78 39.47 39.43 41.63 43.86 45.54 46.37 48.03 44.36 44.14 45.71 46.54 45.08 38.66 38.53 37.39 36.93 35.56 34.74 33.86 33.78 33.36 34.58 34.96 35.81 36.24 35.85 34.82 34.63 33.87 33.16
34.77 33.16 25.86 23.13 22.40 25.28 27.15 28.13 35.83 35.53 37.34 39.04 41.07 42.90 39.68 40.05 40.31 39.18 37.76 37.26 38.46 40.79 42.96 44.85 45.74 46.33 43.92 44.80 44.53 45.84 41.90 40.66 40.27 38.40 37.71 33.92 32.89 31.85 31.41 32.17 32.55 32.44 32.58 32.53 32.66 32.84 32.34 32.58 32.76
33.06 33.32 26.60 18.37 18.85 23.04 27.33 25.59 32.04 37.20 38.98 38.77 39.38 39.55 38.16 39.09 39.73 39.49 38.10 37.18 38.32 40.47 42.48 44.23 44.91 44.97 43.29 44.00 43.83 43.98 41.41 40.94 40.98 39.84 38.10 36.54 35.61 34.13 31.80 31.73 31.77 31.24 31.13 30.94 31.53 31.65 30.98 31.28 31.17
32.81 30.72 34.67 28.60 14.73 20.86 26.67 29.51 34.47 35.62 36.83 37.54 38.81 37.51 37.36 38.63 38.98 38.40 37.30 36.72 38.12 40.03 41.99 43.94 44.89 45.81 42.61 43.37 43.27 40.74 40.17 40.63 39.90 38.26 36.88 35.54 34.97 32.69 30.88 30.83 30.67 30.38 30.47 30.65 30.71 30.34 29.39 30.13 29.61
34.17 36.05 29.16 26.86 18.77 15.22 24.83 26.51 31.23 34.46 37.42 38.76 37.94 38.85 38.59 38.42 38.50 37.29 36.25 36.25 37.91 39.67 41.61 43.95 45.39 45.65 41.86 41.97 40.47 39.32 38.83 38.87 38.53 36.93 34.81 32.81 31.71 31.10 29.37 29.20 29.99 29.61 29.53 29.30 29.73 28.90 28.68 28.67 28.23
31.97 30.88 29.91 30.13 26.88 20.04 17.78 28.22 33.02 36.45 37.43 37.06 38.21 39.10 38.97 38.26 38.56 37.75 35.99 36.06 37.43 38.78 40.48 43.15 43.99 41.49 39.77 39.64 39.20 37.73 36.44 36.24 35.89 35.14 33.30 31.69 30.62 29.76 29.45 28.98 29.09 28.80 28.49 28.51 28.80 28.43 27.86 27.93 27.41
31.11 31.28 31.56 26.32 22.50 23.95 23.69 31.21 35.06 36.57 38.02 36.84 37.67 38.45 37.96 37.82 37.99 36.39 35.36 35.42 36.06 37.38 38.50 41.00 41.50 39.13 38.97 38.71 37.93 36.80 34.66 34.30 33.50 33.60 31.60 30.97 30.14 29.44 28.80 28.46 28.85 28.52 28.34 28.19 28.14 27.12 27.31 27.02 26.41

GFSSGP_sfc_wetblb_066.txt.gz
Wetbulb
62.95 60.84 62.69 60.74 51.97 50.99 46.15 45.86 48.48 47.54 48.15 50.96 52.28 51.04 51.17 51.93 48.46 48.10 64.48 69.47 70.21 70.34 70.96 71.40 71.62 73.03 73.02 71.94 72.46 71.89 71.36 69.85 69.47 69.06 68.60 68.05 67.58 67.43 67.57 67.66 68.48 69.22 69.18 70.73 70.36 69.40 68.32 67.51 66.67
60.53 58.84 60.56 56.70 49.10 44.75 46.01 47.67 46.86 49.12 51.84 53.01 52.87 53.47 52.79 52.67 58.70 62.40 65.51 69.29 70.48 70.63 71.03 71.55 71.23 72.80 72.57 71.96 72.31 71.77 71.28 69.91 69.31 68.55 67.83 67.14 66.62 66.26 66.32 66.47 67.39 68.19 68.55 70.18 69.58 68.65 67.38 66.45 65.53
58.65 56.25 57.55 54.04 49.59 44.41 44.92 47.54 49.08 51.25 52.75 51.73 52.11 54.87 54.33 54.28 59.80 65.04 67.28 69.88 70.77 70.79 71.28 71.43 71.28 72.91 72.63 72.24 71.84 71.61 71.21 70.50 69.31 68.73 68.09 67.29 66.07 65.14 64.98 65.07 66.24 67.30 68.09 68.87 68.14 66.74 65.46 64.97 64.92
58.90 56.76 53.51 49.08 45.94 46.74 46.91 48.68 49.68 51.03 50.12 50.50 53.04 52.04 56.42 59.80 62.12 63.35 68.48 70.08 70.45 70.86 71.37 70.66 71.55 72.78 72.56 72.11 71.73 71.69 71.14 70.43 69.42 69.04 68.55 67.76 66.27 64.66 64.13 64.22 65.07 65.70 66.53 67.13 65.93 64.24 63.47 63.78 64.04
57.57 55.75 49.84 47.46 45.98 46.80 47.95 48.91 52.12 49.86 49.54 51.24 52.87 50.99 54.50 59.41 62.01 65.08 69.00 69.76 69.87 70.62 70.94 70.78 70.91 71.62 72.20 71.95 71.49 71.65 71.16 70.47 69.47 69.03 68.45 67.83 66.55 64.42 63.49 63.56 64.20 64.47 65.01 64.88 63.14 62.21 62.06 62.45 62.83
54.53 53.90 47.63 45.12 45.57 46.83 48.19 49.33 51.93 50.31 49.19 50.72 50.45 51.97 54.65 60.15 62.19 65.92 69.73 69.97 70.73 70.49 70.76 70.69 68.27 69.01 70.08 70.87 71.13 71.15 71.06 70.58 69.65 68.89 68.23 67.68 66.54 64.84 63.27 62.92 63.13 63.16 63.42 63.10 61.65 60.59 60.62 61.59 61.87
52.84 51.00 47.07 45.86 45.03 45.80 47.89 50.20 50.75 50.29 49.21 50.11 53.32 50.50 54.58 58.33 64.10 67.36 69.81 70.57 70.66 70.80 70.56 70.99 71.07 69.76 67.33 68.77 68.94 69.83 70.16 70.13 69.75 69.37 68.74 68.05 67.02 66.16 65.18 63.92 62.63 62.08 62.15 61.65 60.39 59.28 59.33 60.71 61.29
53.68 52.74 45.97 46.01 45.19 45.67 48.44 49.29 49.81 50.68 49.57 51.52 54.95 50.12 51.06 58.95 63.91 67.89 69.44 69.79 70.17 70.42 70.23 70.32 70.75 70.80 70.84 71.41 66.09 67.30 68.42 68.76 68.79 67.98 66.48 65.26 64.99 64.61 63.83 62.68 62.94 61.93 61.15 60.27 59.36 58.85 58.94 60.24 60.44
49.46 48.36 45.61 45.88 44.97 47.02 47.81 47.89 47.63 49.40 49.82 51.07 52.69 51.29 54.04 61.40 63.36 65.88 66.44 67.68 68.74 68.97 69.85 70.32 70.16 70.38 70.71 70.72 68.39 65.61 66.00 66.46 66.10 65.63 63.37 63.24 65.91 65.16 64.09 61.68 61.97 61.07 60.15 59.66 59.04 58.54 58.69 58.26 57.65
49.96 47.69 46.56 47.69 48.12 47.47 48.02 48.45 48.71 48.44 48.77 49.57 50.08 51.35 52.58 59.54 62.57 64.24 64.81 65.22 66.34 67.23 68.86 69.94 70.15 70.15 70.44 69.78 70.37 70.59 70.21 70.16 69.59 68.51 67.29 67.26 66.58 65.93 63.80 60.37 60.36 60.21 59.56 58.30 57.56 55.96 55.27 57.66 59.06
46.35 46.76 44.80 46.34 47.20 47.72 47.79 47.08 48.75 48.40 47.41 50.76 50.91 52.21 52.25 58.81 61.60 63.62 64.46 65.33 65.96 67.40 68.00 69.04 69.88 70.38 70.16 69.89 68.93 70.48 70.72 69.78 69.77 68.81 68.34 67.48 65.61 64.45 63.90 61.31 59.84 59.70 57.80 57.70 56.85 56.44 56.21 56.71 57.28
45.07 45.45 46.02 47.50 48.34 47.55 46.77 48.08 47.21 48.45 51.06 50.59 52.46 52.82 53.04 56.88 59.57 62.32 63.62 65.00 65.84 66.32 66.56 67.45 67.19 64.18 66.77 67.30 68.85 70.12 70.50 70.26 69.27 69.07 68.73 66.63 65.64 64.65 63.70 61.75 58.28 58.05 59.01 58.69 57.83 55.97 55.31 55.31 55.37
45.40 45.98 45.88 47.51 47.29 47.49 46.69 47.28 47.69 47.37 51.35 50.09 49.54 49.67 52.14 54.93 58.77 61.53 63.93 65.34 65.39 64.17 65.13 64.33 64.58 62.04 62.46 66.58 65.72 66.94 70.06 69.22 69.69 69.28 68.79 67.85 66.22 63.41 62.95 61.30 59.19 57.65 57.95 58.59 56.90 55.27 54.17 52.66 51.39
46.92 46.51 46.57 47.20 47.54 47.32 46.47 47.27 47.12 49.71 50.71 49.26 49.13 50.47 51.51 53.49 57.07 59.79 60.83 62.57 63.26 63.63 63.27 62.48 61.18 63.15 62.54 63.88 66.15 66.35 66.74 69.21 69.37 69.12 68.49 67.66 67.37 65.37 62.19 61.84 61.21 58.85 57.19 57.73 55.13 51.51 48.36 46.79 47.77
46.31 45.08 46.32 46.77 46.93 46.90 47.24 45.17 45.13 50.20 48.26 48.92 49.35 50.43 50.72 51.92 54.91 57.85 59.09 60.82 62.72 62.22 62.38 60.45 60.31 60.85 61.29 62.42 63.27 65.85 67.18 67.46 68.72 68.62 68.46 68.00 67.44 65.99 63.52 61.42 60.58 57.55 56.88 55.65 51.80 48.77 45.55 43.73 44.08
45.03 45.43 42.70 45.23 45.23 46.43 46.51 43.61 48.07 47.49 47.72 48.63 50.41 51.10 50.59 50.90 52.01 55.05 58.41 60.00 61.31 60.99 59.47 59.17 56.73 58.15 59.87 60.98 61.71 64.12 65.74 66.36 67.38 68.12 67.63 67.66 67.07 65.07 63.62 59.45 58.02 55.95 53.47 53.47 49.71 47.98 42.69 42.08 42.31
44.01 41.22 41.14 43.26 45.41 44.84 45.11 44.62 47.98 46.80 46.55 48.13 49.73 50.13 50.37 50.83 51.23 52.32 55.11 56.91 58.47 58.55 57.86 57.02 56.54 57.08 57.93 58.66 59.71 62.06 63.83 63.75 64.71 65.33 65.14 64.83 63.26 62.15 60.80 58.89 57.18 56.64 53.65 53.81 49.83 44.75 41.73 39.60 40.66
40.64 40.41 40.46 41.57 43.66 43.31 44.02 43.78 47.63 49.10 46.41 48.14 49.86 50.75 50.53 50.02 50.78 52.43 52.26 54.10 55.61 55.54 55.13 55.06 54.81 55.91 56.86 57.60 58.22 58.78 59.94 60.50 59.20 59.43 60.00 61.42 61.29 60.56 59.90 57.36 55.31 54.95 52.18 49.88 48.19 42.63 40.33 40.11 40.36
42.16 41.05 40.53 42.91 43.23 42.91 44.01 44.36 46.35 48.67 48.54 48.30 49.10 49.79 50.74 51.05 52.92 52.97 52.49 52.35 52.34 53.55 52.90 53.04 53.25 54.77 56.08 56.23 55.48 54.86 54.55 55.40 53.23 54.32 55.41 56.99 58.40 57.87 56.91 54.95 53.01 52.66 50.80 48.61 46.69 40.55 38.53 38.78 40.37
41.65 41.09 41.23 43.47 41.84 42.12 43.55 42.81 46.18 47.59 47.78 49.13 49.66 50.23 50.82 51.69 52.46 51.88 51.33 51.22 50.65 51.26 51.66 52.25 52.77 54.11 55.74 55.83 55.83 55.72 55.49 53.92 54.70 50.97 51.12 52.62 54.56 55.39 55.45 53.75 52.27 52.01 50.38 46.90 44.50 40.36 38.80 40.14 41.15
41.34 40.64 40.83 40.30 41.14 41.79 40.83 41.03 44.06 46.82 47.05 48.15 49.02 50.21 50.74 51.15 51.42 52.06 51.10 50.44 50.73 50.43 50.93 51.28 52.20 53.52 54.97 55.54 55.84 53.24 52.26 50.30 46.16 46.73 47.48 48.18 50.60 51.73 52.75 52.16 49.91 49.80 47.74 44.69 43.37 42.30 44.07 39.60 41.20
38.76 42.35 41.47 39.78 39.45 36.99 40.38 34.95 42.04 44.71 45.04 45.64 47.94 49.81 50.35 50.77 50.96 51.00 51.71 49.76 49.98 50.70 51.48 51.38 51.90 52.88 54.17 55.15 53.55 52.10 52.88 52.07 50.10 47.62 47.82 44.66 46.66 47.25 48.67 47.20 46.70 45.99 46.83 45.97 44.92 45.01 46.27 43.31 40.43
40.55 41.39 40.65 39.51 39.30 37.55 39.25 35.30 40.36 40.81 42.04 44.81 47.57 49.25 50.69 51.51 51.19 50.79 50.65 49.89 50.59 50.56 50.32 50.90 51.42 52.11 53.34 54.51 53.39 53.69 53.88 54.70 50.33 49.84 44.29 42.35 42.56 43.60 44.51 44.50 43.62 44.90 46.81 47.68 48.52 46.43 46.44 45.26 44.45
41.23 40.66 39.60 39.06 38.61 33.07 38.75 36.90 38.59 41.90 43.00 45.08 47.03 48.52 49.81 50.14 49.99 49.90 50.03 49.38 49.29 49.62 49.34 49.98 50.33 50.94 52.40 52.56 52.87 53.18 53.71 51.47 45.95 46.62 45.10 41.17 41.16 40.74 40.31 39.57 41.94 44.69 46.09 47.68 48.66 46.53 44.45 45.05 44.91
41.43 40.04 33.50 32.06 30.94 31.73 35.70 35.00 39.13 43.48 43.98 44.94 46.57 48.56 48.61 48.42 49.10 49.13 48.29 47.14 46.52 46.52 47.54 48.54 49.33 49.51 51.26 50.99 51.74 52.53 53.52 51.31 49.35 45.29 44.72 41.68 41.22 40.88 41.27 37.39 38.07 40.50 43.19 46.75 46.49 45.24 44.06 43.94 42.79
38.87 40.03 34.77 29.37 29.10 33.79 31.99 31.66 39.45 44.52 45.56 45.79 46.45 47.20 47.81 46.37 48.51 49.32 49.29 47.92 46.63 45.84 46.91 47.83 48.08 48.68 50.38 49.96 50.62 51.78 52.93 50.73 50.80 47.70 48.34 45.60 45.32 46.90 44.07 38.11 36.73 37.88 40.38 43.41 43.22 43.50 42.05 41.12 40.69
37.71 34.80 41.38 35.13 27.01 30.21 35.94 39.70 43.32 43.37 42.97 43.92 44.54 46.93 47.90 48.19 47.98 48.62 48.76 47.23 46.29 45.80 46.40 47.38 47.86 48.20 49.63 48.96 49.93 50.28 50.89 49.12 48.14 46.37 49.20 48.60 47.73 44.04 37.79 35.27 35.01 35.66 36.96 40.57 40.25 39.84 37.23 37.75 37.32
39.76 42.18 34.38 34.74 29.09 27.47 33.65 34.92 37.29 41.95 44.19 45.02 45.09 46.11 47.01 47.70 48.27 48.28 47.48 46.26 45.43 45.93 46.55 47.35 48.11 47.74 48.34 48.34 49.14 49.21 48.72 48.80 48.23 44.77 43.95 42.27 43.06 37.71 33.99 32.80 33.27 34.32 35.34 37.81 37.65 36.73 35.90 35.66 35.25
37.60 36.57 36.31 36.86 34.70 30.95 29.80 35.20 43.70 43.74 45.04 44.62 45.88 45.31 46.43 46.88 47.03 47.81 46.94 45.13 44.70 45.11 45.58 46.41 47.21 47.45 47.22 46.99 48.12 47.33 46.12 45.68 44.23 41.02 40.20 38.70 36.84 33.24 32.58 31.51 32.23 32.41 32.69 35.65 35.79 35.07 34.32 33.70 32.72
38.99 39.18 38.85 33.41 30.31 32.60 32.09 34.79 42.05 44.02 44.47 43.82 44.92 44.60 45.68 45.26 46.22 46.84 45.94 44.39 43.56 44.03 44.82 45.49 46.46 46.46 47.07 46.50 46.79 46.19 45.20 44.23 42.44 39.90 39.39 37.57 34.35 33.79 31.69 30.92 30.79 30.74 31.21 33.90 34.43 32.83 33.04 32.70 31.23

GFSSGP_sfc_wetblb_069.txt.gz
Wetbulb
65.22 61.95 62.87 61.15 52.72 50.64 47.23 47.51 50.56 49.07 50.05 53.02 56.18 53.03 52.32 53.16 50.69 50.48 67.51 69.94 70.15 69.79 70.21 70.08 71.58 71.98 71.95 72.07 71.94 71.30 70.66 69.54 69.10 68.65 68.16 67.90 67.87 68.04 68.37 68.78 70.16 70.17 70.39 69.70 68.91 67.93 67.27 66.21 65.93
61.52 60.24 61.44 57.70 49.47 45.94 46.28 49.42 47.83 50.51 53.32 53.65 53.98 53.98 52.98 54.04 59.48 62.92 66.39 69.92 70.57 70.40 70.85 70.42 70.72 72.20 71.86 72.06 71.70 71.23 70.38 69.17 68.48 67.89 67.33 66.92 66.74 66.98 67.64 68.34 69.15 69.90 69.75 69.44 68.47 66.94 66.19 65.76 65.81
60.99 58.18 57.36 53.56 49.63 45.67 45.38 48.81 50.11 52.08 53.94 53.21 52.69 55.70 55.14 55.44 60.85 64.87 69.32 70.26 70.86 70.54 71.15 71.37 71.02 72.55 71.91 71.87 71.81 71.24 70.63 69.34 68.45 67.89 67.09 66.07 65.72 65.72 66.53 67.57 68.05 69.09 69.03 67.93 66.43 65.98 65.67 65.49 65.57
59.52 58.01 55.80 49.57 46.86 48.63 48.13 49.63 51.30 52.35 51.80 52.83 54.11 52.39 57.19 61.42 64.25 66.68 69.97 70.53 70.41 70.32 71.21 70.10 71.77 72.49 71.78 71.68 71.69 71.27 70.50 69.38 68.89 68.47 67.35 65.82 65.05 64.90 65.69 66.52 66.84 67.37 66.87 65.53 64.94 64.84 64.75 64.84 65.10
59.33 56.53 50.38 48.26 47.20 49.05 50.18 50.61 52.10 51.02 51.11 51.88 53.47 51.89 54.65 60.70 65.01 67.27 69.48 70.06 69.93 69.59 70.53 71.05 71.35 71.72 71.86 71.64 71.65 71.23 70.64 69.74 69.05 68.51 67.61 65.68 64.48 64.31 64.92 65.28 65.74 65.98 64.49 63.71 63.44 63.59 63.70 64.07 63.97
54.09 54.68 47.98 46.29 47.31 49.01 50.34 51.17 51.99 51.26 50.99 52.52 51.91 51.90 55.26 62.49 63.98 67.06 69.66 69.79 70.60 69.70 70.92 70.45 68.45 69.69 70.49 71.01 70.87 70.82 70.51 69.98 69.16 68.30 67.53 65.74 64.41 64.14 64.15 64.51 64.62 64.31 62.98 62.03 62.12 62.71 63.11 63.31 63.09
53.25 51.33 47.90 48.04 46.54 47.43 49.44 52.13 51.47 51.39 50.32 50.73 53.88 50.53 56.14 59.58 63.58 67.12 69.00 70.06 70.30 69.99 70.15 70.02 70.17 69.41 67.39 68.75 68.81 69.39 69.78 69.61 69.25 68.79 68.07 66.78 65.37 64.75 64.55 64.13 63.55 63.12 61.80 60.82 61.14 61.95 62.64 62.92 62.89
54.44 52.42 48.36 48.70 46.80 46.22 50.56 51.54 52.70 52.02 50.39 53.94 55.46 50.60 51.94 58.48 64.26 66.82 68.50 69.24 69.54 68.91 69.17 69.42 70.01 70.08 70.17 70.61 66.26 67.27 68.09 68.52 68.34 67.49 65.94 64.66 64.42 63.78 63.26 62.36 62.82 61.79 60.77 60.16 60.24 61.43 62.14 61.93 61.70
53.37 48.30 46.31 47.59 47.46 47.93 50.76 49.85 51.19 52.88 51.59 52.30 54.44 53.61 57.11 60.95 64.47 65.85 66.47 67.07 66.92 67.46 68.48 69.01 68.99 69.00 69.40 69.78 68.14 65.67 65.97 66.32 65.78 64.73 62.67 62.16 63.48 62.76 62.78 61.10 61.75 61.18 60.19 59.92 60.26 60.97 60.59 59.74 59.76
51.11 48.08 47.89 50.27 50.36 48.91 50.24 50.29 50.96 49.77 50.34 50.83 52.26 54.08 57.30 62.26 62.96 63.56 64.00 65.02 66.38 67.38 67.75 68.50 68.64 68.64 68.95 68.93 69.80 69.82 69.51 69.20 67.97 66.61 65.00 66.08 65.63 64.42 61.83 59.12 59.95 60.43 59.80 59.32 59.56 60.09 59.98 59.70 59.27
51.02 48.01 49.70 48.73 49.44 49.98 49.82 49.51 50.96 49.43 48.95 51.32 51.31 53.34 54.76 60.24 61.70 62.40 63.48 64.44 65.67 67.62 67.62 68.25 68.55 68.67 68.83 68.52 69.90 70.19 70.17 69.90 69.21 67.50 67.12 67.44 65.26 63.05 62.41 59.87 59.14 58.01 56.83 56.43 56.28 57.12 58.17 58.79 58.74
46.64 48.32 47.97 49.22 49.77 49.15 48.64 50.45 49.11 49.83 51.36 52.95 53.99 54.51 54.38 58.29 60.18 61.60 62.68 63.78 65.07 66.36 67.49 68.34 68.81 68.45 69.52 69.94 69.52 69.63 69.38 69.29 68.96 68.69 67.35 66.65 64.31 63.62 62.01 61.51 60.25 59.98 59.71 58.75 58.23 57.36 57.50 57.01 56.77
46.46 47.18 47.39 49.03 48.93 49.10 48.84 48.70 49.44 50.14 52.68 53.25 52.29 52.48 54.04 55.93 59.07 61.41 63.08 64.26 65.25 65.39 66.72 67.87 68.61 69.04 69.11 69.34 69.25 69.16 69.07 69.55 69.26 69.04 68.43 67.30 64.67 64.36 63.61 60.44 58.64 59.04 59.45 58.68 57.27 56.51 55.39 54.35 54.12
48.63 47.98 47.91 48.76 48.93 48.81 47.30 48.53 48.25 50.51 52.85 52.47 52.05 51.70 52.96 54.19 56.50 59.42 61.47 62.79 64.08 65.55 66.17 67.32 68.07 67.68 66.90 67.50 68.27 68.30 69.11 69.06 69.22 68.47 68.52 67.86 66.06 65.07 63.08 59.68 58.11 58.79 59.28 57.65 56.40 54.89 52.83 51.58 51.38
48.60 46.04 47.54 48.03 48.51 47.80 48.69 46.04 46.26 50.38 50.99 50.79 51.31 51.69 52.65 53.39 55.07 57.09 60.30 62.11 64.05 65.50 65.86 66.37 66.55 67.27 66.85 66.14 67.22 67.72 68.33 68.26 68.78 68.68 68.72 67.99 66.72 64.73 63.20 60.30 59.56 59.64 58.87 56.85 52.84 49.98 48.29 46.83 46.19
46.23 46.43 43.09 47.60 47.68 48.01 48.05 42.90 49.43 50.72 50.70 49.89 50.86 52.00 52.46 52.99 53.59 55.82 59.07 61.34 63.32 64.78 64.73 65.68 64.49 64.41 65.18 65.26 66.19 66.55 67.42 67.71 68.06 68.46 68.35 68.04 67.20 65.52 63.23 62.21 61.22 58.32 57.15 52.27 49.64 47.29 45.57 44.23 43.74
45.91 41.12 43.05 45.07 47.96 47.36 46.74 45.32 49.59 50.01 49.50 49.42 50.79 51.64 52.10 52.82 53.61 54.50 56.76 59.86 61.03 63.33 64.17 64.54 63.74 62.61 63.47 64.32 65.27 65.42 66.07 66.39 67.30 67.78 67.55 68.01 67.16 66.10 63.49 61.75 59.23 56.83 54.06 52.24 47.41 46.09 45.82 43.20 42.20
41.63 41.90 43.06 43.16 45.71 45.51 45.41 45.20 48.33 50.25 50.03 49.83 50.65 51.46 52.21 52.66 52.94 54.53 54.89 57.28 59.96 62.27 63.35 63.45 62.83 61.62 62.18 63.02 63.02 63.50 64.46 64.00 65.42 66.14 65.57 64.90 66.39 65.30 63.41 60.35 56.98 55.52 53.33 49.50 48.09 44.34 44.51 42.16 40.93
44.11 43.09 42.36 44.40 45.61 44.16 44.54 44.87 46.71 49.00 49.42 49.37 50.09 50.69 51.16 51.78 54.31 55.56 55.46 55.76 57.63 59.43 60.33 61.47 61.03 60.38 60.97 60.21 59.30 59.51 59.70 61.77 60.41 60.82 62.42 63.06 62.18 62.26 61.01 58.28 56.03 54.68 52.77 50.22 47.89 41.88 39.76 39.53 40.79
43.89 42.19 42.08 44.86 45.38 43.22 44.17 43.75 46.84 48.26 48.82 49.72 50.01 50.43 51.09 52.00 53.11 54.68 55.25 55.32 55.05 56.35 57.94 58.10 58.08 58.14 58.28 58.48 58.36 58.34 57.95 58.11 58.46 57.76 58.12 58.59 58.98 60.08 58.87 56.34 54.61 53.25 50.66 46.97 42.68 40.41 39.97 39.06 40.16
42.94 41.79 42.05 42.06 43.68 44.63 43.09 42.34 44.92 48.09 49.35 49.96 50.46 51.40 51.49 51.91 52.26 53.38 54.95 54.65 55.07 54.34 55.73 55.93 56.10 56.25 56.57 57.35 57.63 57.14 56.72 56.41 54.51 55.22 54.12 52.66 54.11 56.01 56.23 55.40 53.91 51.80 50.03 46.60 42.40 41.18 41.71 37.26 39.59
39.54 44.82 43.50 42.28 40.55 37.34 43.23 36.11 42.75 45.19 46.12 48.45 49.81 50.29 51.01 52.33 53.08 53.32 53.92 54.99 54.51 54.59 55.20 55.24 55.58 55.62 55.98 57.09 56.35 55.60 54.38 52.98 52.84 53.78 53.17 50.16 50.45 52.46 53.69 54.30 53.38 52.00 50.88 48.20 43.42 43.55 42.83 41.28 39.34
41.69 43.89 42.84 42.36 40.71 40.20 40.38 36.96 40.99 45.02 43.87 46.16 48.43 50.91 51.74 53.16 53.58 53.39 53.51 53.98 54.96 55.09 54.92 55.09 54.67 54.74 55.35 56.20 56.25 55.82 53.66 53.83 55.93 55.79 53.18 50.32 47.06 49.02 50.18 50.23 50.67 49.81 49.69 48.03 45.07 42.19 43.67 42.64 42.01
44.47 42.78 42.17 41.98 40.58 33.73 39.14 38.84 39.48 42.60 44.27 46.28 48.53 49.93 51.35 51.93 52.51 52.80 53.50 53.93 53.34 55.04 54.51 54.37 53.56 53.44 54.52 55.17 55.64 55.30 53.73 54.17 55.27 53.94 50.85 48.42 46.22 44.94 45.44 46.50 47.77 48.44 48.03 46.61 44.95 43.72 44.62 43.27 44.10
43.22 40.47 33.99 32.93 32.82 32.16 39.79 37.77 40.57 44.73 46.04 46.88 47.60 48.84 50.50 50.77 51.03 51.91 51.50 50.33 50.65 51.96 51.95 52.28 52.28 51.91 53.17 54.02 54.45 54.77 54.17 54.90 55.23 53.18 51.61 46.49 43.70 43.06 42.36 43.01 45.65 46.56 47.46 47.27 46.89 44.64 44.88 43.57 43.98
40.03 40.63 35.16 29.08 31.14 34.61 35.23 33.56 40.04 46.52 48.13 48.30 48.36 49.12 50.11 50.21 50.55 50.95 52.14 52.33 51.19 49.98 50.14 50.41 50.56 51.04 52.14 52.90 53.36 53.83 54.22 54.34 54.64 53.05 52.45 50.86 47.34 46.67 44.04 41.46 42.63 44.93 46.64 46.91 46.55 45.09 43.82 43.52 43.06
39.72 36.49 42.83 36.52 34.40 31.44 36.37 40.60 44.79 46.62 45.39 46.69 47.46 48.14 48.79 50.02 51.44 50.87 51.57 51.94 50.95 49.56 49.42 49.81 49.92 50.24 51.12 52.03 52.68 52.24 53.04 53.47 53.93 53.02 52.12 50.37 49.53 48.22 45.72 42.61 40.74 40.99 42.86 44.54 45.02 43.66 42.73 42.95 42.72
40.94 43.30 35.23 35.82 29.65 27.79 33.92 36.51 38.01 43.47 44.79 46.55 46.75 47.29 49.12 50.21 50.72 50.90 51.08 50.77 49.73 49.67 49.64 49.79 50.12 49.79 50.24 51.28 51.98 51.12 51.77 52.54 53.11 52.26 51.24 50.45 48.53 46.27 44.47 41.82 39.93 39.13 40.56 39.86 41.23 39.90 39.11 39.97 38.78
38.07 36.67 38.03 38.61 36.31 30.92 29.89 35.38 44.44 44.77 46.00 45.95 47.84 48.69 48.33 48.65 49.57 50.45 50.81 49.52 48.77 48.52 48.61 48.79 49.02 49.20 49.39 50.14 50.60 50.29 50.75 51.35 51.20 50.33 49.64 48.93 47.68 43.64 39.90 37.38 36.69 36.33 35.98 36.72 37.75 37.03 36.02 36.39 35.08
42.26 39.52 39.32 33.98 31.99 35.11 33.82 34.83 46.36 45.85 46.63 46.79 47.21 48.56 48.51 47.86 48.37 49.07 49.72 48.64 47.38 47.43 47.79 47.95 48.51 48.64 49.30 49.62 49.08 49.19 49.71 49.79 48.99 49.17 48.01 46.25 41.77 37.97 38.50 36.00 34.67 33.71 33.78 34.48 35.24 34.76 34.38 34.16 31.99

GFSSGP_sfc_wetblb_072.txt.gz
Wetbulb
63.23 61.37 59.37 58.25 49.22 47.19 43.15 44.38 47.49 47.27 47.54 48.36 53.15 49.59 47.74 52.10 50.94 49.27 64.37 66.49 67.44 68.06 68.80 69.87 71.53 71.85 71.44 72.06 71.39 70.91 70.40 69.19 68.75 68.36 68.36 68.39 68.45 69.05 69.36 69.70 70.47 70.55 69.42 68.45 67.31 66.93 66.69 66.50 66.22
59.57 59.26 58.51 54.85 45.42 41.88 41.47 46.05 45.73 48.67 50.61 50.39 51.51 49.51 49.10 50.64 59.55 61.13 63.70 68.11 68.54 68.40 67.99 69.41 70.78 71.84 71.70 71.95 71.31 70.64 70.15 68.86 68.22 67.78 67.52 67.54 67.81 68.57 68.94 69.51 70.61 69.75 68.85 67.41 66.82 66.61 66.34 66.05 66.37
59.85 58.37 53.73 50.16 45.63 41.09 41.28 44.69 47.27 50.16 50.29 49.42 49.03 50.69 50.62 53.31 60.52 63.52 67.11 68.39 68.59 68.31 69.00 69.73 70.82 72.10 71.89 71.67 71.27 70.68 70.03 69.01 67.84 67.13 66.73 66.54 67.04 67.83 68.14 69.29 69.35 68.28 67.16 66.70 66.32 66.07 66.11 66.05 66.28
57.45 55.25 52.67 45.01 44.01 44.90 44.97 45.65 49.77 49.39 47.52 49.21 49.39 48.77 53.96 58.36 61.80 65.71 67.91 68.73 68.03 68.37 69.53 69.68 71.42 72.20 71.74 71.73 71.37 70.80 69.84 68.77 68.18 67.11 66.22 65.84 66.16 67.17 67.55 67.93 67.76 66.55 65.88 65.86 65.51 65.58 65.66 65.64 65.71
56.21 53.44 46.65 44.60 43.69 45.26 46.78 48.24 49.58 48.67 47.82 48.36 48.02 47.74 51.94 58.54 63.51 66.98 67.14 68.40 67.46 68.62 69.75 70.28 71.17 71.52 71.53 71.43 71.37 70.76 70.28 69.29 68.50 67.12 65.80 65.21 65.57 66.10 66.34 66.97 66.09 65.05 64.66 64.51 64.61 64.93 64.85 64.84 64.71
50.73 51.02 44.01 42.20 43.90 46.14 46.79 47.09 47.94 47.20 47.68 48.78 46.64 45.54 51.92 59.64 61.70 65.55 67.07 66.96 68.03 68.76 69.72 70.18 68.66 69.57 70.33 70.68 70.76 70.53 70.25 69.72 68.65 67.22 65.57 64.86 65.17 65.44 65.58 65.66 64.48 63.70 63.36 63.66 64.04 64.20 64.04 63.99 64.42
50.21 47.92 43.89 44.24 43.84 44.57 46.71 48.00 45.03 46.55 46.64 47.05 48.39 45.21 52.24 57.16 62.07 66.01 66.36 66.62 68.03 68.93 68.91 69.05 69.91 68.87 67.59 68.55 69.03 69.58 69.58 69.18 68.80 67.98 66.51 65.53 65.40 65.52 65.56 65.10 63.32 62.40 62.50 63.09 63.52 63.57 63.49 64.09 64.34
50.93 48.83 44.87 43.30 43.43 43.75 47.20 47.78 48.11 46.36 46.48 49.40 50.21 45.58 47.15 55.69 61.31 64.92 65.48 65.75 66.42 67.36 67.90 67.11 67.89 69.09 68.89 68.11 66.13 66.94 67.83 67.93 67.81 66.61 64.87 63.65 63.53 63.48 63.46 62.71 62.87 61.48 61.68 62.45 62.99 62.91 63.29 62.90 63.10
51.64 43.83 41.38 43.97 44.20 44.61 47.59 45.96 46.77 47.73 47.49 46.92 50.51 48.68 52.81 58.04 61.66 61.92 62.62 63.68 64.64 66.61 66.69 67.42 67.63 67.77 68.34 68.68 66.02 65.01 65.82 65.88 65.13 63.74 62.06 60.37 59.69 59.19 60.22 60.71 61.74 61.19 61.22 62.01 62.26 62.08 61.13 60.57 60.96
46.79 43.29 44.21 46.74 46.26 45.37 46.83 45.92 46.61 44.28 45.53 45.74 47.95 50.29 54.76 59.32 59.21 59.86 60.69 61.40 62.23 64.62 65.81 66.68 67.17 67.16 67.90 68.76 67.04 67.60 67.25 66.40 65.00 63.12 61.16 61.55 60.73 60.05 59.25 58.36 60.08 60.70 60.64 61.00 61.50 60.99 60.88 58.23 55.30
47.72 44.21 45.64 46.27 47.51 47.39 47.00 45.05 46.62 44.82 43.28 46.77 47.25 48.89 54.17 57.24 57.95 59.27 60.26 61.08 62.21 64.42 65.86 66.28 66.78 66.95 67.00 67.40 68.09 67.73 67.43 66.69 65.02 62.89 62.15 64.25 59.97 58.15 57.56 56.43 55.78 55.03 55.71 56.18 56.72 57.52 55.58 55.35 54.53
43.28 47.37 46.26 48.64 48.36 46.95 45.23 47.54 45.18 45.97 45.14 48.59 48.08 51.09 53.60 56.08 57.06 58.25 59.61 60.36 62.92 64.32 64.60 66.22 66.99 66.46 67.00 67.32 67.71 67.17 67.20 66.81 65.94 64.57 63.55 62.98 60.25 59.48 56.64 55.95 54.94 53.77 53.02 52.16 53.61 53.73 53.81 53.20 52.90
43.21 44.63 45.49 47.59 46.74 45.60 47.21 44.90 45.14 45.35 48.14 49.14 49.24 50.51 50.83 54.43 55.94 57.71 59.06 60.30 60.85 62.04 63.98 65.15 66.30 66.67 66.99 67.34 67.12 66.79 66.83 66.65 66.29 65.74 64.72 63.96 61.45 60.34 58.04 57.73 56.99 55.64 56.97 54.58 53.35 53.00 51.88 50.97 50.13
46.07 45.83 44.77 46.41 46.42 46.25 44.46 44.33 44.08 45.86 48.47 48.13 48.30 47.81 48.57 50.90 54.23 55.65 57.47 58.95 60.08 62.35 62.70 65.55 65.46 66.75 67.07 67.04 66.59 66.66 66.01 66.84 66.53 66.49 65.78 65.09 62.52 61.37 59.27 56.74 56.79 56.83 56.57 53.93 54.39 51.89 49.51 47.87 46.79
46.39 42.20 43.75 44.49 45.51 44.51 44.91 42.08 42.94 45.95 47.18 47.13 47.00 47.05 48.24 49.05 51.20 53.05 56.36 57.43 59.60 60.97 62.83 63.24 65.12 66.09 65.92 64.55 65.42 65.98 65.90 65.86 65.93 65.65 66.37 65.52 63.58 62.25 60.00 56.51 56.33 57.03 56.28 54.14 50.19 48.82 47.02 43.56 42.81
42.21 40.86 36.93 43.50 45.15 44.59 43.01 36.66 44.69 44.95 44.92 45.20 46.17 45.68 47.21 48.64 49.44 50.46 53.47 57.34 58.73 60.30 61.80 62.91 64.59 65.24 64.53 64.10 64.01 63.76 64.30 64.73 64.96 65.83 65.94 65.64 65.12 63.55 61.25 56.97 56.42 57.68 54.87 50.02 47.41 45.61 44.25 42.58 39.69
40.43 34.46 37.10 40.58 45.48 43.80 42.31 39.20 44.85 45.27 43.81 43.83 44.24 45.59 46.48 47.54 48.66 49.50 51.15 53.84 57.72 59.48 61.34 61.72 62.89 62.84 63.70 63.08 62.72 62.83 62.95 62.98 63.83 64.21 65.62 65.46 65.07 63.56 61.53 59.09 57.17 56.39 52.28 49.45 46.87 43.87 43.27 41.62 40.14
36.05 35.84 38.57 37.25 42.08 41.04 40.08 40.03 44.53 45.85 45.50 44.69 45.04 45.85 46.28 47.32 48.34 49.60 50.32 51.94 55.71 57.84 59.97 61.56 62.37 61.38 60.94 60.94 60.91 60.98 61.05 61.50 62.68 62.71 63.15 64.61 65.19 64.04 61.94 60.81 56.93 54.22 51.31 48.30 45.91 43.71 42.31 41.52 40.37
39.75 38.40 37.22 39.61 42.57 39.87 39.96 40.55 42.47 44.42 43.98 43.28 43.96 44.51 45.60 46.75 48.70 50.04 50.26 50.52 52.46 55.02 57.55 60.75 61.04 60.22 60.18 59.91 59.38 58.55 59.12 59.34 60.38 61.36 61.83 62.80 63.74 64.45 61.98 59.74 56.41 53.93 51.15 48.17 46.02 43.21 40.70 39.57 39.77
39.39 37.68 36.86 40.51 42.27 39.23 39.35 39.15 42.24 43.42 44.15 44.78 44.75 44.73 45.44 46.17 47.24 48.76 49.53 49.15 50.95 53.27 55.92 58.19 59.95 59.57 59.24 59.68 59.49 58.83 58.06 56.89 58.52 57.71 58.26 59.55 60.04 61.45 60.48 58.23 55.48 54.06 51.70 48.26 43.98 41.60 39.42 38.21 38.01
38.66 37.15 37.03 37.62 39.57 39.67 36.47 35.65 39.35 43.64 45.37 45.53 45.91 46.62 46.32 46.46 46.32 46.80 48.26 49.11 48.72 50.05 52.33 55.89 58.13 58.93 58.66 58.37 56.47 53.48 52.78 51.76 52.07 53.70 55.55 56.64 57.36 59.69 59.07 57.28 55.72 54.15 52.14 47.72 42.84 41.36 40.44 37.44 38.38
36.07 40.85 40.59 39.04 35.85 30.26 37.91 27.82 36.56 40.38 40.93 43.44 44.96 44.72 45.08 45.80 47.38 47.94 48.01 48.02 48.49 50.16 51.36 52.80 53.84 54.31 55.74 55.54 54.05 53.39 52.72 51.40 51.95 51.84 51.55 53.58 53.74 56.76 57.65 56.45 55.14 54.04 52.42 48.37 43.54 42.74 42.44 39.81 37.27
38.39 41.25 39.06 37.84 34.21 33.59 33.39 29.74 34.32 38.77 38.18 41.08 43.16 44.36 45.24 46.20 47.23 46.91 47.53 48.59 48.86 48.70 48.41 49.33 50.87 51.23 51.55 53.04 53.23 52.40 50.95 50.44 49.76 49.11 48.91 49.52 50.76 53.54 54.61 54.94 53.93 52.70 51.40 48.44 44.62 42.48 42.42 41.10 40.56
42.62 39.23 38.12 36.29 34.65 26.38 33.64 32.75 31.79 36.36 38.18 39.50 41.65 43.39 45.81 46.42 45.96 46.88 46.88 48.19 48.01 48.27 48.52 48.45 48.76 49.91 50.98 51.45 52.39 51.61 51.36 49.28 48.05 49.00 49.66 49.90 49.08 49.62 50.69 52.31 53.14 52.44 51.34 49.17 45.94 44.30 43.42 42.45 42.25
38.75 35.46 26.36 25.56 24.37 24.96 32.73 30.41 35.01 39.69 41.50 40.65 41.56 42.88 43.08 46.43 45.28 45.90 45.62 45.13 44.97 46.03 47.26 47.98 47.94 47.35 48.57 49.08 50.57 51.22 50.50 49.41 48.36 49.25 49.01 48.23 47.04 45.77 47.27 48.92 49.60 50.21 50.76 49.22 46.06 43.81 43.35 42.76 42.38
36.45 35.86 27.95 20.32 23.08 25.49 29.89 27.83 33.31 40.61 41.05 41.30 42.55 43.43 43.02 44.21 44.85 44.82 46.02 46.04 45.03 45.54 46.07 46.58 46.70 46.76 47.44 48.08 48.97 50.08 50.58 49.50 50.08 50.02 49.49 48.63 47.52 48.03 47.47 47.09 47.92 48.24 48.54 47.91 46.33 44.88 43.79 43.98 43.05
35.93 32.41 38.14 30.16 22.53 23.29 29.70 34.62 39.71 40.95 40.49 41.11 42.46 42.78 42.40 43.52 44.97 45.07 45.47 46.02 45.76 44.41 44.81 45.52 45.67 46.38 46.77 47.33 48.18 48.88 49.39 49.53 49.86 49.32 48.67 48.79 47.38 46.84 44.62 44.95 45.51 46.37 47.09 47.24 46.68 45.16 43.83 44.36 43.09
36.88 39.11 30.35 30.03 19.63 18.25 26.79 27.94 32.53 37.78 40.88 41.72 41.07 42.03 43.08 44.17 45.04 45.44 45.71 45.46 44.74 44.57 44.72 45.33 45.83 45.45 45.92 46.44 47.29 48.08 48.09 48.11 48.80 48.78 47.58 46.74 46.06 45.75 43.75 43.42 43.76 43.36 44.64 45.46 46.02 44.64 43.65 42.54 41.26
34.12 32.99 34.26 34.55 30.62 22.64 22.47 28.76 38.22 39.27 40.91 41.60 42.60 43.45 42.42 42.66 43.30 44.12 44.43 43.71 43.91 44.03 44.07 44.35 44.74 45.06 45.40 45.87 46.15 46.77 46.62 46.96 47.65 47.60 46.75 46.15 44.78 43.54 43.04 41.80 41.62 39.97 40.45 42.14 43.48 41.72 40.15 40.39 37.33
36.62 35.42 36.18 28.20 26.08 27.36 27.94 31.12 39.85 40.80 41.32 41.37 41.45 43.15 42.01 43.00 43.86 43.07 43.36 42.98 42.68 42.84 43.11 43.43 44.08 44.49 45.15 45.65 45.73 45.89 45.90 46.10 45.99 46.03 45.43 44.36 43.10 39.40 39.38 37.72 38.18 37.43 38.09 38.71 40.04 38.44 37.83 36.48 34.50

GFSSGP_sfc_wetblb_075.txt.gz
Wetbulb
58.72 56.13 54.40 53.76 44.92 41.53 37.15 39.77 43.14 44.92 43.89 46.16 48.77 48.24 48.95 49.94 50.60 46.04 61.95 64.42 66.82 66.82 68.93 70.30 71.22 71.93 72.16 71.78 71.11 70.49 70.05 68.87 68.69 68.68 68.62 69.17 69.61 69.70 70.66 69.97 70.21 69.00 67.52 67.36 67.11 66.95 67.17 67.26 68.12
56.97 57.62 54.15 48.22 40.64 35.82 36.53 40.62 42.50 45.18 46.30 48.61 49.54 48.16 48.02 49.40 57.83 60.23 60.54 65.96 67.58 67.47 68.59 70.04 70.51 71.99 72.05 71.50 70.90 70.34 69.95 68.73 68.26 68.06 68.19 68.55 69.13 69.28 70.59 69.81 69.62 68.01 67.17 66.94 66.75 66.75 67.19 67.17 67.43
57.77 56.47 48.49 44.75 38.86 35.46 37.06 40.71 44.18 45.49 46.69 45.95 46.66 49.07 49.93 52.11 59.11 60.88 64.70 67.05 67.54 66.58 68.29 69.61 70.50 71.93 71.97 71.34 70.69 70.14 69.59 68.78 67.61 67.37 67.53 68.13 68.54 69.39 70.05 68.74 67.87 66.98 66.63 66.46 66.56 67.00 67.15 66.99 67.64
52.90 50.63 46.86 40.69 38.08 39.43 40.80 43.70 46.32 44.74 46.18 46.96 47.67 47.68 52.85 56.44 62.07 64.14 66.66 67.20 66.53 66.55 68.94 69.51 71.09 71.91 71.86 71.21 70.63 69.93 69.12 67.95 67.17 66.77 66.74 67.56 68.09 68.53 68.42 67.35 66.71 66.33 65.80 65.94 66.15 66.71 66.54 66.66 67.77
50.92 47.06 41.95 39.55 37.98 39.74 42.92 46.45 47.34 45.10 44.75 44.44 46.03 46.41 50.14 58.65 64.59 65.80 66.14 66.75 66.52 67.37 68.48 69.71 70.65 71.26 71.52 71.33 70.74 70.13 69.42 68.19 67.05 66.31 66.15 66.92 67.08 67.72 67.32 66.36 65.89 65.42 65.08 65.42 65.63 66.09 65.43 65.50 66.60
45.97 44.97 38.67 36.68 38.44 41.92 41.84 45.30 46.83 43.87 45.16 45.53 44.57 47.58 50.44 59.04 63.23 64.46 65.79 65.84 68.78 67.73 69.32 69.96 68.23 69.29 70.22 70.74 70.52 70.16 69.68 68.76 67.25 66.28 65.76 66.20 66.23 66.69 66.25 65.33 64.71 64.49 64.50 64.67 64.91 65.03 65.28 65.65 65.80
44.97 42.21 37.60 39.12 39.29 40.65 43.36 45.16 43.83 43.66 45.30 44.91 47.11 45.36 51.19 56.22 61.38 64.66 64.94 67.08 68.65 69.09 69.37 69.41 69.29 68.41 67.44 68.47 68.77 69.22 69.18 68.66 67.57 66.71 66.33 66.35 66.32 66.47 65.03 64.41 63.54 63.85 64.00 64.17 64.21 64.62 64.88 65.11 64.94
46.22 43.54 38.84 38.69 39.06 39.82 43.66 44.40 44.97 44.82 43.95 47.38 47.99 44.93 47.88 54.84 61.40 64.29 64.22 65.64 67.71 67.56 68.63 68.37 68.17 68.37 68.20 67.77 66.06 66.69 67.40 67.63 66.99 65.57 64.34 63.54 63.96 64.36 63.87 62.47 63.24 63.25 63.64 63.58 63.91 63.85 63.90 63.89 63.59
46.12 39.53 37.07 38.73 40.24 41.26 44.33 43.04 45.06 45.34 46.30 45.27 47.81 48.96 51.25 57.70 61.97 62.57 61.79 61.76 65.95 66.50 66.86 67.32 67.59 67.85 67.84 67.43 65.48 64.81 65.22 65.24 64.20 62.72 61.21 59.63 59.32 59.36 59.19 60.40 62.09 62.77 62.99 63.09 63.24 62.17 61.95 61.62 61.59
42.57 37.62 39.23 41.93 40.92 41.24 44.39 43.89 44.43 42.28 43.37 43.17 45.59 48.53 54.68 58.13 58.93 59.88 59.69 59.94 62.95 64.13 65.50 66.41 67.02 67.32 67.68 68.14 65.66 66.07 65.68 64.94 63.12 61.19 59.04 58.89 58.09 58.47 58.63 58.11 60.32 61.96 62.04 62.36 61.95 61.44 59.97 56.80 54.65
43.19 40.27 42.75 42.58 44.46 44.47 44.17 42.63 45.26 43.26 40.23 44.07 45.59 48.41 55.52 55.95 56.54 58.17 59.25 59.65 61.75 62.95 64.74 66.31 67.03 67.47 67.75 67.80 66.82 66.52 66.00 64.49 62.76 60.26 60.06 59.60 58.16 57.40 56.82 55.92 55.47 56.22 57.28 57.95 58.16 55.50 54.38 53.37 53.64
39.66 44.23 43.48 45.89 45.98 44.59 42.78 44.69 42.26 43.32 43.46 45.92 46.37 50.36 54.43 54.82 55.90 57.00 58.46 59.19 60.59 61.75 63.37 65.31 66.83 66.07 66.94 67.85 67.33 66.77 66.22 64.94 62.89 60.68 61.00 59.18 57.00 55.98 55.25 54.92 54.01 53.31 53.24 52.65 52.76 52.56 51.88 50.89 51.05
40.33 41.36 43.29 45.31 44.60 43.12 44.80 41.74 42.19 42.87 45.43 45.38 48.26 50.35 54.40 54.93 55.38 56.17 58.53 58.91 60.97 61.36 62.60 64.02 66.02 66.40 66.54 67.24 67.36 67.04 66.30 65.65 64.09 62.06 61.87 60.64 57.87 55.56 54.92 54.16 53.71 52.16 51.59 52.28 52.02 51.22 50.25 48.83 49.23
42.62 42.62 42.02 43.85 43.97 43.58 41.93 40.91 41.52 43.89 44.90 44.77 46.41 47.30 50.66 53.41 54.65 54.61 55.83 58.69 58.93 62.77 62.90 63.89 65.03 66.12 66.64 66.71 67.04 66.07 66.53 66.19 65.37 64.00 62.99 61.43 59.83 56.58 55.46 54.55 53.95 53.00 53.38 52.54 51.69 49.72 48.11 46.35 46.75
43.37 39.01 40.74 41.64 43.08 42.09 42.71 37.97 40.82 43.18 44.29 44.97 44.62 44.09 46.87 49.86 52.70 54.64 57.11 57.55 59.74 60.79 63.02 63.61 64.41 65.42 65.94 66.58 66.79 66.02 65.98 66.27 65.51 64.95 64.22 62.99 61.61 58.08 57.23 55.75 54.88 54.85 54.22 54.19 51.89 49.79 45.92 44.81 43.84
38.84 37.80 33.96 40.10 42.56 42.54 40.28 33.69 41.52 43.03 42.89 43.64 43.24 42.24 44.32 45.58 48.19 52.33 54.29 56.79 56.80 58.24 60.57 63.86 64.62 64.40 65.03 65.94 66.20 65.69 66.07 65.46 65.81 65.56 65.23 64.48 62.64 60.80 57.44 55.78 55.15 54.78 52.61 50.54 49.85 46.66 43.01 40.33 41.46
35.57 30.47 33.33 37.58 42.29 41.61 39.41 35.23 42.63 44.09 42.49 41.30 41.61 42.64 43.39 43.96 45.51 47.14 50.33 54.80 56.69 58.06 60.34 61.63 63.96 63.68 63.77 63.86 64.93 63.12 64.29 64.84 64.89 65.37 65.37 64.66 63.32 62.14 59.05 56.94 56.10 54.38 50.61 48.82 47.31 44.52 43.27 40.21 38.69
32.17 31.96 35.20 34.01 39.95 39.58 37.37 37.59 41.22 43.31 42.42 42.87 42.66 43.19 43.54 43.80 45.29 47.64 48.05 50.39 55.22 56.74 59.11 61.84 62.78 63.83 63.70 63.16 63.07 61.85 61.07 62.27 63.69 64.10 64.68 64.69 63.98 62.82 60.72 58.18 56.69 54.97 50.47 47.46 46.39 43.43 42.10 40.09 39.25
36.49 35.52 33.25 36.03 40.98 38.64 37.33 37.36 39.84 42.13 40.86 39.56 40.21 41.39 42.53 43.92 47.01 46.61 47.79 48.84 50.36 54.84 57.24 60.24 61.00 61.54 62.80 61.19 61.10 61.29 61.29 60.79 59.14 61.54 62.16 63.78 64.17 63.10 61.09 59.16 56.72 54.14 50.94 47.95 45.52 43.01 40.73 39.31 38.80
37.09 34.67 33.63 36.58 39.70 37.64 36.89 37.35 39.51 40.25 41.84 43.57 42.87 40.79 41.55 41.90 44.09 46.03 45.91 46.33 48.36 53.48 56.42 58.96 60.49 60.65 61.99 62.76 62.17 61.37 60.25 57.03 61.26 58.14 59.27 61.94 63.73 63.12 61.47 59.76 56.30 54.20 51.40 47.36 44.65 42.27 40.09 38.91 38.81
35.91 34.39 33.89 35.21 36.36 36.44 34.20 32.80 36.06 40.00 40.96 42.63 42.37 42.72 42.95 43.64 43.95 43.98 44.45 45.05 47.43 49.12 53.71 56.92 59.51 59.95 61.08 61.06 57.88 54.76 54.44 52.75 54.23 55.44 57.81 57.69 60.80 62.51 61.70 59.38 56.95 54.42 52.29 47.55 45.04 42.64 41.33 38.56 38.23
33.90 37.96 38.12 36.44 33.13 28.85 34.82 25.46 33.10 38.50 40.23 39.51 42.33 41.72 42.62 42.88 43.43 44.21 45.06 44.19 44.56 49.26 52.54 55.51 57.86 58.72 59.57 58.38 57.60 57.43 57.54 56.70 58.14 58.98 55.98 52.79 55.37 58.93 59.80 58.90 56.92 55.08 53.23 49.58 45.83 43.89 43.70 42.03 37.35
36.17 39.20 37.37 35.88 32.05 30.09 30.21 27.07 31.79 34.94 35.63 38.45 40.20 40.44 41.52 42.44 42.83 43.90 45.00 45.23 45.46 46.54 47.07 50.44 53.28 55.09 57.33 57.56 57.32 56.60 56.21 56.33 48.97 48.89 49.76 49.39 49.73 54.73 57.27 57.05 56.34 55.10 53.90 51.00 47.02 44.07 43.92 43.08 40.88
40.89 38.17 37.21 34.19 31.28 24.40 30.22 30.26 28.00 33.33 36.48 37.07 39.02 40.68 42.54 43.42 44.81 44.04 45.46 45.58 45.66 44.74 45.42 47.12 49.66 50.58 51.73 55.84 53.70 53.28 54.01 48.44 47.49 46.80 47.62 46.85 48.51 50.87 53.49 53.92 55.61 55.29 53.96 51.35 47.59 45.03 44.19 42.88 43.40
37.89 33.32 24.77 23.62 22.48 22.84 29.46 27.02 32.00 36.56 37.80 39.01 39.55 39.64 39.55 44.39 43.49 43.64 44.50 44.89 43.09 44.17 44.92 45.49 46.65 47.55 47.77 48.71 49.75 49.31 49.30 48.37 48.64 47.61 48.42 46.72 47.50 48.64 50.75 52.45 53.31 53.85 53.24 51.09 48.43 45.88 44.60 42.95 43.16
34.93 33.47 25.11 18.45 21.56 23.84 28.51 26.34 33.61 38.57 40.06 40.52 40.36 40.69 39.23 40.24 42.02 42.62 43.36 43.73 43.46 42.75 44.95 45.47 45.51 45.30 46.11 46.87 47.55 48.96 49.21 50.08 49.76 48.57 48.85 48.94 48.48 48.30 49.40 50.17 52.53 52.83 52.24 51.02 48.56 46.58 45.16 44.73 43.67
34.14 31.29 35.41 28.54 17.85 21.69 27.14 31.04 37.12 39.22 39.09 40.47 40.21 40.66 41.42 41.75 43.19 43.66 43.61 43.34 43.88 42.88 43.53 44.58 44.72 45.22 45.37 45.82 46.57 47.52 48.60 48.50 48.93 47.65 48.13 49.10 47.87 47.16 47.91 48.84 49.86 49.90 49.92 49.85 48.41 46.74 44.31 44.33 43.12
36.03 37.64 29.58 28.00 17.78 16.30 24.02 25.88 30.73 35.93 38.04 39.43 39.98 40.30 40.58 40.74 41.49 42.59 43.06 42.90 42.54 42.66 43.02 43.60 44.13 44.24 44.89 44.93 45.52 46.78 47.39 47.86 47.86 47.40 47.03 47.28 47.19 46.26 44.94 46.56 47.80 47.91 47.97 47.81 47.25 46.15 44.85 43.82 43.63
33.28 31.97 32.84 32.56 28.20 20.58 19.52 26.48 34.52 36.78 39.50 39.52 39.26 40.33 41.64 41.84 42.18 42.23 42.79 42.39 42.72 42.55 42.93 43.23 43.36 43.70 43.93 44.43 44.55 45.13 46.06 46.53 46.58 47.10 46.80 46.48 45.06 45.33 43.68 42.97 44.68 45.44 45.68 46.31 46.16 45.86 44.62 43.22 43.25
34.30 33.38 34.02 26.90 24.46 26.50 25.88 30.34 37.33 39.27 38.94 40.47 40.68 42.71 42.62 42.80 42.04 41.42 42.18 41.65 41.41 41.65 41.91 42.58 43.04 43.20 43.71 44.41 44.35 44.37 45.07 45.07 45.22 45.76 45.27 44.27 44.57 41.91 42.79 41.32 41.58 43.07 43.23 44.02 44.76 43.89 43.19 42.13 41.21

GFSSGP_sfc_wetblb_078.txt.gz
Wetbulb
57.26 54.27 52.32 52.41 44.31 39.74 35.39 37.90 41.57 43.17 42.42 45.10 47.14 48.58 48.06 49.28 48.76 42.51 60.97 63.93 65.25 66.41 69.03 69.73 71.37 72.52 71.62 70.96 70.49 70.13 69.34 68.91 68.81 69.14 69.90 69.85 70.90 70.52 69.69 68.41 68.04 67.33 67.09 67.24 67.83 67.78 67.78 68.14 67.66
55.64 56.03 52.65 45.81 39.49 33.46 35.02 38.60 41.73 43.62 45.11 47.18 48.36 47.08 48.84 50.10 56.91 58.43 60.05 64.24 66.00 66.80 68.96 69.56 70.60 72.02 71.18 70.89 70.48 70.05 69.04 68.48 68.42 68.62 69.46 69.41 70.51 70.09 69.21 68.00 67.31 66.90 66.67 66.99 67.72 67.77 67.59 67.75 68.56
56.26 54.21 48.13 43.08 35.90 34.46 35.82 39.79 42.77 43.86 44.77 44.56 45.37 49.06 49.84 53.10 57.99 58.95 62.13 65.90 66.41 66.66 68.95 69.36 70.72 71.75 71.12 70.82 70.30 69.73 69.31 68.18 68.04 68.17 68.80 69.12 70.32 69.37 68.42 67.38 66.81 66.50 66.40 67.15 67.65 67.44 67.45 67.50 67.31
51.81 49.06 45.38 39.25 35.48 38.14 40.04 42.67 44.34 44.06 43.65 45.75 46.76 47.98 51.75 56.64 60.30 62.17 65.12 66.70 65.71 66.05 68.31 69.15 71.06 71.65 70.76 70.55 69.58 68.47 68.03 67.51 67.30 67.64 68.08 68.90 69.41 68.44 67.45 66.85 66.31 65.84 66.08 66.96 67.28 67.21 67.45 67.44 67.04
48.74 45.21 39.98 37.44 35.85 38.51 40.40 44.15 44.35 43.06 42.84 43.66 46.50 45.88 50.71 59.00 62.41 64.43 65.43 66.14 64.52 65.89 67.89 69.14 70.53 71.15 70.98 70.54 69.35 68.86 68.21 67.27 66.82 67.00 67.61 68.05 68.46 67.50 66.80 66.26 65.62 65.50 65.60 66.67 66.52 66.24 66.93 67.38 67.02
44.65 43.19 37.63 34.95 35.64 39.02 40.54 45.26 44.86 41.93 42.04 43.73 46.73 48.11 51.35 58.13 62.91 64.05 65.30 65.18 66.06 66.79 68.14 69.32 68.06 69.16 69.91 70.03 69.79 69.40 68.83 67.53 66.86 66.61 66.97 67.16 67.66 66.80 66.10 65.48 64.98 65.08 65.11 65.90 65.69 65.98 66.22 66.17 65.15
43.59 40.23 36.58 37.51 38.01 38.83 41.80 43.88 42.96 42.96 43.49 43.66 46.92 46.54 49.70 56.07 62.34 63.74 65.27 66.46 66.82 67.82 68.32 68.85 68.85 68.30 67.37 68.21 68.37 68.58 68.61 67.51 66.97 67.02 67.14 66.92 66.90 66.01 65.16 64.87 64.45 64.52 64.63 65.35 65.39 65.48 65.50 65.28 64.69
44.70 42.82 38.33 38.62 37.79 38.49 42.24 43.00 43.87 42.99 43.54 45.96 48.62 46.47 47.98 55.03 60.85 63.33 65.47 67.35 67.04 67.80 68.22 67.97 68.00 68.19 68.25 67.58 65.74 66.33 67.09 66.66 66.18 65.78 65.05 64.33 64.51 64.22 63.65 63.04 64.32 63.96 64.16 64.74 64.62 64.65 64.57 64.33 63.75
44.51 38.92 35.88 36.91 38.24 39.85 42.25 42.13 43.03 44.08 44.78 44.50 45.87 48.39 50.42 57.39 61.21 61.69 61.37 64.38 66.31 66.69 67.31 67.49 67.20 67.29 67.18 67.03 65.27 64.43 64.90 64.70 63.79 62.77 61.51 60.13 60.19 59.53 58.51 60.52 63.40 63.65 63.87 63.77 63.73 63.52 62.74 61.51 60.70
41.51 37.20 38.87 40.57 39.65 40.27 42.28 41.78 44.06 42.37 42.13 42.18 43.90 49.18 54.02 58.09 60.08 60.51 59.50 60.58 62.34 63.96 65.11 66.75 66.88 66.87 66.74 67.34 65.26 65.24 64.94 63.56 61.23 59.97 58.52 58.25 57.86 57.68 58.02 58.26 61.46 62.63 62.77 62.94 62.32 61.45 59.25 56.31 53.64
41.06 38.36 41.67 41.29 42.36 43.03 42.86 40.69 42.59 41.94 39.18 43.40 44.99 48.89 54.10 56.85 58.93 60.40 59.33 60.13 62.36 63.71 64.79 65.64 66.46 66.84 66.72 66.38 65.47 65.34 64.96 62.68 60.63 58.34 57.61 57.38 57.03 56.61 55.97 56.18 57.18 57.64 58.29 57.64 56.08 54.01 53.34 53.05 52.61
38.98 42.27 42.65 44.32 44.12 43.06 42.08 42.65 40.74 41.68 43.04 45.25 45.75 51.57 54.66 56.84 58.05 60.16 60.30 58.80 60.68 61.38 63.71 64.88 65.97 66.24 66.60 66.73 65.69 65.88 65.21 63.00 60.59 58.45 58.62 57.32 55.69 54.85 54.27 54.31 54.41 55.06 55.06 54.25 52.54 51.74 51.19 51.30 51.34
39.59 39.95 42.39 43.91 43.72 42.44 43.13 40.33 40.59 41.68 44.29 43.69 45.48 52.21 54.30 56.58 57.33 58.57 60.60 59.57 60.09 61.31 62.84 64.42 65.60 66.00 66.88 66.86 66.70 66.21 65.46 63.92 61.55 59.08 60.33 57.88 55.84 54.56 53.66 53.10 53.16 52.91 52.38 52.00 51.23 49.75 49.38 49.15 48.82
41.34 41.24 41.25 42.37 42.11 41.93 40.11 38.48 40.13 41.90 43.01 43.04 45.76 49.75 53.23 54.26 54.68 53.83 55.98 58.25 59.46 61.72 62.52 64.03 64.73 65.23 66.46 66.75 66.71 66.33 66.05 65.10 62.43 60.04 60.66 58.42 56.86 55.10 53.89 52.68 52.34 51.30 51.04 51.46 50.43 48.72 47.46 46.76 47.20
42.16 38.42 38.74 40.04 40.92 40.23 40.90 36.66 39.35 40.94 41.95 42.23 43.36 44.70 48.52 52.25 53.11 54.29 57.12 58.68 59.67 61.54 62.37 62.99 64.14 64.94 65.19 65.99 66.70 66.53 66.24 65.43 63.94 61.82 61.61 60.21 58.08 55.37 54.62 53.32 52.49 51.67 52.07 51.32 49.69 47.75 45.76 44.16 44.63
37.59 36.52 32.43 37.46 40.87 40.81 38.10 33.76 38.06 42.10 39.17 41.59 41.19 40.07 42.90 46.43 51.54 54.06 55.56 57.05 58.16 58.99 60.80 62.69 64.25 64.06 64.41 65.05 66.07 66.21 66.29 65.71 65.22 63.66 62.31 61.84 60.01 56.94 55.99 54.29 53.84 53.81 52.27 50.40 48.47 46.25 44.83 43.18 43.42
35.24 29.51 31.32 35.36 40.78 40.15 37.60 34.49 39.84 41.67 41.34 41.19 40.17 40.75 41.34 42.33 43.79 46.81 52.65 55.69 57.37 58.13 60.09 61.74 63.05 63.42 63.79 64.32 65.06 65.05 65.64 65.49 65.42 65.29 63.85 62.91 61.33 58.59 57.11 55.69 54.99 54.93 52.33 50.98 48.64 45.21 44.51 41.49 39.26
31.34 30.84 32.72 31.94 38.40 37.40 35.49 36.64 40.03 41.65 39.40 41.01 40.83 41.01 41.34 41.79 43.86 45.86 46.75 52.07 55.52 56.42 58.63 60.98 62.94 63.42 63.77 63.75 63.44 63.16 64.63 64.57 65.08 65.18 65.05 63.92 62.34 60.47 58.26 57.04 55.72 54.53 51.40 49.39 47.86 44.61 42.05 40.83 39.27
34.40 32.88 31.99 34.24 39.21 37.47 36.57 36.17 38.85 40.98 39.84 38.86 39.23 39.39 40.23 41.59 46.32 44.75 44.80 45.96 48.95 52.55 54.84 58.95 61.25 62.86 62.92 62.54 61.69 61.52 61.53 63.58 62.96 64.24 64.73 64.46 63.34 61.73 59.48 57.85 56.28 54.87 51.38 49.21 47.14 43.48 40.30 38.74 38.30
34.03 32.40 31.93 34.75 37.82 36.46 35.02 36.21 38.56 39.37 40.23 40.55 40.14 39.43 39.66 40.17 41.90 44.35 44.40 43.52 44.82 50.38 54.13 57.45 60.13 62.15 62.68 63.26 63.24 62.94 62.82 61.71 62.63 62.49 62.39 64.00 63.82 62.53 61.09 59.03 56.66 55.22 52.29 48.97 45.38 44.11 40.71 38.69 38.41
34.59 33.10 31.99 33.46 34.49 34.17 32.85 31.73 34.11 37.97 38.99 40.97 40.99 41.05 40.42 40.73 41.41 41.97 42.42 42.88 42.90 44.90 50.95 55.50 59.15 61.08 62.60 63.25 61.52 55.26 54.76 53.80 55.38 56.01 60.07 61.78 63.23 63.01 61.63 60.10 57.85 55.66 53.56 48.59 46.02 43.43 42.32 38.59 37.54
32.70 37.41 36.28 34.43 31.75 27.73 32.57 24.72 31.46 36.70 38.29 38.58 39.87 37.17 39.15 40.56 41.20 42.21 42.88 41.81 42.16 44.76 47.50 52.78 57.14 59.62 61.30 62.05 60.29 60.16 59.88 58.90 59.45 60.37 58.62 57.02 59.28 62.72 61.89 60.69 58.27 55.99 54.02 50.75 47.26 45.48 44.32 42.35 37.29
35.32 37.76 34.96 33.85 30.81 28.53 28.16 26.58 30.56 33.09 35.65 37.56 38.51 38.56 41.13 41.81 39.64 41.93 42.52 44.25 43.70 43.39 44.21 48.40 53.08 56.68 58.75 59.93 60.02 59.33 59.37 59.33 53.71 51.33 53.11 51.63 53.84 55.90 60.62 60.08 57.75 55.70 54.58 52.51 48.68 45.89 44.86 43.32 41.75
39.32 36.50 34.60 31.43 28.89 23.65 28.57 28.37 27.48 32.01 34.45 36.43 38.62 40.29 40.09 41.78 41.80 42.35 43.90 43.77 43.24 43.58 42.82 46.31 51.17 53.23 55.52 57.41 57.33 57.20 57.77 53.71 49.03 47.83 49.54 49.42 50.26 54.12 54.40 56.04 57.63 56.52 55.23 53.44 49.91 47.61 45.66 45.02 44.82
35.90 32.00 24.15 23.01 21.49 22.04 26.58 26.01 29.81 35.64 37.25 36.47 38.49 38.22 39.05 39.03 40.28 41.66 42.03 41.84 42.42 42.38 43.65 43.68 46.79 49.01 50.08 53.23 53.42 52.94 54.43 51.42 50.72 49.13 49.49 46.48 47.63 48.74 52.94 53.19 54.29 55.65 55.38 54.21 51.40 48.60 46.66 46.12 44.91
33.21 31.87 24.77 17.79 19.67 23.05 27.64 25.50 32.60 36.11 37.68 37.93 39.17 38.26 39.72 40.79 41.47 41.71 42.13 41.95 42.04 42.61 43.57 44.53 44.46 45.02 46.13 48.00 49.29 49.30 50.54 51.76 51.46 49.07 48.32 48.98 49.50 50.41 48.85 50.06 53.03 54.67 54.86 54.26 51.87 49.53 47.47 46.76 45.99
33.52 30.04 33.47 26.75 15.67 20.63 26.09 29.93 36.58 37.71 36.94 39.55 39.88 40.28 39.77 40.87 41.19 41.85 43.04 42.39 42.50 42.27 42.67 43.56 43.97 44.41 44.40 45.00 45.66 46.50 47.46 48.01 48.70 47.34 48.26 48.91 48.28 47.81 46.14 47.88 48.81 50.11 52.59 53.13 52.18 49.75 47.38 46.93 45.80
34.42 36.71 29.18 27.05 17.63 15.10 23.34 24.98 29.64 34.13 35.47 39.04 39.68 39.93 40.73 41.34 42.05 42.06 42.17 42.46 42.24 42.37 42.37 42.72 43.10 43.42 43.82 44.21 44.25 45.17 46.15 47.21 47.89 47.13 47.23 46.75 47.15 45.62 45.10 46.02 47.38 48.72 49.99 50.94 51.10 49.98 48.62 46.66 46.06
32.87 31.33 31.46 31.32 26.78 19.17 16.95 24.93 33.14 35.16 38.46 37.92 38.61 40.71 40.59 40.62 40.88 41.14 41.59 41.79 41.19 41.26 41.58 42.03 42.53 42.90 43.25 43.45 43.61 43.62 44.38 45.34 46.06 47.20 47.36 47.11 45.22 44.96 44.78 45.82 47.22 47.33 47.92 48.64 48.70 48.98 47.98 45.20 45.12
34.37 33.21 33.12 27.02 23.61 24.46 25.01 27.64 36.62 37.82 37.49 38.44 38.86 39.31 39.26 40.27 41.08 40.43 40.61 40.91 40.80 40.56 40.71 41.44 41.91 42.27 42.99 43.48 43.42 43.35 43.59 44.02 44.31 45.03 45.03 44.05 44.09 42.45 44.17 42.76 44.76 45.51 46.12 46.57 46.59 46.53 46.43 44.06 43.03

GFSSGP_sfc_wetblb_081.txt.gz
Wetbulb
56.29 53.40 51.46 51.10 43.78 38.79 34.66 36.93 40.45 41.58 42.02 44.04 46.45 45.90 45.37 47.88 45.14 39.86 59.50 63.11 65.12 66.05 68.45 69.56 71.00 71.67 70.51 70.56 70.05 70.02 68.99 69.10 69.78 69.61 70.85 70.92 70.28 69.27 68.43 67.69 67.10 66.96 67.68 67.93 67.93 67.55 67.95 67.37 66.73
54.97 54.81 51.34 44.45 38.56 33.10 34.27 37.46 41.20 42.24 45.09 48.44 48.34 47.10 48.25 47.69 56.37 57.52 59.78 63.49 65.62 67.17 68.64 68.96 70.39 71.35 70.60 70.60 70.06 69.55 68.73 68.55 69.26 69.18 70.31 70.76 69.95 68.80 67.88 67.38 66.71 66.72 67.44 67.65 67.76 68.03 68.16 67.04 66.40
54.88 51.67 47.75 41.46 34.46 33.46 34.80 37.63 40.93 41.88 44.41 43.68 44.60 48.88 50.02 51.53 55.73 58.76 60.71 64.26 65.41 67.21 68.54 69.07 70.69 71.11 70.17 70.04 69.69 69.17 68.60 68.28 68.73 69.26 69.52 70.49 69.64 68.25 67.51 66.85 66.40 66.57 67.34 67.28 67.18 67.79 67.44 66.86 66.21
50.72 48.45 44.65 37.98 33.84 36.56 37.15 40.37 41.89 42.19 42.41 44.78 46.11 46.96 51.14 57.61 58.38 60.09 63.32 65.05 64.93 67.08 68.45 69.17 70.94 71.14 70.36 70.05 68.93 68.31 68.04 67.90 68.12 68.67 69.51 70.01 69.30 67.96 67.05 66.35 66.05 66.45 66.94 66.73 67.34 67.72 67.20 66.69 66.37
47.08 44.29 38.91 36.27 35.94 37.90 39.53 43.03 42.65 41.62 41.66 42.60 46.91 45.09 49.96 57.78 61.68 62.90 64.51 65.00 64.11 65.95 67.61 69.26 70.34 70.52 70.44 69.73 68.76 68.32 68.00 67.45 67.74 68.15 69.00 68.98 68.07 67.14 66.54 65.82 65.69 66.00 66.54 66.36 66.81 67.84 67.23 66.84 66.69
44.45 42.45 36.73 33.74 34.87 37.84 41.47 42.76 42.42 40.20 40.57 42.10 46.87 48.28 52.18 57.58 61.15 62.57 64.91 64.06 64.43 65.92 67.58 69.09 67.79 68.70 69.45 69.41 69.24 68.87 68.37 67.62 67.63 67.87 68.05 68.03 67.02 66.71 66.00 65.43 65.27 65.61 66.36 65.32 66.31 66.81 66.58 65.72 65.18
43.03 39.13 36.12 35.70 35.79 37.26 41.08 43.63 40.49 41.53 41.28 42.96 49.10 45.82 49.08 54.81 61.41 62.98 63.91 63.49 64.64 66.31 67.40 68.29 68.64 67.72 66.80 67.66 67.92 68.17 67.86 67.38 67.41 67.73 67.75 67.75 66.99 66.32 65.41 65.23 64.91 65.07 65.58 65.50 65.87 66.00 65.33 64.99 64.35
43.92 41.67 36.44 36.48 37.12 37.61 40.62 42.02 43.06 43.09 43.24 44.24 49.91 45.19 46.98 56.62 61.84 62.61 63.97 64.40 65.14 66.01 67.12 67.37 67.40 67.73 67.52 66.92 65.25 65.89 66.39 66.28 66.36 66.30 65.37 64.58 64.38 64.43 64.33 63.61 64.72 64.80 64.96 64.88 65.04 64.90 64.81 64.33 63.61
43.23 38.41 35.53 37.04 37.16 39.46 41.13 40.64 41.10 42.62 43.80 45.44 45.41 48.21 49.49 58.89 61.48 61.92 63.94 63.69 64.88 65.94 66.56 67.14 67.10 67.01 66.65 66.25 64.40 63.86 64.24 64.21 63.93 63.22 61.89 60.79 60.20 59.45 59.43 61.21 63.80 64.90 64.38 63.94 64.21 64.00 63.24 61.95 61.29
40.94 36.84 38.43 39.70 39.10 39.65 41.97 40.42 42.45 42.75 41.60 43.38 44.31 49.51 53.60 58.41 60.41 60.41 61.16 61.86 63.56 64.69 65.74 66.67 66.87 66.89 66.25 66.92 64.53 64.24 63.88 62.28 60.89 60.34 59.72 59.21 57.91 56.99 58.30 59.23 61.73 63.20 62.95 63.55 63.40 62.06 59.18 55.93 53.27
39.49 38.31 40.88 40.63 40.99 42.01 42.56 39.65 41.71 41.14 40.12 42.64 44.45 47.35 53.90 56.34 58.54 60.16 60.10 61.53 62.74 64.43 65.47 65.96 66.45 66.75 66.33 66.41 65.43 64.25 63.05 60.67 59.27 58.44 57.79 57.51 56.63 56.12 56.05 57.16 57.86 57.98 58.00 57.09 56.69 54.57 53.22 52.68 52.14
38.69 41.12 41.01 42.94 42.68 41.89 41.72 42.03 39.55 40.44 42.54 42.79 45.38 49.28 54.15 56.49 58.94 59.53 59.69 58.99 60.70 61.97 64.04 65.46 65.86 65.97 66.23 66.02 65.42 65.41 64.62 60.64 58.48 57.30 57.19 56.40 55.21 54.49 54.22 55.20 55.26 55.82 54.92 52.71 51.95 51.93 51.67 51.39 50.93
38.02 39.23 41.09 42.53 41.54 40.47 42.18 39.73 40.63 40.72 43.25 42.31 43.69 51.15 54.19 57.12 59.21 60.35 60.56 59.21 59.82 61.02 62.94 63.98 65.25 65.73 66.00 65.44 65.36 65.16 64.55 62.36 59.63 57.43 57.42 56.57 55.08 54.01 53.52 53.58 53.97 54.01 53.33 51.74 50.67 50.33 50.36 49.60 49.22
40.61 40.08 39.45 40.81 40.72 40.53 39.18 37.89 38.60 38.95 40.74 41.32 43.92 49.03 52.46 54.54 57.10 54.96 56.30 58.42 58.66 61.55 62.19 63.53 64.40 65.30 65.94 65.71 65.37 64.92 64.67 64.03 60.67 58.01 58.17 56.73 55.76 54.33 53.32 52.57 52.95 52.49 52.12 51.10 49.71 48.81 48.60 47.96 48.00
40.39 37.06 37.48 38.42 40.14 39.20 40.44 36.00 38.58 38.85 38.80 40.03 41.65 42.94 49.10 52.05 53.27 54.77 58.02 59.10 59.33 60.82 62.15 62.76 64.03 64.96 65.22 65.51 65.47 65.96 65.71 64.78 61.92 58.96 58.99 57.51 56.21 54.40 53.36 52.51 51.87 51.63 51.22 50.61 48.48 46.88 45.94 45.28 45.95
36.42 34.95 31.30 35.52 39.01 38.86 37.24 33.25 37.07 39.02 38.11 39.60 39.16 38.99 41.55 47.03 51.40 53.24 54.44 56.41 57.95 58.87 60.31 62.53 64.18 64.08 64.60 65.16 65.42 65.87 65.98 65.17 63.72 60.80 59.91 59.51 58.19 56.26 54.68 53.90 53.12 53.22 52.53 50.84 47.59 47.33 45.45 43.89 45.63
33.16 28.14 30.18 34.88 39.08 38.45 36.35 33.87 38.07 39.56 39.65 39.30 39.33 39.32 40.09 40.98 42.98 47.67 52.68 54.07 56.11 57.80 59.41 60.94 62.89 63.12 63.54 64.09 64.47 64.44 65.24 65.18 64.66 63.54 60.31 61.15 59.52 57.29 55.80 54.72 54.12 53.66 52.63 51.19 49.32 46.19 45.71 42.72 41.42
30.00 28.88 30.58 31.01 36.57 36.48 34.68 36.27 39.21 40.19 38.90 39.68 39.09 39.59 39.75 40.09 42.27 44.12 46.46 52.38 54.72 55.50 57.99 60.73 61.92 62.89 63.11 63.62 63.26 62.48 63.52 64.32 65.23 64.81 63.32 60.97 60.74 58.52 56.69 55.74 54.45 53.93 52.53 51.04 48.64 45.88 43.29 41.85 40.97
32.53 31.55 30.93 33.06 37.64 35.66 35.38 34.98 37.89 39.98 38.30 38.38 38.74 38.77 39.21 40.34 44.29 42.96 43.53 43.99 49.20 52.55 54.41 57.43 60.03 61.80 62.50 62.38 61.79 61.67 62.18 63.00 63.97 64.68 63.98 63.22 61.65 60.07 57.53 56.73 54.86 54.11 52.20 51.12 48.25 44.89 41.18 38.77 38.16
33.09 31.53 30.98 33.53 36.60 35.84 33.43 35.18 37.23 38.18 39.43 39.40 39.64 39.22 38.63 38.60 40.13 41.28 41.86 41.63 42.53 48.49 52.86 55.57 58.29 60.86 61.92 62.99 62.96 63.00 62.59 61.99 63.23 64.04 64.14 64.06 63.17 61.56 59.07 57.82 55.82 54.52 52.50 50.73 47.83 43.65 40.70 38.68 37.94
31.34 31.02 30.51 32.36 33.02 33.05 31.25 30.87 32.20 35.87 36.71 39.19 38.86 38.74 39.22 39.55 39.93 40.40 40.27 40.30 40.64 41.55 45.66 52.93 56.42 59.10 61.62 62.64 61.33 55.76 55.60 54.80 56.77 59.48 62.49 63.29 63.40 62.59 60.97 59.20 57.07 55.52 53.71 50.65 48.58 45.89 44.48 39.89 38.24
31.09 36.36 35.24 33.29 30.75 26.75 30.61 24.40 30.40 33.84 36.02 36.72 37.89 36.44 37.87 38.91 38.58 40.36 41.23 41.04 40.51 41.03 41.85 47.01 52.56 57.14 60.23 61.62 61.25 60.47 60.63 59.72 60.24 60.86 60.01 61.24 62.61 62.58 61.94 60.68 58.69 56.69 54.79 52.28 49.67 47.96 46.42 45.24 38.80
34.12 36.31 33.96 32.16 28.60 27.91 27.05 26.08 29.84 30.93 33.43 35.69 37.04 38.36 38.61 39.54 39.68 40.56 41.44 42.07 41.99 42.40 40.93 41.98 49.13 54.49 57.43 60.29 61.45 60.26 60.16 60.81 56.98 55.03 55.57 54.86 58.63 61.90 62.10 61.17 59.58 57.56 55.77 53.94 50.59 48.38 46.63 46.61 45.08
37.80 34.63 32.52 29.44 27.40 22.92 26.25 26.57 27.06 30.10 32.58 33.92 35.98 37.09 38.24 39.10 40.39 41.56 41.78 42.01 41.64 41.46 42.40 43.16 46.97 51.22 54.65 57.56 58.23 58.64 59.38 56.10 51.75 50.73 52.67 51.52 54.47 58.10 57.04 59.88 59.80 58.17 56.16 54.83 51.71 49.35 47.13 47.08 46.76
34.01 31.16 23.94 22.25 20.58 21.33 25.17 24.77 28.87 33.41 34.23 34.72 35.81 37.58 38.57 39.63 40.63 41.35 41.59 41.80 41.75 41.90 42.21 43.50 44.77 47.38 50.79 52.93 53.81 54.26 55.67 54.49 53.30 51.63 52.19 48.68 49.75 51.25 56.39 55.03 56.33 57.34 56.58 55.52 53.48 50.08 48.23 47.14 46.29
32.12 31.54 24.54 16.88 17.93 21.78 26.95 24.49 30.71 34.32 36.16 37.61 37.69 37.64 38.57 39.24 39.56 40.52 41.11 41.05 41.33 41.85 41.96 42.45 43.43 43.75 45.38 48.83 51.03 51.13 51.89 51.77 52.18 50.34 49.82 51.16 51.59 52.54 52.50 55.03 56.73 56.31 56.12 55.60 53.85 51.28 49.23 48.08 47.26
32.77 28.78 31.78 25.07 14.48 20.17 24.74 28.59 35.17 35.30 37.47 37.57 38.64 39.07 39.11 39.98 40.50 40.65 41.14 40.65 40.40 40.78 41.48 41.65 42.32 43.03 43.87 44.11 45.64 47.21 48.22 48.72 49.58 48.84 48.38 49.81 48.09 48.00 47.47 49.47 52.49 54.70 54.78 54.08 53.71 51.47 49.63 48.61 47.37
33.46 35.65 28.43 25.53 16.08 14.46 22.48 23.94 28.39 32.68 35.76 36.58 37.84 38.28 39.16 39.72 40.83 40.96 40.90 41.39 41.05 40.48 40.58 41.48 41.97 42.18 42.59 43.14 43.33 43.97 44.69 45.56 46.66 46.59 46.30 46.05 46.12 45.75 44.95 45.44 46.57 47.47 49.16 51.22 52.83 52.45 51.11 48.73 48.17
31.72 30.58 29.94 30.49 26.18 18.83 15.93 24.28 32.09 34.14 36.51 36.28 37.31 38.15 39.05 40.12 39.97 39.82 40.50 40.75 40.89 40.89 40.78 40.86 41.53 41.94 42.17 42.42 42.47 42.68 42.91 43.33 43.92 44.57 45.09 45.07 44.59 44.21 44.00 44.26 44.62 45.35 45.60 46.48 48.31 49.75 50.01 48.92 47.86
32.60 32.05 31.58 25.79 22.86 23.25 24.35 25.61 34.08 36.45 36.93 38.01 37.95 38.07 38.48 38.39 39.27 39.22 39.95 40.19 40.35 40.44 40.60 39.97 40.15 40.50 41.38 42.06 42.14 42.51 42.72 42.81 42.70 43.05 43.59 43.65 44.05 42.52 44.07 42.62 43.83 44.90 46.64 47.32 47.45 47.61 47.81 47.40 45.84

GFSSGP_sfc_wetblb_084.txt.gz
Wetbulb
55.71 52.83 51.22 49.36 43.55 37.87 33.57 36.13 39.57 40.65 40.49 43.04 47.74 46.40 46.85 48.11 47.07 39.34 58.23 62.47 64.34 65.86 68.58 70.00 71.16 70.72 69.84 69.71 69.28 69.74 70.03 70.17 70.16 71.33 71.05 70.29 69.27 68.30 67.84 67.25 68.01 68.88 68.03 67.86 68.33 67.64 67.34 66.79 66.83
54.06 53.25 50.47 43.66 37.63 32.69 33.49 37.39 40.04 41.61 43.58 48.11 47.41 47.30 47.93 45.52 54.95 56.82 59.22 63.06 65.05 66.97 68.37 69.12 70.37 70.94 70.13 69.92 70.01 69.84 69.31 69.61 69.54 71.06 70.91 69.66 68.81 67.59 67.45 66.93 67.53 68.46 67.84 67.96 68.43 67.95 67.14 66.36 66.16
53.24 50.54 47.46 40.20 33.32 32.78 33.55 36.72 40.17 40.89 44.53 42.55 45.44 48.61 48.23 49.35 54.13 58.00 59.92 63.97 66.00 66.91 68.10 69.17 70.18 70.75 70.23 70.39 69.80 68.93 69.18 69.68 69.70 70.21 70.24 69.54 68.29 67.24 66.93 66.46 67.15 67.91 67.37 67.69 68.37 67.17 66.92 66.14 65.77
50.39 48.34 44.14 37.38 32.93 36.47 36.73 38.09 41.22 41.97 43.47 44.82 46.42 45.77 50.19 56.43 57.72 59.85 62.58 64.54 65.83 66.60 67.83 69.34 70.42 70.58 69.73 69.57 68.84 68.46 68.37 68.77 69.15 69.67 70.14 69.46 68.12 66.55 66.43 66.26 67.22 67.53 67.53 67.43 67.45 67.42 66.62 66.23 66.38
46.44 44.07 38.71 35.44 35.36 37.43 38.09 40.86 42.27 41.19 42.27 44.33 45.40 43.43 49.33 56.19 60.44 61.08 63.22 64.54 65.36 65.95 67.27 69.12 70.10 70.31 70.18 69.37 68.60 68.42 68.23 68.17 68.77 69.53 69.56 68.57 67.16 66.28 65.95 65.93 66.42 65.95 66.26 66.53 67.77 67.30 66.89 66.95 66.59
43.48 41.89 35.76 32.88 34.33 37.09 41.32 41.44 41.85 41.02 39.90 43.21 46.38 48.79 50.91 55.69 59.83 61.63 63.35 62.86 65.58 65.78 67.31 68.69 67.33 68.41 69.10 69.10 68.83 68.66 68.48 68.45 68.52 68.93 68.82 67.29 66.55 66.12 65.66 65.54 65.92 65.59 65.26 66.94 67.88 67.51 66.73 66.17 65.87
42.17 38.68 35.17 34.84 34.27 36.81 40.29 42.83 39.65 40.48 41.01 43.10 49.25 46.76 47.16 53.33 60.45 62.60 62.60 62.46 64.47 65.91 66.94 67.83 67.48 66.96 66.37 67.34 67.57 67.81 67.89 67.85 68.31 68.44 67.56 66.17 65.81 66.41 65.64 65.80 65.94 64.89 65.07 66.12 66.41 65.97 65.68 65.34 64.83
43.04 40.25 35.01 34.75 35.34 36.00 40.26 41.72 40.50 41.19 41.85 43.95 49.17 43.34 44.09 55.43 60.76 62.04 62.29 62.29 63.50 64.93 66.04 67.69 66.93 66.45 66.02 65.74 64.70 65.43 66.15 66.37 66.91 66.51 65.80 64.68 64.62 64.81 64.58 63.75 65.23 65.22 64.88 65.31 65.08 65.35 64.97 64.41 63.73
43.13 38.32 34.91 37.17 36.65 38.24 38.59 40.06 39.60 41.84 42.11 43.66 45.02 46.51 48.90 58.68 60.96 60.95 60.52 61.77 62.92 64.47 65.70 66.97 67.55 66.66 65.60 65.33 63.71 63.48 63.88 64.20 64.21 63.40 62.03 60.65 60.14 59.95 60.10 61.44 64.17 64.75 64.12 65.14 64.75 64.02 63.72 62.61 61.84
41.02 36.66 38.25 39.57 38.77 38.68 40.39 40.04 41.43 42.21 41.67 43.13 44.10 47.40 52.75 58.96 60.26 60.01 60.23 60.71 62.55 63.35 65.25 65.95 66.37 66.44 65.77 66.28 64.07 63.61 62.81 61.92 61.44 60.77 60.20 59.21 57.87 57.58 59.06 59.39 61.92 63.26 62.51 64.38 63.60 62.62 60.05 56.58 53.99
38.82 37.60 39.64 38.98 40.01 41.74 42.01 38.83 41.53 40.59 39.82 42.53 43.48 45.71 53.81 56.61 58.69 59.95 60.43 61.12 62.10 63.83 64.50 65.26 65.46 66.12 66.38 65.97 64.90 63.14 61.72 60.10 59.37 59.10 58.64 57.64 56.22 56.09 57.03 57.55 57.84 58.02 58.05 58.44 58.08 55.47 53.40 52.87 52.77
39.44 39.23 39.87 42.14 41.74 41.56 41.03 41.22 39.52 40.13 42.35 41.63 43.40 46.99 53.48 56.51 58.13 59.31 59.56 59.32 61.14 63.79 64.18 65.05 65.38 65.36 65.82 66.06 65.35 65.00 63.39 59.41 57.97 57.76 57.63 56.33 54.82 54.39 54.89 55.82 55.60 55.57 54.48 53.22 52.14 51.99 51.84 51.72 51.89
37.54 37.71 39.81 41.09 40.65 39.95 41.84 39.93 39.08 39.81 42.14 41.18 42.77 49.60 53.08 57.38 58.35 59.25 59.56 58.91 59.83 62.40 63.99 64.59 65.02 65.02 65.58 65.53 65.16 64.82 64.34 60.59 58.30 57.08 56.94 56.24 54.75 53.67 53.74 54.40 54.42 54.24 52.94 51.31 50.87 50.70 50.80 50.31 50.44
40.54 38.95 39.06 40.06 39.45 39.49 37.80 37.31 39.86 39.08 39.14 39.60 42.12 45.67 51.33 54.85 56.80 55.49 57.40 58.26 58.65 61.46 62.46 64.30 64.37 65.03 65.28 64.81 64.56 64.41 64.25 63.37 58.74 56.86 56.75 56.09 55.14 53.71 53.23 53.10 53.50 53.27 52.53 50.79 50.12 49.76 49.17 48.58 48.75
39.44 36.83 37.01 36.73 38.77 37.85 38.61 35.32 38.02 39.33 38.13 38.80 40.37 40.87 46.45 51.37 51.74 56.18 58.89 59.07 59.26 60.38 61.34 62.39 64.16 64.75 64.79 64.49 64.49 64.43 64.66 63.95 61.47 57.70 57.07 56.27 55.35 53.90 52.94 52.37 52.40 52.43 51.92 50.62 48.74 47.91 47.09 46.68 46.87
35.88 33.89 31.61 34.42 38.20 37.39 35.82 32.24 35.86 38.01 38.63 38.64 37.95 38.30 40.42 43.79 50.83 52.93 55.30 56.71 57.93 58.25 59.97 61.82 63.76 64.06 64.48 64.56 64.41 64.37 64.38 63.98 63.11 60.37 58.27 57.30 57.27 56.04 54.56 54.08 54.26 53.69 53.19 51.68 49.57 48.79 47.35 46.92 47.26
33.01 28.03 29.63 33.13 38.04 36.95 34.60 32.69 36.62 38.25 38.83 37.99 37.98 38.53 38.93 40.03 41.56 46.12 51.99 53.85 55.39 57.47 58.42 60.52 62.53 63.02 63.61 64.27 64.67 64.73 64.66 64.32 63.26 61.65 59.34 59.10 57.94 56.81 55.62 54.81 54.41 53.77 52.95 51.52 49.56 47.04 46.79 44.93 44.02
29.13 28.80 28.96 29.30 33.93 36.00 33.72 35.45 37.78 38.71 38.43 39.49 38.77 38.15 38.52 39.04 40.94 41.96 43.67 50.19 53.38 54.93 57.29 59.90 61.68 62.85 63.15 63.90 63.43 63.12 64.13 63.85 63.27 62.16 60.76 60.03 58.92 57.68 56.40 55.45 54.10 53.52 52.70 50.71 49.30 45.88 44.36 42.91 43.70
32.07 31.41 30.18 31.90 35.84 34.41 32.98 33.75 37.04 38.98 37.62 38.32 38.41 38.25 38.39 39.12 41.61 41.29 42.22 42.02 47.15 51.56 54.04 57.31 59.44 61.63 62.43 62.47 62.27 62.32 62.65 63.35 63.43 63.63 61.94 59.82 59.88 58.56 57.05 56.36 54.45 53.55 52.37 51.87 49.62 44.91 42.54 40.28 39.83
31.68 30.11 30.14 32.54 35.77 34.79 32.50 34.23 36.69 37.29 38.21 38.18 38.80 38.03 37.91 37.72 39.01 39.97 39.89 39.16 40.47 45.00 51.42 54.36 58.01 60.12 61.67 62.79 62.87 62.72 62.57 62.59 63.33 63.81 63.54 62.09 60.28 59.65 57.95 57.31 55.41 53.80 52.78 51.69 48.97 46.11 41.91 40.13 40.17
30.57 30.27 30.08 30.44 31.35 31.88 30.13 30.82 31.51 34.43 34.61 36.83 37.22 36.78 36.41 36.79 36.99 38.54 39.29 38.90 38.30 38.67 41.49 50.04 54.06 57.54 60.32 62.19 60.32 55.69 56.08 55.75 59.72 61.92 62.77 62.92 62.34 61.04 59.87 58.14 57.25 54.91 54.24 51.74 49.95 48.14 46.36 42.94 37.11
29.43 35.08 33.83 32.84 29.85 26.99 29.77 24.17 29.64 32.50 34.64 35.11 35.36 35.80 37.07 37.79 38.74 39.24 40.11 40.28 40.50 40.75 39.18 41.18 48.29 53.23 56.47 59.19 59.52 59.43 60.29 59.35 60.61 61.49 62.60 62.57 62.63 62.62 61.18 59.72 58.26 56.45 54.99 53.32 51.02 49.46 48.91 48.53 41.90
32.78 35.66 33.32 30.74 27.93 27.27 25.61 25.20 29.65 29.87 31.27 34.44 35.58 35.77 36.67 38.20 38.75 40.10 40.30 40.57 40.27 41.14 41.24 41.31 42.76 48.51 53.77 57.35 60.16 59.36 59.44 59.76 57.83 56.15 57.34 60.76 60.98 61.97 62.21 60.95 59.23 57.76 56.43 54.97 53.14 50.42 48.30 49.19 47.51
36.10 32.87 31.13 28.17 26.24 22.23 24.80 25.32 26.63 28.87 31.72 33.21 34.17 36.81 37.94 38.63 39.20 40.08 40.46 41.02 40.85 40.61 41.78 42.60 45.97 48.09 51.39 54.99 56.80 57.06 58.26 56.46 53.21 52.05 53.64 55.98 58.39 59.84 60.87 60.70 60.40 59.06 57.59 55.92 54.31 52.00 49.83 49.53 49.84
32.59 30.38 23.34 21.58 19.96 20.82 23.54 23.86 28.21 31.13 32.53 32.72 35.41 36.55 37.17 37.73 38.94 39.63 39.83 40.39 40.72 40.71 40.80 41.96 42.76 44.18 48.29 51.32 53.14 54.04 54.91 54.46 53.46 52.29 52.02 50.44 52.66 53.20 57.75 58.03 58.83 59.32 58.31 57.01 55.53 52.68 50.87 49.38 49.15
31.21 31.04 24.39 17.03 16.96 20.95 25.95 23.61 28.85 31.94 35.64 36.15 37.28 36.96 37.28 38.41 38.53 39.32 39.72 39.64 39.70 40.09 40.59 40.96 41.38 41.84 42.92 45.62 49.07 50.49 51.35 52.45 52.16 51.53 50.55 50.94 51.00 53.41 55.46 56.28 57.20 57.51 57.91 56.87 55.39 53.26 51.11 49.77 48.77
31.67 28.18 30.74 23.95 12.60 18.43 23.70 27.47 32.18 34.19 35.07 36.12 36.67 37.23 37.90 38.57 38.77 38.97 39.43 39.52 39.52 39.56 39.68 39.99 40.77 41.47 41.80 42.09 42.65 43.78 45.65 47.38 48.47 48.78 48.24 48.67 48.31 48.62 49.01 50.10 54.59 55.50 55.72 55.35 55.21 53.39 50.95 50.06 48.65
33.02 34.33 27.75 24.56 14.81 13.87 21.88 23.84 26.42 31.57 33.91 34.58 35.29 36.79 38.26 38.55 39.10 39.09 39.28 39.43 39.97 39.28 39.16 39.89 39.67 40.21 40.73 41.45 41.77 42.16 42.35 43.00 43.64 44.29 44.85 45.30 46.10 45.51 45.44 45.74 46.47 49.67 52.86 54.03 53.96 53.58 51.59 49.63 49.12
30.88 29.73 28.90 29.49 25.46 18.14 15.55 23.45 30.43 34.38 34.81 34.73 35.97 37.53 37.18 37.87 37.46 38.07 38.99 39.28 39.55 39.97 40.03 40.05 40.21 39.99 40.20 40.55 40.61 41.01 41.48 41.83 41.92 41.96 42.44 42.94 43.27 43.23 43.29 43.47 43.77 44.59 45.07 46.44 49.47 51.09 51.35 49.82 48.37
31.23 31.14 30.89 25.54 21.82 21.79 23.12 24.61 33.72 36.45 35.77 36.74 36.91 37.13 36.36 36.87 38.13 38.31 38.69 38.83 39.06 38.81 39.01 38.76 39.16 38.85 38.75 39.16 39.56 40.14 40.65 40.95 41.05 41.47 41.90 41.80 42.13 41.93 42.31 41.98 42.02 42.65 43.34 43.82 44.64 45.99 47.55 47.77 47.72

GFSSGP_sfc_wetblb_087.txt.gz
Wetbulb
57.53 54.40 54.12 52.15 47.02 41.87 39.07 41.45 45.59 45.42 46.05 48.61 52.42 52.28 52.09 52.03 50.50 44.62 61.20 64.24 65.80 67.72 69.07 71.01 71.14 70.97 70.33 70.40 70.69 71.13 71.34 71.13 71.70 71.25 70.37 69.64 68.72 67.90 67.75 68.25 68.00 69.14 68.54 68.04 67.64 67.39 67.33 67.44 67.72
55.39 54.19 52.44 47.08 41.27 36.82 38.06 41.93 43.70 45.96 48.45 50.61 50.23 51.17 51.16 49.84 58.18 58.43 61.06 64.21 67.08 68.17 69.72 70.34 69.93 70.68 70.35 70.01 70.29 70.47 70.80 70.84 71.40 70.96 69.85 69.23 67.79 67.56 67.57 67.92 68.78 68.28 68.67 68.59 67.47 66.80 66.62 66.47 66.89
54.44 51.55 49.00 42.64 36.98 37.30 37.82 41.46 44.55 46.11 48.92 48.36 49.73 52.19 52.35 52.92 58.28 59.94 62.50 65.06 67.43 68.28 69.67 70.01 70.08 70.84 70.22 70.47 70.19 69.99 70.24 70.49 71.06 70.47 69.62 68.34 67.34 67.17 67.06 67.74 68.54 67.78 68.39 68.28 67.52 66.70 66.28 66.14 66.27
52.12 49.96 46.15 41.57 40.25 40.80 41.34 42.86 44.98 45.71 46.61 48.34 50.62 49.62 54.08 59.20 59.70 61.67 63.91 66.03 67.06 68.27 69.73 69.59 70.38 70.66 70.19 70.10 69.32 69.22 69.87 70.29 70.10 70.62 69.40 68.17 66.94 66.70 66.78 67.83 68.16 68.08 68.16 67.98 67.64 66.68 66.20 66.56 66.41
48.15 46.86 41.50 39.33 39.67 40.88 41.37 44.73 44.91 44.76 45.77 48.05 49.16 48.44 53.82 59.18 62.04 62.70 64.57 66.16 66.48 67.85 69.72 69.72 69.69 70.08 70.02 69.73 68.97 69.02 69.42 69.67 69.96 70.11 68.96 67.65 66.54 66.28 66.41 67.09 67.31 66.32 67.19 67.58 67.21 67.03 66.86 66.99 67.02
45.67 44.47 39.03 37.27 38.60 40.96 44.06 44.91 45.19 44.93 45.62 47.43 49.56 51.66 54.73 59.36 61.07 62.91 64.81 65.89 67.11 67.36 69.38 69.79 67.28 68.32 69.04 69.13 69.07 69.00 69.22 69.43 69.79 69.46 68.32 66.88 66.27 65.94 65.94 66.38 66.39 65.52 67.95 67.78 67.40 67.16 66.65 66.67 66.52
44.51 41.72 38.83 37.68 38.30 41.38 44.07 44.64 43.74 44.05 44.88 46.63 51.65 49.51 52.64 57.38 62.05 63.46 64.18 65.89 66.90 67.62 68.94 69.36 69.26 67.90 66.16 67.08 67.34 67.83 68.32 68.67 69.07 69.09 67.17 66.04 65.36 66.35 66.48 66.65 66.04 64.98 66.09 67.25 66.43 66.46 66.13 66.23 65.71
44.18 42.38 38.54 37.72 38.07 39.93 42.68 44.29 44.07 44.90 45.06 49.30 52.28 47.16 49.39 58.30 62.33 63.20 63.53 64.77 66.08 67.16 68.01 68.24 68.49 68.27 67.99 67.94 64.54 65.33 66.24 67.07 67.21 66.59 64.88 63.89 64.28 64.85 64.62 63.86 65.43 65.49 65.85 66.50 66.10 65.24 65.40 64.79 64.39
45.95 40.24 37.49 39.00 38.40 40.77 41.62 43.31 43.76 45.56 45.74 46.06 50.41 49.70 53.05 60.09 62.42 62.10 62.03 62.80 64.51 65.61 66.45 67.07 67.58 67.57 67.33 67.18 64.91 63.67 63.85 64.53 64.27 64.02 62.02 61.92 64.09 63.68 63.14 62.19 64.30 64.23 64.52 65.32 64.77 64.55 63.91 63.12 62.54
43.33 39.09 40.22 41.79 41.24 41.17 41.90 43.16 44.13 44.27 44.15 45.08 46.67 49.80 56.37 60.50 61.46 60.82 60.70 60.76 62.54 63.19 65.10 66.07 66.74 66.71 66.87 66.45 65.82 65.85 64.85 65.36 64.88 64.44 63.60 62.71 62.09 62.24 62.12 61.04 62.19 62.92 62.55 64.59 63.94 62.78 60.35 59.19 60.67
41.80 40.01 41.39 41.54 42.06 42.68 42.41 41.69 43.59 43.51 42.19 44.99 45.67 47.81 56.20 58.96 60.25 60.42 60.86 61.53 62.13 63.70 64.19 65.07 66.04 66.52 66.62 66.13 65.50 65.49 64.43 63.79 63.57 63.30 62.33 61.08 60.06 61.24 62.08 62.56 62.66 62.67 59.77 61.70 60.95 59.74 58.81 58.80 59.42
40.55 40.85 40.99 43.38 43.00 42.37 42.16 42.58 41.67 42.46 44.95 44.79 45.71 49.65 56.38 58.04 59.20 60.00 60.61 61.28 62.41 63.34 63.96 64.71 65.67 65.89 66.16 66.03 65.19 65.27 63.79 62.56 62.01 62.01 61.55 59.90 58.92 59.76 60.58 61.01 61.26 61.00 60.86 60.21 58.68 57.88 57.36 57.43 57.49
39.95 40.40 41.11 42.49 41.90 41.14 42.33 40.66 41.44 42.04 43.79 43.41 44.80 50.82 55.62 58.51 59.42 60.46 61.48 61.58 62.51 63.31 64.17 64.57 65.48 65.49 65.78 65.53 65.39 64.85 64.59 62.36 61.47 60.97 60.74 59.83 58.40 58.43 59.39 59.81 60.05 59.64 58.54 58.04 56.68 56.49 56.28 56.13 55.93
40.88 40.03 40.63 40.80 40.71 41.20 39.86 38.72 39.81 40.82 41.72 41.79 44.60 46.81 51.86 56.81 58.32 58.41 59.39 60.42 61.14 63.61 64.19 64.95 64.89 65.41 65.77 65.59 65.21 64.71 64.81 63.90 61.29 60.37 60.20 59.52 58.61 57.73 58.16 58.65 58.68 58.67 57.76 56.24 56.12 55.67 55.56 55.24 55.03
39.98 38.15 38.30 39.18 40.27 39.54 40.23 37.81 39.26 40.13 39.95 40.94 42.15 43.07 46.93 52.11 56.02 58.53 60.42 60.50 61.05 62.65 64.08 64.41 64.56 65.38 65.15 65.43 65.06 65.15 65.05 64.50 62.12 60.19 59.66 59.22 58.54 57.43 57.06 57.64 57.81 58.18 57.07 55.14 53.65 52.60 53.07 53.05 53.08
36.47 35.52 33.78 36.81 39.13 39.24 38.76 35.04 37.38 39.96 39.59 40.71 40.78 40.95 41.63 44.08 51.55 55.54 58.07 59.81 60.21 61.16 62.11 63.97 64.30 64.65 64.89 64.97 65.01 64.87 64.86 64.40 63.74 61.55 59.74 59.01 58.19 56.91 55.69 55.41 56.07 56.10 55.36 53.92 51.77 51.23 50.30 50.16 49.66
33.07 30.74 31.24 33.54 38.10 38.12 37.08 35.16 37.84 40.22 40.19 40.18 40.49 40.96 40.88 41.19 42.63 44.97 52.71 56.95 59.08 60.47 61.26 62.38 64.05 64.02 64.14 64.62 64.73 64.51 64.42 64.10 64.00 63.35 60.99 59.43 58.33 57.94 57.10 55.56 55.84 55.55 55.54 54.87 51.69 50.04 50.70 48.66 48.46
31.04 30.12 30.07 30.66 35.17 36.26 35.00 36.69 38.47 39.98 39.22 40.41 40.06 40.38 40.53 40.89 42.66 43.76 44.35 48.76 54.99 57.42 59.65 61.79 62.86 64.08 64.04 64.16 64.24 64.06 64.00 63.77 63.91 62.64 61.27 60.35 59.38 57.72 56.75 56.29 55.47 54.86 53.97 53.61 53.00 51.13 49.83 48.94 50.43
33.30 30.96 30.70 32.53 36.96 36.11 34.68 34.91 37.78 39.37 38.87 39.10 39.74 39.63 39.91 40.43 42.32 42.25 43.01 43.38 45.09 52.99 56.24 59.14 61.05 62.86 63.63 62.95 62.50 62.50 62.27 63.00 63.30 62.96 62.33 60.86 60.22 59.10 58.05 57.77 55.96 55.09 53.60 53.37 52.51 50.27 46.88 46.62 45.16
32.49 31.08 30.15 33.05 36.07 35.70 34.15 35.61 37.72 38.11 38.44 38.78 38.78 38.78 39.02 38.80 39.47 40.41 41.47 42.00 42.90 45.59 51.57 55.37 58.95 61.24 62.87 63.68 63.84 63.80 63.20 63.27 63.73 63.44 62.95 61.64 60.78 59.66 58.60 57.99 56.52 55.68 55.00 52.99 51.39 48.27 44.60 48.23 43.78
30.80 31.38 30.64 31.27 32.16 32.47 30.65 32.17 33.16 35.49 36.26 37.09 36.52 37.64 38.79 38.93 40.05 40.99 41.94 41.96 42.88 42.06 42.40 49.76 55.01 58.88 61.65 63.18 62.71 59.54 60.20 59.63 62.49 62.46 62.76 62.46 60.79 60.54 59.19 58.38 57.82 55.84 55.09 53.29 52.36 50.65 48.77 46.56 41.84
29.97 34.48 33.71 32.62 30.65 27.62 30.56 26.24 31.47 32.45 35.38 35.49 35.93 36.40 37.96 39.28 40.66 40.99 41.29 42.15 42.28 43.50 43.79 42.75 46.38 53.65 57.88 61.39 61.59 61.38 61.26 60.29 61.93 62.66 62.86 62.85 62.32 60.97 60.24 59.18 58.08 56.88 55.40 54.57 53.02 51.97 51.21 50.15 45.62
32.48 34.54 33.19 31.38 28.88 28.28 28.09 27.24 30.82 30.74 32.95 34.74 36.11 37.88 38.91 39.63 40.11 40.76 41.24 42.08 42.33 43.18 44.05 46.16 47.11 47.78 51.99 57.69 60.91 60.23 60.82 61.47 60.55 59.96 60.54 62.11 62.09 62.59 61.84 60.58 59.14 58.33 56.68 55.86 54.63 52.54 50.77 50.86 50.57
35.19 32.86 31.13 28.65 26.89 23.27 25.43 26.52 27.79 30.05 32.75 34.02 36.78 38.11 38.90 39.65 40.22 40.68 41.48 42.03 42.28 42.90 43.64 44.65 46.20 47.32 52.59 55.23 57.62 58.70 59.33 58.70 57.46 56.92 57.30 58.81 60.98 60.89 61.37 61.02 60.40 59.11 58.27 56.91 55.51 54.11 52.67 51.45 50.61
32.89 30.75 24.03 22.79 21.06 21.74 24.00 24.67 29.08 31.64 33.90 35.94 37.28 38.07 38.47 38.87 39.67 40.11 40.51 40.89 41.26 41.39 42.06 43.49 43.99 43.88 45.84 51.05 54.43 55.97 57.07 57.27 56.93 56.29 55.74 54.74 54.36 55.03 58.33 59.02 59.14 59.67 59.16 58.28 56.68 54.66 52.86 50.86 50.80
31.04 31.09 25.75 18.86 18.14 21.86 25.54 24.26 29.28 32.82 34.63 37.18 37.63 37.71 37.97 38.54 39.03 39.20 39.69 40.04 40.25 40.24 40.94 41.95 42.50 42.83 43.45 44.56 45.48 48.38 50.81 53.00 53.80 53.68 53.77 54.06 54.17 55.47 56.77 57.64 57.99 58.12 58.06 58.06 57.07 55.71 53.97 52.78 50.85
31.90 28.77 30.90 23.75 12.77 18.92 24.53 28.00 32.29 34.36 35.04 36.02 37.41 37.97 37.78 38.00 38.43 38.97 39.82 40.00 40.04 40.18 40.21 40.65 41.53 41.82 42.08 42.66 43.54 44.02 44.77 45.42 46.10 47.05 48.89 50.04 50.53 50.52 51.20 51.74 53.32 55.30 55.52 56.65 56.50 54.91 53.31 52.14 51.17
32.13 33.70 27.86 24.54 14.98 14.45 22.01 24.21 26.93 31.35 33.75 35.31 36.42 37.09 37.39 37.80 38.81 39.44 39.64 39.84 39.99 39.59 39.86 40.32 40.29 39.75 40.07 41.15 42.07 42.59 43.05 43.71 44.15 44.67 44.82 45.22 45.93 46.74 47.10 47.63 48.27 49.37 51.85 53.31 53.80 54.05 53.58 51.47 51.19
31.07 29.90 28.73 29.33 25.60 17.39 15.37 23.72 29.91 34.94 35.21 34.68 36.20 36.98 37.03 37.17 38.28 38.85 39.13 39.23 39.14 39.11 38.89 38.84 38.57 38.14 38.06 38.93 39.99 40.59 40.94 41.55 42.15 42.42 42.81 43.19 43.67 44.00 44.30 44.86 45.42 46.04 46.85 48.14 49.78 50.81 51.27 51.17 50.86
31.60 31.08 30.69 25.82 21.41 20.96 22.41 24.66 32.66 36.37 35.61 36.44 36.57 36.82 36.90 38.33 38.25 37.85 38.26 38.27 38.10 37.89 37.84 37.59 37.36 37.11 36.69 37.25 37.88 38.00 38.39 38.71 38.89 39.19 39.84 40.63 40.85 41.47 42.08 42.36 42.68 43.62 44.47 45.38 45.37 46.10 47.55 48.10 48.05

GFSSGP_sfc_wetblb_090.txt.gz
Wetbulb
61.45 60.24 61.79 59.71 52.30 51.41 45.67 46.93 51.85 50.85 51.95 54.70 58.06 56.39 54.94 56.36 52.30 50.15 65.19 66.91 68.36 68.72 71.07 70.62 70.83 70.65 70.33 70.78 71.61 71.64 72.12 71.77 71.29 70.56 69.73 68.38 68.06 68.49 68.16 68.32 69.42 68.91 67.81 67.80 67.68 68.17 68.09 68.42 68.12
59.76 58.10 60.74 57.18 49.48 44.20 44.67 48.48 49.93 51.96 52.56 56.38 55.19 55.16 54.03 53.45 60.80 62.08 63.93 66.41 68.44 69.90 70.21 70.04 69.98 70.78 69.92 70.15 71.12 71.29 71.53 71.55 70.96 70.15 69.02 68.03 67.69 68.17 67.97 67.85 69.03 69.53 68.39 67.26 67.21 67.12 67.02 66.79 67.23
58.27 56.81 56.09 53.06 49.72 44.95 44.58 48.67 52.32 51.58 53.88 53.89 53.48 56.43 55.77 55.57 61.24 63.57 65.86 67.41 68.56 69.89 70.86 70.18 69.99 70.74 69.78 69.84 70.05 70.57 71.45 71.56 71.23 69.67 68.30 67.77 67.32 67.80 68.03 68.08 68.49 68.92 68.00 67.27 66.84 66.61 66.48 66.25 66.58
58.06 57.38 54.16 49.03 45.75 46.17 46.50 49.34 51.26 52.40 51.35 52.38 55.08 53.11 58.73 62.39 62.85 64.87 66.75 67.81 68.01 69.97 70.64 69.36 70.45 70.51 69.98 69.76 69.58 69.93 70.75 70.98 70.65 69.33 68.25 67.37 66.93 67.31 67.78 68.11 67.68 69.10 68.17 67.47 66.43 66.63 66.38 66.37 66.60
56.63 55.55 49.47 47.10 45.48 46.56 47.60 49.64 52.50 51.64 51.15 52.40 53.99 52.11 56.14 62.22 64.83 65.69 66.49 67.22 67.26 69.43 70.49 70.01 69.95 70.26 70.17 69.61 69.28 69.73 70.15 70.29 70.74 69.41 67.84 67.02 66.67 66.98 66.97 67.52 67.52 68.33 67.52 67.17 66.89 66.89 67.37 66.97 66.51
53.56 54.00 47.12 44.99 45.05 46.84 49.19 50.46 51.40 51.15 51.15 52.58 53.03 53.96 57.11 63.91 63.93 65.70 66.68 67.05 68.33 69.31 70.15 69.70 67.25 68.37 69.20 69.43 69.49 69.57 69.92 70.29 70.12 68.75 67.49 66.74 66.30 66.50 66.63 66.32 66.49 68.25 67.93 67.58 67.56 66.79 66.68 66.65 66.30
52.18 50.91 46.98 46.49 45.27 46.65 48.69 51.23 50.66 50.63 50.74 51.62 55.98 52.07 57.55 62.42 64.70 66.33 66.33 67.48 68.49 69.74 70.02 69.81 69.09 67.99 66.38 67.34 67.64 68.42 69.10 69.78 69.64 68.53 67.64 67.05 66.79 66.86 67.01 66.81 65.98 66.91 68.01 67.01 66.57 66.42 66.75 66.37 65.54
53.28 51.97 45.65 45.81 44.74 44.85 49.77 49.93 50.11 50.37 49.74 53.95 57.23 50.38 53.47 62.75 65.51 66.28 66.36 67.08 67.87 68.98 69.70 69.80 69.43 68.54 68.12 68.25 64.84 65.73 67.02 67.57 67.62 66.24 64.94 64.10 64.78 64.93 64.74 64.41 65.43 65.33 66.83 66.45 65.69 65.56 65.53 65.26 64.48
51.28 48.01 45.18 45.80 45.03 46.20 48.45 48.91 48.83 50.64 51.02 52.59 55.65 54.04 58.56 65.21 65.67 64.93 64.83 66.07 66.98 67.44 68.30 68.92 69.16 68.50 68.00 67.98 65.65 64.02 64.56 64.97 64.56 63.94 62.13 63.08 65.77 65.01 64.37 63.15 64.33 64.63 65.35 65.53 65.39 64.78 64.02 63.47 62.96
51.09 47.61 47.38 49.32 49.01 48.18 48.56 50.06 49.72 49.42 49.60 50.07 52.12 54.49 61.13 64.59 64.52 63.32 63.28 63.85 65.16 65.68 66.49 67.15 68.11 68.63 67.99 66.98 67.61 67.47 66.79 67.42 67.24 67.24 66.59 65.93 65.20 64.70 63.69 62.18 62.17 62.87 62.62 64.83 64.45 63.04 60.39 61.06 64.01
48.60 47.35 48.03 47.07 47.28 48.59 48.96 48.02 49.91 49.54 48.11 50.89 51.12 53.25 60.17 63.39 63.61 63.02 63.43 64.20 64.81 66.07 66.01 66.11 66.87 67.68 68.19 67.41 67.81 67.53 66.94 66.91 66.90 66.81 66.37 65.34 64.10 63.99 64.00 64.62 64.04 63.81 60.68 62.90 62.28 62.24 62.81 61.91 63.14
46.31 45.70 46.91 46.41 47.30 46.92 47.67 48.69 47.90 49.26 49.86 50.50 51.92 54.22 60.13 62.23 62.88 62.95 63.11 63.84 64.56 65.48 66.28 66.17 66.74 66.76 67.19 67.52 66.97 67.59 66.69 66.34 65.93 66.04 65.68 64.28 63.28 63.46 63.31 63.36 63.75 63.61 62.95 62.63 62.90 62.51 62.47 62.25 62.25
46.21 45.90 46.40 46.78 46.37 47.05 46.96 46.79 47.60 48.15 50.33 49.47 49.76 53.76 58.09 61.24 62.68 63.98 64.70 64.99 65.12 64.95 66.00 66.64 66.45 66.34 66.66 66.41 66.15 66.15 66.83 65.92 65.72 65.44 65.23 64.32 62.91 62.68 62.91 62.81 63.02 62.91 62.77 62.31 61.64 61.52 61.20 61.27 61.31
46.13 46.65 46.17 46.36 46.00 46.33 46.32 45.66 46.12 47.08 47.48 47.63 48.97 52.14 56.30 60.12 62.13 63.48 64.01 64.34 64.80 65.73 66.32 67.15 66.78 66.46 66.20 66.48 66.43 65.65 65.63 66.75 65.74 65.06 64.80 64.24 63.36 62.53 62.16 62.17 62.02 62.12 62.21 61.80 61.03 60.66 60.55 60.59 60.63
45.62 43.92 44.75 45.08 45.46 45.21 46.17 44.47 44.61 46.91 45.91 46.21 48.13 50.28 52.50 57.39 61.87 62.45 63.93 64.31 65.32 66.20 67.39 67.03 66.76 66.51 66.16 66.28 66.44 66.13 65.77 65.26 65.91 65.24 64.62 63.98 63.30 62.40 61.52 61.43 61.49 61.51 61.42 60.70 59.63 58.55 58.20 59.05 59.30
42.84 44.33 41.17 42.51 44.48 44.69 44.49 42.92 43.06 46.63 46.01 46.61 47.03 48.65 49.20 51.41 57.35 61.90 63.89 64.69 65.78 66.27 66.48 67.26 66.19 65.55 65.91 66.12 66.42 66.17 66.32 65.94 65.48 65.19 65.15 63.82 63.16 61.53 58.73 58.60 59.16 59.75 59.32 59.44 58.32 56.97 54.13 54.67 55.07
41.37 39.37 39.15 39.07 43.22 43.65 43.14 43.15 43.44 45.86 46.75 46.77 47.82 48.33 48.18 48.84 49.70 52.56 58.97 63.03 64.70 65.43 66.03 66.45 66.92 65.90 65.26 65.69 66.03 66.15 66.02 65.84 65.97 65.16 64.60 64.91 63.40 62.19 59.69 59.62 59.59 58.48 57.68 56.38 56.70 56.78 56.35 55.23 55.95
38.43 37.75 38.29 39.31 41.41 42.47 41.77 42.88 44.93 45.87 45.43 47.67 48.42 48.75 49.02 48.73 49.41 50.10 50.73 52.40 59.13 63.69 65.33 65.95 66.65 66.57 65.70 65.39 65.85 65.69 65.34 65.36 65.67 65.21 63.94 65.31 64.36 63.05 61.70 61.81 60.87 59.12 58.49 56.74 56.15 54.59 55.45 55.75 56.30
41.62 38.51 38.97 39.16 41.84 41.46 41.58 42.42 44.59 46.55 46.02 47.18 48.13 47.86 47.42 47.96 47.97 48.00 48.29 49.23 50.62 55.45 61.45 64.00 65.03 66.16 65.48 63.87 63.58 63.52 63.03 63.91 64.17 64.42 64.00 64.62 64.99 63.74 62.10 61.69 60.71 59.11 58.65 58.87 57.68 55.41 52.59 50.95 52.35
38.86 39.45 38.13 39.55 40.58 41.29 39.91 41.75 44.75 44.89 43.91 43.95 44.24 45.29 45.15 46.87 48.03 48.24 49.15 49.28 47.91 50.31 54.08 58.63 62.31 64.43 65.48 64.58 63.99 64.13 63.95 64.25 64.56 64.45 63.82 63.71 65.03 64.11 62.71 61.96 61.26 58.54 56.84 57.01 56.07 53.96 53.44 50.61 49.47
38.38 38.77 37.50 38.43 38.71 39.27 38.24 39.69 40.80 41.23 42.17 42.95 42.86 43.92 45.11 45.91 46.87 48.24 49.20 50.26 51.31 49.44 48.63 52.94 57.73 61.43 63.88 65.20 64.52 63.73 62.33 62.13 63.37 63.79 63.28 63.07 63.00 63.10 63.36 62.24 61.66 60.24 57.17 55.97 55.50 53.51 51.93 51.84 50.08
36.31 40.05 39.57 37.92 38.87 35.84 37.81 35.12 39.70 39.67 41.14 42.23 44.12 45.79 46.49 47.11 47.59 48.13 48.97 49.26 50.04 50.86 51.98 48.29 51.63 56.99 60.37 63.13 63.29 61.70 60.84 60.49 62.13 62.64 63.51 63.51 62.55 61.94 61.65 60.88 60.18 59.32 57.16 55.88 56.36 54.89 54.49 54.05 49.71
38.09 40.16 39.04 38.38 38.18 37.55 37.20 35.96 39.34 38.26 39.35 41.67 44.00 45.16 46.12 46.78 47.79 47.45 47.79 48.33 49.05 50.44 52.39 54.70 53.63 52.16 55.91 60.10 61.94 61.29 60.77 61.59 62.35 62.83 63.05 63.48 63.57 62.69 62.00 61.24 60.22 59.30 58.64 57.06 57.17 55.22 54.08 53.81 52.78
39.45 38.97 37.88 37.03 36.94 31.68 36.39 36.10 37.39 38.24 40.04 41.51 43.35 44.60 45.47 46.07 46.60 47.10 47.48 48.55 48.90 50.30 50.87 51.90 52.64 55.27 57.75 57.71 59.68 60.72 60.57 60.89 61.10 61.69 62.14 62.55 63.13 63.24 62.75 61.54 60.92 60.25 59.46 58.00 57.22 56.38 54.64 53.52 53.17
39.20 38.86 31.54 30.41 30.43 30.21 31.46 31.97 39.09 38.42 40.36 44.27 43.79 44.34 45.18 46.27 46.95 47.06 47.03 47.14 47.30 47.88 48.93 49.15 49.98 49.38 52.32 56.32 55.71 56.63 57.47 58.48 58.29 57.84 57.75 57.58 57.84 57.86 59.05 59.64 59.52 59.84 59.46 58.85 57.85 56.61 55.39 53.91 52.84
38.10 38.51 33.41 26.49 25.97 29.95 29.97 30.39 37.22 39.59 41.00 44.52 44.86 44.81 44.64 45.40 46.23 46.13 46.23 46.62 46.57 46.89 47.89 48.35 48.01 47.84 49.21 50.20 50.49 51.64 53.08 55.16 55.74 55.67 56.05 57.39 57.29 57.67 57.83 57.75 58.29 58.70 58.57 58.89 58.55 57.23 55.83 55.01 53.24
36.63 34.36 37.23 29.03 22.79 30.16 33.63 35.71 37.86 39.18 40.23 42.21 42.66 43.77 44.30 45.11 45.89 45.70 45.83 46.21 46.09 45.84 45.75 46.61 46.62 46.39 47.15 48.08 48.91 48.92 49.50 49.80 49.75 50.27 50.99 51.13 51.53 50.67 51.21 52.73 53.58 54.88 55.57 55.78 55.63 55.71 55.12 54.36 53.66
38.42 39.39 33.27 34.10 26.54 26.23 29.57 31.40 36.57 36.09 39.12 41.60 41.85 43.22 43.27 44.23 44.84 45.09 45.22 44.95 44.90 44.95 44.98 45.13 44.91 44.32 45.06 45.96 46.24 46.19 46.34 46.93 47.34 47.63 46.98 47.27 47.99 48.30 48.54 49.29 50.07 50.75 51.67 52.58 53.65 54.20 54.49 54.53 53.73
35.08 34.94 34.65 36.53 33.80 31.05 27.56 32.67 40.34 39.71 42.00 41.48 43.14 43.91 43.87 44.40 44.43 44.11 43.86 43.97 44.05 44.39 44.37 44.05 43.76 43.38 43.35 43.85 44.22 44.28 43.84 44.06 44.37 44.12 44.01 43.90 44.86 44.62 44.94 45.40 46.09 46.96 47.89 49.02 49.63 50.39 51.16 50.71 50.96
36.79 36.94 37.27 33.58 28.45 30.03 30.59 34.74 37.67 42.33 43.57 43.53 42.65 42.29 43.55 44.22 43.58 43.75 43.63 43.79 43.33 43.12 43.10 42.57 42.42 41.75 41.45 41.97 42.30 41.75 41.67 41.74 41.49 41.09 40.98 41.20 40.99 41.69 41.72 42.10 42.69 43.38 44.11 44.97 45.48 46.16 47.44 47.56 47.41

GFSSGP_sfc_wetblb_093.txt.gz
Wetbulb
64.07 61.14 61.50 60.37 52.46 50.71 46.31 47.92 53.73 53.03 53.19 57.36 58.72 56.69 54.73 55.76 53.14 53.06 66.97 68.22 69.14 69.54 70.19 69.78 70.95 70.91 71.12 70.87 71.62 72.28 71.96 71.13 70.58 69.46 68.62 68.64 68.64 68.32 68.23 69.03 69.22 68.70 67.46 68.08 68.09 68.31 68.82 68.59 67.91
60.80 59.11 60.61 57.38 49.64 44.56 45.04 50.26 50.17 53.06 55.21 58.80 57.52 55.59 54.54 54.66 62.04 62.95 64.94 68.28 69.09 70.08 69.31 69.42 69.80 70.78 70.62 71.28 71.66 72.07 71.64 71.04 70.11 68.84 68.27 68.26 68.53 68.34 67.91 68.81 69.31 68.08 67.55 67.51 67.43 66.97 66.78 67.57 67.41
60.13 58.28 56.18 53.18 49.45 44.90 44.81 49.29 52.49 54.22 56.64 56.79 54.82 57.05 55.90 56.17 62.78 64.52 67.56 68.55 68.98 69.06 69.31 69.89 70.08 70.16 69.99 70.54 70.75 71.70 71.65 71.33 69.83 68.45 68.01 67.84 68.43 68.11 67.75 69.38 69.16 68.57 67.28 66.96 66.70 66.45 66.82 67.03 67.08
58.50 58.58 56.58 49.74 46.50 47.72 48.10 50.83 53.77 53.97 53.97 55.20 55.10 53.38 59.44 63.05 64.03 66.35 67.73 68.12 68.43 69.45 69.17 69.16 70.35 70.16 69.56 69.91 70.25 70.81 71.44 71.21 70.07 68.16 67.59 67.41 67.99 67.70 68.13 68.04 69.04 68.44 67.07 66.44 66.91 66.69 66.57 66.67 66.31
58.57 56.88 50.49 48.21 47.31 48.30 49.80 52.33 53.75 52.75 52.34 53.56 54.26 52.69 56.95 63.03 66.26 66.97 67.30 67.58 68.33 69.44 69.33 68.92 69.97 70.16 69.93 69.83 69.91 70.38 70.72 70.79 69.76 68.13 67.37 67.02 67.52 67.16 67.80 67.50 68.43 67.80 67.12 66.90 67.16 67.65 67.01 66.63 66.41
54.09 55.48 47.67 45.48 46.82 48.34 50.56 52.94 53.56 52.07 52.15 53.33 52.59 53.37 57.91 64.80 65.13 66.41 67.21 67.15 69.16 69.29 69.07 68.92 67.10 68.49 69.19 69.53 69.92 70.27 70.62 70.58 69.36 68.09 67.07 66.63 66.98 67.28 66.98 66.53 67.94 68.04 67.67 67.38 66.71 67.04 66.76 66.63 66.04
52.86 52.06 48.10 48.09 46.87 47.52 49.89 53.52 51.79 51.38 51.15 51.89 55.64 52.04 58.77 62.82 65.89 66.85 67.08 67.39 68.83 69.73 68.40 68.40 68.30 67.37 66.77 67.63 67.97 68.89 70.01 69.76 68.94 68.27 67.81 67.11 67.15 67.32 67.25 66.41 67.05 68.30 67.48 66.68 66.65 66.40 66.53 66.14 65.28
53.90 53.29 48.80 48.77 46.58 46.37 51.42 52.21 52.83 51.66 50.77 55.75 57.56 51.05 54.47 62.78 66.22 66.72 66.96 67.14 68.31 69.26 68.62 68.59 68.20 67.79 67.75 67.68 65.24 66.37 67.58 67.99 67.24 66.00 64.95 64.63 64.80 64.99 64.95 64.16 65.39 67.30 66.98 66.07 65.71 65.97 65.70 65.13 64.28
54.50 48.86 46.69 47.68 47.39 47.82 51.93 50.29 51.49 52.70 51.81 54.19 56.07 55.68 60.72 65.05 66.09 65.42 65.27 66.13 67.15 67.50 68.09 68.35 68.13 67.72 67.74 67.67 65.27 64.49 65.09 65.29 64.16 63.65 62.37 62.68 64.95 64.69 64.16 62.88 64.24 65.65 66.02 65.92 65.56 64.83 64.07 63.68 62.80
51.19 48.34 48.49 51.22 50.72 49.12 50.92 50.93 50.70 49.96 50.51 51.10 53.94 57.88 63.63 64.67 64.63 63.76 63.72 64.32 65.45 66.28 67.43 68.21 68.44 68.18 67.68 66.82 66.89 67.08 67.12 67.12 67.01 66.63 65.58 66.14 65.20 64.60 64.05 61.95 61.98 62.80 62.94 65.10 64.49 63.35 61.03 60.93 63.25
51.35 48.32 51.00 50.09 50.34 51.22 50.81 50.71 52.02 50.13 48.96 51.34 51.68 55.10 62.02 63.41 63.59 63.55 63.90 64.94 65.54 66.72 67.43 66.89 67.94 68.74 68.10 66.97 67.29 67.42 67.06 67.26 67.18 67.17 66.78 65.89 64.67 63.68 63.85 64.21 63.04 63.09 60.32 62.75 62.41 62.03 62.53 62.43 62.10
47.55 48.17 49.74 49.12 49.00 49.60 49.88 51.42 49.71 50.80 50.65 52.86 53.95 56.44 60.95 61.71 62.12 62.84 63.44 64.49 65.53 66.25 66.88 67.28 67.12 67.49 68.53 68.15 67.53 67.56 66.85 66.94 66.57 66.72 66.55 65.32 64.12 63.93 63.80 63.75 63.92 63.84 62.65 62.57 62.55 62.28 62.16 61.84 61.84
48.51 47.76 48.68 49.01 48.15 49.60 49.65 49.17 49.05 49.60 52.17 51.86 52.12 55.32 58.80 60.90 61.90 62.94 63.88 64.95 65.64 65.60 66.66 67.16 67.80 66.41 67.05 67.41 67.67 67.70 67.23 66.59 66.60 66.42 66.23 65.30 64.03 63.75 63.69 63.46 63.50 63.21 62.70 62.17 61.75 61.46 61.29 61.28 61.43
49.21 48.91 48.24 48.67 48.14 48.23 47.89 47.89 47.82 49.63 50.80 50.61 50.57 53.31 56.70 59.29 61.22 62.56 63.01 63.59 64.59 65.57 66.31 67.40 67.22 67.18 66.57 66.32 66.12 66.23 67.31 67.21 66.80 66.31 66.04 65.33 64.60 63.85 63.39 63.03 62.71 62.59 62.54 62.17 61.50 60.84 60.67 60.80 61.12
48.71 45.90 47.34 47.27 47.50 47.13 48.06 45.46 46.07 49.09 48.35 48.56 49.42 52.04 54.31 57.71 60.76 61.79 63.36 63.49 64.61 65.53 66.58 66.75 67.29 67.42 66.09 66.34 66.32 66.14 65.96 66.17 66.43 66.33 66.17 65.44 64.67 63.82 63.13 62.93 62.48 62.56 62.35 61.75 60.84 60.41 60.11 59.74 60.24
45.52 46.79 42.88 45.37 46.72 46.48 46.57 44.17 48.95 48.47 47.90 47.92 49.04 50.46 52.08 54.61 58.74 61.89 63.26 64.16 65.01 65.53 66.00 67.45 67.45 67.59 65.98 66.18 66.36 66.47 66.35 65.75 65.52 66.28 66.26 65.58 64.85 64.25 62.64 61.38 61.47 62.10 61.56 60.75 59.78 59.04 57.86 57.65 57.79
43.74 40.84 42.28 41.41 45.67 45.63 45.32 44.43 46.00 47.32 48.14 47.42 48.53 49.10 49.89 51.16 53.18 58.27 62.23 63.83 64.72 65.51 65.84 66.51 67.54 66.77 65.57 66.05 66.23 66.24 65.93 65.79 65.78 65.56 65.27 66.28 65.13 64.42 62.87 61.39 60.63 61.17 60.23 58.97 58.05 56.62 57.48 56.39 56.63
40.00 40.84 41.29 41.69 42.77 43.90 43.65 43.98 46.10 47.26 47.34 48.44 49.25 49.96 50.60 50.25 50.95 52.46 53.49 57.71 62.73 64.76 65.59 66.23 67.14 67.30 66.78 65.43 65.98 65.91 65.82 66.10 66.38 65.87 65.10 65.29 65.34 64.97 63.85 62.61 62.41 61.64 60.07 59.12 58.14 56.82 57.59 56.10 56.21
44.42 41.92 40.76 42.66 43.37 42.96 43.04 43.56 45.35 47.46 47.36 47.75 49.17 49.83 49.89 50.11 50.98 50.36 51.13 52.14 53.18 56.97 62.96 64.64 65.29 66.72 66.42 64.35 64.08 64.27 63.85 64.83 65.21 65.63 65.49 65.09 64.69 65.54 64.77 63.61 63.20 62.31 58.92 58.58 58.20 57.72 56.99 55.57 55.79
43.05 40.94 40.71 41.40 42.64 42.71 42.90 42.57 45.39 46.76 47.03 47.26 47.46 47.65 48.17 48.74 49.68 49.89 50.65 50.90 51.04 52.10 55.47 61.16 63.87 65.36 66.61 64.84 64.57 64.54 64.19 64.54 64.86 65.11 64.92 64.37 64.22 64.71 64.57 63.96 62.61 61.22 57.98 57.94 57.64 56.28 55.66 53.33 53.32
41.49 40.93 40.74 40.40 41.31 42.10 40.93 40.57 43.40 43.95 44.54 45.22 45.55 46.19 47.29 48.38 48.64 49.84 50.75 52.22 52.71 51.41 52.03 54.19 58.72 62.88 65.14 65.89 64.34 64.04 63.25 63.60 63.85 63.87 63.68 63.86 63.75 64.05 63.41 62.66 61.81 61.02 58.77 57.26 57.63 57.29 53.53 52.48 53.57
37.76 41.91 41.85 40.21 39.98 36.55 41.07 35.75 41.63 42.99 43.10 44.18 45.83 47.56 48.52 48.86 49.54 50.24 50.88 51.39 52.20 53.44 52.97 50.98 55.15 58.66 62.12 64.57 64.51 62.92 61.87 60.70 62.01 62.98 64.22 63.88 63.67 63.48 63.40 62.64 61.60 60.75 59.61 57.74 57.83 56.80 55.57 54.25 52.39
39.90 42.52 41.69 41.55 39.75 38.70 38.28 36.01 40.28 41.21 40.99 43.64 46.12 47.46 48.42 49.41 49.85 49.47 49.85 50.51 51.62 53.68 55.76 54.08 52.16 55.66 58.84 61.17 62.70 62.27 60.85 61.26 61.58 62.32 62.29 62.86 63.21 62.86 62.55 62.05 61.64 60.92 60.22 58.18 57.91 56.79 55.03 54.56 53.81
42.10 41.03 40.69 40.84 38.90 32.59 37.71 37.01 38.57 39.53 41.51 43.88 45.69 46.85 47.45 48.05 48.53 48.81 49.79 50.87 51.21 52.63 53.71 55.71 57.18 56.18 56.14 58.67 60.65 61.08 59.65 59.45 59.49 59.77 60.93 62.09 61.55 61.82 61.72 61.80 61.48 61.14 60.34 59.28 58.33 57.49 56.76 55.05 54.33
41.76 38.74 32.16 30.53 30.87 30.36 34.60 34.66 38.50 40.41 43.07 45.42 45.06 46.14 47.29 48.41 49.01 49.11 49.05 49.17 49.89 50.33 50.96 51.87 53.33 54.98 57.80 57.24 57.87 58.27 58.82 59.12 58.83 58.45 58.57 58.40 59.05 59.43 59.92 59.88 59.51 59.60 59.51 58.85 58.00 57.07 56.21 55.35 54.25
38.98 39.07 33.97 27.27 28.00 31.71 31.25 31.01 37.83 41.87 43.73 47.05 46.90 46.66 47.38 47.80 48.40 48.49 48.72 48.78 48.79 49.43 50.12 50.40 50.63 50.36 51.70 52.28 52.97 54.59 56.71 56.58 55.36 54.18 54.21 54.45 54.06 54.12 53.65 54.06 55.42 56.34 56.94 56.38 56.74 57.00 56.52 56.43 55.22
38.13 35.48 40.02 31.54 27.17 31.69 34.59 37.70 39.92 41.02 42.36 44.69 44.90 45.21 46.16 47.29 47.81 47.67 48.27 48.41 47.96 47.81 48.30 48.83 48.57 48.91 49.46 49.93 50.13 50.00 50.52 50.58 50.26 50.51 50.73 50.27 50.37 49.46 50.03 50.97 51.16 52.15 52.71 53.38 53.79 54.84 53.93 53.74 54.12
39.86 41.52 33.56 35.30 27.59 27.08 32.20 34.49 36.88 36.63 39.32 42.25 42.96 44.42 45.95 47.23 47.13 47.32 47.38 47.05 47.05 47.08 47.10 47.33 47.24 46.65 47.28 47.56 47.47 47.10 47.10 47.34 47.52 47.07 46.10 46.30 46.74 46.43 46.73 46.99 47.56 48.22 49.06 49.87 50.49 51.14 52.20 52.25 52.33
36.17 36.04 37.04 37.54 36.00 32.99 29.90 33.51 41.25 40.67 41.54 42.36 43.92 45.72 45.87 46.03 46.50 46.53 46.49 46.35 46.48 46.86 46.64 46.12 45.95 45.61 45.40 45.61 45.63 45.21 44.74 45.00 44.91 44.26 43.99 43.71 44.30 43.89 43.70 43.75 44.20 44.82 45.28 46.12 46.45 47.09 47.77 47.68 48.23
40.12 38.72 38.02 33.04 30.02 33.06 32.23 35.47 40.58 43.61 44.04 45.26 45.15 45.78 46.42 46.82 46.30 45.78 45.47 45.79 45.83 45.57 45.43 44.79 44.31 43.56 43.95 44.47 44.15 43.49 43.42 43.33 42.58 41.94 41.88 42.25 41.65 42.73 42.29 42.26 42.49 42.42 42.52 43.05 43.06 43.13 44.20 44.21 44.74

GFSSGP_sfc_wetblb_096.txt.gz
Wetbulb
63.21 59.72 60.15 58.09 49.08 47.64 43.01 46.23 51.59 51.23 50.90 53.70 55.43 52.71 52.01 55.81 54.09 52.22 64.58 67.50 67.85 68.11 69.11 69.64 71.14 71.75 71.74 72.00 71.61 71.53 71.60 70.57 69.50 68.94 69.24 68.79 69.18 68.99 68.92 68.66 68.97 68.87 67.99 68.33 68.30 68.07 68.18 68.10 67.84
57.34 58.69 57.47 54.98 45.24 40.70 40.71 47.74 48.93 51.13 53.97 55.30 53.78 51.90 51.61 53.85 60.54 61.66 62.40 67.84 68.98 67.88 67.99 68.85 69.97 71.29 71.51 72.03 71.99 71.64 71.31 70.54 69.02 68.57 68.98 68.42 68.72 68.96 69.63 68.50 69.10 68.25 67.80 67.59 66.88 67.13 67.31 67.63 67.72
59.08 58.45 52.49 49.74 45.66 40.25 41.10 46.81 49.49 52.53 53.84 52.87 50.85 53.28 54.12 55.28 61.22 62.40 65.66 67.31 67.94 67.15 68.06 68.83 69.98 71.00 71.03 71.52 71.17 71.24 70.99 70.31 68.67 68.36 68.81 68.82 68.04 68.53 69.53 68.77 69.21 67.42 67.00 67.13 67.11 67.33 66.79 67.05 67.44
55.92 55.16 53.02 45.01 43.63 44.08 45.15 48.25 51.29 50.90 50.97 52.47 51.05 50.92 56.68 61.35 61.65 64.53 66.77 66.94 66.73 66.86 67.89 69.15 69.97 70.62 70.42 70.99 70.93 71.35 71.13 70.07 68.37 67.86 68.25 68.58 67.55 67.63 68.37 69.21 68.77 67.59 67.16 67.31 67.25 66.85 66.26 66.42 66.54
55.10 53.77 46.79 44.27 44.01 44.59 47.40 50.61 51.39 49.36 48.90 50.56 48.61 49.34 54.67 61.45 64.67 65.45 65.55 67.63 66.96 66.51 67.22 68.62 69.65 69.98 70.40 70.70 71.04 71.33 71.01 69.93 68.36 67.53 67.65 68.05 67.36 67.41 67.99 68.82 68.26 67.35 67.29 67.54 67.76 66.85 66.80 66.43 66.10
50.78 52.05 44.04 41.75 43.19 45.49 47.27 48.95 50.40 48.75 48.94 49.63 46.53 52.39 55.62 62.31 63.15 63.94 65.02 66.95 67.73 66.40 66.74 68.12 66.86 68.16 69.18 69.97 70.42 70.78 70.45 69.76 68.50 67.37 67.10 67.55 67.44 67.45 67.03 68.19 68.28 67.68 67.29 66.87 66.52 66.85 66.49 66.03 65.43
49.94 48.76 44.53 43.77 43.65 44.77 47.06 50.22 48.01 47.58 47.03 47.92 50.99 49.45 55.98 59.65 63.37 64.17 63.99 65.83 67.27 66.83 66.19 66.84 67.01 66.47 66.55 67.44 68.18 69.45 69.58 69.13 68.52 68.01 67.29 67.02 67.33 67.38 66.50 66.87 68.79 67.83 66.95 66.68 66.80 66.83 66.14 65.55 64.59
51.05 49.27 45.69 43.16 43.24 43.94 48.39 49.48 49.21 47.72 47.85 51.95 53.23 47.34 51.70 59.90 63.60 63.75 63.63 64.93 66.44 66.44 66.34 64.95 65.31 65.83 65.87 65.72 65.09 66.45 67.52 67.22 66.48 65.69 64.83 64.16 64.40 64.45 63.92 63.50 66.65 67.53 66.91 66.16 66.24 65.95 65.52 64.88 63.90
53.51 45.23 43.24 44.86 44.86 45.20 49.35 46.80 47.70 47.50 48.88 49.84 51.83 54.76 59.27 62.94 63.61 62.35 61.72 62.92 65.52 66.14 66.09 66.00 64.81 64.86 65.30 65.37 63.73 64.15 64.71 64.39 63.72 62.95 62.23 61.56 62.04 62.56 62.37 62.14 63.84 65.50 64.86 65.43 65.37 64.46 63.92 63.32 62.39
47.37 44.26 46.18 47.89 46.70 46.58 48.24 47.55 46.85 45.05 47.56 47.72 50.74 57.17 61.31 62.19 61.53 60.35 60.76 61.04 62.90 63.99 65.89 66.20 65.78 64.42 64.91 65.76 64.09 65.01 65.05 64.13 63.82 63.32 61.91 63.15 61.82 61.00 61.85 59.78 61.09 62.31 63.12 64.15 64.08 62.85 61.59 60.81 59.74
47.26 45.15 48.78 47.42 47.53 49.64 48.14 46.23 48.27 45.77 44.48 47.76 48.76 55.36 59.34 60.23 60.58 60.25 60.66 61.48 62.15 64.17 64.73 65.31 66.02 65.58 64.35 64.12 63.84 64.19 64.20 64.05 64.18 63.96 63.53 62.48 61.73 60.19 61.07 59.76 58.91 58.72 58.45 59.09 59.81 59.62 59.19 59.32 58.24
45.12 47.55 48.13 47.90 47.17 47.82 47.34 48.02 46.53 45.54 44.83 49.44 50.63 56.72 59.02 59.19 59.86 60.31 60.34 61.69 62.37 63.39 64.67 65.10 65.38 65.83 65.01 64.42 64.19 64.47 63.87 64.07 63.62 63.87 63.71 61.88 60.66 59.59 59.74 60.23 59.86 59.31 58.56 58.45 58.38 58.87 58.67 58.33 58.75
45.63 45.65 47.11 47.14 46.22 46.74 48.27 46.40 44.88 45.16 47.33 48.44 50.60 56.03 57.60 58.30 59.14 60.03 61.24 61.88 62.75 62.84 64.67 65.04 64.96 64.79 65.32 65.21 64.42 64.31 64.25 63.63 63.53 63.55 63.63 62.37 60.69 60.12 59.98 59.58 59.74 59.24 58.50 58.35 57.80 57.41 57.86 57.74 58.20
47.12 46.93 45.75 46.27 46.07 45.85 46.38 44.51 44.01 44.82 47.76 47.37 49.08 50.55 55.10 57.14 58.04 58.32 59.18 60.22 61.73 63.08 63.56 65.04 65.35 65.35 65.64 64.92 64.42 64.04 65.04 65.10 63.61 63.09 63.17 62.87 61.32 60.48 59.96 59.33 59.24 58.71 58.49 57.92 57.47 56.83 56.73 56.81 57.41
46.87 43.21 44.32 44.60 45.67 44.29 45.03 41.74 42.71 44.53 46.38 46.07 46.09 47.39 51.33 54.81 57.40 57.76 58.94 59.46 60.91 62.26 63.72 64.43 65.01 65.14 65.02 65.28 65.19 64.37 63.71 63.92 64.25 64.08 63.64 62.82 62.07 60.43 59.60 59.20 58.77 58.80 58.54 57.98 56.82 56.11 55.88 55.43 56.38
42.93 42.26 38.18 42.00 44.23 43.85 42.84 39.51 44.33 45.25 44.24 43.86 45.01 45.19 48.16 51.04 54.84 57.40 59.50 60.01 60.75 61.64 62.50 63.84 65.17 64.79 64.48 65.23 65.59 65.21 65.08 64.61 64.23 64.59 64.11 63.26 62.55 61.39 59.52 58.70 59.62 60.05 59.10 57.78 55.91 55.12 54.42 53.99 53.83
40.67 35.84 37.97 38.79 44.29 42.99 40.73 38.67 42.17 43.53 43.55 42.77 43.13 44.33 46.77 48.14 51.21 54.38 57.77 59.52 60.43 61.23 62.16 63.16 64.30 64.27 63.98 65.02 65.64 65.55 65.37 64.87 64.70 64.61 64.28 64.39 63.07 62.12 59.83 57.92 57.95 57.82 57.68 56.14 55.69 54.19 53.48 52.71 52.54
35.37 34.84 39.18 36.57 40.19 39.86 38.63 38.70 42.37 43.32 43.67 42.75 42.20 43.04 44.59 45.28 47.57 50.32 53.38 55.26 58.91 60.56 61.69 62.79 64.31 64.23 63.87 64.23 64.94 65.08 64.84 64.78 64.96 64.64 63.95 64.11 63.94 63.31 61.09 59.63 58.22 57.86 56.86 56.20 55.47 54.54 53.66 53.16 53.12
41.38 38.61 36.51 38.53 41.29 38.97 38.80 38.67 41.67 43.06 42.36 41.83 42.84 44.10 45.20 45.93 46.01 46.29 46.72 46.45 47.13 49.97 58.78 61.18 62.59 63.91 64.01 63.39 63.48 63.54 63.39 64.19 64.43 64.71 64.41 64.08 64.15 64.13 63.22 60.43 60.30 59.90 58.26 57.47 56.75 55.81 54.61 54.02 53.75
38.18 37.84 36.40 38.33 40.71 38.09 38.85 38.52 40.99 42.28 42.35 43.33 41.96 43.00 44.67 43.88 44.66 46.65 44.89 44.64 46.05 46.85 48.56 55.01 60.66 62.79 64.13 63.96 63.98 63.82 63.79 63.82 64.37 64.58 64.29 64.09 63.60 63.78 63.63 62.57 61.21 60.25 57.76 56.65 55.72 56.02 53.91 53.58 53.06
37.53 37.30 36.00 36.90 38.42 37.79 34.52 34.90 38.81 40.55 41.54 41.57 40.85 41.52 42.39 42.71 44.89 45.42 46.03 46.53 48.07 46.34 46.66 48.99 53.44 59.60 62.45 63.41 64.08 63.19 62.67 62.61 62.83 62.91 62.96 63.22 63.00 63.07 63.22 62.70 61.42 60.43 58.14 56.52 55.98 55.96 54.57 53.84 51.37
35.66 39.52 39.89 37.65 35.49 30.19 35.67 26.83 34.41 36.52 38.06 40.50 42.00 40.60 41.69 43.53 44.73 46.58 46.99 46.11 47.49 49.27 48.40 46.77 48.63 53.64 58.84 62.96 61.78 61.85 61.01 60.11 61.81 62.51 62.98 62.66 62.61 62.48 62.52 62.13 61.52 60.43 59.22 57.11 56.67 56.48 55.95 53.98 52.89
37.40 40.45 38.91 38.32 35.54 31.39 31.09 28.91 32.32 37.48 36.39 38.58 41.38 42.79 43.78 44.37 45.01 45.45 45.45 47.42 48.10 49.72 50.62 45.51 47.80 52.23 55.54 57.66 61.38 61.68 60.09 60.04 60.05 60.72 60.94 61.82 61.87 61.88 61.84 61.34 60.81 60.05 59.39 58.25 57.21 55.93 55.09 55.19 54.01
40.68 38.61 38.09 36.18 33.87 25.88 31.58 30.30 30.21 32.87 36.61 38.80 41.75 42.66 44.23 43.86 43.65 44.69 46.10 47.35 47.36 48.06 50.09 52.52 49.74 50.55 53.49 55.86 57.61 57.87 57.86 58.03 58.03 57.89 58.50 58.83 58.69 59.40 60.22 59.86 59.71 59.77 59.36 58.40 57.66 57.02 55.77 54.91 54.47
37.52 34.51 25.41 24.10 23.12 23.27 28.78 29.11 33.28 35.61 38.34 41.11 41.05 41.71 42.76 43.72 43.35 43.64 44.21 44.77 45.57 45.38 46.09 48.62 52.45 53.16 53.95 54.26 54.42 55.00 56.64 56.68 56.71 55.96 56.00 55.89 55.40 54.14 50.87 52.12 52.77 55.15 56.26 56.65 56.66 56.11 55.59 54.98 54.63
35.20 34.63 27.52 20.43 22.14 24.39 27.51 25.93 32.53 36.36 39.31 42.48 42.85 42.34 43.09 43.47 44.04 43.72 44.16 44.35 44.93 45.49 45.34 45.71 46.25 46.63 47.51 48.32 50.34 51.58 51.96 50.22 48.51 47.95 47.51 47.27 46.67 46.22 47.05 47.58 48.18 48.67 49.21 49.42 50.43 50.96 52.30 52.93 52.27
34.52 31.78 35.60 27.39 20.34 23.86 27.15 31.63 36.13 37.43 37.98 41.28 41.22 41.61 41.71 43.04 43.57 43.61 44.10 43.92 43.76 43.38 44.09 44.36 44.15 44.26 44.84 44.96 44.63 44.28 44.76 44.65 44.04 43.60 43.82 43.67 43.42 44.33 44.01 44.20 44.48 45.31 46.07 46.58 46.68 47.05 47.00 47.80 48.32
36.17 37.99 29.61 29.85 17.67 17.65 25.46 26.31 30.27 32.89 36.31 39.84 40.07 40.33 41.78 42.90 43.12 43.24 43.20 43.14 43.06 42.80 42.89 43.16 43.14 42.42 42.67 42.69 42.41 42.29 41.96 42.11 41.86 41.48 40.74 40.98 41.11 41.50 41.23 41.17 41.63 42.14 42.72 43.17 43.31 43.57 44.39 43.97 44.42
33.52 32.87 33.84 33.47 30.83 22.72 20.27 25.29 34.12 36.42 38.32 39.69 40.22 41.82 42.54 42.09 42.09 42.03 42.22 42.61 42.69 42.46 42.03 41.73 41.60 41.31 41.10 41.22 40.95 40.44 40.31 40.38 40.05 39.28 39.12 39.22 39.55 39.70 39.57 39.67 39.88 40.01 39.94 40.36 40.08 40.27 40.78 40.52 40.76
35.25 35.29 35.08 29.10 25.88 26.69 27.39 27.32 36.69 37.59 39.75 41.00 41.11 42.63 42.37 42.81 42.38 41.69 41.54 41.70 41.64 41.33 40.80 39.73 39.91 39.76 40.15 40.51 39.67 39.35 39.06 38.54 37.92 37.57 37.81 38.14 37.82 38.57 38.21 38.34 38.22 38.29 38.21 37.88 37.68 37.52 37.47 37.51 37.81

GFSSGP_sfc_wetblb_099.txt.gz
Wetbulb
60.09 54.67 55.20 53.14 45.91 42.33 38.16 42.96 48.65 48.01 48.23 49.19 51.57 53.38 53.73 54.44 53.71 49.42 63.81 67.48 68.18 68.46 69.42 69.76 71.38 71.94 71.89 71.89 71.44 71.49 71.04 69.43 69.36 68.99 69.07 69.19 69.20 68.55 68.31 68.33 69.22 68.29 68.06 68.15 67.84 68.23 68.33 68.23 68.80
56.72 56.36 52.87 48.61 40.75 36.25 36.22 44.03 45.96 49.51 51.05 51.59 51.51 51.38 52.35 53.47 59.45 61.07 63.55 67.54 67.83 67.87 68.86 69.21 70.41 71.63 71.93 71.77 71.32 71.29 70.56 69.34 69.09 68.58 68.48 69.04 69.81 68.84 68.29 68.10 68.35 67.48 67.34 67.65 67.74 68.16 68.26 68.10 68.26
56.48 56.38 48.58 45.22 39.90 36.11 38.13 43.25 48.04 49.97 51.15 49.64 48.05 52.55 53.20 56.04 59.63 61.76 66.43 66.98 66.86 67.19 68.14 68.86 70.25 71.45 71.60 71.37 70.96 70.80 70.28 69.60 69.07 69.10 68.36 68.58 69.63 68.63 68.37 67.50 68.01 67.83 67.34 67.73 67.23 67.07 67.25 67.31 67.26
52.34 51.53 48.53 41.68 39.44 40.40 41.79 45.57 49.06 47.72 49.30 50.17 50.54 49.83 55.16 60.26 61.14 63.61 67.05 66.14 66.38 67.18 68.25 68.93 70.38 71.05 71.28 71.11 70.75 70.65 70.00 68.37 68.32 68.95 68.29 67.98 68.38 68.60 68.60 67.94 67.69 67.67 67.37 67.28 66.88 66.55 66.64 66.66 66.62
50.10 48.01 42.38 39.95 39.04 41.96 44.94 49.02 48.83 46.71 47.22 47.09 49.02 49.03 53.64 60.36 63.91 64.55 65.25 66.21 65.33 66.39 67.50 68.45 69.50 70.41 71.01 70.87 70.82 70.62 69.73 68.29 67.86 68.41 68.02 67.62 67.60 68.20 68.73 68.06 67.50 67.49 68.04 67.11 66.85 66.66 66.25 66.04 65.88
46.16 46.67 40.84 38.79 39.05 42.76 44.12 47.24 47.68 45.88 46.89 47.26 51.16 52.33 53.75 61.08 62.61 62.86 66.02 64.90 65.78 65.99 67.49 68.08 66.52 68.10 69.48 70.30 70.65 70.24 69.65 68.46 67.78 67.84 67.69 67.09 67.08 67.54 68.53 68.32 67.52 67.27 67.22 66.25 66.81 66.41 65.86 65.49 65.08
44.22 43.58 39.54 38.64 40.33 41.74 44.37 46.85 45.63 45.29 45.80 44.68 49.84 50.53 54.75 58.69 61.78 62.58 65.46 65.19 64.96 66.36 66.69 66.80 66.63 66.41 66.23 67.46 68.57 68.95 68.84 68.46 68.05 67.75 67.37 67.02 66.81 66.53 67.10 68.76 68.26 66.97 66.22 65.59 66.60 66.11 65.52 64.87 64.17
46.80 44.98 39.90 39.89 39.87 40.49 45.46 45.87 45.86 45.79 46.22 50.03 51.72 49.68 51.39 57.91 61.96 61.85 65.07 64.53 64.72 64.81 65.27 65.01 65.28 65.64 65.27 65.77 65.34 66.00 66.64 66.81 66.53 65.67 64.57 63.90 63.81 63.85 64.09 63.49 66.55 67.51 66.59 66.22 66.05 65.61 65.04 64.18 63.21
48.90 42.16 39.92 42.38 41.60 42.05 45.34 44.23 45.79 46.93 48.09 48.59 51.33 53.70 57.04 61.75 61.47 59.95 62.87 63.16 63.29 63.66 63.69 63.93 64.21 64.42 64.48 64.73 63.58 63.45 63.67 63.69 63.36 62.84 61.79 61.12 61.57 60.97 61.23 61.80 64.12 65.43 65.75 65.54 65.03 64.35 63.51 62.81 62.05
44.09 41.43 43.59 45.06 44.16 43.68 45.27 45.38 45.09 45.16 45.34 46.38 54.06 58.74 60.85 61.12 59.75 58.44 60.59 61.70 62.10 62.30 62.38 63.27 62.92 63.63 64.16 65.48 64.02 63.85 62.88 62.08 61.97 61.43 60.99 61.60 60.61 60.74 60.55 59.07 61.07 62.73 62.94 64.49 63.60 62.71 61.90 60.61 59.08
43.79 42.01 45.47 44.67 45.95 47.42 45.62 43.63 45.43 44.10 41.86 46.88 53.92 57.01 58.61 58.70 58.38 58.38 58.95 61.91 62.44 62.99 63.53 62.81 62.98 63.38 62.90 63.04 63.09 63.33 62.96 62.22 62.05 60.88 61.20 60.72 59.79 59.66 58.96 57.89 57.83 57.65 58.13 58.00 58.90 58.93 58.09 58.37 57.01
41.52 45.38 45.27 46.32 45.65 46.34 45.39 45.54 43.95 43.40 44.03 48.17 56.57 58.61 58.16 57.79 57.92 58.30 58.95 59.97 61.78 63.37 63.87 64.47 64.35 64.17 62.39 62.69 62.86 63.21 62.81 62.53 62.24 62.26 62.30 59.92 58.32 57.66 59.12 58.20 57.90 57.32 57.34 57.11 56.97 57.74 58.04 57.33 57.64
42.78 42.39 45.03 45.48 45.23 45.67 46.27 43.33 43.39 42.94 44.05 49.06 55.74 58.03 57.41 57.60 58.16 58.81 59.89 60.73 61.44 62.86 63.64 63.96 64.11 63.93 63.49 62.57 62.74 62.99 62.36 62.53 62.49 62.58 62.25 60.63 59.27 58.28 58.64 58.67 58.63 58.04 57.00 57.41 56.80 56.52 56.93 56.78 57.03
44.81 44.23 43.38 43.67 43.44 44.67 44.09 41.50 42.99 43.09 44.66 48.21 54.34 55.14 56.28 57.45 58.07 58.04 58.76 59.33 61.05 63.47 63.49 63.97 64.05 63.85 64.11 63.19 62.74 62.59 63.42 62.80 62.21 62.16 62.12 61.43 59.98 59.12 58.78 58.10 58.15 57.71 57.16 56.71 56.56 56.08 55.85 55.78 56.14
44.04 40.71 41.18 41.47 43.29 43.84 43.77 40.28 40.71 43.43 44.97 45.56 46.78 50.34 54.79 55.77 56.74 57.16 57.74 58.62 61.22 62.86 64.05 64.05 64.18 63.99 63.70 63.64 63.60 63.18 62.96 64.05 63.69 62.90 62.24 61.97 60.92 59.47 58.92 58.02 57.65 58.18 57.56 57.06 56.04 55.11 54.73 54.29 54.91
41.17 39.23 35.52 40.39 42.56 42.25 42.38 37.25 42.70 42.73 43.55 42.88 43.61 43.44 48.14 52.62 55.09 56.22 57.36 58.33 59.52 60.97 63.21 64.18 65.14 63.99 63.18 64.60 64.60 63.74 63.55 63.03 62.71 63.91 63.60 62.79 61.66 60.13 58.20 57.72 57.93 57.99 57.47 56.27 55.11 54.19 53.69 53.19 52.84
36.36 32.07 34.28 36.96 41.74 41.36 39.99 36.90 41.26 42.92 42.48 41.48 41.12 42.80 45.70 47.56 50.72 53.99 56.77 57.85 58.78 60.35 61.47 63.25 64.02 63.47 62.56 63.84 65.24 64.96 64.79 64.28 64.33 64.28 64.03 63.83 62.94 61.17 59.02 57.08 56.92 57.10 56.32 55.40 54.84 53.68 52.60 51.74 52.02
31.44 31.37 34.43 34.35 39.31 38.98 36.80 36.67 39.43 42.12 42.19 41.94 41.15 41.07 43.88 45.32 48.79 51.38 55.81 57.58 58.48 59.38 60.59 61.78 63.39 63.40 62.81 63.66 65.07 65.01 64.75 64.50 64.55 64.19 63.91 64.02 63.80 62.77 60.74 58.18 57.40 57.19 56.13 56.70 56.16 55.06 54.61 53.76 53.43
37.61 35.24 34.91 35.66 39.34 37.94 36.83 36.60 39.10 40.73 40.31 41.39 39.50 40.84 41.63 42.91 43.89 44.67 45.94 46.10 47.43 51.57 58.50 60.67 62.54 63.18 63.09 61.85 63.19 63.38 63.13 63.65 63.82 64.08 64.01 63.74 63.73 63.73 62.87 60.87 59.59 58.41 57.57 57.21 56.72 55.66 54.67 53.96 53.58
36.53 34.58 32.44 36.00 38.81 37.02 36.47 37.50 38.97 39.84 39.99 41.11 41.60 41.13 42.48 41.43 42.64 43.87 44.26 43.90 44.97 45.52 46.35 51.94 61.46 63.09 62.97 62.41 62.70 63.77 63.74 63.71 64.18 64.58 64.14 63.80 63.61 63.68 63.24 62.59 60.58 59.36 58.47 56.92 56.56 55.78 54.56 54.07 52.88
36.62 34.54 33.00 34.65 36.48 36.08 34.09 33.05 37.00 39.99 39.79 40.08 40.27 41.12 41.54 41.40 42.79 43.88 44.84 45.36 45.55 44.93 45.70 46.98 50.86 61.16 63.20 62.73 63.67 62.77 62.87 62.68 62.75 63.08 63.10 63.31 63.23 62.91 62.86 62.68 62.16 60.73 58.92 57.62 56.57 55.98 55.10 54.02 52.89
34.18 38.68 37.56 36.05 33.71 29.05 33.17 25.98 32.27 35.91 37.15 38.53 40.10 39.33 40.55 43.37 43.53 44.34 45.77 45.23 45.69 48.03 47.64 45.82 46.50 51.65 60.98 62.76 63.04 62.29 61.18 60.00 61.66 62.20 62.57 62.58 62.55 62.33 62.19 61.94 61.45 60.54 59.66 57.84 57.00 56.52 56.03 54.83 53.28
35.83 39.18 37.55 35.96 33.54 30.06 28.98 26.86 30.07 34.40 35.00 37.47 38.65 40.12 39.88 42.19 43.67 43.88 44.46 46.53 46.44 48.80 47.91 43.13 46.86 51.81 58.42 60.58 62.67 61.55 59.80 59.69 59.71 60.34 60.54 61.07 61.70 61.84 61.69 61.12 60.47 59.90 59.32 58.34 57.52 56.24 55.20 54.89 54.08
39.94 37.27 35.92 33.65 31.32 24.63 28.10 27.63 27.93 31.82 35.30 36.32 38.00 39.76 41.47 41.43 42.47 43.56 44.83 46.21 45.77 47.16 49.14 45.84 49.04 51.27 54.12 56.70 60.42 60.05 58.86 58.17 57.97 57.84 58.08 57.81 58.12 54.13 52.60 54.69 56.37 57.19 57.47 56.81 56.52 56.16 55.16 54.81 54.21
37.30 32.31 24.33 23.26 23.04 22.97 25.32 25.75 30.74 34.92 37.02 38.51 39.36 39.77 40.52 40.98 41.17 42.19 43.06 43.47 43.75 44.50 46.97 50.56 51.32 51.11 52.54 53.91 54.28 54.72 54.86 55.33 54.70 53.82 52.06 50.06 48.54 47.94 47.59 47.95 47.75 48.05 48.46 49.17 49.74 49.87 49.97 50.19 51.99
32.91 32.45 24.20 18.24 19.79 22.93 26.20 25.18 31.46 35.54 39.29 40.36 41.97 40.92 40.57 40.48 41.22 41.82 42.66 42.82 43.13 43.77 44.15 45.06 45.83 45.64 47.10 47.87 47.71 48.71 49.64 48.32 47.01 46.23 44.58 43.57 43.19 42.98 43.38 43.72 44.20 44.56 45.12 45.10 45.39 45.98 45.92 46.16 45.99
32.79 30.18 34.56 26.36 16.20 21.79 24.87 28.31 34.85 35.60 36.91 38.77 39.31 40.16 39.70 40.67 40.90 41.39 42.06 41.81 41.70 41.90 42.54 42.82 43.43 43.36 43.63 43.61 44.19 43.71 43.58 42.85 41.67 41.28 41.40 40.66 40.73 41.76 40.65 40.95 41.14 41.53 41.87 41.97 42.21 41.95 41.66 41.78 41.63
34.79 36.85 29.61 28.26 19.25 17.00 22.97 23.78 28.14 31.82 34.14 37.45 38.17 38.98 39.58 40.76 40.99 40.99 41.00 40.87 40.59 40.72 40.81 41.46 41.58 41.09 41.20 41.45 41.91 41.46 41.00 40.62 39.86 39.86 39.01 38.77 38.92 38.93 38.74 38.74 38.92 38.95 39.27 39.33 39.42 39.16 39.70 38.31 38.64
32.48 31.39 31.95 32.62 27.34 19.85 17.59 24.41 32.60 35.11 36.61 37.92 39.01 40.29 40.83 40.76 41.15 40.69 40.53 40.50 40.31 40.21 39.81 39.99 40.22 40.15 39.99 40.35 40.05 39.39 38.70 38.59 38.31 37.77 37.24 37.26 37.66 37.47 37.21 37.23 37.31 37.37 37.45 37.30 37.17 36.67 36.17 35.70 36.11
34.11 33.64 33.15 27.61 25.48 25.92 25.42 26.76 35.63 36.18 36.63 39.78 39.11 40.55 40.80 41.56 40.88 39.98 39.92 39.69 39.37 38.89 38.65 38.72 39.00 39.39 39.16 38.94 38.21 37.64 37.33 36.67 36.20 35.68 35.43 35.73 35.53 35.80 35.65 35.41 35.77 35.71 35.64 35.26 35.39 34.14 34.04 34.15 34.23

GFSSGP_sfc_wetblb_102.txt.gz
Wetbulb
59.96 54.41 52.27 51.46 44.79 41.28 37.68 42.11 46.00 46.24 46.13 47.89 51.94 53.53 53.14 54.02 52.12 47.34 62.35 65.92 65.40 65.22 69.13 70.20 71.51 72.08 71.74 71.35 71.35 70.58 70.46 70.14 69.11 69.44 69.49 68.97 68.70 68.56 68.36 68.32 68.92 68.09 67.89 68.01 68.47 68.90 69.21 69.21 68.89
57.90 54.96 51.05 46.58 40.59 36.19 36.58 42.48 45.31 47.64 48.99 53.49 52.73 52.56 53.51 52.21 58.67 61.94 63.25 66.96 67.92 68.09 68.78 69.38 70.50 71.91 71.29 71.32 71.01 70.16 70.07 69.92 68.29 68.66 69.83 69.36 68.64 68.17 67.82 67.80 67.67 68.11 67.68 68.14 68.26 68.86 68.48 68.07 67.60
53.37 54.23 46.75 43.50 38.13 35.27 37.63 42.87 46.43 47.66 49.34 48.25 49.03 52.79 55.03 55.37 59.80 61.13 65.70 67.04 67.33 67.44 68.45 69.02 70.67 71.68 70.99 71.13 70.83 70.08 70.01 69.92 69.68 68.81 69.80 69.21 68.65 67.66 67.48 67.48 67.56 67.98 67.19 67.53 67.48 67.86 67.60 67.15 66.98
50.84 49.27 46.35 40.27 37.15 37.79 42.24 46.01 47.13 47.08 46.83 50.53 51.46 50.42 55.71 60.00 60.82 64.37 65.96 66.31 66.24 66.41 67.93 69.23 70.51 71.46 71.13 70.98 70.07 69.45 68.80 69.28 68.79 68.39 68.64 68.82 68.72 67.40 67.11 67.70 67.57 67.64 66.88 66.45 66.61 66.80 66.71 66.66 66.11
48.63 46.01 41.20 38.66 36.77 39.68 43.78 47.52 47.79 46.41 46.11 46.28 50.25 48.54 53.26 60.19 64.55 65.31 64.88 66.22 65.45 65.57 67.26 68.58 69.81 70.67 71.00 70.89 70.02 69.39 68.65 68.80 68.45 67.92 67.99 68.36 68.36 67.72 67.53 67.44 67.45 67.94 66.94 66.53 66.35 66.01 66.03 65.75 65.12
45.01 44.72 38.64 37.25 36.68 40.97 43.67 46.83 46.44 44.68 45.78 50.43 51.75 51.79 52.79 60.77 62.68 63.53 65.17 64.55 65.65 65.82 66.74 67.55 66.90 68.58 69.68 70.26 69.73 69.28 68.66 68.27 68.40 67.63 67.46 67.60 67.66 68.40 67.73 67.31 66.92 66.97 66.26 66.59 66.11 65.46 65.35 65.09 64.79
43.51 42.21 38.49 36.93 37.35 40.51 44.73 46.85 45.80 45.40 44.92 44.90 53.53 50.19 53.55 58.55 62.84 64.05 63.86 64.24 64.80 66.07 65.84 65.62 66.47 66.68 66.61 67.93 68.19 68.25 68.16 68.03 68.34 67.91 67.18 66.60 66.67 67.81 68.52 67.91 67.31 65.72 65.67 66.25 65.77 65.35 64.90 64.51 64.13
45.48 43.74 39.44 38.83 38.45 39.77 45.28 45.72 44.53 45.95 45.38 50.30 55.43 50.61 53.49 58.85 62.94 63.89 63.15 63.66 63.66 64.33 64.46 64.12 64.69 65.19 65.57 66.72 65.11 65.85 66.65 66.92 66.72 65.96 64.46 63.33 63.64 64.03 64.35 63.84 66.40 66.75 66.23 66.10 65.48 64.95 64.30 63.54 63.17
46.73 40.69 38.23 41.22 39.53 41.39 44.17 43.78 43.86 45.90 47.62 49.27 51.49 54.35 57.57 60.52 62.14 62.66 61.73 62.06 62.38 63.41 63.05 63.18 63.60 63.68 64.10 65.27 63.23 63.14 63.74 63.83 63.41 62.90 61.62 60.45 59.71 60.31 60.55 62.23 64.46 66.31 65.92 65.17 64.62 63.92 62.76 61.96 60.98
42.67 39.79 42.06 44.78 43.08 43.55 44.32 44.50 44.34 45.32 44.88 50.80 53.36 56.44 60.52 59.70 61.83 60.76 60.52 60.13 60.56 61.03 61.44 62.52 62.56 62.87 63.71 65.83 63.43 62.53 61.88 61.09 60.91 60.68 60.41 60.61 59.98 59.78 59.80 58.84 61.38 62.98 63.64 64.28 63.26 62.61 61.48 59.80 58.19
43.17 40.62 45.26 45.04 44.26 46.00 45.01 42.99 43.12 44.42 40.80 49.68 53.35 56.66 58.89 58.41 59.40 60.75 60.73 60.92 60.90 61.54 62.04 61.69 62.25 62.72 62.74 63.45 62.76 61.83 60.96 60.41 60.23 59.70 60.16 59.78 59.44 58.47 57.82 57.17 57.10 57.31 57.39 57.15 58.30 58.08 57.24 57.68 56.41
41.41 44.75 44.61 46.24 46.11 45.38 44.43 44.32 41.73 42.32 43.40 50.37 57.40 58.65 58.47 58.05 57.19 59.55 60.71 60.98 61.13 61.20 61.69 61.81 61.98 62.54 61.84 62.39 62.29 62.11 61.41 60.72 60.32 59.86 60.97 58.55 57.95 57.67 57.35 56.69 56.69 56.41 56.71 56.01 55.73 56.81 57.16 56.37 56.68
42.91 42.52 43.50 44.31 44.93 44.11 44.55 42.25 42.82 42.51 42.42 53.84 57.05 58.00 57.87 58.26 57.09 58.21 60.75 61.87 62.12 61.88 62.28 62.21 61.62 61.66 61.68 61.10 61.74 61.92 61.52 61.46 61.48 61.42 60.91 59.39 57.31 56.73 58.03 57.37 57.09 56.79 56.23 56.51 55.63 55.71 56.07 55.75 56.11
44.86 43.50 42.27 43.28 42.74 42.94 42.92 40.98 42.85 42.87 44.67 54.23 56.28 56.15 57.13 57.64 57.95 57.29 58.68 60.27 61.82 62.83 63.03 63.60 63.08 62.14 61.82 60.98 61.28 61.60 61.66 62.18 61.69 61.43 61.14 59.95 59.07 57.90 57.84 57.15 57.49 57.09 56.39 56.15 55.99 55.59 55.06 54.98 54.92
45.14 39.27 40.21 40.25 41.80 41.64 42.72 39.08 39.72 42.66 46.72 52.83 54.18 55.15 56.52 57.15 57.60 58.26 59.19 59.61 62.21 63.17 63.78 63.44 63.66 63.41 62.36 62.03 61.86 61.85 62.06 62.24 61.49 61.59 61.60 60.69 59.68 58.80 58.20 57.28 56.83 57.13 56.51 55.77 55.36 54.43 53.92 53.36 54.03
41.31 38.05 34.54 38.68 41.53 40.35 40.23 36.01 41.55 41.93 45.20 48.68 49.83 51.06 54.50 55.66 57.61 58.37 58.70 59.32 61.14 63.02 63.05 63.86 64.52 63.24 62.87 62.52 62.70 62.47 62.28 62.05 62.57 63.27 63.33 62.44 60.79 59.34 57.67 57.13 56.77 57.04 56.82 55.46 54.36 53.67 53.00 52.16 52.08
34.81 32.07 33.30 35.76 40.97 39.18 38.50 36.57 41.03 41.50 42.28 42.03 42.20 44.61 49.10 52.81 52.73 55.41 56.89 58.46 59.93 62.44 63.22 63.25 63.27 62.79 62.67 62.62 63.12 63.80 64.08 63.80 63.91 63.84 63.27 63.00 62.48 60.56 58.12 56.94 56.77 56.48 55.63 54.80 54.35 53.27 52.03 52.92 51.87
32.10 32.82 32.56 32.43 38.01 37.16 36.14 37.32 38.55 39.98 40.22 40.59 39.79 40.35 42.70 46.28 49.24 52.45 54.65 55.91 58.95 61.41 63.28 63.29 63.46 62.92 62.14 62.26 62.80 64.41 64.15 63.87 64.13 63.73 63.59 63.66 63.34 62.31 60.45 57.93 56.85 57.39 56.98 56.61 56.11 55.34 54.90 54.15 53.82
37.23 35.34 34.88 33.99 37.58 36.57 36.31 36.11 38.33 39.56 38.98 38.75 38.95 39.46 41.30 43.73 45.45 46.74 49.64 53.90 56.14 57.36 60.60 62.28 62.55 62.48 62.05 61.79 61.18 62.85 62.74 63.42 63.45 63.72 63.79 63.64 63.64 63.14 61.84 60.44 58.58 58.29 57.37 57.14 56.67 55.93 54.90 54.38 54.31
36.71 34.48 32.06 34.41 36.60 35.51 34.65 36.42 37.36 38.12 38.53 39.39 40.07 39.22 42.01 41.55 42.37 42.77 43.74 43.95 46.81 48.37 54.80 59.00 62.06 62.36 62.43 62.60 61.96 61.04 63.17 63.42 63.70 64.11 63.76 63.63 63.22 63.31 62.85 62.59 61.01 59.28 57.62 56.27 56.05 54.80 54.73 54.12 53.78
33.42 33.38 32.12 33.98 34.97 34.21 32.88 32.71 35.12 39.22 38.05 38.86 39.80 39.35 40.40 41.22 41.87 42.08 42.73 43.76 44.04 43.73 44.70 48.17 60.00 62.15 62.72 62.38 62.67 62.54 62.68 62.83 62.64 62.80 62.83 63.18 63.17 62.90 62.90 62.92 62.35 61.07 59.55 56.77 55.77 56.17 55.09 54.02 53.95
32.70 37.27 36.48 34.55 31.93 28.29 32.04 25.97 30.40 36.16 37.22 37.94 39.39 38.90 40.47 40.25 41.61 42.45 44.18 44.85 44.79 46.23 47.23 46.35 47.41 60.61 61.93 61.89 62.65 61.54 60.87 60.27 61.58 62.17 62.78 62.63 62.52 62.25 61.76 61.68 61.23 60.42 59.62 58.42 57.41 56.63 56.09 55.02 53.27
35.85 38.51 37.10 34.62 30.61 29.74 27.94 26.46 29.69 32.06 34.08 36.40 38.36 38.16 39.32 40.81 41.82 43.03 43.87 45.63 45.70 48.84 48.00 44.10 44.48 49.25 60.77 61.94 62.78 61.85 60.75 60.25 60.08 60.87 60.68 60.34 56.62 57.27 58.06 59.31 59.30 58.88 58.76 57.47 56.73 56.05 55.18 54.86 53.81
38.95 36.42 34.45 31.78 29.71 24.75 27.80 27.94 27.46 30.13 34.63 37.85 36.54 38.57 39.04 40.52 41.79 42.71 44.34 45.92 46.26 47.11 47.41 42.97 47.67 51.15 58.29 61.26 60.70 61.27 59.75 58.74 58.27 58.07 57.53 55.39 51.15 50.41 50.64 50.87 51.25 51.49 52.54 51.73 51.27 50.70 50.79 51.56 52.53
36.56 33.83 25.17 23.29 22.56 22.97 24.51 24.38 31.14 32.86 35.52 36.53 38.13 38.67 39.60 40.86 41.74 42.59 43.51 43.80 44.59 46.12 47.55 48.39 49.39 50.45 53.47 56.55 56.95 57.99 57.49 57.68 56.39 54.48 52.51 48.84 47.46 46.28 45.23 44.99 44.74 44.99 45.05 45.21 46.23 45.66 45.53 45.11 45.29
32.43 33.70 24.44 17.69 18.67 22.18 26.06 24.38 31.70 35.12 35.87 37.66 38.35 39.36 39.50 40.09 41.56 42.25 42.78 42.69 43.06 45.15 46.28 46.92 47.55 47.26 48.32 50.37 49.24 50.72 50.50 48.77 48.14 47.47 45.52 44.07 42.27 40.97 41.33 41.57 41.54 41.60 41.54 41.91 42.23 41.73 41.69 40.36 39.96
33.87 30.68 33.60 25.90 17.08 22.00 25.07 27.49 33.74 34.83 36.34 36.65 37.60 39.23 38.97 39.01 40.29 41.71 42.02 42.14 42.05 42.64 43.30 43.73 43.28 42.83 43.65 44.77 44.82 44.34 44.73 43.87 42.69 41.49 41.25 40.06 39.38 39.81 39.15 38.99 38.65 38.98 38.93 39.11 38.97 38.60 36.94 36.81 37.11
35.40 36.72 30.06 27.10 17.97 17.20 23.47 23.44 27.48 30.94 34.42 36.36 36.20 38.09 37.89 39.10 39.56 40.27 40.28 40.76 40.78 41.08 40.84 40.95 40.98 40.56 40.42 41.40 42.08 41.46 40.64 40.49 39.70 39.48 38.08 37.52 37.30 37.34 37.07 36.88 36.72 36.62 36.49 37.07 36.84 36.07 35.32 34.81 35.22
32.44 30.76 30.45 31.08 27.31 22.08 17.57 24.84 31.65 34.66 36.71 36.49 37.06 37.85 39.04 39.18 39.62 39.84 39.38 39.62 39.52 39.30 39.34 39.04 39.49 39.40 39.37 39.76 39.60 39.07 38.24 37.77 37.67 36.95 36.46 36.34 35.77 35.63 35.17 35.43 35.11 34.90 34.53 35.17 34.53 33.93 33.64 33.39 33.43
33.52 33.14 32.42 29.64 25.33 25.06 25.01 26.83 34.24 35.00 36.15 37.39 38.06 39.15 39.01 40.00 39.76 39.09 38.76 38.23 38.30 38.35 38.37 38.13 38.14 38.25 38.29 38.20 37.67 37.07 36.67 36.04 35.36 34.55 34.71 34.81 34.09 34.01 33.65 33.94 33.80 33.65 33.33 33.61 33.01 32.23 32.47 32.03 31.83

GFSSGP_sfc_wetblb_105.txt.gz
Wetbulb
58.09 53.88 52.10 51.29 44.57 40.79 37.35 41.36 44.36 45.01 44.09 48.50 52.46 51.37 51.14 53.30 50.20 45.74 61.60 64.75 66.68 66.66 67.69 69.51 71.04 71.50 71.05 70.39 70.17 70.15 70.00 69.31 69.38 69.10 68.61 68.84 68.82 68.70 68.30 68.06 68.83 68.19 68.72 68.65 68.92 69.18 68.71 68.42 68.71
54.03 53.97 50.53 45.73 39.89 35.49 36.30 40.50 44.12 45.74 50.43 53.84 51.93 52.43 52.64 51.60 58.87 61.43 61.61 65.03 66.10 68.18 69.06 69.53 70.62 71.57 70.89 70.53 70.16 69.98 69.52 69.73 69.70 69.72 68.92 68.15 67.90 67.77 67.79 67.64 67.75 67.69 67.60 68.26 68.30 68.53 68.00 67.91 67.78
52.87 52.39 46.30 42.32 36.74 35.36 36.51 42.65 45.23 46.43 51.25 46.14 49.83 53.54 53.53 54.72 59.69 61.28 64.62 66.71 67.40 67.49 68.55 69.09 70.33 71.36 70.89 69.75 69.82 70.07 69.54 69.51 69.78 69.80 68.90 67.65 67.46 67.51 67.29 67.49 66.85 67.27 66.88 67.30 67.79 67.83 67.20 66.70 67.40
50.07 48.45 45.33 40.37 36.79 37.86 40.44 45.17 46.35 45.46 44.81 51.36 52.01 50.70 55.44 59.42 60.23 64.35 66.26 66.43 66.05 66.41 67.81 69.13 70.68 71.25 70.51 70.10 69.24 69.41 69.85 69.56 69.22 69.34 68.89 67.72 67.18 67.48 67.11 67.40 67.16 67.44 66.75 66.59 67.25 66.94 66.19 65.90 66.89
47.92 44.88 40.32 37.39 36.44 38.51 41.76 46.14 45.21 45.37 44.73 46.92 49.64 49.00 52.90 59.75 64.60 65.12 65.02 65.68 65.17 65.58 67.11 68.39 70.02 70.72 70.73 69.85 68.61 69.02 69.41 68.63 68.32 68.61 68.90 67.61 67.37 67.81 67.49 67.90 67.15 66.43 66.33 66.23 66.36 66.24 65.69 64.97 65.65
44.36 43.45 37.70 36.55 36.27 40.43 43.65 45.26 45.47 43.55 47.03 49.75 51.81 52.09 53.02 61.43 62.86 63.64 64.97 64.18 65.33 65.97 66.41 67.58 66.97 68.54 69.37 69.41 68.98 68.84 69.12 68.36 67.93 67.86 68.02 68.19 67.71 67.76 67.03 66.59 66.47 66.60 66.29 65.59 65.61 65.56 65.30 64.42 64.40
42.97 41.01 37.84 36.85 36.29 40.25 44.26 45.92 44.35 45.28 48.27 47.16 53.76 50.34 52.11 58.09 61.94 63.97 63.63 63.70 64.51 65.39 65.12 65.08 66.54 66.88 66.62 67.33 67.59 67.75 68.28 68.13 67.88 67.59 67.06 67.16 68.31 68.13 67.86 67.19 66.50 66.24 65.94 65.43 65.09 64.87 64.62 64.17 63.50
44.29 42.27 38.55 36.71 37.24 39.44 43.17 44.17 45.20 44.85 44.37 51.44 55.07 50.68 54.45 58.29 62.46 62.90 62.94 62.70 63.07 63.53 63.58 63.67 64.08 65.89 65.93 65.63 64.60 65.44 66.57 67.00 66.99 65.37 64.00 63.54 63.87 64.62 65.02 64.49 66.31 66.19 65.74 65.39 64.65 64.09 63.63 63.38 63.02
45.38 39.38 37.48 39.66 38.36 40.09 43.97 42.45 43.53 45.50 47.35 48.08 51.26 54.68 57.32 60.89 62.07 61.10 61.19 61.54 62.76 62.88 62.54 62.94 62.90 64.07 65.00 64.52 62.64 63.18 63.91 64.16 63.68 62.60 60.72 59.31 59.65 59.93 61.22 62.51 65.17 65.89 65.39 64.62 64.08 63.34 62.64 62.16 60.73
41.58 38.47 41.31 44.15 41.67 42.42 43.84 43.00 44.39 46.12 47.58 49.62 51.73 55.14 59.52 61.51 60.60 59.47 58.97 58.94 60.36 61.02 60.84 61.95 61.75 62.24 64.73 65.37 62.68 61.92 61.37 60.75 60.61 60.14 59.55 59.60 59.12 58.79 59.13 58.98 61.45 63.40 63.34 63.77 63.17 62.66 60.86 58.78 56.79
41.45 39.30 42.89 44.86 43.40 44.69 44.07 42.27 42.84 44.72 42.04 49.92 51.28 55.75 57.84 60.25 60.10 59.62 59.36 59.22 59.51 60.36 60.68 60.56 61.29 61.67 62.18 64.47 61.27 60.37 59.72 59.02 59.17 59.06 59.45 59.15 58.59 57.51 57.31 56.55 56.55 56.67 56.95 56.23 57.36 57.07 56.63 56.72 55.93
39.45 43.87 42.91 45.30 44.54 44.16 42.95 43.59 42.77 43.73 44.45 50.26 55.36 58.48 57.66 59.71 59.84 59.77 59.25 59.56 59.31 59.43 60.28 60.57 60.95 61.42 60.94 61.99 61.16 60.43 59.75 59.08 58.30 58.75 59.65 58.13 57.26 56.32 56.00 55.98 55.68 55.52 55.90 55.22 54.84 55.78 56.14 55.80 56.09
41.92 43.35 43.23 44.04 43.80 43.56 44.00 41.04 42.26 42.59 42.29 54.34 56.56 58.31 57.07 58.76 59.89 60.62 60.95 60.68 60.64 59.79 60.47 60.69 60.53 60.91 60.79 60.77 60.61 60.73 60.02 60.00 59.67 59.39 59.46 57.96 57.19 56.61 56.71 55.96 55.96 55.66 55.42 55.68 54.94 54.90 55.04 55.04 55.18
45.87 45.55 42.95 43.41 42.19 41.74 42.66 39.99 41.50 42.69 46.54 54.36 56.02 56.21 57.22 56.89 58.40 59.45 60.06 60.21 60.44 61.11 61.06 61.11 61.25 61.48 60.95 60.31 60.31 60.84 60.72 61.10 60.66 60.32 59.57 58.82 57.22 56.53 56.93 56.79 56.57 56.26 55.78 55.20 55.24 54.84 54.21 54.13 53.91
47.44 43.31 43.56 41.18 41.16 40.33 41.98 38.19 39.81 40.71 50.27 53.39 54.59 55.50 55.97 56.80 56.81 58.20 60.27 60.73 61.46 62.00 62.02 61.65 61.45 61.60 61.04 60.27 60.96 61.17 60.83 61.53 60.86 60.82 60.39 59.36 58.89 57.60 57.19 56.26 55.98 56.32 55.80 55.02 54.37 53.74 53.14 52.94 53.24
42.45 39.76 33.77 40.24 40.69 39.43 39.88 36.42 41.26 41.27 50.50 51.76 52.36 52.30 54.02 55.33 56.77 57.58 59.42 60.73 61.74 62.38 62.09 62.48 63.03 61.90 61.17 60.81 60.77 61.14 61.01 60.74 60.72 61.09 61.15 61.25 59.99 58.60 56.89 56.22 56.02 56.00 55.74 54.96 54.03 53.39 52.46 51.84 51.46
38.37 34.09 31.88 36.52 39.72 38.17 37.86 36.09 39.88 40.04 46.86 50.21 50.10 51.20 52.84 54.57 55.46 56.56 57.47 58.82 60.70 62.44 62.61 62.53 62.96 62.16 61.59 61.23 61.48 61.47 61.45 61.96 63.04 62.90 63.01 62.66 61.88 60.36 57.82 56.71 56.61 55.94 55.42 54.94 54.85 53.78 51.66 51.68 53.34
33.98 32.58 33.57 34.03 37.34 35.90 35.42 37.10 37.24 38.76 41.65 45.80 46.43 47.11 49.26 52.58 55.64 56.91 56.50 57.40 59.33 61.68 62.66 63.04 62.98 62.86 61.92 62.05 61.55 62.16 63.75 63.56 63.74 63.45 63.00 62.75 62.55 61.68 60.19 57.86 56.76 57.49 56.97 56.60 56.15 55.54 55.10 54.36 54.34
37.37 36.18 34.96 36.07 38.10 36.26 35.82 36.62 38.90 37.68 35.15 37.68 39.14 39.86 42.07 47.69 53.15 51.89 53.60 55.40 55.53 58.86 61.49 62.41 62.21 61.88 62.07 60.50 60.70 62.50 62.14 63.01 62.96 63.38 63.43 63.37 63.60 62.77 61.38 60.30 59.24 57.89 56.02 57.32 56.91 55.87 55.20 53.85 54.27
36.19 35.72 34.25 35.47 37.37 35.54 33.47 35.84 35.40 36.87 37.32 38.44 39.21 38.46 38.85 40.15 42.96 45.21 46.62 51.39 54.04 57.08 60.47 61.73 62.38 62.13 62.11 62.52 62.09 60.34 60.56 63.02 63.45 63.71 63.37 63.36 62.99 63.31 62.43 61.56 60.46 59.45 58.02 57.05 56.23 55.38 54.62 54.14 53.52
35.50 35.49 33.60 34.21 35.52 34.40 31.86 33.33 33.86 37.72 36.65 37.54 39.02 38.70 38.49 40.98 42.12 42.14 42.32 43.65 46.83 51.15 56.79 59.90 61.45 62.07 62.34 62.08 61.13 61.16 62.24 62.36 62.17 62.30 62.42 62.73 62.97 62.63 62.79 62.17 61.81 60.66 59.38 57.68 56.63 56.18 55.15 54.12 54.17
33.90 36.74 36.55 34.50 32.55 28.58 32.68 25.38 30.47 34.87 37.05 36.93 38.38 38.08 39.33 39.45 40.77 41.33 42.07 43.20 43.42 43.98 45.34 48.45 57.93 60.72 61.82 61.68 61.62 61.49 60.98 59.87 60.88 61.87 62.68 62.52 62.09 61.75 61.45 61.17 60.82 60.09 59.49 58.46 57.16 56.57 56.17 55.17 53.28
36.37 37.71 36.62 35.15 31.55 28.75 27.66 26.02 29.16 30.34 33.89 36.34 37.42 39.23 39.34 39.28 39.52 41.12 42.07 43.99 44.48 47.13 46.65 45.55 45.27 56.93 61.09 61.43 62.30 61.98 60.51 59.71 60.80 60.99 58.66 55.66 54.06 55.14 56.59 58.03 58.34 57.90 57.24 56.17 55.45 54.87 54.44 54.44 53.64
38.73 36.13 34.48 32.34 30.57 25.16 29.23 28.41 27.66 29.63 33.58 36.70 40.68 39.04 38.97 39.25 39.37 40.61 42.75 45.09 45.93 46.51 47.52 43.96 43.35 45.22 58.62 61.13 61.87 61.73 60.35 58.81 58.97 58.42 55.73 51.82 50.61 50.07 50.07 50.58 50.16 49.88 49.91 49.61 48.85 47.88 46.84 46.58 46.96
37.18 33.66 26.15 24.78 23.62 24.30 24.06 24.68 34.01 31.75 34.15 35.82 36.77 38.96 38.96 38.32 40.05 41.65 42.81 43.37 44.89 46.69 46.98 43.63 45.13 46.93 54.29 60.63 60.56 59.67 59.06 59.09 58.40 56.94 52.08 48.72 47.07 46.05 45.24 44.98 43.57 42.97 43.49 43.94 43.68 42.29 41.25 40.73 40.48
32.84 34.62 25.36 18.02 18.28 22.25 25.30 23.76 29.82 34.88 33.90 36.03 36.59 36.42 37.08 38.50 40.85 41.75 42.99 43.38 43.65 45.73 46.16 46.64 48.09 48.66 53.38 59.10 57.42 55.84 57.11 55.72 53.96 51.30 48.38 45.74 44.19 42.80 41.03 40.29 39.71 39.57 39.94 39.81 39.21 37.64 37.74 37.01 36.98
32.37 29.83 34.67 25.95 16.96 21.23 24.27 27.31 32.97 33.44 34.64 35.79 36.81 35.91 37.16 38.49 40.73 41.93 42.15 42.20 42.47 44.34 45.67 46.42 46.06 44.91 48.99 50.05 49.92 49.40 49.27 48.54 46.25 43.87 43.26 41.92 40.73 39.27 38.04 37.67 37.06 37.17 37.60 37.33 36.30 35.05 34.71 34.80 35.13
35.57 37.07 29.98 27.29 17.25 15.86 22.83 23.48 27.22 30.12 35.60 36.27 35.83 36.59 37.29 38.37 39.57 40.75 41.16 41.13 41.42 42.45 42.44 42.58 43.01 42.81 42.53 44.55 45.51 43.66 43.27 42.44 41.92 41.52 39.80 38.15 37.42 36.80 36.04 35.54 35.11 35.30 35.42 35.04 34.46 33.42 33.61 33.33 33.59
31.28 30.88 30.80 32.49 27.34 21.16 17.31 24.63 31.32 34.80 37.29 37.26 37.07 36.42 37.64 38.38 39.05 39.52 40.21 40.23 40.37 40.13 40.17 40.01 40.00 39.84 39.46 39.79 40.22 40.36 39.44 40.18 38.63 37.76 36.57 36.05 35.57 35.08 34.55 34.39 33.69 33.50 33.57 33.46 32.57 32.69 32.27 31.85 31.74
33.05 33.18 34.80 29.99 25.31 23.32 24.34 25.33 33.25 34.21 35.11 36.10 37.08 38.16 37.96 38.55 39.00 38.90 38.61 38.22 37.90 38.35 38.30 38.40 38.01 38.10 37.80 38.13 38.22 37.53 37.14 36.81 36.43 35.45 34.75 34.23 33.43 33.36 33.01 32.93 32.59 32.25 32.27 31.92 31.67 31.18 31.20 30.35 30.08

GFSSGP_sfc_wetblb_108.txt.gz
Wetbulb
56.82 52.43 51.15 50.04 42.66 40.72 37.41 41.43 43.92 44.10 43.23 48.42 51.68 49.17 50.27 52.28 49.31 45.29 61.20 64.76 67.05 66.86 68.68 69.77 71.15 71.15 69.95 69.76 70.12 70.11 70.07 69.03 68.74 68.79 68.87 68.69 68.81 68.51 68.29 68.18 68.59 68.94 69.45 69.47 68.33 68.75 69.02 68.42 68.09
51.32 53.38 50.38 45.07 39.40 35.40 36.48 39.86 43.79 45.17 51.36 52.49 51.28 51.42 51.54 49.50 57.77 60.06 61.04 65.49 67.24 67.30 68.72 68.92 70.26 71.11 69.98 70.00 69.82 69.67 70.11 70.13 69.23 68.65 68.40 67.86 67.94 68.08 67.78 67.96 67.43 68.59 68.96 68.94 67.96 68.37 68.30 67.84 67.44
52.42 50.67 46.80 41.94 36.87 35.76 37.03 41.68 44.48 47.98 52.18 45.20 49.83 52.90 52.31 53.46 59.90 60.49 63.28 66.24 67.43 67.47 68.18 68.92 70.35 70.85 69.73 69.82 69.56 69.64 69.76 70.50 69.29 68.06 67.47 67.39 67.27 67.56 67.21 67.32 66.91 67.85 67.71 68.34 67.32 67.39 67.76 67.55 66.96
50.25 48.59 45.12 39.87 36.55 38.16 39.59 43.30 45.35 47.38 45.22 51.02 51.24 50.76 54.27 59.49 60.73 63.20 65.68 66.45 66.50 66.44 67.51 69.20 70.32 70.58 69.41 69.90 69.72 69.82 69.50 69.87 69.78 68.41 67.34 67.60 67.59 67.28 67.19 67.46 66.86 66.66 67.38 67.46 66.89 66.46 67.24 66.97 66.41
48.43 45.04 39.37 36.76 36.27 37.66 39.73 45.96 46.08 44.18 43.97 46.94 48.49 49.38 51.46 59.99 64.01 65.16 64.96 65.59 65.57 66.48 66.97 68.42 69.80 70.09 69.91 69.52 69.43 69.39 69.19 69.11 69.11 68.19 67.15 67.61 67.85 67.24 67.39 67.04 66.54 65.96 66.39 66.76 66.38 65.72 65.91 65.64 65.36
45.72 43.35 36.82 35.05 35.33 39.52 42.82 45.91 45.35 43.47 46.13 49.21 51.42 51.47 51.95 61.73 62.75 63.54 64.67 63.86 65.86 66.65 66.34 67.88 66.89 68.30 68.61 68.83 69.32 69.22 68.82 68.29 68.37 68.40 67.64 67.36 67.60 67.67 66.97 66.40 66.29 66.02 65.88 66.04 65.75 65.31 64.73 64.65 64.41
43.54 40.63 36.52 35.98 35.86 39.99 44.74 45.71 43.74 44.79 47.57 47.52 54.00 50.21 53.59 60.43 61.32 63.51 63.36 63.71 64.99 65.59 64.91 65.77 66.89 66.68 66.15 66.84 67.26 68.15 68.11 68.06 67.99 67.65 67.62 68.00 67.86 67.74 67.33 66.90 66.54 66.02 65.46 65.25 64.92 64.70 64.30 63.97 63.67
46.32 43.02 37.02 35.40 36.76 39.19 42.92 44.00 45.05 46.03 42.67 52.60 53.85 49.72 54.64 59.95 62.28 62.62 62.84 63.47 64.25 63.98 63.61 65.57 65.48 65.92 65.05 64.82 64.31 65.34 66.54 66.84 66.39 65.18 64.22 63.84 64.53 65.14 65.03 64.33 66.20 65.80 65.33 64.77 64.23 63.79 63.67 63.23 62.82
47.44 41.83 36.96 38.84 37.23 39.12 42.00 41.94 42.10 44.76 48.66 47.78 52.02 53.32 56.28 60.72 61.74 61.64 60.84 61.24 62.55 63.54 63.67 63.59 65.49 65.16 63.75 63.38 62.01 63.21 64.26 64.24 63.02 61.65 60.41 59.54 59.39 60.62 61.43 63.03 65.21 65.61 64.95 64.37 63.75 63.27 62.52 60.78 60.21
44.35 39.62 40.39 42.93 40.02 40.35 42.08 42.56 43.29 44.66 47.42 48.33 51.09 55.51 60.07 60.88 60.88 59.36 58.13 58.31 59.53 60.35 62.20 62.68 64.04 65.47 63.59 64.43 61.80 61.58 61.19 60.80 60.19 58.97 58.27 58.74 58.30 58.46 58.99 58.89 61.60 62.76 62.33 62.69 63.20 62.31 60.34 58.05 55.70
42.96 41.45 41.84 43.67 41.84 42.33 42.25 40.59 42.71 44.49 43.68 48.94 50.66 55.31 59.43 59.80 59.60 58.77 57.08 57.44 58.51 60.11 61.32 61.79 60.92 64.82 65.02 63.01 60.13 59.46 58.90 58.54 58.67 58.32 58.43 58.26 57.59 56.76 56.46 56.08 56.12 56.19 56.28 55.47 56.72 56.16 56.09 55.62 55.36
41.86 43.64 42.42 43.72 43.17 41.98 41.70 42.24 41.26 44.08 44.85 47.86 53.58 57.87 59.23 59.08 59.13 58.52 57.36 56.95 57.49 58.56 59.12 59.88 60.56 62.19 63.62 63.27 59.88 58.89 58.18 57.63 57.62 58.18 58.74 57.49 56.38 55.57 55.19 55.27 54.82 54.58 55.15 54.55 54.39 55.00 55.37 54.97 54.96
43.14 42.16 44.34 44.11 42.62 42.25 42.46 39.64 40.41 41.90 43.00 51.69 56.16 57.96 58.47 58.86 58.97 59.56 59.64 59.01 57.81 58.12 58.65 59.19 59.68 60.36 61.09 62.84 59.86 59.42 58.68 57.98 57.92 58.21 58.65 57.69 56.69 55.76 55.57 54.95 55.20 54.72 54.78 54.83 54.36 54.26 54.38 54.11 54.33
46.32 46.50 45.34 44.85 42.32 40.95 40.31 38.35 39.58 40.64 48.72 53.69 56.22 56.09 57.80 58.65 59.08 58.89 59.07 59.27 58.77 58.63 59.20 59.52 59.73 60.39 60.22 61.09 60.16 59.88 59.34 59.34 58.88 58.63 58.68 57.69 57.04 56.08 56.27 55.87 55.68 55.36 55.19 54.58 54.51 54.05 53.49 53.22 53.02
47.20 44.27 46.27 44.90 42.10 41.04 40.00 36.86 39.40 39.23 50.32 52.53 54.18 54.82 55.14 57.48 58.17 59.05 60.11 60.02 60.24 60.04 60.16 60.01 60.30 60.15 59.72 59.56 59.84 59.43 59.53 60.10 59.70 59.69 59.37 58.28 57.46 56.11 56.20 55.65 55.29 55.54 55.16 54.55 53.77 53.25 52.67 52.39 52.54
45.26 41.75 39.23 44.97 40.35 41.21 39.29 36.01 40.60 41.82 49.64 51.01 52.29 52.12 53.66 54.59 56.22 58.58 59.96 60.54 61.09 60.82 60.42 60.78 61.47 60.87 60.06 59.42 59.66 59.90 59.79 59.91 59.96 60.25 60.22 59.59 59.24 57.73 56.18 55.61 55.42 55.52 55.08 54.49 53.61 52.80 52.13 51.54 51.32
41.56 38.61 37.97 40.93 39.82 38.48 38.99 36.78 39.01 41.06 48.05 48.90 50.25 50.66 52.24 53.26 54.07 55.71 57.89 60.30 60.88 61.39 61.39 60.95 61.16 60.50 60.46 60.08 59.95 60.22 60.17 60.17 60.57 61.36 62.19 61.81 61.35 60.15 57.84 56.44 56.06 55.37 55.14 55.99 55.88 54.94 52.56 50.94 53.86
36.50 37.56 35.63 39.12 37.70 36.33 35.75 37.35 37.84 37.45 45.35 47.85 49.04 49.62 50.33 51.95 54.82 55.91 56.34 58.59 60.57 61.60 61.99 61.94 62.03 61.59 60.79 60.16 59.85 59.96 60.08 60.50 62.47 61.98 62.56 62.51 62.24 61.28 59.75 57.41 57.71 57.57 57.12 56.73 56.40 55.61 54.09 54.63 52.93
39.52 37.88 37.33 36.00 38.85 35.01 35.31 36.78 39.96 36.98 34.75 40.12 44.92 46.60 48.02 50.46 53.93 55.19 55.93 56.54 57.18 59.75 61.15 61.68 61.49 61.58 60.82 59.42 59.49 59.45 61.20 62.48 62.71 63.11 62.80 62.59 62.44 61.93 60.74 59.91 59.05 58.11 56.98 56.62 57.08 56.01 54.84 53.70 53.23
36.44 34.15 35.56 37.20 37.51 34.54 32.72 35.49 36.87 35.66 36.60 37.86 41.15 41.22 44.21 44.80 44.61 48.25 50.48 52.16 54.07 57.42 59.73 61.08 61.85 61.70 61.87 61.72 61.26 60.45 61.17 62.46 63.43 63.42 63.14 63.17 63.10 63.02 62.18 61.35 60.29 59.39 58.21 57.33 56.69 55.80 54.96 54.43 54.22
36.99 33.64 33.46 34.81 35.54 35.10 32.53 33.05 33.76 36.48 35.48 36.86 37.78 38.56 38.92 42.04 42.46 43.99 45.30 47.02 51.22 54.32 57.21 60.02 61.32 61.85 62.24 62.43 60.85 59.31 61.09 61.90 61.61 62.01 62.16 62.46 62.66 62.40 62.04 61.80 61.32 60.39 59.41 58.51 57.25 56.39 54.50 54.34 54.02
33.23 37.87 36.21 34.94 35.39 30.25 33.86 26.58 31.49 34.20 36.63 35.77 37.92 36.95 38.71 38.22 38.70 40.99 42.92 43.43 44.78 50.90 54.03 58.26 60.25 61.28 61.83 61.67 61.38 61.24 60.57 59.92 60.75 61.17 62.03 60.90 61.68 61.49 60.65 61.01 60.70 60.10 59.52 58.33 57.09 56.62 56.16 55.24 53.00
35.53 37.79 36.31 35.26 32.18 29.56 29.95 25.49 30.49 29.51 32.48 35.03 36.73 37.92 39.64 40.54 38.84 39.69 41.34 43.17 43.04 43.87 45.38 48.92 55.29 58.58 60.55 61.26 61.73 61.12 60.57 61.19 60.40 60.11 57.50 55.59 55.36 56.82 58.02 58.56 58.42 57.30 56.53 55.45 55.16 54.11 53.84 53.88 52.71
39.12 37.09 35.00 32.11 31.02 24.35 31.06 28.55 27.78 30.09 33.21 35.33 39.78 38.50 40.25 39.24 37.68 38.69 39.98 42.14 44.03 45.72 45.93 44.54 44.18 52.17 58.90 60.60 61.27 61.16 60.96 59.61 58.98 57.74 54.96 53.17 51.77 50.97 51.06 51.14 50.98 50.78 50.76 50.30 48.82 46.40 45.40 44.87 44.38
36.61 34.15 26.45 24.22 22.47 23.62 24.63 25.16 33.27 33.56 33.93 36.44 38.89 40.39 40.18 38.05 37.41 38.00 40.07 42.06 43.43 45.14 46.74 45.75 43.85 43.61 51.51 60.48 60.64 60.83 60.61 59.65 58.89 57.15 53.97 50.30 48.19 46.88 46.22 46.15 45.39 44.96 44.34 43.28 41.82 39.94 38.96 38.84 37.77
34.01 34.38 27.38 19.97 19.83 23.82 25.36 24.79 29.95 35.94 36.20 35.91 35.91 36.34 36.03 36.97 39.02 39.75 41.41 42.90 43.27 44.88 46.60 45.51 44.20 43.90 46.09 57.55 60.15 60.97 57.05 59.26 58.42 55.41 52.51 49.31 46.18 44.15 42.89 41.60 40.72 39.69 39.35 37.58 37.30 36.57 36.15 35.34 34.68
30.23 30.74 35.07 26.83 18.58 21.06 25.44 28.47 33.19 34.20 36.18 35.52 35.60 35.98 36.76 36.97 37.29 39.72 40.15 42.01 42.62 43.27 44.99 45.41 45.25 45.98 47.63 51.69 58.16 57.68 57.83 55.11 52.10 49.10 46.86 44.72 42.65 41.14 39.44 37.83 37.14 36.82 36.32 35.22 34.53 33.92 33.44 33.64 33.29
33.88 36.78 28.91 27.96 20.46 17.09 23.30 24.15 28.38 31.02 35.47 38.10 36.72 37.10 39.66 36.72 37.07 39.32 40.36 40.94 41.18 42.87 43.98 44.08 44.71 44.77 46.76 49.54 51.27 51.61 51.90 50.79 47.69 45.57 42.79 41.46 39.58 38.38 36.20 35.10 35.09 34.41 34.06 33.98 33.43 32.55 32.53 32.27 32.42
29.21 30.54 30.34 32.13 27.68 21.82 17.53 26.31 31.55 35.23 37.22 37.44 38.36 36.59 37.17 37.31 37.95 39.22 39.95 40.12 40.23 40.60 41.02 41.16 41.63 41.39 43.73 45.28 44.28 45.13 44.25 44.25 43.63 42.44 40.64 39.05 37.53 35.23 34.19 33.90 33.61 33.44 32.67 32.60 31.98 31.76 31.35 30.72 30.26
31.29 31.44 33.56 28.99 24.89 23.22 24.70 29.72 33.23 34.47 34.92 35.16 36.10 37.10 37.92 38.19 38.53 38.85 39.07 39.23 39.24 39.81 39.30 39.44 38.66 39.03 40.68 41.80 42.13 41.01 40.78 40.59 39.24 37.86 36.20 36.94 34.21 33.61 33.33 32.79 32.60 32.30 31.69 31.52 31.28 30.54 30.02 29.58 29.57

GFSSGP_sfc_wetblb_111.txt.gz
Wetbulb
58.89 53.57 53.41 52.87 45.66 45.00 41.76 44.98 48.13 47.11 47.93 52.51 53.58 52.77 53.56 54.46 52.57 48.83 63.75 65.99 68.38 68.65 69.91 70.97 70.86 70.81 70.20 70.25 70.23 69.99 70.01 69.39 69.32 69.30 69.94 69.04 68.76 68.70 68.96 69.26 69.67 70.27 69.05 69.03 69.13 69.07 68.49 68.07 67.83
53.06 54.04 52.89 48.46 42.32 39.35 40.93 44.54 46.32 47.84 53.56 54.32 53.71 54.47 54.15 54.29 59.32 61.29 62.82 67.24 68.44 69.11 70.08 70.29 70.10 70.47 70.15 70.14 70.01 70.31 70.47 69.88 69.26 68.72 68.68 68.23 67.97 68.28 68.15 68.72 69.05 68.97 68.69 68.36 68.65 68.72 68.05 67.31 66.91
54.32 51.98 49.71 44.16 39.95 39.42 40.39 44.36 47.41 50.87 52.94 50.55 53.44 55.81 55.74 56.05 60.16 61.75 65.02 67.65 68.67 68.76 69.86 69.99 70.00 70.37 70.14 69.93 70.38 70.40 70.42 69.75 68.71 67.82 67.60 67.88 67.43 67.43 67.47 67.93 68.45 68.54 68.21 67.50 67.87 68.26 67.58 66.89 66.32
51.97 51.41 47.56 42.73 41.32 43.12 43.03 46.65 48.60 50.92 49.84 52.34 53.98 53.66 57.48 61.17 61.55 63.92 66.86 67.85 67.87 68.46 69.76 69.80 69.98 70.18 69.81 69.90 70.02 70.31 70.39 69.86 68.21 67.65 67.68 67.52 67.15 66.63 66.92 67.03 67.40 68.20 67.11 66.57 67.69 67.76 66.88 66.37 65.68
50.70 47.93 42.11 40.80 41.25 42.55 42.70 48.06 50.17 47.90 47.90 51.12 52.62 52.85 55.30 61.97 64.88 65.44 66.60 67.09 66.40 67.87 69.42 69.81 69.47 69.66 69.88 69.86 69.84 70.04 70.22 69.74 68.44 67.96 67.37 67.01 66.80 66.89 67.18 66.53 66.49 67.09 66.52 66.56 66.46 66.42 65.94 65.60 65.27
48.11 46.15 39.74 38.51 40.00 42.91 45.97 47.79 48.10 46.70 48.50 51.95 53.47 54.20 56.03 62.61 63.37 64.63 66.40 66.06 66.73 67.30 68.83 69.40 66.91 67.86 68.85 69.43 69.37 69.53 69.53 69.42 68.83 67.73 67.80 67.40 67.92 67.43 66.46 66.30 66.22 66.15 66.00 66.17 65.53 65.33 65.02 64.79 64.82
47.19 43.60 39.96 39.33 39.47 43.40 46.75 47.00 46.25 47.27 49.62 51.35 55.64 52.81 56.79 60.71 63.45 64.67 64.93 65.29 65.64 66.81 67.73 68.54 68.52 66.93 65.90 67.32 67.54 68.01 68.54 68.58 68.29 68.18 68.11 67.98 67.80 67.55 67.35 67.04 66.10 65.84 65.77 65.45 65.16 64.68 64.46 64.20 63.97
47.18 44.53 40.04 39.78 39.25 42.72 45.73 45.89 47.33 49.48 48.57 54.79 56.37 51.64 55.04 60.19 63.87 64.09 63.96 63.66 64.28 65.91 66.58 67.46 67.75 67.38 66.67 67.13 64.36 65.42 66.59 66.86 66.31 65.86 65.36 64.62 64.73 64.92 65.12 64.67 66.00 65.46 64.98 64.49 64.26 63.97 63.65 63.42 62.97
49.10 41.59 39.12 41.25 39.61 42.98 44.15 44.75 46.05 48.57 52.17 51.79 54.28 55.22 58.17 62.41 63.18 62.62 61.13 61.76 62.96 64.44 65.29 67.29 67.05 66.53 65.76 65.35 63.31 63.64 64.05 63.62 63.03 62.45 60.88 61.32 64.16 64.22 64.75 63.58 65.15 65.22 64.76 64.17 63.91 63.18 61.92 60.20 60.51
45.15 41.68 42.27 45.00 42.12 42.44 43.71 44.64 45.19 47.86 49.41 50.59 53.43 57.87 60.71 61.91 61.64 60.38 58.51 58.39 60.08 61.67 62.74 65.46 66.63 65.80 65.41 64.62 64.55 64.95 63.86 63.02 62.21 61.84 61.87 61.90 62.07 62.23 62.14 60.66 61.06 61.53 61.39 63.19 63.09 61.77 59.82 59.20 60.02
44.11 42.68 43.65 43.06 44.22 43.90 43.78 42.96 45.72 46.64 46.45 49.47 51.44 55.73 59.60 60.28 60.86 59.15 58.30 59.15 60.04 61.70 62.08 63.87 65.22 65.70 65.28 64.08 63.38 62.93 62.66 62.33 61.49 61.00 61.37 61.18 60.59 60.69 60.57 60.52 60.34 60.45 57.34 59.76 59.99 59.88 59.99 59.58 59.63
42.95 43.82 43.81 45.06 43.74 43.40 42.65 43.40 43.73 46.62 47.56 48.40 53.45 58.04 58.79 59.36 58.84 58.72 57.96 58.07 58.95 60.31 61.37 62.43 64.18 65.02 65.03 64.22 62.76 61.86 61.14 61.09 61.11 61.08 61.22 60.81 59.99 59.82 59.58 59.61 59.27 59.49 59.84 59.16 59.44 59.79 59.39 59.04 58.75
44.30 43.68 45.84 46.08 43.80 43.77 42.91 41.90 43.24 44.57 45.39 51.71 56.47 58.66 58.68 59.39 59.36 59.80 59.26 58.83 58.82 59.37 60.80 61.45 62.70 63.67 63.77 63.23 62.38 61.40 60.69 60.48 60.85 61.06 61.41 60.90 60.18 59.58 59.20 58.92 59.49 59.36 59.66 59.78 59.61 59.40 58.87 58.54 58.21
46.91 46.03 46.30 46.30 45.05 43.22 41.72 40.29 42.25 43.74 51.22 53.38 56.19 57.70 58.83 59.56 59.54 59.46 59.06 58.49 58.49 59.29 60.00 61.77 61.79 62.28 62.55 62.05 62.26 61.36 61.08 60.76 60.91 61.35 61.63 60.47 60.53 60.00 59.96 59.48 59.72 60.01 60.06 59.36 59.48 59.04 58.66 58.23 57.68
47.18 44.48 46.24 46.15 43.08 42.40 42.42 39.11 40.86 42.61 51.76 52.71 54.01 55.94 58.05 58.58 59.37 59.43 60.11 59.36 59.22 59.62 60.10 60.25 61.67 62.10 61.98 61.72 62.40 61.90 61.81 61.43 61.09 61.35 61.76 60.54 60.08 59.49 59.71 60.19 59.96 60.21 59.92 59.18 58.78 58.35 58.00 57.98 57.26
45.49 44.28 40.49 45.21 42.59 41.44 42.42 38.16 42.76 43.42 50.52 51.20 52.61 53.59 55.43 57.75 58.92 59.82 60.44 60.90 60.74 60.09 59.74 60.50 61.10 61.14 61.64 61.32 61.82 61.73 61.72 61.74 62.28 62.44 62.60 61.27 60.69 59.93 59.74 59.51 59.55 59.74 59.47 59.36 58.76 58.24 57.88 57.33 57.33
43.04 39.26 38.34 42.29 42.71 40.90 39.63 39.06 41.50 43.09 47.88 49.04 50.89 52.10 53.80 55.22 55.53 58.35 60.07 61.17 61.31 61.23 60.74 60.48 61.02 61.01 60.87 61.17 61.15 61.61 61.79 61.61 62.26 62.79 62.80 62.51 61.53 60.43 59.74 59.78 59.73 59.27 58.80 57.70 57.52 56.62 56.36 57.12 58.02
37.42 38.98 38.59 40.22 39.91 37.51 36.91 38.49 41.02 40.32 45.68 46.13 49.54 50.84 52.31 54.01 55.64 56.79 58.33 60.49 61.38 61.87 61.99 61.78 61.48 61.44 61.53 61.51 61.04 61.32 61.76 61.85 62.30 62.82 62.90 62.83 62.33 61.51 60.57 60.24 59.75 58.68 58.28 58.17 57.63 58.29 56.76 57.11 58.13
42.27 41.18 40.33 37.02 43.31 37.95 36.26 37.34 41.16 40.95 39.55 42.12 47.02 49.92 51.02 52.75 55.83 56.05 56.90 58.44 59.95 61.44 61.73 61.95 61.51 61.78 61.33 60.74 60.63 60.44 60.62 61.84 62.58 63.02 62.97 62.95 62.78 62.30 61.21 60.74 60.37 59.40 58.17 58.33 57.78 57.37 56.48 56.06 57.30
39.13 37.40 37.46 40.39 38.04 36.70 35.46 36.12 39.22 38.22 39.04 39.41 42.57 46.38 50.10 50.51 50.37 53.88 55.63 56.31 57.43 59.77 61.28 61.80 61.97 62.10 61.74 61.99 61.90 61.92 62.43 63.37 63.74 63.55 63.44 63.07 62.84 62.61 61.97 61.61 60.52 59.73 58.77 58.19 57.66 56.94 56.45 56.83 56.94
37.41 34.65 34.54 35.11 36.56 36.30 34.08 34.63 36.41 37.53 37.56 38.00 38.59 41.98 44.86 48.90 50.58 49.40 50.29 53.70 56.19 56.96 59.15 61.23 62.18 62.30 62.45 62.41 61.71 60.91 62.07 62.18 62.48 62.86 62.85 63.05 63.24 63.18 62.59 62.38 62.70 61.06 59.99 59.29 58.45 57.73 56.92 56.18 55.06
36.12 38.62 37.46 35.28 34.41 31.45 35.53 27.34 33.95 36.79 37.17 36.70 39.27 37.71 40.42 42.53 44.30 48.00 48.22 48.16 51.58 55.53 57.85 59.88 61.46 62.31 62.54 62.88 62.03 61.54 61.32 61.06 62.26 62.37 62.62 62.52 62.69 62.55 62.15 62.07 62.67 61.68 60.42 59.39 58.33 57.58 57.43 56.68 53.95
35.43 37.01 34.80 35.05 32.78 30.15 29.87 28.25 30.35 33.54 33.69 35.60 38.25 38.55 40.02 41.78 41.97 43.20 44.47 47.50 48.57 50.96 54.52 57.56 59.74 61.30 62.28 62.59 62.81 62.01 61.84 62.45 62.36 61.91 59.98 58.46 58.97 60.61 60.64 60.96 60.36 58.93 57.94 57.21 56.69 55.77 55.23 55.49 54.82
38.80 37.01 36.80 32.08 30.84 24.95 30.69 29.80 28.23 33.89 33.75 37.48 39.15 40.10 41.36 41.96 40.57 41.08 40.47 41.81 44.18 45.26 47.95 51.87 56.86 59.24 61.25 61.83 62.41 62.17 62.11 61.40 60.49 58.74 56.94 56.41 55.13 54.07 54.34 54.50 54.74 54.22 53.55 52.32 50.62 49.84 50.17 49.79 48.81
36.70 34.49 27.97 26.07 25.41 23.84 25.98 27.87 34.34 35.91 35.34 37.44 40.20 41.11 42.27 41.88 40.89 40.27 39.80 40.74 42.44 44.71 45.70 46.26 48.40 54.96 59.60 60.97 61.50 61.91 62.02 61.64 60.69 58.77 56.92 53.62 51.52 51.60 50.14 49.90 49.23 48.56 47.82 46.18 45.65 45.17 44.04 44.04 43.27
35.67 35.22 25.79 19.14 19.63 23.12 25.35 25.84 31.39 36.68 40.55 37.85 37.50 38.40 37.85 38.39 39.26 39.78 40.79 41.72 42.40 44.66 46.43 46.67 45.28 45.76 50.76 59.99 60.60 61.42 61.81 61.52 60.69 59.17 56.28 54.62 51.69 48.66 46.05 45.10 44.77 43.56 42.58 41.72 41.27 40.74 39.52 39.43 39.52
33.40 32.60 33.60 25.84 16.05 20.85 25.56 29.35 33.94 34.37 36.01 36.60 36.48 37.58 38.85 39.04 38.99 39.34 39.81 40.89 42.12 43.90 45.74 46.56 45.47 45.07 45.19 48.38 58.37 59.95 60.75 60.05 58.21 55.58 53.87 49.95 46.34 43.95 42.32 42.09 41.07 39.80 39.31 38.78 38.46 38.20 37.11 37.38 37.09
35.24 37.41 30.35 27.77 16.53 15.76 23.58 24.95 29.94 31.75 35.23 37.54 37.95 38.16 38.80 38.44 38.60 38.74 39.74 40.99 42.31 43.76 45.39 46.25 45.97 45.72 46.26 47.57 50.80 56.03 58.77 57.31 54.41 51.34 48.10 46.14 42.75 41.03 39.76 39.20 38.36 37.37 37.00 36.90 36.90 36.28 35.88 35.64 35.39
29.62 31.37 30.98 31.88 26.27 19.88 17.36 25.27 32.25 35.89 37.00 37.40 37.21 37.40 38.51 39.04 39.02 38.97 40.34 40.98 41.95 42.67 44.02 44.90 44.88 44.97 45.55 47.86 49.12 51.14 52.02 51.45 49.66 48.70 45.74 43.75 40.90 39.53 38.24 37.38 36.56 35.81 35.38 35.35 35.18 34.84 34.38 33.73 33.47
32.68 31.37 32.92 27.27 22.98 22.89 23.93 26.06 33.48 34.87 36.53 36.54 37.34 37.62 37.38 38.77 39.21 39.05 40.12 40.61 40.62 41.65 42.49 43.19 42.92 42.86 43.57 45.67 45.90 45.88 45.57 45.70 45.83 44.49 42.33 40.47 38.17 38.02 36.55 36.09 35.24 34.56 34.31 34.35 34.15 33.35 33.10 32.87 32.27

GFSSGP_sfc_wetblb_114.txt.gz
Wetbulb
61.99 58.81 60.05 59.83 51.04 52.28 48.19 49.27 53.68 52.03 52.67 54.72 58.20 57.23 56.94 58.36 55.52 52.80 66.47 67.84 69.14 69.46 70.58 71.13 70.88 70.91 70.08 70.29 70.15 70.15 70.42 70.30 70.51 70.20 69.80 69.10 69.20 69.27 69.60 69.66 70.00 69.71 69.52 69.05 68.45 68.24 67.99 67.68 67.58
59.05 57.35 60.05 56.88 48.61 45.45 47.81 51.23 51.06 53.14 56.12 58.15 58.32 58.22 57.49 56.88 60.34 62.15 64.51 68.02 69.24 69.66 70.28 70.64 69.75 70.45 69.73 70.17 70.28 70.16 70.01 69.90 69.17 68.67 68.60 68.50 68.60 68.81 69.54 69.72 69.46 68.83 69.23 68.76 68.24 67.69 67.14 66.57 66.22
57.40 56.55 55.79 52.48 49.74 46.41 47.50 51.13 53.84 55.80 56.57 56.52 56.93 59.64 58.62 58.08 61.04 63.52 67.32 68.77 69.46 69.67 70.29 70.08 69.68 70.16 69.73 69.86 70.52 70.33 70.05 69.45 69.00 68.15 68.00 68.07 67.83 67.81 68.91 69.00 68.97 68.26 68.52 68.28 67.39 67.36 66.68 65.86 65.26
57.44 57.79 55.25 49.74 45.75 48.34 48.43 52.39 54.17 55.12 53.80 56.34 57.90 56.10 60.87 63.51 62.40 65.80 67.97 69.00 68.97 69.13 70.20 69.24 70.01 70.20 69.53 69.95 70.75 70.16 69.54 68.96 68.85 68.33 67.86 67.26 67.43 66.64 67.99 68.72 67.82 67.02 67.34 67.45 67.04 66.91 66.21 65.47 64.79
58.85 55.67 50.26 48.08 46.31 48.33 48.85 52.10 56.11 53.95 53.91 56.20 57.44 55.60 58.03 63.53 66.33 67.24 67.91 68.73 68.03 69.02 70.32 69.73 69.51 69.74 69.91 69.94 70.59 70.31 69.35 68.72 68.86 68.11 67.58 67.59 67.09 66.93 66.21 67.29 67.42 66.65 66.52 66.72 66.49 66.10 65.76 65.20 64.46
55.31 54.65 48.28 46.70 46.59 48.08 50.83 53.63 56.06 53.25 54.50 55.57 55.94 57.52 59.36 64.58 64.72 65.97 67.78 67.96 68.50 68.52 69.50 69.43 66.87 68.05 69.02 69.82 69.96 69.94 69.14 68.71 68.62 68.44 68.42 68.22 67.46 66.86 66.32 66.68 66.96 66.41 65.95 65.74 65.63 65.30 65.23 64.94 64.06
52.80 51.33 48.52 47.31 46.85 47.53 50.78 54.65 54.11 53.24 53.75 54.36 59.48 56.07 59.07 61.72 64.91 66.74 67.12 67.80 67.53 68.65 69.69 69.66 68.31 67.42 66.33 67.29 67.81 68.53 68.92 68.44 68.39 68.42 68.06 67.82 67.62 67.46 66.81 66.51 66.11 65.64 65.63 65.22 64.93 64.73 64.41 64.07 63.46
54.00 52.33 46.70 47.59 46.29 46.62 52.20 52.89 52.68 53.62 52.97 58.82 60.62 54.84 57.10 61.41 64.63 65.94 65.78 66.30 66.08 67.70 69.09 69.20 67.94 67.28 67.93 68.29 64.43 65.54 66.60 66.38 66.71 66.56 65.02 64.24 64.72 65.38 65.33 64.65 65.61 65.10 64.64 64.48 64.08 63.87 63.82 63.39 62.73
52.52 49.09 46.02 47.37 45.72 48.11 52.18 51.02 52.32 54.42 56.14 57.18 58.13 58.49 61.65 63.48 64.08 64.01 62.85 63.32 63.67 65.74 67.12 68.88 67.83 66.61 66.97 67.33 65.25 64.02 63.56 63.41 63.31 63.25 61.84 63.15 65.51 65.52 64.96 63.59 65.02 64.86 64.42 64.16 63.49 62.59 61.61 61.07 60.90
50.46 47.86 48.27 49.31 48.36 48.27 51.30 52.65 51.46 53.39 54.54 54.57 56.67 60.07 63.20 62.89 62.70 61.47 60.61 60.97 61.24 62.92 66.13 68.28 67.98 66.59 66.00 65.85 66.74 66.56 65.60 65.55 66.49 66.68 66.26 65.83 65.40 65.14 64.27 61.33 60.56 60.78 62.72 63.50 62.49 61.42 59.98 61.63 62.97
46.55 49.64 49.49 46.56 48.65 48.27 49.03 49.20 52.84 52.63 52.04 54.73 55.25 58.53 59.95 61.31 61.70 60.47 61.08 61.52 62.11 63.96 65.18 66.60 67.41 67.42 66.31 65.14 65.93 66.03 65.33 64.54 65.45 65.88 65.77 65.15 64.39 64.34 64.11 63.61 63.18 62.65 59.15 63.06 62.70 62.79 62.55 62.08 62.47
45.24 44.87 46.01 48.03 47.00 47.37 47.48 49.85 49.64 52.51 52.92 54.78 58.03 60.89 60.17 59.80 60.61 61.77 60.52 61.63 61.71 63.13 63.82 65.60 66.91 66.79 66.89 66.19 64.92 64.84 64.35 64.13 63.61 64.07 64.57 64.26 63.91 63.62 63.08 62.82 62.72 63.25 63.21 62.47 63.37 63.05 62.56 62.22 61.87
48.10 47.19 46.93 47.94 47.93 47.44 47.25 47.54 50.03 50.69 51.36 54.08 58.59 60.54 60.11 60.15 61.25 62.76 62.68 61.95 61.96 61.79 62.87 64.34 65.79 65.74 66.11 66.03 65.35 64.04 63.77 63.87 63.70 63.65 64.25 64.67 63.82 63.09 62.78 63.01 63.29 63.60 63.86 63.80 63.45 63.41 63.06 62.85 62.12
49.63 47.41 47.69 47.32 48.17 46.45 46.49 46.27 47.45 51.23 53.94 55.46 58.33 59.57 60.62 61.00 61.51 61.70 62.54 61.52 60.76 61.58 61.71 62.50 64.15 65.02 64.46 63.51 65.48 64.17 63.53 63.53 64.06 64.42 64.79 64.27 64.40 63.84 63.40 63.46 63.73 64.08 64.28 64.15 64.01 63.51 63.25 62.99 62.28
49.67 45.93 47.14 46.40 44.12 44.68 46.58 44.19 45.24 49.67 53.56 54.85 57.16 59.13 60.35 61.75 61.96 61.02 63.02 61.55 60.76 61.14 62.90 63.55 64.65 64.04 63.48 63.71 64.17 64.57 63.88 63.07 64.04 64.57 65.00 64.17 64.03 63.59 63.65 64.03 63.74 63.78 63.87 63.49 63.63 63.24 63.16 62.99 62.21
48.30 48.28 42.99 44.91 44.35 43.32 45.90 44.91 47.44 49.47 52.74 53.28 55.94 58.37 59.17 60.21 61.54 62.43 63.79 62.45 62.18 61.42 61.44 62.97 63.74 64.26 64.22 64.35 65.22 65.16 64.82 64.35 63.88 64.52 65.16 64.15 63.71 63.43 63.39 63.59 63.42 63.78 63.40 63.46 63.66 63.44 62.78 62.42 62.43
45.47 41.38 44.32 46.62 45.37 43.45 44.07 43.97 45.50 47.65 51.42 51.97 55.09 56.85 58.46 59.43 60.63 62.51 63.09 63.57 63.32 62.31 61.40 61.83 62.97 63.22 63.72 64.34 64.61 65.29 65.06 64.80 64.60 65.44 65.77 65.22 64.03 62.29 63.44 63.58 64.01 63.66 63.00 60.47 60.64 61.90 60.32 60.60 62.25
39.55 42.57 43.08 45.21 45.19 43.16 44.51 44.55 48.08 46.53 48.68 50.44 53.16 55.83 57.13 58.39 59.90 62.34 63.36 64.40 64.79 64.47 62.51 62.04 62.63 62.91 63.20 63.50 63.82 64.05 64.37 64.41 64.77 65.17 65.81 65.78 64.06 62.13 62.12 64.04 64.28 62.75 60.96 59.83 60.37 59.32 61.75 60.30 60.82
44.50 45.21 44.43 44.05 47.96 43.71 43.72 46.05 48.87 51.17 45.91 48.49 50.52 53.57 55.69 57.24 60.10 62.23 63.36 64.12 64.29 64.97 64.61 63.44 62.11 62.60 62.83 62.34 61.87 62.54 62.27 63.30 63.96 64.91 64.68 63.96 63.46 62.98 62.27 61.81 62.22 62.63 62.39 61.78 61.70 59.96 59.13 59.01 60.84
45.70 43.98 44.57 46.15 42.50 42.37 44.02 43.88 47.32 48.56 46.72 47.61 49.06 51.36 54.28 56.39 58.08 59.74 61.20 62.87 63.63 64.45 65.00 65.13 64.28 63.63 63.57 63.19 63.63 64.01 63.82 64.49 64.85 65.24 64.04 63.71 63.79 63.47 62.57 62.29 61.79 62.45 61.42 60.37 60.05 58.69 58.16 58.14 59.57
42.16 43.63 41.83 41.29 40.34 41.20 41.19 42.64 44.11 46.04 47.19 46.99 46.83 49.28 52.01 55.26 56.34 57.77 59.53 61.03 62.24 63.20 64.36 64.81 65.30 65.38 64.93 64.76 64.63 64.35 64.96 64.86 64.10 63.84 64.17 63.90 64.03 63.71 63.53 63.21 63.37 62.26 62.22 61.91 60.07 59.53 58.72 58.06 57.24
35.80 40.58 40.09 38.85 38.35 37.69 43.27 38.39 45.17 46.25 46.56 43.88 46.23 47.16 48.09 51.32 55.56 57.46 57.91 59.39 60.91 61.98 63.59 64.66 65.30 65.59 65.50 65.51 64.35 63.26 62.57 62.20 63.75 64.16 64.12 64.60 64.97 63.94 64.67 63.61 63.53 63.78 64.27 61.96 60.60 59.55 59.21 58.76 56.28
38.09 42.46 40.42 38.78 37.33 36.24 36.82 35.51 42.31 42.63 42.64 45.78 44.85 46.69 47.61 48.84 51.43 54.02 56.66 58.02 59.51 61.34 62.36 63.03 64.06 64.82 65.55 65.32 64.88 64.09 63.34 64.58 65.50 65.08 64.53 64.36 63.43 63.84 63.94 63.72 63.51 63.08 62.38 61.01 59.01 58.29 58.35 58.43 57.80
41.18 39.08 38.47 36.87 35.69 32.05 37.93 35.90 39.49 41.96 42.10 44.87 47.31 47.06 47.33 48.02 48.62 49.94 53.23 55.87 56.97 58.70 60.05 61.55 62.04 63.16 64.63 64.99 64.84 64.56 64.01 64.09 64.05 63.96 63.38 60.89 60.73 61.36 63.18 62.61 61.80 59.52 58.02 57.23 56.70 56.19 55.97 56.01 55.99
39.76 37.33 29.93 28.46 28.25 30.75 32.78 34.13 39.54 43.80 44.19 45.88 46.92 48.16 48.24 48.83 48.29 47.75 47.90 47.04 50.78 54.06 55.31 58.14 60.02 61.02 62.96 63.99 64.27 64.55 64.48 64.51 64.12 64.10 63.31 60.47 56.99 56.08 56.47 57.15 56.55 54.79 53.48 51.85 51.06 51.67 52.91 53.22 51.46
37.92 39.14 30.97 25.95 26.87 31.92 29.52 30.46 38.41 43.03 46.88 45.69 45.15 46.95 47.11 46.62 46.57 46.57 47.80 48.62 49.38 49.40 50.56 53.26 55.13 58.28 60.86 62.48 63.25 63.91 63.97 63.87 64.54 64.76 63.77 61.56 59.85 59.24 54.73 54.64 53.94 50.17 48.54 47.13 47.84 48.09 47.80 47.62 45.94
36.88 34.40 37.30 30.52 24.94 28.03 33.49 36.48 40.27 42.63 41.12 42.27 42.76 42.36 44.67 46.01 45.49 45.24 46.00 46.91 47.67 48.28 49.55 50.98 51.98 53.93 57.38 59.92 61.82 61.67 61.89 61.73 62.10 63.26 63.66 61.65 59.59 53.93 49.76 49.31 47.49 44.99 44.32 44.91 46.17 44.49 42.71 43.32 43.36
39.84 41.96 32.58 34.13 26.01 24.83 31.80 31.22 35.58 39.70 41.09 42.42 41.87 42.92 44.37 44.38 44.55 45.11 44.77 45.87 46.94 48.34 49.73 51.39 52.32 52.49 52.96 54.73 60.12 60.04 60.89 61.54 61.52 60.97 59.27 57.05 53.70 50.03 48.55 45.04 45.18 41.55 41.77 43.33 43.47 42.10 41.61 40.89 40.79
36.58 35.59 36.67 37.55 33.51 28.97 27.67 34.71 40.62 40.13 42.26 42.94 43.61 43.23 44.29 44.48 45.07 45.17 45.56 46.11 47.01 47.85 48.83 50.21 51.21 51.41 50.74 50.72 52.09 56.91 60.23 60.29 58.52 55.86 52.57 50.53 47.78 46.94 47.07 46.31 42.08 40.60 40.40 41.41 41.40 40.66 39.81 38.99 38.02
40.16 37.73 37.72 33.07 29.52 32.37 29.73 33.60 40.75 40.97 41.32 41.62 42.97 43.01 43.77 43.71 44.31 45.25 45.35 44.84 45.32 46.22 47.80 49.03 50.26 50.86 51.26 51.22 52.09 52.23 54.33 56.73 54.86 55.67 52.19 48.75 44.96 46.20 41.98 43.18 40.07 40.01 39.76 39.90 39.39 37.94 38.29 37.48 36.87

GFSSGP_sfc_wetblb_120.txt.gz
Wetbulb
62.56 60.73 58.90 57.64 48.98 48.02 46.21 48.25 52.56 51.65 51.84 54.78 57.46 56.45 55.94 57.30 55.71 52.72 64.70 67.72 68.61 68.18 68.47 70.12 70.68 70.43 69.87 70.42 71.28 71.34 70.89 70.88 70.51 70.10 70.11 70.49 69.96 70.26 69.82 69.99 68.73 67.53 67.58 67.57 67.65 67.57 67.31 66.75 66.73
61.76 59.87 57.46 54.53 46.06 43.59 45.24 50.43 50.42 53.13 54.89 57.19 56.36 55.51 56.05 55.39 60.86 61.77 62.85 67.61 68.67 68.40 68.98 69.06 69.79 70.26 70.16 70.42 70.80 70.81 70.89 70.47 70.13 69.06 69.15 70.02 70.28 69.63 69.53 69.60 69.08 67.98 67.40 67.33 67.10 66.55 66.05 65.65 65.53
63.62 60.87 53.16 50.47 47.46 44.53 44.74 49.51 52.43 54.67 56.09 55.93 55.09 58.51 57.95 57.44 61.19 62.63 65.79 67.95 67.99 67.60 67.90 68.55 69.43 70.32 70.46 70.50 70.34 70.26 69.92 68.24 68.60 68.53 69.11 69.54 69.67 68.62 68.51 69.13 69.05 68.12 67.10 67.13 66.84 66.35 65.47 64.84 65.32
60.13 56.68 53.50 46.26 45.89 47.82 47.99 50.83 55.06 53.81 53.11 55.83 55.10 55.03 59.60 63.23 62.16 64.94 66.65 67.37 67.51 67.58 67.38 68.56 69.59 70.25 70.31 70.42 69.98 69.41 69.12 68.63 68.76 67.46 68.03 68.72 68.89 69.02 67.99 68.32 68.52 67.72 66.22 66.59 66.46 65.86 65.07 64.51 64.25
60.00 54.73 47.11 45.85 47.34 47.99 48.47 52.41 55.78 53.26 53.03 54.31 53.67 53.59 56.41 63.08 64.64 66.07 65.99 66.71 66.70 66.50 66.46 67.94 69.38 70.04 70.33 70.03 69.66 69.11 68.66 68.69 68.03 67.79 66.92 67.06 67.99 68.53 67.87 67.13 66.92 65.96 65.89 66.29 65.99 65.42 64.80 64.26 63.86
54.47 52.97 45.22 43.74 47.49 49.11 49.27 50.51 53.36 53.39 53.81 54.28 51.47 55.81 57.19 63.64 63.91 64.76 66.42 65.82 67.43 66.59 66.48 67.03 66.15 68.01 69.16 69.13 69.09 68.81 68.16 67.58 67.17 67.18 66.47 66.03 67.09 68.41 67.70 66.63 66.30 66.02 65.95 65.87 65.64 65.06 64.65 64.08 63.44
52.93 50.52 46.09 47.20 48.48 47.47 49.23 52.27 51.23 52.38 52.81 52.79 53.69 53.99 58.50 60.98 63.92 65.03 65.41 66.61 67.44 67.46 66.09 65.36 65.97 66.07 66.18 67.04 67.38 67.59 67.57 67.79 67.91 68.06 67.34 66.45 65.76 65.94 66.83 66.36 65.77 65.45 65.48 65.33 65.01 64.58 64.14 63.64 63.02
53.90 52.60 47.44 48.41 48.20 48.12 51.19 52.79 53.94 52.42 52.51 56.69 56.29 53.42 54.31 61.53 64.13 65.07 65.16 65.55 66.65 66.91 65.78 64.62 64.78 65.78 66.13 65.68 64.25 65.00 66.16 66.11 66.08 65.62 64.66 64.02 64.23 64.51 64.54 64.03 65.24 64.72 64.45 64.34 64.25 63.77 63.57 63.10 62.45
55.16 47.81 45.30 47.86 48.72 49.84 52.02 50.43 52.10 53.34 53.48 53.25 56.18 57.52 60.61 63.50 64.63 63.86 62.82 63.55 64.88 65.96 65.91 64.58 63.55 64.04 65.53 65.47 62.23 62.74 63.79 63.69 63.11 62.87 62.27 61.60 62.36 62.62 63.09 62.84 64.36 64.72 64.18 63.57 62.98 62.44 62.22 62.39 61.60
48.67 47.61 48.46 52.46 51.67 48.57 51.45 50.98 51.46 49.87 52.50 52.91 55.38 61.35 62.66 63.37 63.14 61.82 61.14 60.68 61.17 63.45 65.23 64.35 62.56 62.87 63.57 65.53 63.98 63.29 63.87 63.09 62.83 62.16 61.54 62.30 61.61 61.84 62.01 59.79 61.72 63.21 63.00 63.01 62.11 61.76 61.96 60.00 58.79
49.09 48.98 52.67 49.67 48.97 48.72 50.30 49.46 52.40 49.68 49.48 52.99 53.64 59.10 60.46 61.66 61.90 61.13 60.91 61.23 60.27 62.49 65.08 64.95 62.12 62.39 62.36 62.10 62.66 62.31 62.15 63.11 63.58 62.87 62.54 61.80 60.92 59.79 59.93 57.87 57.27 57.35 58.66 59.11 59.90 59.21 59.18 59.17 59.04
48.44 50.26 48.07 50.35 48.89 48.80 47.78 51.00 48.96 50.16 47.56 51.89 57.37 60.24 59.80 60.02 60.34 60.25 60.06 60.47 60.74 61.25 64.09 65.52 62.70 61.71 61.89 62.28 61.84 61.53 60.89 61.69 62.14 62.72 62.68 61.23 60.44 60.00 59.08 59.07 58.65 58.00 58.43 57.80 58.29 58.56 59.02 59.11 59.45
49.57 48.36 46.68 48.75 49.38 47.94 48.97 46.74 48.70 49.11 51.15 52.48 60.10 59.65 59.13 59.43 60.58 61.44 61.27 60.90 60.40 60.71 62.26 65.27 64.27 61.67 61.53 61.55 61.44 60.83 60.17 60.41 61.48 62.20 62.44 61.90 60.22 59.46 59.25 58.84 59.21 59.19 59.19 58.87 58.68 59.05 59.33 59.39 59.75
52.23 50.33 46.58 47.84 46.70 46.54 46.91 46.73 46.46 48.34 50.87 51.83 58.48 58.18 59.12 59.88 60.62 60.79 60.27 59.88 59.78 60.47 60.56 64.01 64.51 64.29 62.47 61.05 60.34 60.28 60.33 60.49 60.14 60.45 61.02 61.46 60.96 59.66 59.40 59.49 59.80 59.63 59.73 59.56 59.62 59.06 58.95 59.04 59.11
52.63 46.84 47.88 47.70 47.13 44.94 45.72 44.54 43.83 48.55 50.35 50.99 56.42 57.29 59.16 60.03 60.86 60.70 61.03 60.12 60.38 60.12 61.04 61.97 64.81 64.41 62.85 61.99 62.16 60.24 60.24 60.79 60.27 61.13 61.87 61.76 61.63 60.84 60.17 60.19 60.09 60.15 59.96 59.66 59.12 58.94 59.02 58.40 58.55
46.90 46.22 41.08 46.27 45.34 44.57 43.94 43.54 48.77 49.84 49.24 49.56 52.17 54.48 57.68 59.51 60.36 61.28 62.22 61.30 60.62 59.26 60.81 62.09 64.19 64.42 63.51 62.05 61.75 61.74 60.37 59.63 60.41 61.37 62.11 61.89 62.03 61.14 60.06 60.60 60.38 60.41 59.81 59.54 58.94 58.55 57.58 57.16 57.20
44.43 39.42 40.46 43.31 47.13 43.00 41.79 43.09 48.69 46.82 47.83 48.30 49.65 52.30 55.64 57.17 59.63 61.29 62.32 62.16 61.47 59.41 59.86 61.28 62.64 63.21 63.04 62.90 61.49 61.99 60.97 60.07 60.28 61.27 62.11 62.03 62.02 61.52 60.36 60.45 60.52 60.63 60.18 59.01 58.67 57.71 57.28 56.69 57.64
40.43 42.03 41.87 42.31 43.91 43.84 41.06 42.78 44.40 45.59 46.31 46.97 47.65 50.53 53.30 55.08 57.91 60.57 61.43 62.29 62.32 59.89 59.10 60.57 61.88 62.83 62.74 62.55 62.20 62.07 61.06 60.60 60.60 60.33 61.47 62.48 62.17 62.00 61.17 61.17 61.29 60.82 59.83 58.88 58.22 57.34 57.91 57.63 58.00
46.15 45.35 43.85 46.59 46.72 43.44 42.51 44.04 46.58 49.03 46.41 45.19 45.66 46.75 50.65 54.56 56.91 58.94 60.97 61.96 62.06 58.62 57.25 59.38 60.79 61.73 62.58 61.72 60.68 59.92 60.58 60.52 60.30 60.58 61.72 62.46 62.45 61.95 60.89 60.66 60.85 61.55 59.61 58.94 58.54 58.06 57.01 58.30 58.60
47.32 44.78 45.56 46.04 46.24 44.66 44.88 44.31 47.47 49.24 49.75 48.43 46.98 46.53 47.35 50.99 53.95 57.26 58.55 60.46 61.49 59.92 58.12 57.87 59.96 60.52 61.10 61.27 61.15 60.19 60.16 60.61 60.64 60.76 61.32 62.38 62.63 61.80 60.73 60.86 60.49 60.77 59.65 59.16 58.86 57.35 56.91 58.18 58.29
46.64 45.25 45.46 43.95 41.85 41.85 39.95 40.48 43.25 47.79 50.24 51.12 51.40 49.55 48.69 48.39 51.49 53.91 57.17 59.22 61.05 60.98 60.15 58.39 58.76 59.89 60.37 60.84 60.93 60.26 59.93 59.87 59.87 60.13 60.84 62.35 62.69 61.91 61.05 60.44 60.21 60.01 60.06 59.73 59.89 57.78 57.79 56.39 56.89
42.99 45.19 44.84 41.11 40.03 37.28 41.74 34.88 42.97 46.69 47.12 49.23 50.92 50.18 48.93 47.49 49.12 52.80 56.91 58.10 60.51 61.85 62.30 61.87 59.78 59.23 60.00 60.34 59.71 59.18 58.84 58.65 60.70 60.95 61.67 62.49 63.08 62.69 62.08 61.16 60.52 59.87 59.44 59.35 60.13 58.83 58.57 58.18 55.25
42.23 43.37 39.72 38.69 36.37 36.25 35.18 32.21 38.07 42.44 44.90 47.10 49.35 50.43 50.44 49.28 47.94 49.92 54.77 57.96 60.20 61.54 62.21 62.79 62.80 61.14 60.23 60.10 60.13 59.70 59.55 61.00 61.76 61.84 61.74 62.63 62.64 62.70 62.56 61.96 61.07 60.65 61.24 60.61 59.10 58.28 57.95 57.90 55.97
42.31 39.68 38.69 36.23 36.51 31.11 36.53 34.23 35.07 40.32 42.81 44.49 48.25 50.57 51.41 50.66 48.66 48.66 52.24 56.84 58.34 60.05 61.52 62.47 62.65 62.91 62.95 61.13 60.40 60.96 60.80 61.29 61.15 61.28 61.54 62.41 62.69 62.83 62.66 62.08 61.44 61.50 61.61 60.18 59.46 58.06 57.98 57.77 56.82
40.49 39.17 31.16 30.42 29.36 30.10 33.86 34.00 38.65 43.46 45.40 43.61 45.01 45.93 48.05 50.40 48.57 47.27 48.31 51.58 55.19 57.18 59.75 61.23 62.08 62.10 63.15 63.19 62.47 61.96 62.44 62.40 61.88 61.80 61.92 62.17 62.09 62.07 61.96 61.75 61.09 61.24 61.29 59.75 57.93 57.12 56.80 56.42 55.81
38.14 39.04 31.27 25.62 25.94 28.11 28.33 29.23 35.85 43.00 43.36 42.16 43.18 45.53 42.72 43.58 48.20 47.02 47.28 48.87 52.92 55.18 57.79 59.24 59.38 60.84 62.10 62.83 63.12 63.58 63.29 63.16 63.01 62.73 62.98 62.70 62.64 62.07 62.08 61.68 61.10 58.97 55.56 54.80 55.62 55.08 54.32 53.76 52.84
37.59 36.90 37.90 28.64 22.43 25.07 29.60 33.83 39.66 42.03 41.49 41.49 41.04 41.31 39.98 41.20 43.78 44.51 45.53 46.63 47.79 51.03 53.82 56.91 58.32 58.54 59.41 60.87 62.50 62.96 63.38 63.21 63.02 63.00 63.12 63.04 62.92 62.29 58.87 59.16 58.39 55.03 53.31 52.44 52.38 51.93 50.39 49.64 45.88
40.49 41.57 33.82 32.63 21.91 20.68 28.28 28.87 32.35 36.04 38.66 41.17 40.16 41.68 42.65 43.12 43.28 43.62 43.93 45.04 45.62 46.45 47.56 49.68 53.60 55.37 57.54 57.82 59.98 61.69 62.63 62.91 63.15 62.91 62.29 62.44 62.41 60.95 58.79 57.02 56.51 53.00 51.84 51.45 50.62 47.31 45.63 43.86 42.46
35.65 35.61 36.73 37.11 33.65 25.91 24.52 30.15 36.85 39.06 38.89 38.66 40.66 41.31 40.97 40.81 41.41 42.40 42.79 43.48 43.87 43.97 44.17 45.20 46.27 47.56 49.56 53.53 55.46 57.63 59.82 61.22 61.48 61.94 61.02 59.46 58.56 57.07 56.44 54.88 52.31 51.03 49.98 49.30 47.54 44.67 42.72 41.23 39.46
38.98 37.94 38.12 33.01 29.62 31.53 29.46 29.30 38.66 39.13 39.44 39.51 39.87 40.71 40.54 41.62 41.90 41.92 42.56 42.76 42.71 43.00 43.35 43.72 44.46 45.86 46.71 48.13 49.61 52.22 55.37 56.52 56.90 57.19 57.08 56.98 54.81 52.98 53.28 51.67 50.68 49.13 48.15 46.40 45.01 42.71 41.10 40.25 37.82

GFSSGP_sfc_wetblb_123.txt.gz
Wetbulb
64.80 62.73 55.01 53.37 45.22 43.00 40.65 44.90 49.33 49.71 49.45 52.76 55.17 55.04 55.11 56.12 54.76 51.77 64.73 67.13 67.99 67.48 69.72 69.77 70.53 70.80 71.05 71.76 71.34 71.03 71.29 71.28 70.71 70.84 70.36 70.76 70.37 70.32 68.39 68.31 68.44 67.40 67.47 67.45 67.42 67.29 67.08 66.72 66.56
63.08 61.80 53.12 48.99 41.63 38.56 40.89 46.11 47.78 50.75 52.88 54.82 55.69 55.62 55.64 54.30 59.55 60.74 64.00 67.51 67.33 68.18 68.95 68.63 69.42 70.30 70.54 71.29 71.30 71.15 70.78 70.77 69.99 70.35 69.91 70.59 69.74 69.53 69.14 67.95 68.21 67.43 67.16 67.01 66.69 66.35 66.19 66.29 66.65
62.47 61.03 49.15 46.42 41.86 38.90 41.07 46.51 49.85 51.72 54.36 53.47 53.41 57.58 56.64 56.32 59.84 60.93 66.59 67.30 67.65 67.54 68.00 68.41 69.38 70.50 70.55 70.51 70.35 69.97 69.61 70.10 69.40 69.91 70.65 69.95 68.90 69.22 69.45 68.63 67.84 66.84 66.99 66.84 66.28 65.59 65.55 65.74 65.57
59.52 53.81 49.37 43.21 40.97 44.64 45.56 49.27 51.52 50.47 52.53 54.18 55.45 53.60 58.06 61.55 61.35 64.53 67.32 67.25 66.18 66.53 67.46 68.37 69.83 70.48 70.32 69.87 69.70 69.14 69.43 69.15 68.95 69.43 69.91 69.31 68.11 68.39 68.82 68.16 66.74 66.96 66.65 66.49 66.04 65.43 64.98 64.99 65.27
56.51 50.33 43.69 41.81 43.60 44.09 46.59 52.66 52.41 50.23 50.84 52.31 53.85 52.74 55.12 60.95 63.29 64.51 66.78 66.82 64.81 65.29 67.13 68.22 69.41 70.00 69.88 69.61 69.51 69.14 69.02 68.74 68.13 67.80 68.61 68.51 68.03 68.04 67.76 66.58 66.29 66.31 66.31 66.07 65.59 64.93 64.44 64.37 64.50
51.72 49.04 41.49 40.41 44.25 45.36 45.06 50.17 52.75 51.06 50.63 52.28 54.59 54.02 54.60 61.17 63.67 64.31 66.54 65.38 65.15 64.92 66.67 67.37 66.12 67.93 68.66 68.76 68.77 68.40 68.30 67.82 67.81 67.20 66.70 67.84 68.14 67.30 66.80 66.21 66.08 66.12 66.01 65.65 65.29 64.71 64.16 63.88 64.05
49.86 48.47 43.01 43.40 44.23 44.13 47.25 49.67 48.72 50.26 51.29 50.76 54.43 53.77 56.62 60.96 63.72 64.51 65.92 65.97 65.21 65.22 65.28 65.45 66.56 66.15 65.78 66.74 66.64 66.79 66.59 67.26 67.46 67.28 66.68 66.43 66.33 66.93 66.67 66.22 65.61 65.76 65.55 65.23 64.85 64.33 63.94 63.50 63.48
50.82 48.92 44.08 43.05 44.57 47.19 48.70 50.13 51.09 50.80 50.27 54.38 56.43 52.96 54.03 59.43 63.60 64.89 65.88 66.08 64.97 64.55 63.69 63.85 65.26 65.81 64.86 64.81 63.74 64.83 65.96 66.31 66.18 65.60 64.35 63.52 63.83 64.18 64.44 63.91 65.07 65.00 64.88 64.61 64.12 63.98 63.53 63.08 62.80
52.47 44.86 42.48 45.39 46.55 46.91 49.31 47.95 50.59 52.18 52.52 53.95 56.78 56.12 58.51 62.01 63.59 63.17 63.40 64.30 64.88 64.24 62.60 63.57 63.91 64.78 64.30 63.23 61.82 62.82 63.23 63.53 63.53 62.71 61.62 60.90 61.36 62.17 62.21 62.42 64.30 64.33 64.08 63.56 63.20 63.00 62.63 62.05 61.10
49.68 45.00 46.01 49.08 45.17 44.61 49.01 48.36 49.64 49.34 50.87 51.88 56.76 59.92 61.09 61.72 62.33 61.48 61.23 61.65 63.38 63.53 61.98 63.13 62.24 64.03 64.02 64.15 62.34 62.31 61.84 60.91 60.75 60.97 60.95 61.33 61.35 61.36 61.65 60.38 62.15 63.15 62.64 63.26 62.66 62.21 61.79 59.86 58.07
49.74 47.49 49.44 47.68 47.45 46.98 48.80 48.11 49.74 48.54 47.35 52.12 54.54 58.40 59.33 60.35 61.07 61.21 61.16 60.07 60.86 63.29 64.07 61.66 61.04 63.49 62.64 62.95 62.00 61.65 61.38 60.89 60.13 60.21 60.85 60.33 60.11 59.31 58.57 57.40 58.18 57.73 58.32 57.77 59.06 58.53 58.04 57.98 57.98
46.73 50.96 49.57 48.96 48.05 47.18 45.82 48.32 47.89 48.28 48.20 52.25 59.14 59.87 59.87 60.58 60.64 60.94 60.67 59.65 59.83 62.35 63.58 62.21 60.68 61.04 60.50 62.54 61.56 60.84 60.94 61.27 60.80 61.19 60.82 58.75 57.85 57.91 57.13 56.21 56.16 56.31 57.05 57.36 57.16 57.31 57.91 57.86 58.60
49.40 50.79 47.44 48.45 48.95 46.67 47.56 46.40 46.79 47.07 48.05 55.30 59.85 58.80 58.61 60.25 60.87 61.69 59.93 60.34 59.99 60.18 62.19 64.25 60.13 60.08 60.58 60.35 61.01 60.22 59.39 60.55 61.04 61.22 61.12 60.24 58.97 57.99 57.58 57.57 57.22 57.16 57.27 57.01 57.03 57.33 57.82 58.10 58.47
51.04 51.52 47.63 48.13 47.62 45.83 45.88 46.32 45.79 47.48 52.27 57.64 58.09 57.11 58.21 59.28 60.41 59.90 60.00 59.50 59.81 60.89 60.97 64.32 60.97 60.11 60.33 59.75 59.50 59.33 58.92 59.66 60.36 60.90 60.76 60.72 59.42 58.56 58.05 57.53 57.96 57.78 58.14 58.13 57.94 57.69 57.66 57.71 57.88
51.31 47.29 46.63 46.64 47.03 44.60 45.66 44.50 43.25 48.61 50.53 55.87 56.11 56.51 57.52 58.58 59.97 59.82 60.72 59.11 59.77 60.92 60.87 63.67 63.67 61.34 60.08 59.72 59.09 58.85 58.94 59.20 59.05 59.78 60.21 60.19 59.96 58.52 58.46 58.41 58.59 58.73 58.92 58.76 58.03 57.85 57.94 57.30 57.48
47.23 46.31 42.27 46.38 45.75 45.37 44.37 42.48 48.99 49.11 47.42 51.31 53.82 54.88 57.26 58.20 59.56 59.45 60.40 58.99 59.57 60.07 59.46 63.40 64.33 63.88 61.45 60.70 60.85 58.98 59.08 58.83 58.76 59.72 60.08 60.52 60.69 60.02 58.96 58.96 59.11 59.51 58.92 58.40 57.65 57.54 56.86 56.31 56.14
43.68 38.82 41.43 43.26 45.03 41.90 43.16 42.75 47.61 48.28 47.63 46.71 49.90 53.63 56.60 57.73 58.85 59.06 60.18 59.87 59.18 59.25 59.80 61.28 62.87 63.40 63.00 61.21 60.86 60.68 58.82 59.19 59.81 60.41 61.02 60.64 60.85 60.15 58.96 59.45 59.52 59.39 58.55 57.89 57.81 57.06 56.33 55.80 56.50
38.59 41.52 41.38 42.00 43.29 41.47 39.80 39.90 44.07 44.92 45.18 45.69 45.89 48.97 54.47 56.62 58.13 60.01 60.70 60.63 59.69 58.16 60.06 60.73 61.66 62.51 63.64 62.38 60.42 60.30 60.08 58.59 58.98 60.29 61.44 60.94 60.86 60.30 59.00 59.40 59.70 59.50 58.48 57.92 57.48 56.34 56.67 56.89 56.98
43.72 42.84 42.57 43.19 44.99 40.61 40.05 39.48 42.76 44.65 42.30 42.51 44.08 44.51 49.31 54.92 58.73 60.18 60.94 60.24 59.95 57.66 58.97 60.13 60.65 61.35 62.38 61.84 59.91 59.82 59.87 59.36 58.39 58.90 60.69 61.45 60.68 60.35 59.53 59.48 59.55 59.40 58.57 58.06 57.53 56.27 55.68 55.82 58.30
44.35 43.79 41.72 43.32 43.82 41.90 40.52 40.38 42.93 44.96 44.21 43.17 43.91 44.15 44.76 51.72 53.22 58.06 59.46 59.80 60.32 58.73 57.43 59.27 60.30 61.19 61.91 61.94 61.55 60.77 60.29 59.70 60.41 60.47 60.50 61.45 61.09 61.09 60.44 59.58 59.27 60.01 59.16 58.00 57.24 56.18 54.74 55.38 58.14
46.40 44.00 43.22 41.06 42.01 41.94 39.39 39.41 41.48 45.34 47.80 48.16 46.50 46.15 46.45 46.50 52.86 54.75 57.68 59.27 60.66 58.38 56.33 57.80 59.61 60.60 61.82 61.90 61.37 58.98 58.48 58.75 58.87 59.33 59.97 60.92 61.90 61.57 60.96 60.13 59.87 59.08 59.28 58.41 57.96 57.59 55.78 54.75 56.87
42.42 48.19 47.51 41.27 41.17 36.49 41.33 34.08 38.98 44.56 45.64 47.76 49.79 47.71 47.28 46.21 49.20 54.86 57.15 58.44 59.91 60.29 58.48 57.14 59.30 60.09 60.86 61.13 60.11 59.53 58.70 58.28 60.05 60.36 60.60 60.49 61.78 61.86 61.32 60.60 60.14 59.66 59.44 57.97 58.02 59.05 57.79 56.95 55.58
44.93 44.54 41.97 41.27 35.78 35.21 33.66 32.45 35.79 40.40 42.42 46.15 48.61 49.37 47.51 46.18 46.29 49.85 56.00 58.13 59.76 60.95 59.47 58.13 57.40 59.06 60.00 59.96 60.28 59.53 59.03 59.49 59.90 60.27 59.52 60.16 61.58 62.20 61.76 61.14 60.05 59.44 59.12 58.96 58.28 58.17 57.86 58.50 56.51
42.08 41.18 40.46 38.52 37.57 32.67 34.41 34.79 34.00 38.19 41.62 43.44 46.20 48.63 49.35 47.17 46.39 46.17 52.42 57.21 58.25 60.04 60.67 60.06 58.56 57.26 58.51 59.13 59.57 59.16 58.69 58.46 58.56 59.57 59.59 60.20 61.25 61.91 62.01 61.60 60.90 60.12 59.60 58.93 58.44 58.39 57.57 57.89 58.38
41.70 40.92 31.96 31.02 31.40 30.91 33.52 32.15 38.28 41.40 43.20 43.68 44.15 44.83 46.95 48.08 47.35 47.23 46.28 51.93 55.56 57.54 59.77 60.47 60.43 59.30 58.02 58.05 58.57 58.79 58.61 58.73 59.32 59.81 60.33 60.35 60.98 61.55 61.85 61.26 60.81 60.32 60.07 59.51 58.93 57.97 58.01 57.47 56.93
39.92 41.27 33.80 26.58 26.64 27.78 29.00 29.87 35.47 42.91 45.79 43.95 43.48 42.60 43.42 42.58 45.82 46.47 47.55 48.37 54.43 56.20 59.12 60.20 60.23 60.83 61.32 59.86 58.41 58.75 59.18 59.77 60.30 60.89 61.05 61.13 61.65 62.03 62.41 62.00 61.43 60.79 60.16 59.72 58.79 58.05 57.73 57.20 57.02
38.03 37.05 39.00 28.32 19.53 25.03 28.42 32.56 38.38 41.21 41.23 40.14 39.65 39.80 41.13 41.13 42.11 45.21 44.47 44.96 49.22 52.17 54.80 58.26 59.56 60.45 60.54 61.35 61.72 60.33 59.53 59.97 60.96 61.49 61.70 61.78 61.93 62.23 61.67 61.45 60.79 60.26 59.48 57.92 57.08 57.12 55.18 54.36 53.74
41.95 41.64 34.29 32.47 21.13 20.30 26.24 27.13 31.86 35.58 38.73 40.52 39.58 39.66 40.50 40.89 41.07 41.85 43.32 43.91 44.14 48.55 52.68 54.08 56.03 57.12 58.45 57.95 60.06 61.73 61.63 61.65 61.81 61.66 61.22 61.55 61.38 60.99 60.07 59.46 59.49 56.73 56.38 55.60 55.18 54.62 51.72 52.13 46.97
37.02 37.46 36.64 35.08 30.65 24.22 23.04 27.81 36.18 38.78 38.84 39.57 39.92 40.14 40.94 40.20 39.85 40.61 41.40 41.71 42.14 42.55 43.52 46.09 48.66 52.12 53.26 55.10 55.58 56.64 58.34 59.31 59.80 61.49 61.08 60.65 59.19 59.53 59.80 59.58 58.57 56.81 55.04 53.29 53.60 51.94 49.28 49.33 44.81
39.60 40.17 38.04 34.29 29.05 29.52 28.54 29.05 38.43 38.50 38.49 39.26 38.95 39.11 38.80 39.12 39.65 39.88 40.75 40.64 41.12 41.47 41.52 41.86 42.78 44.00 45.97 47.93 51.18 52.98 54.09 55.37 56.57 58.95 59.55 57.48 58.71 56.22 57.41 56.25 54.99 53.82 52.79 51.66 51.59 49.28 48.44 48.14 44.95

GFSSGP_sfc_wetblb_126.txt.gz
Wetbulb
63.16 62.21 54.35 52.58 45.33 42.60 39.38 43.43 46.97 47.93 48.88 52.56 54.58 55.22 54.65 55.53 53.29 48.99 63.51 65.50 67.27 68.03 69.40 69.83 71.37 71.74 71.46 71.28 71.28 71.09 71.27 71.40 70.79 70.27 69.94 69.30 68.61 67.86 68.09 67.71 68.27 67.37 67.41 67.47 67.47 67.62 67.34 67.24 67.13
60.32 61.90 53.04 47.40 41.42 37.82 39.98 44.73 46.61 48.86 52.32 55.51 56.05 55.35 54.96 53.18 58.78 62.42 63.34 66.96 67.63 68.44 68.35 68.28 69.94 71.15 71.18 71.03 71.10 70.89 70.97 71.25 71.02 70.03 69.83 69.19 69.75 68.28 67.54 67.01 67.04 66.89 66.84 66.80 66.74 66.79 66.92 66.83 67.61
61.32 59.94 48.89 44.59 39.37 38.43 40.74 46.03 48.44 50.83 52.64 53.07 53.89 56.93 56.15 55.81 60.14 62.05 65.84 66.57 67.83 67.36 67.13 68.02 69.55 70.74 70.85 70.84 70.55 70.49 70.05 70.59 70.56 70.69 69.51 69.65 68.74 67.67 67.31 66.92 66.78 66.67 66.30 66.00 66.32 66.80 66.39 66.69 67.29
57.99 53.74 49.34 43.00 39.12 43.02 44.34 48.32 50.34 50.24 50.76 54.61 54.93 53.15 57.80 61.06 60.72 64.42 66.59 67.32 66.39 66.31 67.13 68.42 69.75 70.43 70.13 69.92 69.88 69.88 69.73 70.27 70.54 70.34 69.31 68.84 68.30 67.62 67.31 66.72 66.64 66.54 66.13 65.92 65.71 65.81 66.09 66.21 66.93
56.46 49.90 43.22 42.80 41.90 43.78 47.62 50.35 51.03 49.57 50.29 51.37 54.09 52.18 54.22 60.88 64.91 65.68 65.81 65.96 64.98 65.34 66.56 68.20 69.25 69.55 69.76 69.29 69.65 69.41 69.24 69.21 69.48 69.39 69.19 68.11 68.60 67.32 66.59 66.22 66.22 66.16 65.90 65.32 65.20 65.18 65.01 65.32 65.80
51.93 48.22 40.70 40.52 43.59 44.79 47.20 51.53 50.46 48.74 49.69 53.45 53.82 53.95 54.70 61.57 64.45 65.48 65.63 64.70 65.39 65.77 66.69 67.58 66.67 67.66 68.54 68.98 68.92 68.71 68.43 68.27 68.44 68.46 68.29 68.07 67.76 66.88 66.18 65.89 66.19 65.99 65.70 65.20 64.72 64.41 64.41 64.67 64.89
50.42 46.95 41.83 43.01 42.53 43.52 45.59 50.16 49.46 49.77 50.30 49.67 56.38 53.34 53.95 57.24 64.14 65.57 64.72 63.86 64.84 65.44 65.25 65.67 66.51 66.00 65.55 66.68 66.83 67.37 67.57 67.36 67.15 67.08 67.67 67.53 67.08 66.92 66.23 66.18 65.77 65.65 65.34 64.98 64.43 63.88 64.03 64.20 64.17
49.85 48.09 44.88 42.11 43.43 44.69 46.74 49.02 49.42 50.59 49.48 54.21 57.65 51.73 52.63 57.87 64.18 65.31 64.32 63.96 63.42 63.55 64.30 64.66 64.76 64.68 64.21 63.61 63.19 64.04 65.64 66.36 66.10 65.47 64.09 63.61 64.38 64.98 64.62 63.85 65.42 65.27 64.93 64.41 64.08 63.73 63.74 63.53 63.26
53.67 44.78 42.47 44.62 45.31 45.90 47.41 46.85 49.27 51.42 51.81 54.88 57.29 55.91 57.10 60.54 64.56 64.07 63.37 62.95 62.20 62.27 63.29 64.00 63.74 63.39 63.10 62.79 61.34 62.44 63.65 63.85 63.46 62.42 61.29 60.50 60.89 61.41 61.38 62.27 64.11 64.57 64.46 63.59 63.38 62.77 62.20 61.42 60.43
51.62 45.24 45.25 48.52 44.19 42.94 47.08 46.90 49.24 49.43 50.39 52.19 55.41 58.34 59.67 60.90 62.14 62.14 62.40 61.56 60.91 59.93 61.56 63.54 63.15 62.60 62.34 63.57 61.96 61.28 61.70 61.28 60.58 60.00 59.77 60.34 60.51 60.48 60.96 59.87 62.01 62.97 62.80 63.52 63.04 62.39 61.73 59.39 57.49
49.61 47.71 49.83 49.79 47.36 45.71 45.07 46.16 48.21 49.16 46.90 51.71 53.10 56.30 58.83 59.14 59.47 61.42 62.00 62.58 61.31 60.91 61.54 62.62 62.82 62.87 61.68 61.71 61.14 60.36 59.51 58.87 59.36 59.46 59.91 59.98 59.91 58.87 58.03 57.37 58.17 57.42 57.54 56.95 58.05 57.75 57.18 57.28 57.15
47.79 52.05 52.30 51.11 48.89 45.51 44.51 45.91 46.16 47.69 48.87 51.58 56.73 58.73 59.16 59.18 59.38 60.13 61.36 61.07 60.96 61.13 61.10 61.54 62.26 62.92 61.59 61.35 60.62 60.25 59.77 59.18 58.75 59.27 60.15 58.55 57.67 56.57 56.09 55.41 55.37 55.49 56.64 56.46 56.36 56.59 56.90 56.88 57.58
47.49 51.27 49.39 51.89 49.57 45.59 45.63 44.62 45.57 46.52 47.46 55.54 59.05 58.94 58.74 59.49 59.43 59.55 60.44 60.99 60.88 61.54 61.51 60.14 61.26 61.46 61.56 61.12 59.83 59.65 59.65 60.10 59.65 60.12 60.07 58.68 57.21 56.63 56.21 55.75 56.09 55.85 56.15 55.79 56.32 56.44 57.29 57.31 57.57
51.14 51.39 50.44 49.63 48.11 47.86 43.47 43.87 43.61 45.57 55.19 56.89 57.98 57.66 58.60 58.87 59.66 59.78 59.28 59.69 59.79 61.65 61.44 60.78 60.36 60.58 60.18 60.65 59.63 58.94 59.08 60.18 59.94 59.99 59.71 58.76 58.31 57.29 56.75 56.45 56.42 56.64 56.58 57.01 56.79 56.82 56.88 57.00 57.12
50.53 48.58 46.76 48.45 49.56 48.30 45.83 46.80 42.14 46.08 55.32 55.67 55.75 55.77 57.47 58.34 58.98 60.22 60.07 59.69 60.24 61.10 61.94 62.31 59.29 59.72 59.41 59.99 60.10 59.18 58.91 59.57 59.54 60.10 60.16 59.89 59.28 57.78 57.27 56.30 56.81 57.08 57.60 57.41 57.31 56.87 56.84 56.72 56.75
46.81 45.81 42.04 46.12 46.72 47.60 49.26 44.24 48.13 47.13 53.70 53.53 53.66 53.70 56.07 56.82 58.75 60.01 60.45 59.85 60.32 60.62 60.71 62.37 61.58 59.94 59.42 58.87 58.92 59.28 59.07 58.75 59.22 60.28 60.50 59.73 59.56 58.49 57.39 57.36 57.60 58.12 57.86 57.54 56.68 56.27 55.87 55.49 55.29
42.93 37.72 40.84 43.38 46.10 43.57 44.80 45.33 50.87 49.69 48.45 51.98 52.93 53.87 55.21 56.15 57.02 59.27 60.10 60.62 59.72 60.21 60.17 61.57 62.22 60.52 59.79 59.66 59.76 58.41 58.79 58.58 58.45 59.46 59.79 59.81 59.98 59.10 57.99 58.02 58.42 58.39 57.76 56.79 56.52 55.95 55.16 54.82 54.96
36.19 40.14 40.44 41.36 43.96 40.41 38.25 40.36 44.72 44.77 43.94 45.72 52.00 53.54 54.64 55.65 56.81 59.11 59.63 60.21 59.24 59.86 59.79 61.68 62.96 62.04 60.91 60.55 59.63 58.88 58.01 57.39 58.27 59.18 59.91 59.98 60.14 59.72 58.72 58.90 58.61 58.44 57.29 56.55 56.21 55.49 55.61 55.19 55.06
42.73 41.01 39.85 41.60 44.55 42.09 41.47 42.53 43.27 44.57 41.64 41.74 43.89 48.35 52.73 55.39 58.09 59.07 60.06 59.37 58.06 58.21 58.64 60.43 62.12 62.29 61.71 61.08 59.25 58.17 58.46 57.93 56.90 58.64 59.98 60.33 60.22 59.66 58.80 58.80 59.05 58.88 57.94 57.30 56.67 55.39 54.66 54.51 55.93
41.37 40.10 40.28 42.53 44.09 43.59 40.42 41.11 43.39 43.00 44.18 42.02 43.03 43.69 46.74 52.72 55.21 57.66 59.13 58.78 58.23 56.91 58.37 59.02 61.05 61.84 62.34 62.21 62.29 59.69 58.79 58.07 57.96 57.91 58.99 60.71 60.15 59.82 59.73 58.93 58.93 59.23 58.55 57.40 56.59 55.63 53.99 54.13 55.41
42.77 41.02 40.59 41.04 40.83 43.24 39.06 38.23 40.10 43.83 45.55 45.58 43.82 44.31 45.47 46.86 52.71 55.70 57.82 58.51 59.08 57.34 57.38 58.71 59.76 60.84 62.06 62.32 62.01 60.61 57.80 57.44 57.53 57.58 58.43 59.45 60.80 60.44 60.23 59.66 59.42 58.91 58.88 57.74 57.01 56.09 54.75 53.82 54.41
40.11 45.71 44.40 41.07 39.51 35.66 41.09 33.51 38.35 42.58 44.37 45.51 47.39 47.01 45.36 44.55 49.41 54.44 57.09 58.12 58.93 59.46 58.14 58.70 59.59 60.22 61.06 61.69 60.89 60.37 59.40 57.89 59.05 59.81 59.59 59.31 60.27 60.80 60.52 60.08 59.69 59.10 59.19 58.18 57.66 57.60 56.86 54.77 55.13
41.89 47.01 45.29 41.79 39.28 36.28 35.28 36.40 36.97 38.72 41.25 45.36 47.11 48.24 48.86 46.85 45.60 52.10 55.63 58.35 59.70 60.26 59.18 57.60 58.33 59.31 60.33 61.00 61.14 60.16 59.19 59.47 58.61 59.53 58.91 58.92 59.10 60.64 60.95 60.39 59.63 59.20 58.81 59.07 58.37 55.89 56.81 57.16 56.79
41.94 40.42 40.79 39.74 38.67 32.88 36.90 36.93 34.85 37.06 41.39 42.31 46.40 49.12 49.24 47.44 45.54 48.08 54.29 57.72 58.89 60.25 59.76 57.31 56.20 58.04 59.34 60.31 60.55 59.44 58.67 58.14 57.08 57.66 58.11 58.68 59.18 59.98 60.64 60.53 60.28 59.67 59.04 58.25 57.82 57.74 57.38 57.38 57.20
42.42 40.65 32.77 31.97 30.90 31.99 34.72 33.98 40.01 41.50 41.94 42.78 43.93 45.17 46.56 47.35 46.70 44.99 46.63 52.39 56.24 57.26 58.98 57.99 55.57 56.37 58.33 58.90 59.17 59.31 58.79 58.58 57.57 57.61 58.29 58.03 58.27 58.98 60.04 60.38 60.05 59.92 59.28 58.70 58.08 57.26 57.34 56.85 56.75
41.54 41.87 33.99 29.80 28.60 31.41 31.60 29.68 35.89 42.94 46.32 44.48 44.47 44.71 43.08 44.32 46.95 46.73 44.98 50.22 54.46 56.24 58.43 58.99 57.84 56.19 56.19 57.72 58.16 58.76 59.02 58.82 58.44 58.44 58.55 59.08 59.12 59.56 60.04 60.49 60.75 60.33 59.99 59.19 58.19 57.95 57.36 57.24 56.79
40.15 38.98 39.63 27.53 19.52 24.73 28.77 31.88 37.95 40.63 40.17 40.48 39.90 38.74 40.00 41.11 42.01 45.24 45.95 44.83 51.27 54.13 57.04 58.81 59.17 58.79 58.21 56.28 57.18 57.57 58.16 58.08 57.91 58.27 59.07 59.50 60.29 60.73 60.56 60.57 60.89 61.03 60.32 59.29 58.73 58.26 57.30 56.89 57.08
41.30 42.69 34.60 33.50 24.26 21.15 26.66 27.12 32.50 36.62 38.50 39.97 39.48 39.57 39.63 39.57 40.30 41.72 43.49 43.06 45.56 51.35 54.63 57.25 59.19 59.29 59.71 59.64 58.37 57.50 57.37 57.80 58.22 58.69 58.66 59.70 60.43 60.25 59.64 59.71 60.12 60.82 60.31 59.91 58.88 58.64 57.66 55.99 56.03
38.61 38.54 37.99 35.31 31.97 25.19 22.28 27.20 35.60 39.99 38.73 40.46 40.38 40.22 39.41 39.54 39.99 40.55 40.35 40.71 42.07 43.10 47.50 51.43 53.33 54.72 55.33 56.58 59.65 60.22 60.00 58.93 58.18 58.40 59.37 60.14 60.37 59.79 59.90 59.33 59.83 59.78 59.68 58.79 57.73 57.61 56.71 53.34 55.05
38.80 41.23 40.37 36.27 29.31 28.45 28.04 28.89 37.14 38.12 39.03 39.01 38.99 39.16 38.94 39.16 38.61 38.39 39.23 39.99 40.08 40.32 40.50 42.57 46.88 50.72 53.17 53.75 54.38 56.50 57.62 55.99 57.78 59.64 60.09 59.19 58.86 57.02 59.24 59.68 59.53 59.35 58.82 57.53 56.13 55.75 53.98 53.24 52.76